<?xml version="1.0" encoding="UTF-8" standalone="no" ?>
<gpx xmlns="http://www.topografix.com/GPX/1/1" xmlns:xsi="http://www.w3.org/2001/XMLSchema-instance" xsi:schemaLocation="http://www.topografix.com/GPX/1/1 http://www.topografix.com/GPX/1/1/gpx.xsd" version="1.1" creator="VisuGPX - https://www.visugpx.com">
  <metadata>
    <name>Tour du Saleve en vélo</name>
    <desc><![CDATA[tour du saleve]]></desc>
  </metadata>
  <trk>
    <name><![CDATA[Untitled]]></name>
    <trkseg>
      <trkpt lat="46.1311" lon="6.08267">
        <ele>449</ele>
        <time>2012-11-12T12:36:14.000Z</time>
      </trkpt>
      <trkpt lat="46.13107" lon="6.08263">
        <ele>449</ele>
        <time>2012-11-12T12:36:19.000Z</time>
      </trkpt>
      <trkpt lat="46.1309" lon="6.08247">
        <ele>449</ele>
        <time>2012-11-12T12:36:24.000Z</time>
      </trkpt>
      <trkpt lat="46.13086" lon="6.08242">
        <ele>449</ele>
        <time>2012-11-12T12:36:25.000Z</time>
      </trkpt>
      <trkpt lat="46.1308" lon="6.08231">
        <ele>449</ele>
        <time>2012-11-12T12:36:28.000Z</time>
      </trkpt>
      <trkpt lat="46.13074" lon="6.0822">
        <ele>447</ele>
        <time>2012-11-12T12:36:29.000Z</time>
      </trkpt>
      <trkpt lat="46.13065" lon="6.08201">
        <ele>447</ele>
        <time>2012-11-12T12:36:33.000Z</time>
      </trkpt>
      <trkpt lat="46.13064" lon="6.08197">
        <ele>445.60000610352</ele>
        <time>2012-11-12T12:36:34.000Z</time>
      </trkpt>
      <trkpt lat="46.13056" lon="6.08183">
        <ele>444.20001220703</ele>
        <time>2012-11-12T12:36:37.000Z</time>
      </trkpt>
      <trkpt lat="46.13054" lon="6.08178">
        <ele>444.20001220703</ele>
        <time>2012-11-12T12:36:38.000Z</time>
      </trkpt>
      <trkpt lat="46.13052" lon="6.08175">
        <ele>443.20001220703</ele>
        <time>2012-11-12T12:36:39.000Z</time>
      </trkpt>
      <trkpt lat="46.13043" lon="6.08162">
        <ele>442.20001220703</ele>
        <time>2012-11-12T12:36:43.000Z</time>
      </trkpt>
      <trkpt lat="46.13041" lon="6.08159">
        <ele>442.20001220703</ele>
        <time>2012-11-12T12:36:44.000Z</time>
      </trkpt>
      <trkpt lat="46.13037" lon="6.08151">
        <ele>441</ele>
        <time>2012-11-12T12:36:46.000Z</time>
      </trkpt>
      <trkpt lat="46.13034" lon="6.08142">
        <ele>439.60000610352</ele>
        <time>2012-11-12T12:36:48.000Z</time>
      </trkpt>
      <trkpt lat="46.13032" lon="6.08137">
        <ele>439.60000610352</ele>
        <time>2012-11-12T12:36:49.000Z</time>
      </trkpt>
      <trkpt lat="46.13028" lon="6.08127">
        <ele>438.60000610352</ele>
        <time>2012-11-12T12:36:51.000Z</time>
      </trkpt>
      <trkpt lat="46.13026" lon="6.08116">
        <ele>437.60000610352</ele>
        <time>2012-11-12T12:36:53.000Z</time>
      </trkpt>
      <trkpt lat="46.13023" lon="6.08106">
        <ele>436.60000610352</ele>
        <time>2012-11-12T12:36:55.000Z</time>
      </trkpt>
      <trkpt lat="46.1302" lon="6.0809">
        <ele>435.20001220703</ele>
        <time>2012-11-12T12:36:58.000Z</time>
      </trkpt>
      <trkpt lat="46.13016" lon="6.08071">
        <ele>434.20001220703</ele>
        <time>2012-11-12T12:37:01.000Z</time>
      </trkpt>
      <trkpt lat="46.13015" lon="6.08065">
        <ele>434.20001220703</ele>
        <time>2012-11-12T12:37:02.000Z</time>
      </trkpt>
      <trkpt lat="46.13014" lon="6.08057">
        <ele>433.20001220703</ele>
        <time>2012-11-12T12:37:03.000Z</time>
      </trkpt>
      <trkpt lat="46.13016" lon="6.08043">
        <ele>431.60000610352</ele>
        <time>2012-11-12T12:37:05.000Z</time>
      </trkpt>
      <trkpt lat="46.13019" lon="6.08036">
        <ele>430.60000610352</ele>
        <time>2012-11-12T12:37:06.000Z</time>
      </trkpt>
      <trkpt lat="46.13028" lon="6.08022">
        <ele>429</ele>
        <time>2012-11-12T12:37:08.000Z</time>
      </trkpt>
      <trkpt lat="46.13033" lon="6.08015">
        <ele>429</ele>
        <time>2012-11-12T12:37:09.000Z</time>
      </trkpt>
      <trkpt lat="46.13039" lon="6.08008">
        <ele>428</ele>
        <time>2012-11-12T12:37:10.000Z</time>
      </trkpt>
      <trkpt lat="46.13045" lon="6.08001">
        <ele>426.60000610352</ele>
        <time>2012-11-12T12:37:11.000Z</time>
      </trkpt>
      <trkpt lat="46.1305" lon="6.07994">
        <ele>425.20001220703</ele>
        <time>2012-11-12T12:37:12.000Z</time>
      </trkpt>
      <trkpt lat="46.13057" lon="6.07986">
        <ele>424</ele>
        <time>2012-11-12T12:37:13.000Z</time>
      </trkpt>
      <trkpt lat="46.13062" lon="6.07978">
        <ele>423</ele>
        <time>2012-11-12T12:37:14.000Z</time>
      </trkpt>
      <trkpt lat="46.13074" lon="6.07963">
        <ele>421.60000610352</ele>
        <time>2012-11-12T12:37:16.000Z</time>
      </trkpt>
      <trkpt lat="46.13085" lon="6.07949">
        <ele>420.60000610352</ele>
        <time>2012-11-12T12:37:18.000Z</time>
      </trkpt>
      <trkpt lat="46.13094" lon="6.07932">
        <ele>419.60000610352</ele>
        <time>2012-11-12T12:37:21.000Z</time>
      </trkpt>
      <trkpt lat="46.13095" lon="6.07912">
        <ele>419.60000610352</ele>
        <time>2012-11-12T12:37:24.000Z</time>
      </trkpt>
      <trkpt lat="46.13094" lon="6.07908">
        <ele>418.60000610352</ele>
        <time>2012-11-12T12:37:25.000Z</time>
      </trkpt>
      <trkpt lat="46.1309" lon="6.07901">
        <ele>418.60000610352</ele>
        <time>2012-11-12T12:37:28.000Z</time>
      </trkpt>
      <trkpt lat="46.13087" lon="6.07899">
        <ele>418.60000610352</ele>
        <time>2012-11-12T12:37:29.000Z</time>
      </trkpt>
      <trkpt lat="46.13078" lon="6.07898">
        <ele>418.60000610352</ele>
        <time>2012-11-12T12:37:32.000Z</time>
      </trkpt>
      <trkpt lat="46.13057" lon="6.07903">
        <ele>418.60000610352</ele>
        <time>2012-11-12T12:37:37.000Z</time>
      </trkpt>
      <trkpt lat="46.13053" lon="6.07902">
        <ele>418.60000610352</ele>
        <time>2012-11-12T12:37:38.000Z</time>
      </trkpt>
      <trkpt lat="46.13041" lon="6.07896">
        <ele>421.60000610352</ele>
        <time>2012-11-12T12:37:41.000Z</time>
      </trkpt>
      <trkpt lat="46.13033" lon="6.07889">
        <ele>421.60000610352</ele>
        <time>2012-11-12T12:37:43.000Z</time>
      </trkpt>
      <trkpt lat="46.1303" lon="6.07886">
        <ele>422.60000610352</ele>
        <time>2012-11-12T12:37:44.000Z</time>
      </trkpt>
      <trkpt lat="46.13012" lon="6.07869">
        <ele>424</ele>
        <time>2012-11-12T12:37:49.000Z</time>
      </trkpt>
      <trkpt lat="46.13007" lon="6.07867">
        <ele>424</ele>
        <time>2012-11-12T12:37:50.000Z</time>
      </trkpt>
      <trkpt lat="46.13003" lon="6.07866">
        <ele>425</ele>
        <time>2012-11-12T12:37:52.000Z</time>
      </trkpt>
      <trkpt lat="46.12986" lon="6.07871">
        <ele>426</ele>
        <time>2012-11-12T12:37:55.000Z</time>
      </trkpt>
      <trkpt lat="46.12982" lon="6.07873">
        <ele>426</ele>
        <time>2012-11-12T12:37:56.000Z</time>
      </trkpt>
      <trkpt lat="46.12975" lon="6.07879">
        <ele>427</ele>
        <time>2012-11-12T12:37:58.000Z</time>
      </trkpt>
      <trkpt lat="46.12964" lon="6.07886">
        <ele>428.20001220703</ele>
        <time>2012-11-12T12:38:01.000Z</time>
      </trkpt>
      <trkpt lat="46.12956" lon="6.07889">
        <ele>429.20001220703</ele>
        <time>2012-11-12T12:38:03.000Z</time>
      </trkpt>
      <trkpt lat="46.12953" lon="6.0789">
        <ele>429.20001220703</ele>
        <time>2012-11-12T12:38:04.000Z</time>
      </trkpt>
      <trkpt lat="46.12949" lon="6.07891">
        <ele>430.20001220703</ele>
        <time>2012-11-12T12:38:05.000Z</time>
      </trkpt>
      <trkpt lat="46.12934" lon="6.07895">
        <ele>431.60000610352</ele>
        <time>2012-11-12T12:38:09.000Z</time>
      </trkpt>
      <trkpt lat="46.1293" lon="6.07895">
        <ele>431.60000610352</ele>
        <time>2012-11-12T12:38:10.000Z</time>
      </trkpt>
      <trkpt lat="46.12926" lon="6.07896">
        <ele>432.60000610352</ele>
        <time>2012-11-12T12:38:11.000Z</time>
      </trkpt>
      <trkpt lat="46.12918" lon="6.07897">
        <ele>433.60000610352</ele>
        <time>2012-11-12T12:38:13.000Z</time>
      </trkpt>
      <trkpt lat="46.12907" lon="6.07898">
        <ele>434.60000610352</ele>
        <time>2012-11-12T12:38:16.000Z</time>
      </trkpt>
      <trkpt lat="46.129" lon="6.079">
        <ele>434.60000610352</ele>
        <time>2012-11-12T12:38:18.000Z</time>
      </trkpt>
      <trkpt lat="46.12896" lon="6.07902">
        <ele>435.60000610352</ele>
        <time>2012-11-12T12:38:19.000Z</time>
      </trkpt>
      <trkpt lat="46.12881" lon="6.0791">
        <ele>437</ele>
        <time>2012-11-12T12:38:23.000Z</time>
      </trkpt>
      <trkpt lat="46.12875" lon="6.07915">
        <ele>437</ele>
        <time>2012-11-12T12:38:25.000Z</time>
      </trkpt>
      <trkpt lat="46.12871" lon="6.07918">
        <ele>438</ele>
        <time>2012-11-12T12:38:26.000Z</time>
      </trkpt>
      <trkpt lat="46.12861" lon="6.07928">
        <ele>439</ele>
        <time>2012-11-12T12:38:29.000Z</time>
      </trkpt>
      <trkpt lat="46.12851" lon="6.07937">
        <ele>440.20001220703</ele>
        <time>2012-11-12T12:38:32.000Z</time>
      </trkpt>
      <trkpt lat="46.12848" lon="6.0794">
        <ele>440.20001220703</ele>
        <time>2012-11-12T12:38:33.000Z</time>
      </trkpt>
      <trkpt lat="46.12844" lon="6.07943">
        <ele>441.20001220703</ele>
        <time>2012-11-12T12:38:34.000Z</time>
      </trkpt>
      <trkpt lat="46.12835" lon="6.07952">
        <ele>442.20001220703</ele>
        <time>2012-11-12T12:38:37.000Z</time>
      </trkpt>
      <trkpt lat="46.12825" lon="6.0796">
        <ele>442.20001220703</ele>
        <time>2012-11-12T12:38:40.000Z</time>
      </trkpt>
      <trkpt lat="46.12821" lon="6.07963">
        <ele>443.20001220703</ele>
        <time>2012-11-12T12:38:41.000Z</time>
      </trkpt>
      <trkpt lat="46.12815" lon="6.07969">
        <ele>444.20001220703</ele>
        <time>2012-11-12T12:38:43.000Z</time>
      </trkpt>
      <trkpt lat="46.12801" lon="6.0798">
        <ele>445.20001220703</ele>
        <time>2012-11-12T12:38:47.000Z</time>
      </trkpt>
      <trkpt lat="46.12791" lon="6.0799">
        <ele>446.60000610352</ele>
        <time>2012-11-12T12:38:50.000Z</time>
      </trkpt>
      <trkpt lat="46.12784" lon="6.07996">
        <ele>446.60000610352</ele>
        <time>2012-11-12T12:38:52.000Z</time>
      </trkpt>
      <trkpt lat="46.1278" lon="6.07999">
        <ele>447.60000610352</ele>
        <time>2012-11-12T12:38:53.000Z</time>
      </trkpt>
      <trkpt lat="46.1277" lon="6.08009">
        <ele>448.60000610352</ele>
        <time>2012-11-12T12:38:56.000Z</time>
      </trkpt>
      <trkpt lat="46.12767" lon="6.08011">
        <ele>448.60000610352</ele>
        <time>2012-11-12T12:38:57.000Z</time>
      </trkpt>
      <trkpt lat="46.12759" lon="6.08019">
        <ele>449.60000610352</ele>
        <time>2012-11-12T12:38:59.000Z</time>
      </trkpt>
      <trkpt lat="46.12749" lon="6.08027">
        <ele>451</ele>
        <time>2012-11-12T12:39:02.000Z</time>
      </trkpt>
      <trkpt lat="46.12742" lon="6.08033">
        <ele>452</ele>
        <time>2012-11-12T12:39:04.000Z</time>
      </trkpt>
      <trkpt lat="46.12735" lon="6.08039">
        <ele>452</ele>
        <time>2012-11-12T12:39:06.000Z</time>
      </trkpt>
      <trkpt lat="46.12732" lon="6.08042">
        <ele>453</ele>
        <time>2012-11-12T12:39:07.000Z</time>
      </trkpt>
      <trkpt lat="46.12721" lon="6.08051">
        <ele>454</ele>
        <time>2012-11-12T12:39:10.000Z</time>
      </trkpt>
      <trkpt lat="46.12704" lon="6.08065">
        <ele>455.20001220703</ele>
        <time>2012-11-12T12:39:15.000Z</time>
      </trkpt>
      <trkpt lat="46.127" lon="6.08069">
        <ele>455.20001220703</ele>
        <time>2012-11-12T12:39:16.000Z</time>
      </trkpt>
      <trkpt lat="46.12689" lon="6.08078">
        <ele>456.20001220703</ele>
        <time>2012-11-12T12:39:19.000Z</time>
      </trkpt>
      <trkpt lat="46.12659" lon="6.081">
        <ele>457.20001220703</ele>
        <time>2012-11-12T12:39:27.000Z</time>
      </trkpt>
      <trkpt lat="46.12636" lon="6.0811">
        <ele>458.20001220703</ele>
        <time>2012-11-12T12:39:32.000Z</time>
      </trkpt>
      <trkpt lat="46.12626" lon="6.08113">
        <ele>458.20001220703</ele>
        <time>2012-11-12T12:39:34.000Z</time>
      </trkpt>
      <trkpt lat="46.126" lon="6.08118">
        <ele>459.20001220703</ele>
        <time>2012-11-12T12:39:39.000Z</time>
      </trkpt>
      <trkpt lat="46.12585" lon="6.08118">
        <ele>459.20001220703</ele>
        <time>2012-11-12T12:39:42.000Z</time>
      </trkpt>
      <trkpt lat="46.12575" lon="6.08118">
        <ele>460.60000610352</ele>
        <time>2012-11-12T12:39:44.000Z</time>
      </trkpt>
      <trkpt lat="46.12555" lon="6.08118">
        <ele>461.60000610352</ele>
        <time>2012-11-12T12:39:48.000Z</time>
      </trkpt>
      <trkpt lat="46.12539" lon="6.08118">
        <ele>461.60000610352</ele>
        <time>2012-11-12T12:39:53.000Z</time>
      </trkpt>
      <trkpt lat="46.12532" lon="6.08119">
        <ele>462.60000610352</ele>
        <time>2012-11-12T12:39:54.000Z</time>
      </trkpt>
      <trkpt lat="46.12485" lon="6.0812">
        <ele>462.60000610352</ele>
        <time>2012-11-12T12:40:03.000Z</time>
      </trkpt>
      <trkpt lat="46.12475" lon="6.0812">
        <ele>463.60000610352</ele>
        <time>2012-11-12T12:40:05.000Z</time>
      </trkpt>
      <trkpt lat="46.12435" lon="6.08121">
        <ele>463.60000610352</ele>
        <time>2012-11-12T12:40:13.000Z</time>
      </trkpt>
      <trkpt lat="46.12424" lon="6.08121">
        <ele>464.60000610352</ele>
        <time>2012-11-12T12:40:15.000Z</time>
      </trkpt>
      <trkpt lat="46.12385" lon="6.0812">
        <ele>465.60000610352</ele>
        <time>2012-11-12T12:40:23.000Z</time>
      </trkpt>
      <trkpt lat="46.12375" lon="6.08119">
        <ele>465.60000610352</ele>
        <time>2012-11-12T12:40:25.000Z</time>
      </trkpt>
      <trkpt lat="46.1236" lon="6.08114">
        <ele>467</ele>
        <time>2012-11-12T12:40:28.000Z</time>
      </trkpt>
      <trkpt lat="46.12355" lon="6.08112">
        <ele>467</ele>
        <time>2012-11-12T12:40:29.000Z</time>
      </trkpt>
      <trkpt lat="46.12341" lon="6.08104">
        <ele>467</ele>
        <time>2012-11-12T12:40:32.000Z</time>
      </trkpt>
      <trkpt lat="46.12331" lon="6.08099">
        <ele>468</ele>
        <time>2012-11-12T12:40:34.000Z</time>
      </trkpt>
      <trkpt lat="46.12318" lon="6.08092">
        <ele>469</ele>
        <time>2012-11-12T12:40:37.000Z</time>
      </trkpt>
      <trkpt lat="46.12308" lon="6.08086">
        <ele>469</ele>
        <time>2012-11-12T12:40:39.000Z</time>
      </trkpt>
      <trkpt lat="46.12273" lon="6.08066">
        <ele>469</ele>
        <time>2012-11-12T12:40:46.000Z</time>
      </trkpt>
      <trkpt lat="46.12269" lon="6.08064">
        <ele>470</ele>
        <time>2012-11-12T12:40:47.000Z</time>
      </trkpt>
      <trkpt lat="46.1225" lon="6.08054">
        <ele>471.20001220703</ele>
        <time>2012-11-12T12:40:51.000Z</time>
      </trkpt>
      <trkpt lat="46.12226" lon="6.08038">
        <ele>471.20001220703</ele>
        <time>2012-11-12T12:40:56.000Z</time>
      </trkpt>
      <trkpt lat="46.12217" lon="6.08031">
        <ele>472.20001220703</ele>
        <time>2012-11-12T12:40:58.000Z</time>
      </trkpt>
      <trkpt lat="46.12185" lon="6.08002">
        <ele>472.20001220703</ele>
        <time>2012-11-12T12:41:05.000Z</time>
      </trkpt>
      <trkpt lat="46.12181" lon="6.07998">
        <ele>473.20001220703</ele>
        <time>2012-11-12T12:41:06.000Z</time>
      </trkpt>
      <trkpt lat="46.12151" lon="6.07978">
        <ele>473.20001220703</ele>
        <time>2012-11-12T12:41:12.000Z</time>
      </trkpt>
      <trkpt lat="46.12129" lon="6.07969">
        <ele>474.20001220703</ele>
        <time>2012-11-12T12:41:16.000Z</time>
      </trkpt>
      <trkpt lat="46.12108" lon="6.07962">
        <ele>474.20001220703</ele>
        <time>2012-11-12T12:41:20.000Z</time>
      </trkpt>
      <trkpt lat="46.12103" lon="6.07961">
        <ele>475.20001220703</ele>
        <time>2012-11-12T12:41:21.000Z</time>
      </trkpt>
      <trkpt lat="46.12071" lon="6.07954">
        <ele>475.20001220703</ele>
        <time>2012-11-12T12:41:27.000Z</time>
      </trkpt>
      <trkpt lat="46.12049" lon="6.07948">
        <ele>476.20001220703</ele>
        <time>2012-11-12T12:41:31.000Z</time>
      </trkpt>
      <trkpt lat="46.12012" lon="6.07939">
        <ele>476.20001220703</ele>
        <time>2012-11-12T12:41:38.000Z</time>
      </trkpt>
      <trkpt lat="46.12007" lon="6.07938">
        <ele>477.60000610352</ele>
        <time>2012-11-12T12:41:39.000Z</time>
      </trkpt>
      <trkpt lat="46.1198" lon="6.07932">
        <ele>478.60000610352</ele>
        <time>2012-11-12T12:41:44.000Z</time>
      </trkpt>
      <trkpt lat="46.11965" lon="6.07928">
        <ele>479.60000610352</ele>
        <time>2012-11-12T12:41:47.000Z</time>
      </trkpt>
      <trkpt lat="46.11938" lon="6.07922">
        <ele>479.60000610352</ele>
        <time>2012-11-12T12:41:52.000Z</time>
      </trkpt>
      <trkpt lat="46.11913" lon="6.07916">
        <ele>480.60000610352</ele>
        <time>2012-11-12T12:41:57.000Z</time>
      </trkpt>
      <trkpt lat="46.11875" lon="6.07907">
        <ele>480.60000610352</ele>
        <time>2012-11-12T12:42:04.000Z</time>
      </trkpt>
      <trkpt lat="46.11859" lon="6.07903">
        <ele>481.60000610352</ele>
        <time>2012-11-12T12:42:07.000Z</time>
      </trkpt>
      <trkpt lat="46.11838" lon="6.07899">
        <ele>483</ele>
        <time>2012-11-12T12:42:11.000Z</time>
      </trkpt>
      <trkpt lat="46.11833" lon="6.07899">
        <ele>483</ele>
        <time>2012-11-12T12:42:12.000Z</time>
      </trkpt>
      <trkpt lat="46.11817" lon="6.079">
        <ele>484.20001220703</ele>
        <time>2012-11-12T12:42:15.000Z</time>
      </trkpt>
      <trkpt lat="46.11807" lon="6.07904">
        <ele>484.20001220703</ele>
        <time>2012-11-12T12:42:17.000Z</time>
      </trkpt>
      <trkpt lat="46.11802" lon="6.07907">
        <ele>485.20001220703</ele>
        <time>2012-11-12T12:42:18.000Z</time>
      </trkpt>
      <trkpt lat="46.11779" lon="6.07924">
        <ele>485.20001220703</ele>
        <time>2012-11-12T12:42:23.000Z</time>
      </trkpt>
      <trkpt lat="46.11775" lon="6.07928">
        <ele>486.20001220703</ele>
        <time>2012-11-12T12:42:24.000Z</time>
      </trkpt>
      <trkpt lat="46.11767" lon="6.07936">
        <ele>487.20001220703</ele>
        <time>2012-11-12T12:42:26.000Z</time>
      </trkpt>
      <trkpt lat="46.11763" lon="6.07939">
        <ele>487.20001220703</ele>
        <time>2012-11-12T12:42:27.000Z</time>
      </trkpt>
      <trkpt lat="46.11737" lon="6.07961">
        <ele>487.20001220703</ele>
        <time>2012-11-12T12:42:33.000Z</time>
      </trkpt>
      <trkpt lat="46.1172" lon="6.07972">
        <ele>488.60000610352</ele>
        <time>2012-11-12T12:42:37.000Z</time>
      </trkpt>
      <trkpt lat="46.11711" lon="6.07977">
        <ele>489.60000610352</ele>
        <time>2012-11-12T12:42:39.000Z</time>
      </trkpt>
      <trkpt lat="46.11702" lon="6.07983">
        <ele>489.60000610352</ele>
        <time>2012-11-12T12:42:41.000Z</time>
      </trkpt>
      <trkpt lat="46.11698" lon="6.07985">
        <ele>490.60000610352</ele>
        <time>2012-11-12T12:42:42.000Z</time>
      </trkpt>
      <trkpt lat="46.11681" lon="6.07995">
        <ele>491.60000610352</ele>
        <time>2012-11-12T12:42:46.000Z</time>
      </trkpt>
      <trkpt lat="46.11664" lon="6.08004">
        <ele>492.60000610352</ele>
        <time>2012-11-12T12:42:50.000Z</time>
      </trkpt>
      <trkpt lat="46.11646" lon="6.08015">
        <ele>493.60000610352</ele>
        <time>2012-11-12T12:42:54.000Z</time>
      </trkpt>
      <trkpt lat="46.11628" lon="6.08024">
        <ele>494.60000610352</ele>
        <time>2012-11-12T12:42:58.000Z</time>
      </trkpt>
      <trkpt lat="46.11615" lon="6.08028">
        <ele>496</ele>
        <time>2012-11-12T12:43:01.000Z</time>
      </trkpt>
      <trkpt lat="46.116" lon="6.0803">
        <ele>497</ele>
        <time>2012-11-12T12:43:04.000Z</time>
      </trkpt>
      <trkpt lat="46.11596" lon="6.0803">
        <ele>497</ele>
        <time>2012-11-12T12:43:05.000Z</time>
      </trkpt>
      <trkpt lat="46.11578" lon="6.08029">
        <ele>498.20001220703</ele>
        <time>2012-11-12T12:43:09.000Z</time>
      </trkpt>
      <trkpt lat="46.11554" lon="6.08025">
        <ele>499.20001220703</ele>
        <time>2012-11-12T12:43:14.000Z</time>
      </trkpt>
      <trkpt lat="46.1154" lon="6.08022">
        <ele>500.60000610352</ele>
        <time>2012-11-12T12:43:17.000Z</time>
      </trkpt>
      <trkpt lat="46.11526" lon="6.0802">
        <ele>501.60000610352</ele>
        <time>2012-11-12T12:43:20.000Z</time>
      </trkpt>
      <trkpt lat="46.11511" lon="6.08017">
        <ele>501.60000610352</ele>
        <time>2012-11-12T12:43:23.000Z</time>
      </trkpt>
      <trkpt lat="46.11506" lon="6.08016">
        <ele>502.60000610352</ele>
        <time>2012-11-12T12:43:24.000Z</time>
      </trkpt>
      <trkpt lat="46.11486" lon="6.08013">
        <ele>503.60000610352</ele>
        <time>2012-11-12T12:43:28.000Z</time>
      </trkpt>
      <trkpt lat="46.11482" lon="6.08012">
        <ele>505</ele>
        <time>2012-11-12T12:43:29.000Z</time>
      </trkpt>
      <trkpt lat="46.11468" lon="6.08009">
        <ele>505</ele>
        <time>2012-11-12T12:43:32.000Z</time>
      </trkpt>
      <trkpt lat="46.11463" lon="6.08008">
        <ele>506</ele>
        <time>2012-11-12T12:43:33.000Z</time>
      </trkpt>
      <trkpt lat="46.11439" lon="6.08006">
        <ele>507</ele>
        <time>2012-11-12T12:43:38.000Z</time>
      </trkpt>
      <trkpt lat="46.1143" lon="6.08006">
        <ele>507</ele>
        <time>2012-11-12T12:43:40.000Z</time>
      </trkpt>
      <trkpt lat="46.11416" lon="6.08004">
        <ele>508.20001220703</ele>
        <time>2012-11-12T12:43:43.000Z</time>
      </trkpt>
      <trkpt lat="46.11402" lon="6.08005">
        <ele>509.20001220703</ele>
        <time>2012-11-12T12:43:46.000Z</time>
      </trkpt>
      <trkpt lat="46.11392" lon="6.08005">
        <ele>510.20001220703</ele>
        <time>2012-11-12T12:43:48.000Z</time>
      </trkpt>
      <trkpt lat="46.11368" lon="6.08008">
        <ele>511.60000610352</ele>
        <time>2012-11-12T12:43:53.000Z</time>
      </trkpt>
      <trkpt lat="46.1135" lon="6.08009">
        <ele>512.59997558594</ele>
        <time>2012-11-12T12:43:57.000Z</time>
      </trkpt>
      <trkpt lat="46.11343" lon="6.0801">
        <ele>512.59997558594</ele>
        <time>2012-11-12T12:43:58.000Z</time>
      </trkpt>
      <trkpt lat="46.11338" lon="6.08011">
        <ele>514</ele>
        <time>2012-11-12T12:43:59.000Z</time>
      </trkpt>
      <trkpt lat="46.11323" lon="6.08012">
        <ele>515</ele>
        <time>2012-11-12T12:44:02.000Z</time>
      </trkpt>
      <trkpt lat="46.11302" lon="6.08013">
        <ele>516</ele>
        <time>2012-11-12T12:44:06.000Z</time>
      </trkpt>
      <trkpt lat="46.11254" lon="6.08009">
        <ele>516</ele>
        <time>2012-11-12T12:44:15.000Z</time>
      </trkpt>
      <trkpt lat="46.11219" lon="6.07997">
        <ele>516</ele>
        <time>2012-11-12T12:44:21.000Z</time>
      </trkpt>
      <trkpt lat="46.11196" lon="6.07991">
        <ele>517.20001220703</ele>
        <time>2012-11-12T12:44:25.000Z</time>
      </trkpt>
      <trkpt lat="46.11185" lon="6.07993">
        <ele>517.20001220703</ele>
        <time>2012-11-12T12:44:27.000Z</time>
      </trkpt>
      <trkpt lat="46.11153" lon="6.07994">
        <ele>517.20001220703</ele>
        <time>2012-11-12T12:44:32.000Z</time>
      </trkpt>
      <trkpt lat="46.1114" lon="6.0799">
        <ele>517.20001220703</ele>
        <time>2012-11-12T12:44:34.000Z</time>
      </trkpt>
      <trkpt lat="46.11116" lon="6.07984">
        <ele>518.20001220703</ele>
        <time>2012-11-12T12:44:38.000Z</time>
      </trkpt>
      <trkpt lat="46.11086" lon="6.07975">
        <ele>519.40002441406</ele>
        <time>2012-11-12T12:44:43.000Z</time>
      </trkpt>
      <trkpt lat="46.11053" lon="6.07956">
        <ele>519.40002441406</ele>
        <time>2012-11-12T12:44:49.000Z</time>
      </trkpt>
      <trkpt lat="46.11041" lon="6.0795">
        <ele>520.40002441406</ele>
        <time>2012-11-12T12:44:51.000Z</time>
      </trkpt>
      <trkpt lat="46.11014" lon="6.07931">
        <ele>521.40002441406</ele>
        <time>2012-11-12T12:44:56.000Z</time>
      </trkpt>
      <trkpt lat="46.10987" lon="6.0791">
        <ele>521.40002441406</ele>
        <time>2012-11-12T12:45:01.000Z</time>
      </trkpt>
      <trkpt lat="46.10977" lon="6.07901">
        <ele>522.40002441406</ele>
        <time>2012-11-12T12:45:03.000Z</time>
      </trkpt>
      <trkpt lat="46.10971" lon="6.07897">
        <ele>522.40002441406</ele>
        <time>2012-11-12T12:45:04.000Z</time>
      </trkpt>
      <trkpt lat="46.10954" lon="6.07887">
        <ele>523.40002441406</ele>
        <time>2012-11-12T12:45:07.000Z</time>
      </trkpt>
      <trkpt lat="46.10931" lon="6.07877">
        <ele>523.40002441406</ele>
        <time>2012-11-12T12:45:11.000Z</time>
      </trkpt>
      <trkpt lat="46.1089" lon="6.07867">
        <ele>524.59997558594</ele>
        <time>2012-11-12T12:45:18.000Z</time>
      </trkpt>
      <trkpt lat="46.10854" lon="6.07868">
        <ele>526</ele>
        <time>2012-11-12T12:45:24.000Z</time>
      </trkpt>
      <trkpt lat="46.10837" lon="6.07867">
        <ele>526</ele>
        <time>2012-11-12T12:45:27.000Z</time>
      </trkpt>
      <trkpt lat="46.10788" lon="6.07857">
        <ele>526</ele>
        <time>2012-11-12T12:45:35.000Z</time>
      </trkpt>
      <trkpt lat="46.10763" lon="6.07853">
        <ele>527</ele>
        <time>2012-11-12T12:45:39.000Z</time>
      </trkpt>
      <trkpt lat="46.10738" lon="6.07847">
        <ele>527</ele>
        <time>2012-11-12T12:45:43.000Z</time>
      </trkpt>
      <trkpt lat="46.10731" lon="6.07845">
        <ele>528</ele>
        <time>2012-11-12T12:45:44.000Z</time>
      </trkpt>
      <trkpt lat="46.10702" lon="6.07842">
        <ele>528</ele>
        <time>2012-11-12T12:45:49.000Z</time>
      </trkpt>
      <trkpt lat="46.10696" lon="6.07841">
        <ele>529.20001220703</ele>
        <time>2012-11-12T12:45:50.000Z</time>
      </trkpt>
      <trkpt lat="46.1068" lon="6.07838">
        <ele>530.40002441406</ele>
        <time>2012-11-12T12:45:53.000Z</time>
      </trkpt>
      <trkpt lat="46.10674" lon="6.07837">
        <ele>531.40002441406</ele>
        <time>2012-11-12T12:45:54.000Z</time>
      </trkpt>
      <trkpt lat="46.10652" lon="6.07834">
        <ele>531.40002441406</ele>
        <time>2012-11-12T12:45:58.000Z</time>
      </trkpt>
      <trkpt lat="46.10647" lon="6.07833">
        <ele>532.40002441406</ele>
        <time>2012-11-12T12:45:59.000Z</time>
      </trkpt>
      <trkpt lat="46.10641" lon="6.07833">
        <ele>533.59997558594</ele>
        <time>2012-11-12T12:46:00.000Z</time>
      </trkpt>
      <trkpt lat="46.10625" lon="6.0783">
        <ele>534.59997558594</ele>
        <time>2012-11-12T12:46:03.000Z</time>
      </trkpt>
      <trkpt lat="46.10615" lon="6.07829">
        <ele>534.59997558594</ele>
        <time>2012-11-12T12:46:05.000Z</time>
      </trkpt>
      <trkpt lat="46.1061" lon="6.07829">
        <ele>535.59997558594</ele>
        <time>2012-11-12T12:46:06.000Z</time>
      </trkpt>
      <trkpt lat="46.10595" lon="6.0783">
        <ele>536.59997558594</ele>
        <time>2012-11-12T12:46:09.000Z</time>
      </trkpt>
      <trkpt lat="46.10581" lon="6.07833">
        <ele>537.59997558594</ele>
        <time>2012-11-12T12:46:12.000Z</time>
      </trkpt>
      <trkpt lat="46.10576" lon="6.07835">
        <ele>537.59997558594</ele>
        <time>2012-11-12T12:46:13.000Z</time>
      </trkpt>
      <trkpt lat="46.10567" lon="6.0784">
        <ele>538.59997558594</ele>
        <time>2012-11-12T12:46:15.000Z</time>
      </trkpt>
      <trkpt lat="46.1055" lon="6.07853">
        <ele>538.59997558594</ele>
        <time>2012-11-12T12:46:19.000Z</time>
      </trkpt>
      <trkpt lat="46.10542" lon="6.07861">
        <ele>540</ele>
        <time>2012-11-12T12:46:21.000Z</time>
      </trkpt>
      <trkpt lat="46.1052" lon="6.07879">
        <ele>541</ele>
        <time>2012-11-12T12:46:26.000Z</time>
      </trkpt>
      <trkpt lat="46.10506" lon="6.07887">
        <ele>542</ele>
        <time>2012-11-12T12:46:29.000Z</time>
      </trkpt>
      <trkpt lat="46.10483" lon="6.07899">
        <ele>543</ele>
        <time>2012-11-12T12:46:34.000Z</time>
      </trkpt>
      <trkpt lat="46.10479" lon="6.07903">
        <ele>543</ele>
        <time>2012-11-12T12:46:35.000Z</time>
      </trkpt>
      <trkpt lat="46.10472" lon="6.07922">
        <ele>543</ele>
        <time>2012-11-12T12:46:38.000Z</time>
      </trkpt>
      <trkpt lat="46.10471" lon="6.07929">
        <ele>543</ele>
        <time>2012-11-12T12:46:39.000Z</time>
      </trkpt>
      <trkpt lat="46.1046" lon="6.07974">
        <ele>543</ele>
        <time>2012-11-12T12:46:45.000Z</time>
      </trkpt>
      <trkpt lat="46.10452" lon="6.0801">
        <ele>544</ele>
        <time>2012-11-12T12:46:50.000Z</time>
      </trkpt>
      <trkpt lat="46.10449" lon="6.08023">
        <ele>544</ele>
        <time>2012-11-12T12:46:52.000Z</time>
      </trkpt>
      <trkpt lat="46.10446" lon="6.08036">
        <ele>545.20001220703</ele>
        <time>2012-11-12T12:46:54.000Z</time>
      </trkpt>
      <trkpt lat="46.10442" lon="6.08052">
        <ele>546.40002441406</ele>
        <time>2012-11-12T12:46:57.000Z</time>
      </trkpt>
      <trkpt lat="46.10437" lon="6.08066">
        <ele>546.40002441406</ele>
        <time>2012-11-12T12:46:59.000Z</time>
      </trkpt>
      <trkpt lat="46.10432" lon="6.08084">
        <ele>547.40002441406</ele>
        <time>2012-11-12T12:47:02.000Z</time>
      </trkpt>
      <trkpt lat="46.10423" lon="6.08111">
        <ele>547.40002441406</ele>
        <time>2012-11-12T12:47:07.000Z</time>
      </trkpt>
      <trkpt lat="46.10421" lon="6.08117">
        <ele>548.40002441406</ele>
        <time>2012-11-12T12:47:08.000Z</time>
      </trkpt>
      <trkpt lat="46.10416" lon="6.08133">
        <ele>549.40002441406</ele>
        <time>2012-11-12T12:47:11.000Z</time>
      </trkpt>
      <trkpt lat="46.10409" lon="6.08153">
        <ele>550.59997558594</ele>
        <time>2012-11-12T12:47:15.000Z</time>
      </trkpt>
      <trkpt lat="46.10407" lon="6.08158">
        <ele>550.59997558594</ele>
        <time>2012-11-12T12:47:16.000Z</time>
      </trkpt>
      <trkpt lat="46.10403" lon="6.08168">
        <ele>552</ele>
        <time>2012-11-12T12:47:18.000Z</time>
      </trkpt>
      <trkpt lat="46.10399" lon="6.08182">
        <ele>553</ele>
        <time>2012-11-12T12:47:21.000Z</time>
      </trkpt>
      <trkpt lat="46.10396" lon="6.08188">
        <ele>553</ele>
        <time>2012-11-12T12:47:23.000Z</time>
      </trkpt>
      <trkpt lat="46.10396" lon="6.08188">
        <ele>554</ele>
        <time>2012-11-12T12:47:24.000Z</time>
      </trkpt>
      <trkpt lat="46.10397" lon="6.08189">
        <ele>554</ele>
        <time>2012-11-12T12:47:27.000Z</time>
      </trkpt>
      <trkpt lat="46.10397" lon="6.0819">
        <ele>554</ele>
        <time>2012-11-12T12:47:37.000Z</time>
      </trkpt>
      <trkpt lat="46.10396" lon="6.08191">
        <ele>554</ele>
        <time>2012-11-12T12:47:38.000Z</time>
      </trkpt>
      <trkpt lat="46.10396" lon="6.08197">
        <ele>554</ele>
        <time>2012-11-12T12:47:41.000Z</time>
      </trkpt>
      <trkpt lat="46.10394" lon="6.08203">
        <ele>555</ele>
        <time>2012-11-12T12:47:43.000Z</time>
      </trkpt>
      <trkpt lat="46.10391" lon="6.08209">
        <ele>555</ele>
        <time>2012-11-12T12:47:45.000Z</time>
      </trkpt>
      <trkpt lat="46.10389" lon="6.08214">
        <ele>555</ele>
        <time>2012-11-12T12:47:46.000Z</time>
      </trkpt>
      <trkpt lat="46.10386" lon="6.08222">
        <ele>556</ele>
        <time>2012-11-12T12:47:48.000Z</time>
      </trkpt>
      <trkpt lat="46.10377" lon="6.08246">
        <ele>557</ele>
        <time>2012-11-12T12:47:53.000Z</time>
      </trkpt>
      <trkpt lat="46.10374" lon="6.08256">
        <ele>558</ele>
        <time>2012-11-12T12:47:55.000Z</time>
      </trkpt>
      <trkpt lat="46.1037" lon="6.08267">
        <ele>559.20001220703</ele>
        <time>2012-11-12T12:47:57.000Z</time>
      </trkpt>
      <trkpt lat="46.10366" lon="6.0828">
        <ele>559.20001220703</ele>
        <time>2012-11-12T12:47:59.000Z</time>
      </trkpt>
      <trkpt lat="46.10364" lon="6.08285">
        <ele>560.40002441406</ele>
        <time>2012-11-12T12:48:00.000Z</time>
      </trkpt>
      <trkpt lat="46.10362" lon="6.08291">
        <ele>560.40002441406</ele>
        <time>2012-11-12T12:48:01.000Z</time>
      </trkpt>
      <trkpt lat="46.10358" lon="6.08302">
        <ele>561.40002441406</ele>
        <time>2012-11-12T12:48:03.000Z</time>
      </trkpt>
      <trkpt lat="46.10346" lon="6.08326">
        <ele>562.59997558594</ele>
        <time>2012-11-12T12:48:08.000Z</time>
      </trkpt>
      <trkpt lat="46.10331" lon="6.0834">
        <ele>564</ele>
        <time>2012-11-12T12:48:12.000Z</time>
      </trkpt>
      <trkpt lat="46.10323" lon="6.08346">
        <ele>564</ele>
        <time>2012-11-12T12:48:14.000Z</time>
      </trkpt>
      <trkpt lat="46.10319" lon="6.08349">
        <ele>565</ele>
        <time>2012-11-12T12:48:15.000Z</time>
      </trkpt>
      <trkpt lat="46.10311" lon="6.08354">
        <ele>565</ele>
        <time>2012-11-12T12:48:17.000Z</time>
      </trkpt>
      <trkpt lat="46.10307" lon="6.08357">
        <ele>566</ele>
        <time>2012-11-12T12:48:18.000Z</time>
      </trkpt>
      <trkpt lat="46.10295" lon="6.08366">
        <ele>567</ele>
        <time>2012-11-12T12:48:21.000Z</time>
      </trkpt>
      <trkpt lat="46.10292" lon="6.08369">
        <ele>567</ele>
        <time>2012-11-12T12:48:22.000Z</time>
      </trkpt>
      <trkpt lat="46.1028" lon="6.0838">
        <ele>568.40002441406</ele>
        <time>2012-11-12T12:48:25.000Z</time>
      </trkpt>
      <trkpt lat="46.10273" lon="6.08387">
        <ele>569.40002441406</ele>
        <time>2012-11-12T12:48:27.000Z</time>
      </trkpt>
      <trkpt lat="46.10263" lon="6.08392">
        <ele>569.40002441406</ele>
        <time>2012-11-12T12:48:29.000Z</time>
      </trkpt>
      <trkpt lat="46.10254" lon="6.08395">
        <ele>570.40002441406</ele>
        <time>2012-11-12T12:48:31.000Z</time>
      </trkpt>
      <trkpt lat="46.10237" lon="6.08402">
        <ele>571.59997558594</ele>
        <time>2012-11-12T12:48:35.000Z</time>
      </trkpt>
      <trkpt lat="46.10225" lon="6.0842">
        <ele>571.59997558594</ele>
        <time>2012-11-12T12:48:39.000Z</time>
      </trkpt>
      <trkpt lat="46.10224" lon="6.0845">
        <ele>571.59997558594</ele>
        <time>2012-11-12T12:48:43.000Z</time>
      </trkpt>
      <trkpt lat="46.10224" lon="6.08486">
        <ele>571.59997558594</ele>
        <time>2012-11-12T12:48:48.000Z</time>
      </trkpt>
      <trkpt lat="46.10222" lon="6.08493">
        <ele>572.59997558594</ele>
        <time>2012-11-12T12:48:49.000Z</time>
      </trkpt>
      <trkpt lat="46.10218" lon="6.08497">
        <ele>572.59997558594</ele>
        <time>2012-11-12T12:48:50.000Z</time>
      </trkpt>
      <trkpt lat="46.10215" lon="6.08499">
        <ele>574</ele>
        <time>2012-11-12T12:48:51.000Z</time>
      </trkpt>
      <trkpt lat="46.10206" lon="6.08498">
        <ele>574</ele>
        <time>2012-11-12T12:48:53.000Z</time>
      </trkpt>
      <trkpt lat="46.10197" lon="6.08494">
        <ele>574</ele>
        <time>2012-11-12T12:48:55.000Z</time>
      </trkpt>
      <trkpt lat="46.10188" lon="6.08489">
        <ele>575.20001220703</ele>
        <time>2012-11-12T12:48:57.000Z</time>
      </trkpt>
      <trkpt lat="46.10183" lon="6.08487">
        <ele>575.20001220703</ele>
        <time>2012-11-12T12:48:58.000Z</time>
      </trkpt>
      <trkpt lat="46.10173" lon="6.08482">
        <ele>576.20001220703</ele>
        <time>2012-11-12T12:49:00.000Z</time>
      </trkpt>
      <trkpt lat="46.10158" lon="6.08476">
        <ele>577.40002441406</ele>
        <time>2012-11-12T12:49:03.000Z</time>
      </trkpt>
      <trkpt lat="46.10144" lon="6.08469">
        <ele>578.40002441406</ele>
        <time>2012-11-12T12:49:06.000Z</time>
      </trkpt>
      <trkpt lat="46.1014" lon="6.08467">
        <ele>578.40002441406</ele>
        <time>2012-11-12T12:49:07.000Z</time>
      </trkpt>
      <trkpt lat="46.10125" lon="6.08461">
        <ele>579.40002441406</ele>
        <time>2012-11-12T12:49:10.000Z</time>
      </trkpt>
      <trkpt lat="46.10112" lon="6.08455">
        <ele>580.40002441406</ele>
        <time>2012-11-12T12:49:13.000Z</time>
      </trkpt>
      <trkpt lat="46.10098" lon="6.08448">
        <ele>580.40002441406</ele>
        <time>2012-11-12T12:49:16.000Z</time>
      </trkpt>
      <trkpt lat="46.10093" lon="6.08446">
        <ele>581.40002441406</ele>
        <time>2012-11-12T12:49:17.000Z</time>
      </trkpt>
      <trkpt lat="46.10063" lon="6.08432">
        <ele>582.59997558594</ele>
        <time>2012-11-12T12:49:23.000Z</time>
      </trkpt>
      <trkpt lat="46.10053" lon="6.08428">
        <ele>582.59997558594</ele>
        <time>2012-11-12T12:49:25.000Z</time>
      </trkpt>
      <trkpt lat="46.10044" lon="6.08423">
        <ele>583.59997558594</ele>
        <time>2012-11-12T12:49:27.000Z</time>
      </trkpt>
      <trkpt lat="46.10025" lon="6.08415">
        <ele>585.20001220703</ele>
        <time>2012-11-12T12:49:31.000Z</time>
      </trkpt>
      <trkpt lat="46.10006" lon="6.08407">
        <ele>586.20001220703</ele>
        <time>2012-11-12T12:49:35.000Z</time>
      </trkpt>
      <trkpt lat="46.09984" lon="6.08395">
        <ele>587.20001220703</ele>
        <time>2012-11-12T12:49:40.000Z</time>
      </trkpt>
      <trkpt lat="46.09965" lon="6.08387">
        <ele>587.20001220703</ele>
        <time>2012-11-12T12:49:44.000Z</time>
      </trkpt>
      <trkpt lat="46.09946" lon="6.08378">
        <ele>588.40002441406</ele>
        <time>2012-11-12T12:49:48.000Z</time>
      </trkpt>
      <trkpt lat="46.09932" lon="6.08373">
        <ele>588.40002441406</ele>
        <time>2012-11-12T12:49:51.000Z</time>
      </trkpt>
      <trkpt lat="46.09927" lon="6.08374">
        <ele>588.40002441406</ele>
        <time>2012-11-12T12:49:52.000Z</time>
      </trkpt>
      <trkpt lat="46.09918" lon="6.08379">
        <ele>589.40002441406</ele>
        <time>2012-11-12T12:49:54.000Z</time>
      </trkpt>
      <trkpt lat="46.09913" lon="6.08383">
        <ele>589.40002441406</ele>
        <time>2012-11-12T12:49:55.000Z</time>
      </trkpt>
      <trkpt lat="46.09906" lon="6.08392">
        <ele>589.40002441406</ele>
        <time>2012-11-12T12:49:57.000Z</time>
      </trkpt>
      <trkpt lat="46.09884" lon="6.08418">
        <ele>589.40002441406</ele>
        <time>2012-11-12T12:50:02.000Z</time>
      </trkpt>
      <trkpt lat="46.0987" lon="6.08435">
        <ele>590.40002441406</ele>
        <time>2012-11-12T12:50:05.000Z</time>
      </trkpt>
      <trkpt lat="46.09847" lon="6.08462">
        <ele>591.59997558594</ele>
        <time>2012-11-12T12:50:10.000Z</time>
      </trkpt>
      <trkpt lat="46.09838" lon="6.08473">
        <ele>591.59997558594</ele>
        <time>2012-11-12T12:50:12.000Z</time>
      </trkpt>
      <trkpt lat="46.09796" lon="6.08525">
        <ele>591.59997558594</ele>
        <time>2012-11-12T12:50:21.000Z</time>
      </trkpt>
      <trkpt lat="46.09786" lon="6.08536">
        <ele>592.59997558594</ele>
        <time>2012-11-12T12:50:23.000Z</time>
      </trkpt>
      <trkpt lat="46.09762" lon="6.08561">
        <ele>593.59997558594</ele>
        <time>2012-11-12T12:50:28.000Z</time>
      </trkpt>
      <trkpt lat="46.09712" lon="6.08597">
        <ele>593.59997558594</ele>
        <time>2012-11-12T12:50:37.000Z</time>
      </trkpt>
      <trkpt lat="46.09705" lon="6.08602">
        <ele>595</ele>
        <time>2012-11-12T12:50:38.000Z</time>
      </trkpt>
      <trkpt lat="46.09682" lon="6.08618">
        <ele>596.20001220703</ele>
        <time>2012-11-12T12:50:42.000Z</time>
      </trkpt>
      <trkpt lat="46.09654" lon="6.08639">
        <ele>596.20001220703</ele>
        <time>2012-11-12T12:50:47.000Z</time>
      </trkpt>
      <trkpt lat="46.09624" lon="6.08659">
        <ele>597.40002441406</ele>
        <time>2012-11-12T12:50:52.000Z</time>
      </trkpt>
      <trkpt lat="46.09618" lon="6.08664">
        <ele>597.40002441406</ele>
        <time>2012-11-12T12:50:53.000Z</time>
      </trkpt>
      <trkpt lat="46.09587" lon="6.08687">
        <ele>597.40002441406</ele>
        <time>2012-11-12T12:50:58.000Z</time>
      </trkpt>
      <trkpt lat="46.09581" lon="6.08691">
        <ele>597.40002441406</ele>
        <time>2012-11-12T12:50:59.000Z</time>
      </trkpt>
      <trkpt lat="46.09551" lon="6.08713">
        <ele>597.40002441406</ele>
        <time>2012-11-12T12:51:04.000Z</time>
      </trkpt>
      <trkpt lat="46.09532" lon="6.08726">
        <ele>597.40002441406</ele>
        <time>2012-11-12T12:51:07.000Z</time>
      </trkpt>
      <trkpt lat="46.09499" lon="6.08749">
        <ele>594.40002441406</ele>
        <time>2012-11-12T12:51:12.000Z</time>
      </trkpt>
      <trkpt lat="46.09491" lon="6.08754">
        <ele>593.40002441406</ele>
        <time>2012-11-12T12:51:13.000Z</time>
      </trkpt>
      <trkpt lat="46.09476" lon="6.08763">
        <ele>592.20001220703</ele>
        <time>2012-11-12T12:51:15.000Z</time>
      </trkpt>
      <trkpt lat="46.09468" lon="6.08767">
        <ele>591.20001220703</ele>
        <time>2012-11-12T12:51:16.000Z</time>
      </trkpt>
      <trkpt lat="46.09434" lon="6.08778">
        <ele>591.20001220703</ele>
        <time>2012-11-12T12:51:20.000Z</time>
      </trkpt>
      <trkpt lat="46.09417" lon="6.08783">
        <ele>590.20001220703</ele>
        <time>2012-11-12T12:51:22.000Z</time>
      </trkpt>
      <trkpt lat="46.0939" lon="6.08791">
        <ele>589</ele>
        <time>2012-11-12T12:51:25.000Z</time>
      </trkpt>
      <trkpt lat="46.09381" lon="6.08796">
        <ele>589</ele>
        <time>2012-11-12T12:51:26.000Z</time>
      </trkpt>
      <trkpt lat="46.09374" lon="6.08802">
        <ele>587.59997558594</ele>
        <time>2012-11-12T12:51:27.000Z</time>
      </trkpt>
      <trkpt lat="46.09358" lon="6.0882">
        <ele>586.59997558594</ele>
        <time>2012-11-12T12:51:29.000Z</time>
      </trkpt>
      <trkpt lat="46.09353" lon="6.08831">
        <ele>586.59997558594</ele>
        <time>2012-11-12T12:51:30.000Z</time>
      </trkpt>
      <trkpt lat="46.09348" lon="6.08843">
        <ele>585.40002441406</ele>
        <time>2012-11-12T12:51:31.000Z</time>
      </trkpt>
      <trkpt lat="46.09342" lon="6.08868">
        <ele>585.40002441406</ele>
        <time>2012-11-12T12:51:33.000Z</time>
      </trkpt>
      <trkpt lat="46.0934" lon="6.08884">
        <ele>585.40002441406</ele>
        <time>2012-11-12T12:51:34.000Z</time>
      </trkpt>
      <trkpt lat="46.09331" lon="6.08963">
        <ele>584.40002441406</ele>
        <time>2012-11-12T12:51:40.000Z</time>
      </trkpt>
      <trkpt lat="46.09326" lon="6.09035">
        <ele>584.40002441406</ele>
        <time>2012-11-12T12:51:46.000Z</time>
      </trkpt>
      <trkpt lat="46.09326" lon="6.09056">
        <ele>587.40002441406</ele>
        <time>2012-11-12T12:51:48.000Z</time>
      </trkpt>
      <trkpt lat="46.09328" lon="6.09096">
        <ele>588.59997558594</ele>
        <time>2012-11-12T12:51:52.000Z</time>
      </trkpt>
      <trkpt lat="46.09329" lon="6.09116">
        <ele>590</ele>
        <time>2012-11-12T12:51:54.000Z</time>
      </trkpt>
      <trkpt lat="46.09329" lon="6.09133">
        <ele>591.20001220703</ele>
        <time>2012-11-12T12:51:56.000Z</time>
      </trkpt>
      <trkpt lat="46.0933" lon="6.0916">
        <ele>592.20001220703</ele>
        <time>2012-11-12T12:51:59.000Z</time>
      </trkpt>
      <trkpt lat="46.09332" lon="6.09203">
        <ele>593.40002441406</ele>
        <time>2012-11-12T12:52:04.000Z</time>
      </trkpt>
      <trkpt lat="46.09333" lon="6.0923">
        <ele>593.40002441406</ele>
        <time>2012-11-12T12:52:07.000Z</time>
      </trkpt>
      <trkpt lat="46.09334" lon="6.09248">
        <ele>594.40002441406</ele>
        <time>2012-11-12T12:52:09.000Z</time>
      </trkpt>
      <trkpt lat="46.09334" lon="6.09292">
        <ele>594.40002441406</ele>
        <time>2012-11-12T12:52:14.000Z</time>
      </trkpt>
      <trkpt lat="46.09337" lon="6.09336">
        <ele>595.40002441406</ele>
        <time>2012-11-12T12:52:19.000Z</time>
      </trkpt>
      <trkpt lat="46.09338" lon="6.09361">
        <ele>595.40002441406</ele>
        <time>2012-11-12T12:52:22.000Z</time>
      </trkpt>
      <trkpt lat="46.09339" lon="6.09387">
        <ele>596.59997558594</ele>
        <time>2012-11-12T12:52:25.000Z</time>
      </trkpt>
      <trkpt lat="46.09343" lon="6.09464">
        <ele>596.59997558594</ele>
        <time>2012-11-12T12:52:34.000Z</time>
      </trkpt>
      <trkpt lat="46.09346" lon="6.09526">
        <ele>596.59997558594</ele>
        <time>2012-11-12T12:52:41.000Z</time>
      </trkpt>
      <trkpt lat="46.09348" lon="6.09572">
        <ele>598.59997558594</ele>
        <time>2012-11-12T12:52:46.000Z</time>
      </trkpt>
      <trkpt lat="46.09349" lon="6.09598">
        <ele>599.59997558594</ele>
        <time>2012-11-12T12:52:49.000Z</time>
      </trkpt>
      <trkpt lat="46.0935" lon="6.09616">
        <ele>599.59997558594</ele>
        <time>2012-11-12T12:52:51.000Z</time>
      </trkpt>
      <trkpt lat="46.09351" lon="6.09634">
        <ele>601</ele>
        <time>2012-11-12T12:52:53.000Z</time>
      </trkpt>
      <trkpt lat="46.09353" lon="6.09678">
        <ele>602.20001220703</ele>
        <time>2012-11-12T12:52:58.000Z</time>
      </trkpt>
      <trkpt lat="46.09354" lon="6.09695">
        <ele>602.20001220703</ele>
        <time>2012-11-12T12:53:00.000Z</time>
      </trkpt>
      <trkpt lat="46.09355" lon="6.09711">
        <ele>603.20001220703</ele>
        <time>2012-11-12T12:53:02.000Z</time>
      </trkpt>
      <trkpt lat="46.09357" lon="6.09753">
        <ele>604.20001220703</ele>
        <time>2012-11-12T12:53:07.000Z</time>
      </trkpt>
      <trkpt lat="46.09358" lon="6.09778">
        <ele>604.20001220703</ele>
        <time>2012-11-12T12:53:10.000Z</time>
      </trkpt>
      <trkpt lat="46.09358" lon="6.09786">
        <ele>605.20001220703</ele>
        <time>2012-11-12T12:53:11.000Z</time>
      </trkpt>
      <trkpt lat="46.0936" lon="6.09828">
        <ele>606.20001220703</ele>
        <time>2012-11-12T12:53:16.000Z</time>
      </trkpt>
      <trkpt lat="46.09362" lon="6.09861">
        <ele>606.20001220703</ele>
        <time>2012-11-12T12:53:20.000Z</time>
      </trkpt>
      <trkpt lat="46.09363" lon="6.09886">
        <ele>607.40002441406</ele>
        <time>2012-11-12T12:53:23.000Z</time>
      </trkpt>
      <trkpt lat="46.09365" lon="6.0993">
        <ele>608.40002441406</ele>
        <time>2012-11-12T12:53:28.000Z</time>
      </trkpt>
      <trkpt lat="46.09366" lon="6.09956">
        <ele>608.40002441406</ele>
        <time>2012-11-12T12:53:31.000Z</time>
      </trkpt>
      <trkpt lat="46.09366" lon="6.09964">
        <ele>609.40002441406</ele>
        <time>2012-11-12T12:53:32.000Z</time>
      </trkpt>
      <trkpt lat="46.09368" lon="6.10022">
        <ele>610.40002441406</ele>
        <time>2012-11-12T12:53:39.000Z</time>
      </trkpt>
      <trkpt lat="46.09369" lon="6.10039">
        <ele>610.40002441406</ele>
        <time>2012-11-12T12:53:41.000Z</time>
      </trkpt>
      <trkpt lat="46.0937" lon="6.1008">
        <ele>612.40002441406</ele>
        <time>2012-11-12T12:53:46.000Z</time>
      </trkpt>
      <trkpt lat="46.09372" lon="6.10112">
        <ele>612.40002441406</ele>
        <time>2012-11-12T12:53:50.000Z</time>
      </trkpt>
      <trkpt lat="46.09373" lon="6.1012">
        <ele>613.40002441406</ele>
        <time>2012-11-12T12:53:51.000Z</time>
      </trkpt>
      <trkpt lat="46.09374" lon="6.10145">
        <ele>614.40002441406</ele>
        <time>2012-11-12T12:53:54.000Z</time>
      </trkpt>
      <trkpt lat="46.09376" lon="6.10184">
        <ele>615.59997558594</ele>
        <time>2012-11-12T12:53:59.000Z</time>
      </trkpt>
      <trkpt lat="46.09376" lon="6.10192">
        <ele>615.59997558594</ele>
        <time>2012-11-12T12:54:00.000Z</time>
      </trkpt>
      <trkpt lat="46.09377" lon="6.10216">
        <ele>616.59997558594</ele>
        <time>2012-11-12T12:54:03.000Z</time>
      </trkpt>
      <trkpt lat="46.09379" lon="6.10249">
        <ele>616.59997558594</ele>
        <time>2012-11-12T12:54:07.000Z</time>
      </trkpt>
      <trkpt lat="46.0938" lon="6.10266">
        <ele>617.59997558594</ele>
        <time>2012-11-12T12:54:09.000Z</time>
      </trkpt>
      <trkpt lat="46.09381" lon="6.1029">
        <ele>619</ele>
        <time>2012-11-12T12:54:12.000Z</time>
      </trkpt>
      <trkpt lat="46.09381" lon="6.10316">
        <ele>619</ele>
        <time>2012-11-12T12:54:15.000Z</time>
      </trkpt>
      <trkpt lat="46.09383" lon="6.10332">
        <ele>620.20001220703</ele>
        <time>2012-11-12T12:54:17.000Z</time>
      </trkpt>
      <trkpt lat="46.09385" lon="6.10362">
        <ele>621.20001220703</ele>
        <time>2012-11-12T12:54:21.000Z</time>
      </trkpt>
      <trkpt lat="46.09384" lon="6.10369">
        <ele>621.20001220703</ele>
        <time>2012-11-12T12:54:22.000Z</time>
      </trkpt>
      <trkpt lat="46.09384" lon="6.10375">
        <ele>622.20001220703</ele>
        <time>2012-11-12T12:54:23.000Z</time>
      </trkpt>
      <trkpt lat="46.09383" lon="6.10387">
        <ele>622.20001220703</ele>
        <time>2012-11-12T12:54:26.000Z</time>
      </trkpt>
      <trkpt lat="46.09383" lon="6.1039">
        <ele>622.20001220703</ele>
        <time>2012-11-12T12:54:30.000Z</time>
      </trkpt>
      <trkpt lat="46.09382" lon="6.1039">
        <ele>622.20001220703</ele>
        <time>2012-11-12T12:54:40.000Z</time>
      </trkpt>
      <trkpt lat="46.09381" lon="6.10391">
        <ele>622.20001220703</ele>
        <time>2012-11-12T12:54:53.000Z</time>
      </trkpt>
      <trkpt lat="46.09381" lon="6.10393">
        <ele>623.20001220703</ele>
        <time>2012-11-12T12:55:00.000Z</time>
      </trkpt>
      <trkpt lat="46.0938" lon="6.10398">
        <ele>623.20001220703</ele>
        <time>2012-11-12T12:55:02.000Z</time>
      </trkpt>
      <trkpt lat="46.09384" lon="6.10419">
        <ele>623.20001220703</ele>
        <time>2012-11-12T12:55:06.000Z</time>
      </trkpt>
      <trkpt lat="46.09399" lon="6.10436">
        <ele>623.20001220703</ele>
        <time>2012-11-12T12:55:10.000Z</time>
      </trkpt>
      <trkpt lat="46.09417" lon="6.10432">
        <ele>623.20001220703</ele>
        <time>2012-11-12T12:55:13.000Z</time>
      </trkpt>
      <trkpt lat="46.09424" lon="6.10431">
        <ele>623.20001220703</ele>
        <time>2012-11-12T12:55:14.000Z</time>
      </trkpt>
      <trkpt lat="46.09436" lon="6.10438">
        <ele>620.20001220703</ele>
        <time>2012-11-12T12:55:16.000Z</time>
      </trkpt>
      <trkpt lat="46.09446" lon="6.10455">
        <ele>619.20001220703</ele>
        <time>2012-11-12T12:55:18.000Z</time>
      </trkpt>
      <trkpt lat="46.09449" lon="6.10464">
        <ele>619.20001220703</ele>
        <time>2012-11-12T12:55:19.000Z</time>
      </trkpt>
      <trkpt lat="46.09452" lon="6.10473">
        <ele>619.20001220703</ele>
        <time>2012-11-12T12:55:20.000Z</time>
      </trkpt>
      <trkpt lat="46.09476" lon="6.10537">
        <ele>619.20001220703</ele>
        <time>2012-11-12T12:55:27.000Z</time>
      </trkpt>
      <trkpt lat="46.09501" lon="6.10573">
        <ele>619.20001220703</ele>
        <time>2012-11-12T12:55:32.000Z</time>
      </trkpt>
      <trkpt lat="46.09512" lon="6.10587">
        <ele>618.20001220703</ele>
        <time>2012-11-12T12:55:34.000Z</time>
      </trkpt>
      <trkpt lat="46.09533" lon="6.10617">
        <ele>618.20001220703</ele>
        <time>2012-11-12T12:55:38.000Z</time>
      </trkpt>
      <trkpt lat="46.09538" lon="6.10624">
        <ele>617</ele>
        <time>2012-11-12T12:55:39.000Z</time>
      </trkpt>
      <trkpt lat="46.09566" lon="6.10673">
        <ele>617</ele>
        <time>2012-11-12T12:55:45.000Z</time>
      </trkpt>
      <trkpt lat="46.09576" lon="6.10689">
        <ele>616</ele>
        <time>2012-11-12T12:55:47.000Z</time>
      </trkpt>
      <trkpt lat="46.09582" lon="6.10697">
        <ele>616</ele>
        <time>2012-11-12T12:55:48.000Z</time>
      </trkpt>
      <trkpt lat="46.09595" lon="6.1071">
        <ele>616</ele>
        <time>2012-11-12T12:55:50.000Z</time>
      </trkpt>
      <trkpt lat="46.09601" lon="6.10716">
        <ele>614.59997558594</ele>
        <time>2012-11-12T12:55:51.000Z</time>
      </trkpt>
      <trkpt lat="46.09607" lon="6.10722">
        <ele>613.40002441406</ele>
        <time>2012-11-12T12:55:52.000Z</time>
      </trkpt>
      <trkpt lat="46.09621" lon="6.10735">
        <ele>613.40002441406</ele>
        <time>2012-11-12T12:55:54.000Z</time>
      </trkpt>
      <trkpt lat="46.09635" lon="6.10746">
        <ele>613.40002441406</ele>
        <time>2012-11-12T12:55:56.000Z</time>
      </trkpt>
      <trkpt lat="46.09682" lon="6.10788">
        <ele>613.40002441406</ele>
        <time>2012-11-12T12:56:03.000Z</time>
      </trkpt>
      <trkpt lat="46.09689" lon="6.10794">
        <ele>613.40002441406</ele>
        <time>2012-11-12T12:56:04.000Z</time>
      </trkpt>
      <trkpt lat="46.09736" lon="6.10837">
        <ele>613.40002441406</ele>
        <time>2012-11-12T12:56:11.000Z</time>
      </trkpt>
      <trkpt lat="46.09756" lon="6.10856">
        <ele>613.40002441406</ele>
        <time>2012-11-12T12:56:14.000Z</time>
      </trkpt>
      <trkpt lat="46.09802" lon="6.109">
        <ele>613.40002441406</ele>
        <time>2012-11-12T12:56:21.000Z</time>
      </trkpt>
      <trkpt lat="46.09817" lon="6.10909">
        <ele>613.40002441406</ele>
        <time>2012-11-12T12:56:23.000Z</time>
      </trkpt>
      <trkpt lat="46.09865" lon="6.10946">
        <ele>613.40002441406</ele>
        <time>2012-11-12T12:56:30.000Z</time>
      </trkpt>
      <trkpt lat="46.09871" lon="6.10952">
        <ele>613.40002441406</ele>
        <time>2012-11-12T12:56:31.000Z</time>
      </trkpt>
      <trkpt lat="46.0991" lon="6.11002">
        <ele>613.40002441406</ele>
        <time>2012-11-12T12:56:38.000Z</time>
      </trkpt>
      <trkpt lat="46.09937" lon="6.11036">
        <ele>616.40002441406</ele>
        <time>2012-11-12T12:56:43.000Z</time>
      </trkpt>
      <trkpt lat="46.09954" lon="6.11054">
        <ele>616.40002441406</ele>
        <time>2012-11-12T12:56:46.000Z</time>
      </trkpt>
      <trkpt lat="46.09972" lon="6.11072">
        <ele>617.59997558594</ele>
        <time>2012-11-12T12:56:49.000Z</time>
      </trkpt>
      <trkpt lat="46.09984" lon="6.11084">
        <ele>618.59997558594</ele>
        <time>2012-11-12T12:56:51.000Z</time>
      </trkpt>
      <trkpt lat="46.09995" lon="6.11095">
        <ele>618.59997558594</ele>
        <time>2012-11-12T12:56:53.000Z</time>
      </trkpt>
      <trkpt lat="46.1" lon="6.11101">
        <ele>620</ele>
        <time>2012-11-12T12:56:54.000Z</time>
      </trkpt>
      <trkpt lat="46.10015" lon="6.11118">
        <ele>621.20001220703</ele>
        <time>2012-11-12T12:56:57.000Z</time>
      </trkpt>
      <trkpt lat="46.1002" lon="6.11124">
        <ele>622.40002441406</ele>
        <time>2012-11-12T12:56:58.000Z</time>
      </trkpt>
      <trkpt lat="46.10031" lon="6.11136">
        <ele>623.40002441406</ele>
        <time>2012-11-12T12:57:00.000Z</time>
      </trkpt>
      <trkpt lat="46.10036" lon="6.11142">
        <ele>623.40002441406</ele>
        <time>2012-11-12T12:57:01.000Z</time>
      </trkpt>
      <trkpt lat="46.1008" lon="6.11194">
        <ele>623.40002441406</ele>
        <time>2012-11-12T12:57:10.000Z</time>
      </trkpt>
      <trkpt lat="46.1009" lon="6.11205">
        <ele>624.59997558594</ele>
        <time>2012-11-12T12:57:12.000Z</time>
      </trkpt>
      <trkpt lat="46.10101" lon="6.11214">
        <ele>624.59997558594</ele>
        <time>2012-11-12T12:57:14.000Z</time>
      </trkpt>
      <trkpt lat="46.10106" lon="6.11217">
        <ele>624.59997558594</ele>
        <time>2012-11-12T12:57:15.000Z</time>
      </trkpt>
      <trkpt lat="46.10112" lon="6.1122">
        <ele>626</ele>
        <time>2012-11-12T12:57:16.000Z</time>
      </trkpt>
      <trkpt lat="46.10146" lon="6.11232">
        <ele>626</ele>
        <time>2012-11-12T12:57:22.000Z</time>
      </trkpt>
      <trkpt lat="46.10158" lon="6.11235">
        <ele>627</ele>
        <time>2012-11-12T12:57:24.000Z</time>
      </trkpt>
      <trkpt lat="46.10181" lon="6.11241">
        <ele>628.20001220703</ele>
        <time>2012-11-12T12:57:28.000Z</time>
      </trkpt>
      <trkpt lat="46.10186" lon="6.11242">
        <ele>629.40002441406</ele>
        <time>2012-11-12T12:57:29.000Z</time>
      </trkpt>
      <trkpt lat="46.10192" lon="6.11243">
        <ele>629.40002441406</ele>
        <time>2012-11-12T12:57:30.000Z</time>
      </trkpt>
      <trkpt lat="46.10225" lon="6.11245">
        <ele>630.40002441406</ele>
        <time>2012-11-12T12:57:36.000Z</time>
      </trkpt>
      <trkpt lat="46.10236" lon="6.11246">
        <ele>631.40002441406</ele>
        <time>2012-11-12T12:57:38.000Z</time>
      </trkpt>
      <trkpt lat="46.10263" lon="6.11248">
        <ele>632.59997558594</ele>
        <time>2012-11-12T12:57:43.000Z</time>
      </trkpt>
      <trkpt lat="46.10278" lon="6.1125">
        <ele>632.59997558594</ele>
        <time>2012-11-12T12:57:46.000Z</time>
      </trkpt>
      <trkpt lat="46.10288" lon="6.11252">
        <ele>633.59997558594</ele>
        <time>2012-11-12T12:57:48.000Z</time>
      </trkpt>
      <trkpt lat="46.10314" lon="6.1126">
        <ele>633.59997558594</ele>
        <time>2012-11-12T12:57:53.000Z</time>
      </trkpt>
      <trkpt lat="46.1032" lon="6.11262">
        <ele>636.20001220703</ele>
        <time>2012-11-12T12:57:54.000Z</time>
      </trkpt>
      <trkpt lat="46.10334" lon="6.11268">
        <ele>637.20001220703</ele>
        <time>2012-11-12T12:57:57.000Z</time>
      </trkpt>
      <trkpt lat="46.1035" lon="6.11276">
        <ele>637.20001220703</ele>
        <time>2012-11-12T12:58:00.000Z</time>
      </trkpt>
      <trkpt lat="46.10355" lon="6.11279">
        <ele>638.40002441406</ele>
        <time>2012-11-12T12:58:01.000Z</time>
      </trkpt>
      <trkpt lat="46.10385" lon="6.113">
        <ele>638.40002441406</ele>
        <time>2012-11-12T12:58:07.000Z</time>
      </trkpt>
      <trkpt lat="46.10427" lon="6.11331">
        <ele>639.40002441406</ele>
        <time>2012-11-12T12:58:15.000Z</time>
      </trkpt>
      <trkpt lat="46.10437" lon="6.11339">
        <ele>639.40002441406</ele>
        <time>2012-11-12T12:58:17.000Z</time>
      </trkpt>
      <trkpt lat="46.10473" lon="6.11358">
        <ele>639.40002441406</ele>
        <time>2012-11-12T12:58:23.000Z</time>
      </trkpt>
      <trkpt lat="46.10521" lon="6.1138">
        <ele>639.40002441406</ele>
        <time>2012-11-12T12:58:30.000Z</time>
      </trkpt>
      <trkpt lat="46.10579" lon="6.11404">
        <ele>639.40002441406</ele>
        <time>2012-11-12T12:58:38.000Z</time>
      </trkpt>
      <trkpt lat="46.10594" lon="6.1141">
        <ele>639.40002441406</ele>
        <time>2012-11-12T12:58:40.000Z</time>
      </trkpt>
      <trkpt lat="46.10651" lon="6.11435">
        <ele>639.40002441406</ele>
        <time>2012-11-12T12:58:48.000Z</time>
      </trkpt>
      <trkpt lat="46.10671" lon="6.11445">
        <ele>640.40002441406</ele>
        <time>2012-11-12T12:58:51.000Z</time>
      </trkpt>
      <trkpt lat="46.10716" lon="6.11468">
        <ele>640.40002441406</ele>
        <time>2012-11-12T12:58:58.000Z</time>
      </trkpt>
      <trkpt lat="46.10774" lon="6.11497">
        <ele>640.40002441406</ele>
        <time>2012-11-12T12:59:06.000Z</time>
      </trkpt>
      <trkpt lat="46.10795" lon="6.11506">
        <ele>637.20001220703</ele>
        <time>2012-11-12T12:59:09.000Z</time>
      </trkpt>
      <trkpt lat="46.10805" lon="6.11509">
        <ele>636.20001220703</ele>
        <time>2012-11-12T12:59:10.000Z</time>
      </trkpt>
      <trkpt lat="46.10822" lon="6.11512">
        <ele>636.20001220703</ele>
        <time>2012-11-12T12:59:12.000Z</time>
      </trkpt>
      <trkpt lat="46.10869" lon="6.1153">
        <ele>636.20001220703</ele>
        <time>2012-11-12T12:59:18.000Z</time>
      </trkpt>
      <trkpt lat="46.10876" lon="6.11532">
        <ele>636.20001220703</ele>
        <time>2012-11-12T12:59:19.000Z</time>
      </trkpt>
      <trkpt lat="46.10898" lon="6.11533">
        <ele>636.20001220703</ele>
        <time>2012-11-12T12:59:22.000Z</time>
      </trkpt>
      <trkpt lat="46.10957" lon="6.11536">
        <ele>636.20001220703</ele>
        <time>2012-11-12T12:59:30.000Z</time>
      </trkpt>
      <trkpt lat="46.11015" lon="6.11551">
        <ele>636.20001220703</ele>
        <time>2012-11-12T12:59:38.000Z</time>
      </trkpt>
      <trkpt lat="46.11031" lon="6.11555">
        <ele>634.59997558594</ele>
        <time>2012-11-12T12:59:40.000Z</time>
      </trkpt>
      <trkpt lat="46.11056" lon="6.11557">
        <ele>633.40002441406</ele>
        <time>2012-11-12T12:59:43.000Z</time>
      </trkpt>
      <trkpt lat="46.11075" lon="6.11556">
        <ele>632.20001220703</ele>
        <time>2012-11-12T12:59:45.000Z</time>
      </trkpt>
      <trkpt lat="46.11085" lon="6.11557">
        <ele>630.59997558594</ele>
        <time>2012-11-12T12:59:46.000Z</time>
      </trkpt>
      <trkpt lat="46.11104" lon="6.1156">
        <ele>629.20001220703</ele>
        <time>2012-11-12T12:59:48.000Z</time>
      </trkpt>
      <trkpt lat="46.11113" lon="6.11563">
        <ele>628</ele>
        <time>2012-11-12T12:59:49.000Z</time>
      </trkpt>
      <trkpt lat="46.11123" lon="6.11568">
        <ele>627</ele>
        <time>2012-11-12T12:59:50.000Z</time>
      </trkpt>
      <trkpt lat="46.11133" lon="6.11574">
        <ele>626</ele>
        <time>2012-11-12T12:59:51.000Z</time>
      </trkpt>
      <trkpt lat="46.11153" lon="6.11588">
        <ele>624.59997558594</ele>
        <time>2012-11-12T12:59:53.000Z</time>
      </trkpt>
      <trkpt lat="46.11172" lon="6.11603">
        <ele>624.59997558594</ele>
        <time>2012-11-12T12:59:55.000Z</time>
      </trkpt>
      <trkpt lat="46.11217" lon="6.11631">
        <ele>624.59997558594</ele>
        <time>2012-11-12T13:00:00.000Z</time>
      </trkpt>
      <trkpt lat="46.11243" lon="6.11646">
        <ele>624.59997558594</ele>
        <time>2012-11-12T13:00:03.000Z</time>
      </trkpt>
      <trkpt lat="46.11258" lon="6.11662">
        <ele>624.59997558594</ele>
        <time>2012-11-12T13:00:05.000Z</time>
      </trkpt>
      <trkpt lat="46.11298" lon="6.11715">
        <ele>624.59997558594</ele>
        <time>2012-11-12T13:00:11.000Z</time>
      </trkpt>
      <trkpt lat="46.11309" lon="6.11734">
        <ele>623.59997558594</ele>
        <time>2012-11-12T13:00:13.000Z</time>
      </trkpt>
      <trkpt lat="46.11331" lon="6.11776">
        <ele>623.59997558594</ele>
        <time>2012-11-12T13:00:17.000Z</time>
      </trkpt>
      <trkpt lat="46.11367" lon="6.11847">
        <ele>623.59997558594</ele>
        <time>2012-11-12T13:00:24.000Z</time>
      </trkpt>
      <trkpt lat="46.1139" lon="6.11893">
        <ele>626.59997558594</ele>
        <time>2012-11-12T13:00:29.000Z</time>
      </trkpt>
      <trkpt lat="46.11403" lon="6.11918">
        <ele>626.59997558594</ele>
        <time>2012-11-12T13:00:32.000Z</time>
      </trkpt>
      <trkpt lat="46.11416" lon="6.11945">
        <ele>627.59997558594</ele>
        <time>2012-11-12T13:00:35.000Z</time>
      </trkpt>
      <trkpt lat="46.11421" lon="6.11953">
        <ele>629</ele>
        <time>2012-11-12T13:00:36.000Z</time>
      </trkpt>
      <trkpt lat="46.11425" lon="6.11961">
        <ele>630</ele>
        <time>2012-11-12T13:00:37.000Z</time>
      </trkpt>
      <trkpt lat="46.11447" lon="6.12002">
        <ele>630</ele>
        <time>2012-11-12T13:00:42.000Z</time>
      </trkpt>
      <trkpt lat="46.11461" lon="6.12025">
        <ele>631</ele>
        <time>2012-11-12T13:00:45.000Z</time>
      </trkpt>
      <trkpt lat="46.11483" lon="6.12064">
        <ele>631</ele>
        <time>2012-11-12T13:00:50.000Z</time>
      </trkpt>
      <trkpt lat="46.11498" lon="6.12087">
        <ele>628</ele>
        <time>2012-11-12T13:00:53.000Z</time>
      </trkpt>
      <trkpt lat="46.11509" lon="6.12104">
        <ele>626.59997558594</ele>
        <time>2012-11-12T13:00:55.000Z</time>
      </trkpt>
      <trkpt lat="46.11521" lon="6.1212">
        <ele>626.59997558594</ele>
        <time>2012-11-12T13:00:57.000Z</time>
      </trkpt>
      <trkpt lat="46.11527" lon="6.12127">
        <ele>625.59997558594</ele>
        <time>2012-11-12T13:00:58.000Z</time>
      </trkpt>
      <trkpt lat="46.11541" lon="6.12143">
        <ele>624.40002441406</ele>
        <time>2012-11-12T13:01:00.000Z</time>
      </trkpt>
      <trkpt lat="46.11561" lon="6.12166">
        <ele>624.40002441406</ele>
        <time>2012-11-12T13:01:03.000Z</time>
      </trkpt>
      <trkpt lat="46.11589" lon="6.12195">
        <ele>623.20001220703</ele>
        <time>2012-11-12T13:01:07.000Z</time>
      </trkpt>
      <trkpt lat="46.11596" lon="6.12203">
        <ele>622.20001220703</ele>
        <time>2012-11-12T13:01:08.000Z</time>
      </trkpt>
      <trkpt lat="46.11624" lon="6.12232">
        <ele>622.20001220703</ele>
        <time>2012-11-12T13:01:12.000Z</time>
      </trkpt>
      <trkpt lat="46.1165" lon="6.12244">
        <ele>622.20001220703</ele>
        <time>2012-11-12T13:01:15.000Z</time>
      </trkpt>
      <trkpt lat="46.11676" lon="6.12236">
        <ele>620.59997558594</ele>
        <time>2012-11-12T13:01:18.000Z</time>
      </trkpt>
      <trkpt lat="46.11684" lon="6.1223">
        <ele>619.59997558594</ele>
        <time>2012-11-12T13:01:19.000Z</time>
      </trkpt>
      <trkpt lat="46.11693" lon="6.12225">
        <ele>619.59997558594</ele>
        <time>2012-11-12T13:01:20.000Z</time>
      </trkpt>
      <trkpt lat="46.11702" lon="6.12219">
        <ele>618.20001220703</ele>
        <time>2012-11-12T13:01:21.000Z</time>
      </trkpt>
      <trkpt lat="46.1171" lon="6.12214">
        <ele>617.20001220703</ele>
        <time>2012-11-12T13:01:22.000Z</time>
      </trkpt>
      <trkpt lat="46.11721" lon="6.12209">
        <ele>617.20001220703</ele>
        <time>2012-11-12T13:01:23.000Z</time>
      </trkpt>
      <trkpt lat="46.11732" lon="6.12206">
        <ele>617.20001220703</ele>
        <time>2012-11-12T13:01:24.000Z</time>
      </trkpt>
      <trkpt lat="46.11754" lon="6.12202">
        <ele>615.59997558594</ele>
        <time>2012-11-12T13:01:26.000Z</time>
      </trkpt>
      <trkpt lat="46.11764" lon="6.122">
        <ele>613.59997558594</ele>
        <time>2012-11-12T13:01:27.000Z</time>
      </trkpt>
      <trkpt lat="46.11776" lon="6.12199">
        <ele>612.40002441406</ele>
        <time>2012-11-12T13:01:28.000Z</time>
      </trkpt>
      <trkpt lat="46.11789" lon="6.12198">
        <ele>611</ele>
        <time>2012-11-12T13:01:29.000Z</time>
      </trkpt>
      <trkpt lat="46.118" lon="6.12199">
        <ele>609.40002441406</ele>
        <time>2012-11-12T13:01:30.000Z</time>
      </trkpt>
      <trkpt lat="46.11812" lon="6.12203">
        <ele>607.40002441406</ele>
        <time>2012-11-12T13:01:31.000Z</time>
      </trkpt>
      <trkpt lat="46.11834" lon="6.12217">
        <ele>606</ele>
        <time>2012-11-12T13:01:33.000Z</time>
      </trkpt>
      <trkpt lat="46.11845" lon="6.12226">
        <ele>606</ele>
        <time>2012-11-12T13:01:34.000Z</time>
      </trkpt>
      <trkpt lat="46.11853" lon="6.12237">
        <ele>604.40002441406</ele>
        <time>2012-11-12T13:01:35.000Z</time>
      </trkpt>
      <trkpt lat="46.11863" lon="6.1225">
        <ele>603.20001220703</ele>
        <time>2012-11-12T13:01:36.000Z</time>
      </trkpt>
      <trkpt lat="46.11872" lon="6.12261">
        <ele>602.20001220703</ele>
        <time>2012-11-12T13:01:37.000Z</time>
      </trkpt>
      <trkpt lat="46.1189" lon="6.12287">
        <ele>600.40002441406</ele>
        <time>2012-11-12T13:01:39.000Z</time>
      </trkpt>
      <trkpt lat="46.11898" lon="6.12301">
        <ele>599.20001220703</ele>
        <time>2012-11-12T13:01:40.000Z</time>
      </trkpt>
      <trkpt lat="46.11905" lon="6.12317">
        <ele>599.20001220703</ele>
        <time>2012-11-12T13:01:41.000Z</time>
      </trkpt>
      <trkpt lat="46.11911" lon="6.12332">
        <ele>598</ele>
        <time>2012-11-12T13:01:42.000Z</time>
      </trkpt>
      <trkpt lat="46.1192" lon="6.12367">
        <ele>598</ele>
        <time>2012-11-12T13:01:44.000Z</time>
      </trkpt>
      <trkpt lat="46.11924" lon="6.12401">
        <ele>596.20001220703</ele>
        <time>2012-11-12T13:01:46.000Z</time>
      </trkpt>
      <trkpt lat="46.11925" lon="6.12416">
        <ele>595.20001220703</ele>
        <time>2012-11-12T13:01:47.000Z</time>
      </trkpt>
      <trkpt lat="46.11924" lon="6.12451">
        <ele>595.20001220703</ele>
        <time>2012-11-12T13:01:49.000Z</time>
      </trkpt>
      <trkpt lat="46.11923" lon="6.12465">
        <ele>595.20001220703</ele>
        <time>2012-11-12T13:01:50.000Z</time>
      </trkpt>
      <trkpt lat="46.11922" lon="6.12501">
        <ele>594</ele>
        <time>2012-11-12T13:01:53.000Z</time>
      </trkpt>
      <trkpt lat="46.11924" lon="6.12527">
        <ele>592.59997558594</ele>
        <time>2012-11-12T13:01:55.000Z</time>
      </trkpt>
      <trkpt lat="46.11931" lon="6.12551">
        <ele>591.59997558594</ele>
        <time>2012-11-12T13:01:57.000Z</time>
      </trkpt>
      <trkpt lat="46.11935" lon="6.12563">
        <ele>591.59997558594</ele>
        <time>2012-11-12T13:01:58.000Z</time>
      </trkpt>
      <trkpt lat="46.1194" lon="6.12575">
        <ele>590.40002441406</ele>
        <time>2012-11-12T13:01:59.000Z</time>
      </trkpt>
      <trkpt lat="46.11958" lon="6.12627">
        <ele>588.59997558594</ele>
        <time>2012-11-12T13:02:03.000Z</time>
      </trkpt>
      <trkpt lat="46.11961" lon="6.12639">
        <ele>587.40002441406</ele>
        <time>2012-11-12T13:02:04.000Z</time>
      </trkpt>
      <trkpt lat="46.1197" lon="6.12662">
        <ele>587.40002441406</ele>
        <time>2012-11-12T13:02:06.000Z</time>
      </trkpt>
      <trkpt lat="46.11975" lon="6.12671">
        <ele>586.40002441406</ele>
        <time>2012-11-12T13:02:07.000Z</time>
      </trkpt>
      <trkpt lat="46.11982" lon="6.1268">
        <ele>585.40002441406</ele>
        <time>2012-11-12T13:02:08.000Z</time>
      </trkpt>
      <trkpt lat="46.11995" lon="6.12696">
        <ele>584.40002441406</ele>
        <time>2012-11-12T13:02:10.000Z</time>
      </trkpt>
      <trkpt lat="46.12003" lon="6.12704">
        <ele>584.40002441406</ele>
        <time>2012-11-12T13:02:11.000Z</time>
      </trkpt>
      <trkpt lat="46.1201" lon="6.12709">
        <ele>583.20001220703</ele>
        <time>2012-11-12T13:02:12.000Z</time>
      </trkpt>
      <trkpt lat="46.12029" lon="6.1272">
        <ele>582.20001220703</ele>
        <time>2012-11-12T13:02:14.000Z</time>
      </trkpt>
      <trkpt lat="46.12039" lon="6.12726">
        <ele>581</ele>
        <time>2012-11-12T13:02:15.000Z</time>
      </trkpt>
      <trkpt lat="46.12054" lon="6.12735">
        <ele>580</ele>
        <time>2012-11-12T13:02:17.000Z</time>
      </trkpt>
      <trkpt lat="46.12077" lon="6.12747">
        <ele>580</ele>
        <time>2012-11-12T13:02:20.000Z</time>
      </trkpt>
      <trkpt lat="46.12084" lon="6.12749">
        <ele>578.40002441406</ele>
        <time>2012-11-12T13:02:21.000Z</time>
      </trkpt>
      <trkpt lat="46.12091" lon="6.12752">
        <ele>578.40002441406</ele>
        <time>2012-11-12T13:02:22.000Z</time>
      </trkpt>
      <trkpt lat="46.121" lon="6.12758">
        <ele>577.40002441406</ele>
        <time>2012-11-12T13:02:23.000Z</time>
      </trkpt>
      <trkpt lat="46.12107" lon="6.12763">
        <ele>576.20001220703</ele>
        <time>2012-11-12T13:02:24.000Z</time>
      </trkpt>
      <trkpt lat="46.12123" lon="6.12773">
        <ele>575.20001220703</ele>
        <time>2012-11-12T13:02:26.000Z</time>
      </trkpt>
      <trkpt lat="46.1214" lon="6.12784">
        <ele>574</ele>
        <time>2012-11-12T13:02:28.000Z</time>
      </trkpt>
      <trkpt lat="46.12149" lon="6.1279">
        <ele>573</ele>
        <time>2012-11-12T13:02:29.000Z</time>
      </trkpt>
      <trkpt lat="46.12158" lon="6.12796">
        <ele>571.59997558594</ele>
        <time>2012-11-12T13:02:30.000Z</time>
      </trkpt>
      <trkpt lat="46.12176" lon="6.12808">
        <ele>570.40002441406</ele>
        <time>2012-11-12T13:02:32.000Z</time>
      </trkpt>
      <trkpt lat="46.12194" lon="6.12826">
        <ele>569.40002441406</ele>
        <time>2012-11-12T13:02:34.000Z</time>
      </trkpt>
      <trkpt lat="46.12201" lon="6.12837">
        <ele>569.40002441406</ele>
        <time>2012-11-12T13:02:35.000Z</time>
      </trkpt>
      <trkpt lat="46.12214" lon="6.12876">
        <ele>569.40002441406</ele>
        <time>2012-11-12T13:02:38.000Z</time>
      </trkpt>
      <trkpt lat="46.12216" lon="6.12889">
        <ele>569.40002441406</ele>
        <time>2012-11-12T13:02:39.000Z</time>
      </trkpt>
      <trkpt lat="46.1223" lon="6.12949">
        <ele>569.40002441406</ele>
        <time>2012-11-12T13:02:44.000Z</time>
      </trkpt>
      <trkpt lat="46.12232" lon="6.12959">
        <ele>572.40002441406</ele>
        <time>2012-11-12T13:02:45.000Z</time>
      </trkpt>
      <trkpt lat="46.12236" lon="6.12978">
        <ele>573.40002441406</ele>
        <time>2012-11-12T13:02:47.000Z</time>
      </trkpt>
      <trkpt lat="46.12241" lon="6.12996">
        <ele>573.40002441406</ele>
        <time>2012-11-12T13:02:49.000Z</time>
      </trkpt>
      <trkpt lat="46.12245" lon="6.13014">
        <ele>575</ele>
        <time>2012-11-12T13:02:51.000Z</time>
      </trkpt>
      <trkpt lat="46.1225" lon="6.1304">
        <ele>576.20001220703</ele>
        <time>2012-11-12T13:02:54.000Z</time>
      </trkpt>
      <trkpt lat="46.12255" lon="6.13057">
        <ele>577.40002441406</ele>
        <time>2012-11-12T13:02:56.000Z</time>
      </trkpt>
      <trkpt lat="46.12257" lon="6.13065">
        <ele>577.40002441406</ele>
        <time>2012-11-12T13:02:57.000Z</time>
      </trkpt>
      <trkpt lat="46.12263" lon="6.13091">
        <ele>578.59997558594</ele>
        <time>2012-11-12T13:03:00.000Z</time>
      </trkpt>
      <trkpt lat="46.1227" lon="6.13124">
        <ele>579.59997558594</ele>
        <time>2012-11-12T13:03:04.000Z</time>
      </trkpt>
      <trkpt lat="46.12272" lon="6.13132">
        <ele>581</ele>
        <time>2012-11-12T13:03:05.000Z</time>
      </trkpt>
      <trkpt lat="46.12274" lon="6.1314">
        <ele>581</ele>
        <time>2012-11-12T13:03:06.000Z</time>
      </trkpt>
      <trkpt lat="46.12278" lon="6.13156">
        <ele>582.20001220703</ele>
        <time>2012-11-12T13:03:08.000Z</time>
      </trkpt>
      <trkpt lat="46.12281" lon="6.13172">
        <ele>583.40002441406</ele>
        <time>2012-11-12T13:03:10.000Z</time>
      </trkpt>
      <trkpt lat="46.12285" lon="6.13187">
        <ele>583.40002441406</ele>
        <time>2012-11-12T13:03:12.000Z</time>
      </trkpt>
      <trkpt lat="46.12287" lon="6.13196">
        <ele>584.59997558594</ele>
        <time>2012-11-12T13:03:13.000Z</time>
      </trkpt>
      <trkpt lat="46.12296" lon="6.13237">
        <ele>584.59997558594</ele>
        <time>2012-11-12T13:03:18.000Z</time>
      </trkpt>
      <trkpt lat="46.123" lon="6.13253">
        <ele>586.59997558594</ele>
        <time>2012-11-12T13:03:20.000Z</time>
      </trkpt>
      <trkpt lat="46.12305" lon="6.13277">
        <ele>587.59997558594</ele>
        <time>2012-11-12T13:03:23.000Z</time>
      </trkpt>
      <trkpt lat="46.1231" lon="6.13301">
        <ele>587.59997558594</ele>
        <time>2012-11-12T13:03:26.000Z</time>
      </trkpt>
      <trkpt lat="46.12313" lon="6.13317">
        <ele>588.59997558594</ele>
        <time>2012-11-12T13:03:28.000Z</time>
      </trkpt>
      <trkpt lat="46.12324" lon="6.13387">
        <ele>588.59997558594</ele>
        <time>2012-11-12T13:03:36.000Z</time>
      </trkpt>
      <trkpt lat="46.1233" lon="6.13432">
        <ele>589.59997558594</ele>
        <time>2012-11-12T13:03:41.000Z</time>
      </trkpt>
      <trkpt lat="46.12337" lon="6.13485">
        <ele>589.59997558594</ele>
        <time>2012-11-12T13:03:47.000Z</time>
      </trkpt>
      <trkpt lat="46.12348" lon="6.13562">
        <ele>589.59997558594</ele>
        <time>2012-11-12T13:03:55.000Z</time>
      </trkpt>
      <trkpt lat="46.12354" lon="6.13602">
        <ele>589.59997558594</ele>
        <time>2012-11-12T13:03:59.000Z</time>
      </trkpt>
      <trkpt lat="46.12366" lon="6.13687">
        <ele>589.59997558594</ele>
        <time>2012-11-12T13:04:07.000Z</time>
      </trkpt>
      <trkpt lat="46.12367" lon="6.13699">
        <ele>587.59997558594</ele>
        <time>2012-11-12T13:04:08.000Z</time>
      </trkpt>
      <trkpt lat="46.12369" lon="6.13711">
        <ele>586.59997558594</ele>
        <time>2012-11-12T13:04:09.000Z</time>
      </trkpt>
      <trkpt lat="46.12372" lon="6.13736">
        <ele>585.40002441406</ele>
        <time>2012-11-12T13:04:11.000Z</time>
      </trkpt>
      <trkpt lat="46.12377" lon="6.13775">
        <ele>584.40002441406</ele>
        <time>2012-11-12T13:04:14.000Z</time>
      </trkpt>
      <trkpt lat="46.12379" lon="6.13789">
        <ele>584.40002441406</ele>
        <time>2012-11-12T13:04:15.000Z</time>
      </trkpt>
      <trkpt lat="46.12383" lon="6.13814">
        <ele>583.40002441406</ele>
        <time>2012-11-12T13:04:17.000Z</time>
      </trkpt>
      <trkpt lat="46.12393" lon="6.13889">
        <ele>583.40002441406</ele>
        <time>2012-11-12T13:04:23.000Z</time>
      </trkpt>
      <trkpt lat="46.12399" lon="6.13934">
        <ele>586.40002441406</ele>
        <time>2012-11-12T13:04:27.000Z</time>
      </trkpt>
      <trkpt lat="46.12406" lon="6.13986">
        <ele>586.40002441406</ele>
        <time>2012-11-12T13:04:32.000Z</time>
      </trkpt>
      <trkpt lat="46.12409" lon="6.14004">
        <ele>587.40002441406</ele>
        <time>2012-11-12T13:04:34.000Z</time>
      </trkpt>
      <trkpt lat="46.1241" lon="6.14017">
        <ele>589</ele>
        <time>2012-11-12T13:04:35.000Z</time>
      </trkpt>
      <trkpt lat="46.12412" lon="6.14028">
        <ele>590</ele>
        <time>2012-11-12T13:04:36.000Z</time>
      </trkpt>
      <trkpt lat="46.12417" lon="6.14069">
        <ele>590</ele>
        <time>2012-11-12T13:04:40.000Z</time>
      </trkpt>
      <trkpt lat="46.12429" lon="6.14153">
        <ele>590</ele>
        <time>2012-11-12T13:04:48.000Z</time>
      </trkpt>
      <trkpt lat="46.12434" lon="6.14184">
        <ele>590</ele>
        <time>2012-11-12T13:04:51.000Z</time>
      </trkpt>
      <trkpt lat="46.12443" lon="6.14213">
        <ele>590</ele>
        <time>2012-11-12T13:04:54.000Z</time>
      </trkpt>
      <trkpt lat="46.12451" lon="6.14232">
        <ele>590</ele>
        <time>2012-11-12T13:04:56.000Z</time>
      </trkpt>
      <trkpt lat="46.12477" lon="6.14284">
        <ele>592</ele>
        <time>2012-11-12T13:05:02.000Z</time>
      </trkpt>
      <trkpt lat="46.12486" lon="6.14301">
        <ele>592</ele>
        <time>2012-11-12T13:05:04.000Z</time>
      </trkpt>
      <trkpt lat="46.12519" lon="6.1437">
        <ele>592</ele>
        <time>2012-11-12T13:05:12.000Z</time>
      </trkpt>
      <trkpt lat="46.12523" lon="6.14379">
        <ele>592</ele>
        <time>2012-11-12T13:05:13.000Z</time>
      </trkpt>
      <trkpt lat="46.12558" lon="6.14451">
        <ele>592</ele>
        <time>2012-11-12T13:05:21.000Z</time>
      </trkpt>
      <trkpt lat="46.12582" lon="6.14504">
        <ele>592</ele>
        <time>2012-11-12T13:05:27.000Z</time>
      </trkpt>
      <trkpt lat="46.12585" lon="6.14514">
        <ele>592</ele>
        <time>2012-11-12T13:05:28.000Z</time>
      </trkpt>
      <trkpt lat="46.12588" lon="6.14548">
        <ele>592</ele>
        <time>2012-11-12T13:05:31.000Z</time>
      </trkpt>
      <trkpt lat="46.12588" lon="6.14559">
        <ele>592</ele>
        <time>2012-11-12T13:05:32.000Z</time>
      </trkpt>
      <trkpt lat="46.12589" lon="6.14579">
        <ele>592</ele>
        <time>2012-11-12T13:05:34.000Z</time>
      </trkpt>
      <trkpt lat="46.12593" lon="6.1459">
        <ele>589</ele>
        <time>2012-11-12T13:05:35.000Z</time>
      </trkpt>
      <trkpt lat="46.12609" lon="6.1462">
        <ele>589</ele>
        <time>2012-11-12T13:05:38.000Z</time>
      </trkpt>
      <trkpt lat="46.12614" lon="6.14629">
        <ele>586.40002441406</ele>
        <time>2012-11-12T13:05:39.000Z</time>
      </trkpt>
      <trkpt lat="46.1262" lon="6.14639">
        <ele>585.40002441406</ele>
        <time>2012-11-12T13:05:40.000Z</time>
      </trkpt>
      <trkpt lat="46.12626" lon="6.14649">
        <ele>584</ele>
        <time>2012-11-12T13:05:41.000Z</time>
      </trkpt>
      <trkpt lat="46.12633" lon="6.14657">
        <ele>584</ele>
        <time>2012-11-12T13:05:42.000Z</time>
      </trkpt>
      <trkpt lat="46.12641" lon="6.14665">
        <ele>582.40002441406</ele>
        <time>2012-11-12T13:05:43.000Z</time>
      </trkpt>
      <trkpt lat="46.12663" lon="6.14688">
        <ele>581.40002441406</ele>
        <time>2012-11-12T13:05:46.000Z</time>
      </trkpt>
      <trkpt lat="46.12672" lon="6.14696">
        <ele>580.40002441406</ele>
        <time>2012-11-12T13:05:47.000Z</time>
      </trkpt>
      <trkpt lat="46.1268" lon="6.14705">
        <ele>579.40002441406</ele>
        <time>2012-11-12T13:05:48.000Z</time>
      </trkpt>
      <trkpt lat="46.12697" lon="6.14722">
        <ele>579.40002441406</ele>
        <time>2012-11-12T13:05:50.000Z</time>
      </trkpt>
      <trkpt lat="46.1271" lon="6.14739">
        <ele>579.40002441406</ele>
        <time>2012-11-12T13:05:52.000Z</time>
      </trkpt>
      <trkpt lat="46.12722" lon="6.14762">
        <ele>579.40002441406</ele>
        <time>2012-11-12T13:05:54.000Z</time>
      </trkpt>
      <trkpt lat="46.12733" lon="6.14796">
        <ele>579.40002441406</ele>
        <time>2012-11-12T13:05:57.000Z</time>
      </trkpt>
      <trkpt lat="46.12736" lon="6.14806">
        <ele>579.40002441406</ele>
        <time>2012-11-12T13:05:58.000Z</time>
      </trkpt>
      <trkpt lat="46.12759" lon="6.14877">
        <ele>579.40002441406</ele>
        <time>2012-11-12T13:06:05.000Z</time>
      </trkpt>
      <trkpt lat="46.12765" lon="6.14896">
        <ele>582.40002441406</ele>
        <time>2012-11-12T13:06:07.000Z</time>
      </trkpt>
      <trkpt lat="46.12777" lon="6.14924">
        <ele>582.40002441406</ele>
        <time>2012-11-12T13:06:10.000Z</time>
      </trkpt>
      <trkpt lat="46.12782" lon="6.14931">
        <ele>582.40002441406</ele>
        <time>2012-11-12T13:06:11.000Z</time>
      </trkpt>
      <trkpt lat="46.12799" lon="6.14953">
        <ele>582.40002441406</ele>
        <time>2012-11-12T13:06:14.000Z</time>
      </trkpt>
      <trkpt lat="46.12805" lon="6.14959">
        <ele>583.40002441406</ele>
        <time>2012-11-12T13:06:15.000Z</time>
      </trkpt>
      <trkpt lat="46.1281" lon="6.14965">
        <ele>583.40002441406</ele>
        <time>2012-11-12T13:06:16.000Z</time>
      </trkpt>
      <trkpt lat="46.12815" lon="6.14972">
        <ele>584.59997558594</ele>
        <time>2012-11-12T13:06:17.000Z</time>
      </trkpt>
      <trkpt lat="46.12821" lon="6.14978">
        <ele>584.59997558594</ele>
        <time>2012-11-12T13:06:18.000Z</time>
      </trkpt>
      <trkpt lat="46.12834" lon="6.15003">
        <ele>585.59997558594</ele>
        <time>2012-11-12T13:06:21.000Z</time>
      </trkpt>
      <trkpt lat="46.12836" lon="6.1502">
        <ele>587.20001220703</ele>
        <time>2012-11-12T13:06:23.000Z</time>
      </trkpt>
      <trkpt lat="46.12838" lon="6.15028">
        <ele>587.20001220703</ele>
        <time>2012-11-12T13:06:24.000Z</time>
      </trkpt>
      <trkpt lat="46.12851" lon="6.15045">
        <ele>587.20001220703</ele>
        <time>2012-11-12T13:06:27.000Z</time>
      </trkpt>
      <trkpt lat="46.12862" lon="6.15055">
        <ele>587.20001220703</ele>
        <time>2012-11-12T13:06:29.000Z</time>
      </trkpt>
      <trkpt lat="46.12869" lon="6.1506">
        <ele>584.20001220703</ele>
        <time>2012-11-12T13:06:30.000Z</time>
      </trkpt>
      <trkpt lat="46.12881" lon="6.15072">
        <ele>584.20001220703</ele>
        <time>2012-11-12T13:06:32.000Z</time>
      </trkpt>
      <trkpt lat="46.12887" lon="6.15079">
        <ele>582.40002441406</ele>
        <time>2012-11-12T13:06:33.000Z</time>
      </trkpt>
      <trkpt lat="46.12893" lon="6.15087">
        <ele>582.40002441406</ele>
        <time>2012-11-12T13:06:34.000Z</time>
      </trkpt>
      <trkpt lat="46.12909" lon="6.1511">
        <ele>582.40002441406</ele>
        <time>2012-11-12T13:06:37.000Z</time>
      </trkpt>
      <trkpt lat="46.12928" lon="6.15138">
        <ele>585.59997558594</ele>
        <time>2012-11-12T13:06:41.000Z</time>
      </trkpt>
      <trkpt lat="46.12932" lon="6.15143">
        <ele>585.59997558594</ele>
        <time>2012-11-12T13:06:42.000Z</time>
      </trkpt>
      <trkpt lat="46.12942" lon="6.15156">
        <ele>587</ele>
        <time>2012-11-12T13:06:44.000Z</time>
      </trkpt>
      <trkpt lat="46.12947" lon="6.15162">
        <ele>588</ele>
        <time>2012-11-12T13:06:45.000Z</time>
      </trkpt>
      <trkpt lat="46.12956" lon="6.15174">
        <ele>588</ele>
        <time>2012-11-12T13:06:47.000Z</time>
      </trkpt>
      <trkpt lat="46.12967" lon="6.15196">
        <ele>589.20001220703</ele>
        <time>2012-11-12T13:06:50.000Z</time>
      </trkpt>
      <trkpt lat="46.1297" lon="6.15203">
        <ele>590.40002441406</ele>
        <time>2012-11-12T13:06:51.000Z</time>
      </trkpt>
      <trkpt lat="46.1298" lon="6.15231">
        <ele>591.40002441406</ele>
        <time>2012-11-12T13:06:55.000Z</time>
      </trkpt>
      <trkpt lat="46.12982" lon="6.15238">
        <ele>591.40002441406</ele>
        <time>2012-11-12T13:06:56.000Z</time>
      </trkpt>
      <trkpt lat="46.12985" lon="6.15245">
        <ele>592.40002441406</ele>
        <time>2012-11-12T13:06:57.000Z</time>
      </trkpt>
      <trkpt lat="46.12997" lon="6.15262">
        <ele>593.59997558594</ele>
        <time>2012-11-12T13:07:00.000Z</time>
      </trkpt>
      <trkpt lat="46.13002" lon="6.15266">
        <ele>593.59997558594</ele>
        <time>2012-11-12T13:07:01.000Z</time>
      </trkpt>
      <trkpt lat="46.13024" lon="6.15275">
        <ele>593.59997558594</ele>
        <time>2012-11-12T13:07:05.000Z</time>
      </trkpt>
      <trkpt lat="46.13029" lon="6.15276">
        <ele>593.59997558594</ele>
        <time>2012-11-12T13:07:06.000Z</time>
      </trkpt>
      <trkpt lat="46.1306" lon="6.15287">
        <ele>593.59997558594</ele>
        <time>2012-11-12T13:07:11.000Z</time>
      </trkpt>
      <trkpt lat="46.13089" lon="6.15306">
        <ele>593.59997558594</ele>
        <time>2012-11-12T13:07:16.000Z</time>
      </trkpt>
      <trkpt lat="46.13095" lon="6.15311">
        <ele>593.59997558594</ele>
        <time>2012-11-12T13:07:17.000Z</time>
      </trkpt>
      <trkpt lat="46.13142" lon="6.15349">
        <ele>593.59997558594</ele>
        <time>2012-11-12T13:07:25.000Z</time>
      </trkpt>
      <trkpt lat="46.13157" lon="6.15366">
        <ele>593.59997558594</ele>
        <time>2012-11-12T13:07:28.000Z</time>
      </trkpt>
      <trkpt lat="46.13161" lon="6.15371">
        <ele>594.59997558594</ele>
        <time>2012-11-12T13:07:29.000Z</time>
      </trkpt>
      <trkpt lat="46.13166" lon="6.15376">
        <ele>594.59997558594</ele>
        <time>2012-11-12T13:07:30.000Z</time>
      </trkpt>
      <trkpt lat="46.13171" lon="6.15381">
        <ele>595.59997558594</ele>
        <time>2012-11-12T13:07:31.000Z</time>
      </trkpt>
      <trkpt lat="46.13178" lon="6.1539">
        <ele>597</ele>
        <time>2012-11-12T13:07:33.000Z</time>
      </trkpt>
      <trkpt lat="46.13184" lon="6.154">
        <ele>598.20001220703</ele>
        <time>2012-11-12T13:07:35.000Z</time>
      </trkpt>
      <trkpt lat="46.13191" lon="6.15413">
        <ele>598.20001220703</ele>
        <time>2012-11-12T13:07:37.000Z</time>
      </trkpt>
      <trkpt lat="46.13195" lon="6.15426">
        <ele>599.40002441406</ele>
        <time>2012-11-12T13:07:39.000Z</time>
      </trkpt>
      <trkpt lat="46.13196" lon="6.15433">
        <ele>599.40002441406</ele>
        <time>2012-11-12T13:07:40.000Z</time>
      </trkpt>
      <trkpt lat="46.132" lon="6.15446">
        <ele>601</ele>
        <time>2012-11-12T13:07:42.000Z</time>
      </trkpt>
      <trkpt lat="46.13205" lon="6.15466">
        <ele>602</ele>
        <time>2012-11-12T13:07:45.000Z</time>
      </trkpt>
      <trkpt lat="46.13208" lon="6.15479">
        <ele>602</ele>
        <time>2012-11-12T13:07:47.000Z</time>
      </trkpt>
      <trkpt lat="46.13209" lon="6.15486">
        <ele>603</ele>
        <time>2012-11-12T13:07:48.000Z</time>
      </trkpt>
      <trkpt lat="46.13212" lon="6.15499">
        <ele>604.20001220703</ele>
        <time>2012-11-12T13:07:50.000Z</time>
      </trkpt>
      <trkpt lat="46.13217" lon="6.15518">
        <ele>605.40002441406</ele>
        <time>2012-11-12T13:07:53.000Z</time>
      </trkpt>
      <trkpt lat="46.1322" lon="6.15532">
        <ele>606.40002441406</ele>
        <time>2012-11-12T13:07:55.000Z</time>
      </trkpt>
      <trkpt lat="46.13221" lon="6.15544">
        <ele>607.40002441406</ele>
        <time>2012-11-12T13:07:57.000Z</time>
      </trkpt>
      <trkpt lat="46.13222" lon="6.15557">
        <ele>608.40002441406</ele>
        <time>2012-11-12T13:07:59.000Z</time>
      </trkpt>
      <trkpt lat="46.13221" lon="6.1557">
        <ele>608.40002441406</ele>
        <time>2012-11-12T13:08:01.000Z</time>
      </trkpt>
      <trkpt lat="46.1322" lon="6.15576">
        <ele>608.40002441406</ele>
        <time>2012-11-12T13:08:02.000Z</time>
      </trkpt>
      <trkpt lat="46.13219" lon="6.15583">
        <ele>610</ele>
        <time>2012-11-12T13:08:03.000Z</time>
      </trkpt>
      <trkpt lat="46.13219" lon="6.15589">
        <ele>610</ele>
        <time>2012-11-12T13:08:04.000Z</time>
      </trkpt>
      <trkpt lat="46.13218" lon="6.15602">
        <ele>611</ele>
        <time>2012-11-12T13:08:06.000Z</time>
      </trkpt>
      <trkpt lat="46.13218" lon="6.15607">
        <ele>611</ele>
        <time>2012-11-12T13:08:07.000Z</time>
      </trkpt>
      <trkpt lat="46.13218" lon="6.1562">
        <ele>612.20001220703</ele>
        <time>2012-11-12T13:08:09.000Z</time>
      </trkpt>
      <trkpt lat="46.13219" lon="6.15632">
        <ele>613.20001220703</ele>
        <time>2012-11-12T13:08:11.000Z</time>
      </trkpt>
      <trkpt lat="46.1322" lon="6.15638">
        <ele>613.20001220703</ele>
        <time>2012-11-12T13:08:12.000Z</time>
      </trkpt>
      <trkpt lat="46.13223" lon="6.1565">
        <ele>614.40002441406</ele>
        <time>2012-11-12T13:08:14.000Z</time>
      </trkpt>
      <trkpt lat="46.13227" lon="6.15661">
        <ele>615.40002441406</ele>
        <time>2012-11-12T13:08:16.000Z</time>
      </trkpt>
      <trkpt lat="46.13232" lon="6.15673">
        <ele>615.40002441406</ele>
        <time>2012-11-12T13:08:18.000Z</time>
      </trkpt>
      <trkpt lat="46.13241" lon="6.15688">
        <ele>616.59997558594</ele>
        <time>2012-11-12T13:08:21.000Z</time>
      </trkpt>
      <trkpt lat="46.13253" lon="6.15708">
        <ele>617.59997558594</ele>
        <time>2012-11-12T13:08:25.000Z</time>
      </trkpt>
      <trkpt lat="46.13258" lon="6.15717">
        <ele>617.59997558594</ele>
        <time>2012-11-12T13:08:27.000Z</time>
      </trkpt>
      <trkpt lat="46.13272" lon="6.15738">
        <ele>617.59997558594</ele>
        <time>2012-11-12T13:08:31.000Z</time>
      </trkpt>
      <trkpt lat="46.13275" lon="6.15743">
        <ele>617.59997558594</ele>
        <time>2012-11-12T13:08:32.000Z</time>
      </trkpt>
      <trkpt lat="46.13296" lon="6.1577">
        <ele>617.59997558594</ele>
        <time>2012-11-12T13:08:37.000Z</time>
      </trkpt>
      <trkpt lat="46.13315" lon="6.15776">
        <ele>617.59997558594</ele>
        <time>2012-11-12T13:08:40.000Z</time>
      </trkpt>
      <trkpt lat="46.13336" lon="6.1577">
        <ele>617.59997558594</ele>
        <time>2012-11-12T13:08:43.000Z</time>
      </trkpt>
      <trkpt lat="46.13344" lon="6.1577">
        <ele>614.59997558594</ele>
        <time>2012-11-12T13:08:44.000Z</time>
      </trkpt>
      <trkpt lat="46.13351" lon="6.15771">
        <ele>613.40002441406</ele>
        <time>2012-11-12T13:08:45.000Z</time>
      </trkpt>
      <trkpt lat="46.13365" lon="6.15777">
        <ele>613.40002441406</ele>
        <time>2012-11-12T13:08:47.000Z</time>
      </trkpt>
      <trkpt lat="46.1338" lon="6.15786">
        <ele>613.40002441406</ele>
        <time>2012-11-12T13:08:49.000Z</time>
      </trkpt>
      <trkpt lat="46.13393" lon="6.15798">
        <ele>612.40002441406</ele>
        <time>2012-11-12T13:08:51.000Z</time>
      </trkpt>
      <trkpt lat="46.13399" lon="6.15803">
        <ele>612.40002441406</ele>
        <time>2012-11-12T13:08:52.000Z</time>
      </trkpt>
      <trkpt lat="46.13432" lon="6.15847">
        <ele>612.40002441406</ele>
        <time>2012-11-12T13:08:58.000Z</time>
      </trkpt>
      <trkpt lat="46.13456" lon="6.15894">
        <ele>615.40002441406</ele>
        <time>2012-11-12T13:09:04.000Z</time>
      </trkpt>
      <trkpt lat="46.1346" lon="6.15902">
        <ele>615.40002441406</ele>
        <time>2012-11-12T13:09:05.000Z</time>
      </trkpt>
      <trkpt lat="46.13474" lon="6.15931">
        <ele>616.40002441406</ele>
        <time>2012-11-12T13:09:09.000Z</time>
      </trkpt>
      <trkpt lat="46.13486" lon="6.1595">
        <ele>616.40002441406</ele>
        <time>2012-11-12T13:09:12.000Z</time>
      </trkpt>
      <trkpt lat="46.13491" lon="6.15956">
        <ele>616.40002441406</ele>
        <time>2012-11-12T13:09:13.000Z</time>
      </trkpt>
      <trkpt lat="46.13509" lon="6.15968">
        <ele>616.40002441406</ele>
        <time>2012-11-12T13:09:16.000Z</time>
      </trkpt>
      <trkpt lat="46.13539" lon="6.15988">
        <ele>616.40002441406</ele>
        <time>2012-11-12T13:09:21.000Z</time>
      </trkpt>
      <trkpt lat="46.13542" lon="6.15993">
        <ele>616.40002441406</ele>
        <time>2012-11-12T13:09:22.000Z</time>
      </trkpt>
      <trkpt lat="46.13556" lon="6.16016">
        <ele>616.40002441406</ele>
        <time>2012-11-12T13:09:25.000Z</time>
      </trkpt>
      <trkpt lat="46.13563" lon="6.16033">
        <ele>616.40002441406</ele>
        <time>2012-11-12T13:09:27.000Z</time>
      </trkpt>
      <trkpt lat="46.13571" lon="6.16051">
        <ele>613.40002441406</ele>
        <time>2012-11-12T13:09:29.000Z</time>
      </trkpt>
      <trkpt lat="46.13587" lon="6.16088">
        <ele>613.40002441406</ele>
        <time>2012-11-12T13:09:33.000Z</time>
      </trkpt>
      <trkpt lat="46.13594" lon="6.16103">
        <ele>611.59997558594</ele>
        <time>2012-11-12T13:09:35.000Z</time>
      </trkpt>
      <trkpt lat="46.13604" lon="6.16114">
        <ele>610.59997558594</ele>
        <time>2012-11-12T13:09:37.000Z</time>
      </trkpt>
      <trkpt lat="46.13609" lon="6.16119">
        <ele>609.40002441406</ele>
        <time>2012-11-12T13:09:38.000Z</time>
      </trkpt>
      <trkpt lat="46.13617" lon="6.16123">
        <ele>609.40002441406</ele>
        <time>2012-11-12T13:09:39.000Z</time>
      </trkpt>
      <trkpt lat="46.13624" lon="6.16126">
        <ele>608.20001220703</ele>
        <time>2012-11-12T13:09:40.000Z</time>
      </trkpt>
      <trkpt lat="46.13633" lon="6.16128">
        <ele>607.20001220703</ele>
        <time>2012-11-12T13:09:41.000Z</time>
      </trkpt>
      <trkpt lat="46.13641" lon="6.16128">
        <ele>605.59997558594</ele>
        <time>2012-11-12T13:09:42.000Z</time>
      </trkpt>
      <trkpt lat="46.13651" lon="6.16129">
        <ele>604.40002441406</ele>
        <time>2012-11-12T13:09:43.000Z</time>
      </trkpt>
      <trkpt lat="46.13662" lon="6.1613">
        <ele>603.20001220703</ele>
        <time>2012-11-12T13:09:44.000Z</time>
      </trkpt>
      <trkpt lat="46.13681" lon="6.16131">
        <ele>601.40002441406</ele>
        <time>2012-11-12T13:09:46.000Z</time>
      </trkpt>
      <trkpt lat="46.13692" lon="6.16132">
        <ele>600</ele>
        <time>2012-11-12T13:09:47.000Z</time>
      </trkpt>
      <trkpt lat="46.13703" lon="6.16133">
        <ele>598.59997558594</ele>
        <time>2012-11-12T13:09:48.000Z</time>
      </trkpt>
      <trkpt lat="46.13715" lon="6.16134">
        <ele>597.40002441406</ele>
        <time>2012-11-12T13:09:49.000Z</time>
      </trkpt>
      <trkpt lat="46.13727" lon="6.16135">
        <ele>596.40002441406</ele>
        <time>2012-11-12T13:09:50.000Z</time>
      </trkpt>
      <trkpt lat="46.13738" lon="6.16136">
        <ele>595</ele>
        <time>2012-11-12T13:09:51.000Z</time>
      </trkpt>
      <trkpt lat="46.13748" lon="6.16136">
        <ele>593.59997558594</ele>
        <time>2012-11-12T13:09:52.000Z</time>
      </trkpt>
      <trkpt lat="46.13762" lon="6.16137">
        <ele>592.40002441406</ele>
        <time>2012-11-12T13:09:53.000Z</time>
      </trkpt>
      <trkpt lat="46.13787" lon="6.16139">
        <ele>591.40002441406</ele>
        <time>2012-11-12T13:09:55.000Z</time>
      </trkpt>
      <trkpt lat="46.13799" lon="6.1614">
        <ele>590.40002441406</ele>
        <time>2012-11-12T13:09:56.000Z</time>
      </trkpt>
      <trkpt lat="46.1381" lon="6.16141">
        <ele>589.20001220703</ele>
        <time>2012-11-12T13:09:57.000Z</time>
      </trkpt>
      <trkpt lat="46.13843" lon="6.16149">
        <ele>588</ele>
        <time>2012-11-12T13:10:00.000Z</time>
      </trkpt>
      <trkpt lat="46.13853" lon="6.16154">
        <ele>585.20001220703</ele>
        <time>2012-11-12T13:10:01.000Z</time>
      </trkpt>
      <trkpt lat="46.13863" lon="6.1616">
        <ele>584</ele>
        <time>2012-11-12T13:10:02.000Z</time>
      </trkpt>
      <trkpt lat="46.13873" lon="6.16168">
        <ele>582.40002441406</ele>
        <time>2012-11-12T13:10:03.000Z</time>
      </trkpt>
      <trkpt lat="46.13882" lon="6.16175">
        <ele>582.40002441406</ele>
        <time>2012-11-12T13:10:04.000Z</time>
      </trkpt>
      <trkpt lat="46.13893" lon="6.16185">
        <ele>581.20001220703</ele>
        <time>2012-11-12T13:10:05.000Z</time>
      </trkpt>
      <trkpt lat="46.13902" lon="6.16193">
        <ele>579.40002441406</ele>
        <time>2012-11-12T13:10:06.000Z</time>
      </trkpt>
      <trkpt lat="46.13914" lon="6.16202">
        <ele>578.40002441406</ele>
        <time>2012-11-12T13:10:07.000Z</time>
      </trkpt>
      <trkpt lat="46.13925" lon="6.16211">
        <ele>576.59997558594</ele>
        <time>2012-11-12T13:10:08.000Z</time>
      </trkpt>
      <trkpt lat="46.13936" lon="6.1622">
        <ele>575.40002441406</ele>
        <time>2012-11-12T13:10:09.000Z</time>
      </trkpt>
      <trkpt lat="46.13966" lon="6.16243">
        <ele>574.20001220703</ele>
        <time>2012-11-12T13:10:12.000Z</time>
      </trkpt>
      <trkpt lat="46.13976" lon="6.1625">
        <ele>574.20001220703</ele>
        <time>2012-11-12T13:10:13.000Z</time>
      </trkpt>
      <trkpt lat="46.13993" lon="6.16257">
        <ele>574.20001220703</ele>
        <time>2012-11-12T13:10:15.000Z</time>
      </trkpt>
      <trkpt lat="46.14001" lon="6.16257">
        <ele>573.20001220703</ele>
        <time>2012-11-12T13:10:16.000Z</time>
      </trkpt>
      <trkpt lat="46.14008" lon="6.16256">
        <ele>572</ele>
        <time>2012-11-12T13:10:17.000Z</time>
      </trkpt>
      <trkpt lat="46.14024" lon="6.16246">
        <ele>570.40002441406</ele>
        <time>2012-11-12T13:10:19.000Z</time>
      </trkpt>
      <trkpt lat="46.14031" lon="6.16238">
        <ele>569.40002441406</ele>
        <time>2012-11-12T13:10:20.000Z</time>
      </trkpt>
      <trkpt lat="46.14036" lon="6.16229">
        <ele>568.20001220703</ele>
        <time>2012-11-12T13:10:21.000Z</time>
      </trkpt>
      <trkpt lat="46.14039" lon="6.16219">
        <ele>568.20001220703</ele>
        <time>2012-11-12T13:10:22.000Z</time>
      </trkpt>
      <trkpt lat="46.14041" lon="6.16203">
        <ele>567</ele>
        <time>2012-11-12T13:10:23.000Z</time>
      </trkpt>
      <trkpt lat="46.1404" lon="6.1619">
        <ele>565.59997558594</ele>
        <time>2012-11-12T13:10:24.000Z</time>
      </trkpt>
      <trkpt lat="46.14038" lon="6.16178">
        <ele>564.40002441406</ele>
        <time>2012-11-12T13:10:25.000Z</time>
      </trkpt>
      <trkpt lat="46.14034" lon="6.16163">
        <ele>563.40002441406</ele>
        <time>2012-11-12T13:10:26.000Z</time>
      </trkpt>
      <trkpt lat="46.14025" lon="6.16136">
        <ele>562.40002441406</ele>
        <time>2012-11-12T13:10:28.000Z</time>
      </trkpt>
      <trkpt lat="46.14019" lon="6.1612">
        <ele>561.20001220703</ele>
        <time>2012-11-12T13:10:29.000Z</time>
      </trkpt>
      <trkpt lat="46.14015" lon="6.16107">
        <ele>560.20001220703</ele>
        <time>2012-11-12T13:10:30.000Z</time>
      </trkpt>
      <trkpt lat="46.14004" lon="6.16078">
        <ele>559</ele>
        <time>2012-11-12T13:10:32.000Z</time>
      </trkpt>
      <trkpt lat="46.13995" lon="6.16052">
        <ele>559</ele>
        <time>2012-11-12T13:10:34.000Z</time>
      </trkpt>
      <trkpt lat="46.13991" lon="6.16038">
        <ele>558</ele>
        <time>2012-11-12T13:10:35.000Z</time>
      </trkpt>
      <trkpt lat="46.13985" lon="6.16016">
        <ele>556.40002441406</ele>
        <time>2012-11-12T13:10:37.000Z</time>
      </trkpt>
      <trkpt lat="46.13984" lon="6.16006">
        <ele>556.40002441406</ele>
        <time>2012-11-12T13:10:38.000Z</time>
      </trkpt>
      <trkpt lat="46.13983" lon="6.15995">
        <ele>555.40002441406</ele>
        <time>2012-11-12T13:10:39.000Z</time>
      </trkpt>
      <trkpt lat="46.13988" lon="6.15973">
        <ele>554.40002441406</ele>
        <time>2012-11-12T13:10:41.000Z</time>
      </trkpt>
      <trkpt lat="46.13993" lon="6.15965">
        <ele>553.20001220703</ele>
        <time>2012-11-12T13:10:42.000Z</time>
      </trkpt>
      <trkpt lat="46.14001" lon="6.15956">
        <ele>551.59997558594</ele>
        <time>2012-11-12T13:10:43.000Z</time>
      </trkpt>
      <trkpt lat="46.14016" lon="6.15952">
        <ele>550.40002441406</ele>
        <time>2012-11-12T13:10:45.000Z</time>
      </trkpt>
      <trkpt lat="46.14024" lon="6.15954">
        <ele>549.20001220703</ele>
        <time>2012-11-12T13:10:46.000Z</time>
      </trkpt>
      <trkpt lat="46.14033" lon="6.15959">
        <ele>548</ele>
        <time>2012-11-12T13:10:47.000Z</time>
      </trkpt>
      <trkpt lat="46.14042" lon="6.15966">
        <ele>546.59997558594</ele>
        <time>2012-11-12T13:10:48.000Z</time>
      </trkpt>
      <trkpt lat="46.14059" lon="6.15981">
        <ele>545.59997558594</ele>
        <time>2012-11-12T13:10:50.000Z</time>
      </trkpt>
      <trkpt lat="46.14067" lon="6.15987">
        <ele>545.59997558594</ele>
        <time>2012-11-12T13:10:51.000Z</time>
      </trkpt>
      <trkpt lat="46.14075" lon="6.15989">
        <ele>544.40002441406</ele>
        <time>2012-11-12T13:10:52.000Z</time>
      </trkpt>
      <trkpt lat="46.14085" lon="6.1599">
        <ele>543.40002441406</ele>
        <time>2012-11-12T13:10:53.000Z</time>
      </trkpt>
      <trkpt lat="46.14094" lon="6.15986">
        <ele>542.20001220703</ele>
        <time>2012-11-12T13:10:54.000Z</time>
      </trkpt>
      <trkpt lat="46.141" lon="6.15981">
        <ele>542.20001220703</ele>
        <time>2012-11-12T13:10:55.000Z</time>
      </trkpt>
      <trkpt lat="46.14113" lon="6.1596">
        <ele>542.20001220703</ele>
        <time>2012-11-12T13:10:58.000Z</time>
      </trkpt>
      <trkpt lat="46.14117" lon="6.15942">
        <ele>541</ele>
        <time>2012-11-12T13:11:00.000Z</time>
      </trkpt>
      <trkpt lat="46.14118" lon="6.1593">
        <ele>539.59997558594</ele>
        <time>2012-11-12T13:11:01.000Z</time>
      </trkpt>
      <trkpt lat="46.14118" lon="6.15919">
        <ele>538.40002441406</ele>
        <time>2012-11-12T13:11:02.000Z</time>
      </trkpt>
      <trkpt lat="46.14119" lon="6.15905">
        <ele>537.40002441406</ele>
        <time>2012-11-12T13:11:03.000Z</time>
      </trkpt>
      <trkpt lat="46.1412" lon="6.15878">
        <ele>536</ele>
        <time>2012-11-12T13:11:05.000Z</time>
      </trkpt>
      <trkpt lat="46.1412" lon="6.15864">
        <ele>534.40002441406</ele>
        <time>2012-11-12T13:11:06.000Z</time>
      </trkpt>
      <trkpt lat="46.1412" lon="6.15849">
        <ele>533.40002441406</ele>
        <time>2012-11-12T13:11:07.000Z</time>
      </trkpt>
      <trkpt lat="46.14121" lon="6.15821">
        <ele>532</ele>
        <time>2012-11-12T13:11:09.000Z</time>
      </trkpt>
      <trkpt lat="46.14122" lon="6.15776">
        <ele>530.59997558594</ele>
        <time>2012-11-12T13:11:12.000Z</time>
      </trkpt>
      <trkpt lat="46.14123" lon="6.15748">
        <ele>529.40002441406</ele>
        <time>2012-11-12T13:11:14.000Z</time>
      </trkpt>
      <trkpt lat="46.14124" lon="6.15729">
        <ele>529.40002441406</ele>
        <time>2012-11-12T13:11:16.000Z</time>
      </trkpt>
      <trkpt lat="46.14124" lon="6.15719">
        <ele>528</ele>
        <time>2012-11-12T13:11:17.000Z</time>
      </trkpt>
      <trkpt lat="46.14125" lon="6.15707">
        <ele>526.59997558594</ele>
        <time>2012-11-12T13:11:18.000Z</time>
      </trkpt>
      <trkpt lat="46.14125" lon="6.15696">
        <ele>525.59997558594</ele>
        <time>2012-11-12T13:11:19.000Z</time>
      </trkpt>
      <trkpt lat="46.14125" lon="6.15684">
        <ele>524.40002441406</ele>
        <time>2012-11-12T13:11:20.000Z</time>
      </trkpt>
      <trkpt lat="46.14126" lon="6.15671">
        <ele>523.40002441406</ele>
        <time>2012-11-12T13:11:21.000Z</time>
      </trkpt>
      <trkpt lat="46.14126" lon="6.15642">
        <ele>522</ele>
        <time>2012-11-12T13:11:23.000Z</time>
      </trkpt>
      <trkpt lat="46.14126" lon="6.15629">
        <ele>520.59997558594</ele>
        <time>2012-11-12T13:11:24.000Z</time>
      </trkpt>
      <trkpt lat="46.14126" lon="6.15612">
        <ele>519.40002441406</ele>
        <time>2012-11-12T13:11:25.000Z</time>
      </trkpt>
      <trkpt lat="46.14126" lon="6.15597">
        <ele>517.20001220703</ele>
        <time>2012-11-12T13:11:26.000Z</time>
      </trkpt>
      <trkpt lat="46.14131" lon="6.15549">
        <ele>517.20001220703</ele>
        <time>2012-11-12T13:11:30.000Z</time>
      </trkpt>
      <trkpt lat="46.14135" lon="6.15523">
        <ele>516</ele>
        <time>2012-11-12T13:11:32.000Z</time>
      </trkpt>
      <trkpt lat="46.14139" lon="6.1551">
        <ele>514.59997558594</ele>
        <time>2012-11-12T13:11:33.000Z</time>
      </trkpt>
      <trkpt lat="46.14143" lon="6.15499">
        <ele>513.40002441406</ele>
        <time>2012-11-12T13:11:34.000Z</time>
      </trkpt>
      <trkpt lat="46.14148" lon="6.15485">
        <ele>512.40002441406</ele>
        <time>2012-11-12T13:11:35.000Z</time>
      </trkpt>
      <trkpt lat="46.14153" lon="6.15472">
        <ele>511</ele>
        <time>2012-11-12T13:11:36.000Z</time>
      </trkpt>
      <trkpt lat="46.14157" lon="6.1546">
        <ele>508.60000610352</ele>
        <time>2012-11-12T13:11:37.000Z</time>
      </trkpt>
      <trkpt lat="46.14168" lon="6.15433">
        <ele>507.60000610352</ele>
        <time>2012-11-12T13:11:39.000Z</time>
      </trkpt>
      <trkpt lat="46.14172" lon="6.15421">
        <ele>507.60000610352</ele>
        <time>2012-11-12T13:11:40.000Z</time>
      </trkpt>
      <trkpt lat="46.14177" lon="6.15408">
        <ele>506.60000610352</ele>
        <time>2012-11-12T13:11:41.000Z</time>
      </trkpt>
      <trkpt lat="46.14187" lon="6.15387">
        <ele>505.60000610352</ele>
        <time>2012-11-12T13:11:43.000Z</time>
      </trkpt>
      <trkpt lat="46.14193" lon="6.1538">
        <ele>505.60000610352</ele>
        <time>2012-11-12T13:11:44.000Z</time>
      </trkpt>
      <trkpt lat="46.14208" lon="6.15378">
        <ele>504.20001220703</ele>
        <time>2012-11-12T13:11:46.000Z</time>
      </trkpt>
      <trkpt lat="46.14216" lon="6.15381">
        <ele>503</ele>
        <time>2012-11-12T13:11:47.000Z</time>
      </trkpt>
      <trkpt lat="46.14225" lon="6.15386">
        <ele>501.60000610352</ele>
        <time>2012-11-12T13:11:48.000Z</time>
      </trkpt>
      <trkpt lat="46.14233" lon="6.15392">
        <ele>501.60000610352</ele>
        <time>2012-11-12T13:11:49.000Z</time>
      </trkpt>
      <trkpt lat="46.1424" lon="6.15398">
        <ele>500.60000610352</ele>
        <time>2012-11-12T13:11:50.000Z</time>
      </trkpt>
      <trkpt lat="46.14247" lon="6.15401">
        <ele>500.60000610352</ele>
        <time>2012-11-12T13:11:51.000Z</time>
      </trkpt>
      <trkpt lat="46.14254" lon="6.15402">
        <ele>499.60000610352</ele>
        <time>2012-11-12T13:11:52.000Z</time>
      </trkpt>
      <trkpt lat="46.14268" lon="6.15394">
        <ele>498.20001220703</ele>
        <time>2012-11-12T13:11:54.000Z</time>
      </trkpt>
      <trkpt lat="46.14273" lon="6.15385">
        <ele>496</ele>
        <time>2012-11-12T13:11:55.000Z</time>
      </trkpt>
      <trkpt lat="46.14276" lon="6.15375">
        <ele>494.60000610352</ele>
        <time>2012-11-12T13:11:56.000Z</time>
      </trkpt>
      <trkpt lat="46.14278" lon="6.15362">
        <ele>493.20001220703</ele>
        <time>2012-11-12T13:11:57.000Z</time>
      </trkpt>
      <trkpt lat="46.1428" lon="6.15348">
        <ele>492.20001220703</ele>
        <time>2012-11-12T13:11:58.000Z</time>
      </trkpt>
      <trkpt lat="46.14282" lon="6.15334">
        <ele>490.60000610352</ele>
        <time>2012-11-12T13:11:59.000Z</time>
      </trkpt>
      <trkpt lat="46.14285" lon="6.15305">
        <ele>489.60000610352</ele>
        <time>2012-11-12T13:12:01.000Z</time>
      </trkpt>
      <trkpt lat="46.14286" lon="6.15292">
        <ele>488.60000610352</ele>
        <time>2012-11-12T13:12:02.000Z</time>
      </trkpt>
      <trkpt lat="46.14286" lon="6.15261">
        <ele>488.60000610352</ele>
        <time>2012-11-12T13:12:05.000Z</time>
      </trkpt>
      <trkpt lat="46.14288" lon="6.15256">
        <ele>488.60000610352</ele>
        <time>2012-11-12T13:12:06.000Z</time>
      </trkpt>
      <trkpt lat="46.14291" lon="6.15256">
        <ele>488.60000610352</ele>
        <time>2012-11-12T13:12:07.000Z</time>
      </trkpt>
      <trkpt lat="46.14295" lon="6.15265">
        <ele>488.60000610352</ele>
        <time>2012-11-12T13:12:09.000Z</time>
      </trkpt>
      <trkpt lat="46.14293" lon="6.15293">
        <ele>488.60000610352</ele>
        <time>2012-11-12T13:12:13.000Z</time>
      </trkpt>
      <trkpt lat="46.1429" lon="6.15339">
        <ele>488.60000610352</ele>
        <time>2012-11-12T13:12:18.000Z</time>
      </trkpt>
      <trkpt lat="46.1429" lon="6.1536">
        <ele>488.60000610352</ele>
        <time>2012-11-12T13:12:20.000Z</time>
      </trkpt>
      <trkpt lat="46.14294" lon="6.15377">
        <ele>488.60000610352</ele>
        <time>2012-11-12T13:12:22.000Z</time>
      </trkpt>
      <trkpt lat="46.14309" lon="6.15401">
        <ele>488.60000610352</ele>
        <time>2012-11-12T13:12:25.000Z</time>
      </trkpt>
      <trkpt lat="46.14318" lon="6.15414">
        <ele>488.60000610352</ele>
        <time>2012-11-12T13:12:27.000Z</time>
      </trkpt>
      <trkpt lat="46.14322" lon="6.15421">
        <ele>492</ele>
        <time>2012-11-12T13:12:28.000Z</time>
      </trkpt>
      <trkpt lat="46.14334" lon="6.15444">
        <ele>492</ele>
        <time>2012-11-12T13:12:31.000Z</time>
      </trkpt>
      <trkpt lat="46.14343" lon="6.15492">
        <ele>492</ele>
        <time>2012-11-12T13:12:36.000Z</time>
      </trkpt>
      <trkpt lat="46.14345" lon="6.15522">
        <ele>492</ele>
        <time>2012-11-12T13:12:39.000Z</time>
      </trkpt>
      <trkpt lat="46.14347" lon="6.15543">
        <ele>492</ele>
        <time>2012-11-12T13:12:41.000Z</time>
      </trkpt>
      <trkpt lat="46.14354" lon="6.15599">
        <ele>492</ele>
        <time>2012-11-12T13:12:47.000Z</time>
      </trkpt>
      <trkpt lat="46.14356" lon="6.15609">
        <ele>493.20001220703</ele>
        <time>2012-11-12T13:12:48.000Z</time>
      </trkpt>
      <trkpt lat="46.14357" lon="6.15626">
        <ele>494.60000610352</ele>
        <time>2012-11-12T13:12:50.000Z</time>
      </trkpt>
      <trkpt lat="46.14358" lon="6.15635">
        <ele>495.60000610352</ele>
        <time>2012-11-12T13:12:51.000Z</time>
      </trkpt>
      <trkpt lat="46.14358" lon="6.15641">
        <ele>495.60000610352</ele>
        <time>2012-11-12T13:12:52.000Z</time>
      </trkpt>
      <trkpt lat="46.14358" lon="6.15651">
        <ele>496.60000610352</ele>
        <time>2012-11-12T13:12:53.000Z</time>
      </trkpt>
      <trkpt lat="46.14358" lon="6.15668">
        <ele>496.60000610352</ele>
        <time>2012-11-12T13:12:55.000Z</time>
      </trkpt>
      <trkpt lat="46.14355" lon="6.15685">
        <ele>498</ele>
        <time>2012-11-12T13:12:57.000Z</time>
      </trkpt>
      <trkpt lat="46.14353" lon="6.15694">
        <ele>498</ele>
        <time>2012-11-12T13:12:58.000Z</time>
      </trkpt>
      <trkpt lat="46.14348" lon="6.15721">
        <ele>499.60000610352</ele>
        <time>2012-11-12T13:13:01.000Z</time>
      </trkpt>
      <trkpt lat="46.14344" lon="6.15737">
        <ele>500.60000610352</ele>
        <time>2012-11-12T13:13:03.000Z</time>
      </trkpt>
      <trkpt lat="46.14343" lon="6.15745">
        <ele>500.60000610352</ele>
        <time>2012-11-12T13:13:04.000Z</time>
      </trkpt>
      <trkpt lat="46.14341" lon="6.15762">
        <ele>501.60000610352</ele>
        <time>2012-11-12T13:13:06.000Z</time>
      </trkpt>
      <trkpt lat="46.14341" lon="6.15779">
        <ele>503</ele>
        <time>2012-11-12T13:13:08.000Z</time>
      </trkpt>
      <trkpt lat="46.14343" lon="6.15787">
        <ele>503</ele>
        <time>2012-11-12T13:13:09.000Z</time>
      </trkpt>
      <trkpt lat="46.14345" lon="6.15794">
        <ele>504</ele>
        <time>2012-11-12T13:13:10.000Z</time>
      </trkpt>
      <trkpt lat="46.14352" lon="6.15807">
        <ele>505</ele>
        <time>2012-11-12T13:13:12.000Z</time>
      </trkpt>
      <trkpt lat="46.14356" lon="6.15813">
        <ele>505</ele>
        <time>2012-11-12T13:13:13.000Z</time>
      </trkpt>
      <trkpt lat="46.1436" lon="6.15819">
        <ele>505</ele>
        <time>2012-11-12T13:13:14.000Z</time>
      </trkpt>
      <trkpt lat="46.14387" lon="6.15863">
        <ele>505</ele>
        <time>2012-11-12T13:13:21.000Z</time>
      </trkpt>
      <trkpt lat="46.14403" lon="6.15888">
        <ele>506.20001220703</ele>
        <time>2012-11-12T13:13:25.000Z</time>
      </trkpt>
      <trkpt lat="46.14414" lon="6.15897">
        <ele>506.20001220703</ele>
        <time>2012-11-12T13:13:27.000Z</time>
      </trkpt>
      <trkpt lat="46.14426" lon="6.15903">
        <ele>506.20001220703</ele>
        <time>2012-11-12T13:13:29.000Z</time>
      </trkpt>
      <trkpt lat="46.14445" lon="6.15909">
        <ele>506.20001220703</ele>
        <time>2012-11-12T13:13:32.000Z</time>
      </trkpt>
      <trkpt lat="46.14457" lon="6.15914">
        <ele>506.20001220703</ele>
        <time>2012-11-12T13:13:34.000Z</time>
      </trkpt>
      <trkpt lat="46.14472" lon="6.1593">
        <ele>506.20001220703</ele>
        <time>2012-11-12T13:13:37.000Z</time>
      </trkpt>
      <trkpt lat="46.14484" lon="6.15952">
        <ele>506.20001220703</ele>
        <time>2012-11-12T13:13:40.000Z</time>
      </trkpt>
      <trkpt lat="46.14492" lon="6.15968">
        <ele>506.20001220703</ele>
        <time>2012-11-12T13:13:42.000Z</time>
      </trkpt>
      <trkpt lat="46.14496" lon="6.15976">
        <ele>506.20001220703</ele>
        <time>2012-11-12T13:13:43.000Z</time>
      </trkpt>
      <trkpt lat="46.14525" lon="6.16025">
        <ele>503</ele>
        <time>2012-11-12T13:13:49.000Z</time>
      </trkpt>
      <trkpt lat="46.1453" lon="6.16033">
        <ele>503</ele>
        <time>2012-11-12T13:13:50.000Z</time>
      </trkpt>
      <trkpt lat="46.14537" lon="6.16042">
        <ele>501.60000610352</ele>
        <time>2012-11-12T13:13:51.000Z</time>
      </trkpt>
      <trkpt lat="46.14543" lon="6.16048">
        <ele>500.60000610352</ele>
        <time>2012-11-12T13:13:52.000Z</time>
      </trkpt>
      <trkpt lat="46.14561" lon="6.16062">
        <ele>498.20001220703</ele>
        <time>2012-11-12T13:13:54.000Z</time>
      </trkpt>
      <trkpt lat="46.14569" lon="6.16067">
        <ele>496.60000610352</ele>
        <time>2012-11-12T13:13:55.000Z</time>
      </trkpt>
      <trkpt lat="46.14589" lon="6.1608">
        <ele>495.20001220703</ele>
        <time>2012-11-12T13:13:57.000Z</time>
      </trkpt>
      <trkpt lat="46.14599" lon="6.16088">
        <ele>495.20001220703</ele>
        <time>2012-11-12T13:13:58.000Z</time>
      </trkpt>
      <trkpt lat="46.1461" lon="6.16095">
        <ele>493.20001220703</ele>
        <time>2012-11-12T13:13:59.000Z</time>
      </trkpt>
      <trkpt lat="46.14631" lon="6.16111">
        <ele>491.60000610352</ele>
        <time>2012-11-12T13:14:01.000Z</time>
      </trkpt>
      <trkpt lat="46.1464" lon="6.16119">
        <ele>490.60000610352</ele>
        <time>2012-11-12T13:14:02.000Z</time>
      </trkpt>
      <trkpt lat="46.1465" lon="6.16128">
        <ele>489.60000610352</ele>
        <time>2012-11-12T13:14:03.000Z</time>
      </trkpt>
      <trkpt lat="46.14669" lon="6.16142">
        <ele>488</ele>
        <time>2012-11-12T13:14:05.000Z</time>
      </trkpt>
      <trkpt lat="46.14676" lon="6.16148">
        <ele>488</ele>
        <time>2012-11-12T13:14:06.000Z</time>
      </trkpt>
      <trkpt lat="46.14684" lon="6.16154">
        <ele>486.20001220703</ele>
        <time>2012-11-12T13:14:07.000Z</time>
      </trkpt>
      <trkpt lat="46.14693" lon="6.16162">
        <ele>485.20001220703</ele>
        <time>2012-11-12T13:14:08.000Z</time>
      </trkpt>
      <trkpt lat="46.14702" lon="6.1617">
        <ele>484.20001220703</ele>
        <time>2012-11-12T13:14:09.000Z</time>
      </trkpt>
      <trkpt lat="46.14711" lon="6.16176">
        <ele>483</ele>
        <time>2012-11-12T13:14:10.000Z</time>
      </trkpt>
      <trkpt lat="46.14723" lon="6.16181">
        <ele>482</ele>
        <time>2012-11-12T13:14:11.000Z</time>
      </trkpt>
      <trkpt lat="46.14733" lon="6.16184">
        <ele>481</ele>
        <time>2012-11-12T13:14:12.000Z</time>
      </trkpt>
      <trkpt lat="46.14745" lon="6.16187">
        <ele>479.60000610352</ele>
        <time>2012-11-12T13:14:13.000Z</time>
      </trkpt>
      <trkpt lat="46.14768" lon="6.16193">
        <ele>478.60000610352</ele>
        <time>2012-11-12T13:14:15.000Z</time>
      </trkpt>
      <trkpt lat="46.1479" lon="6.16201">
        <ele>477.60000610352</ele>
        <time>2012-11-12T13:14:17.000Z</time>
      </trkpt>
      <trkpt lat="46.14814" lon="6.16212">
        <ele>476.20001220703</ele>
        <time>2012-11-12T13:14:19.000Z</time>
      </trkpt>
      <trkpt lat="46.14835" lon="6.16223">
        <ele>475.20001220703</ele>
        <time>2012-11-12T13:14:21.000Z</time>
      </trkpt>
      <trkpt lat="46.14857" lon="6.16236">
        <ele>474.20001220703</ele>
        <time>2012-11-12T13:14:23.000Z</time>
      </trkpt>
      <trkpt lat="46.14878" lon="6.16244">
        <ele>474.20001220703</ele>
        <time>2012-11-12T13:14:25.000Z</time>
      </trkpt>
      <trkpt lat="46.1489" lon="6.16247">
        <ele>473.20001220703</ele>
        <time>2012-11-12T13:14:26.000Z</time>
      </trkpt>
      <trkpt lat="46.14909" lon="6.1625">
        <ele>473.20001220703</ele>
        <time>2012-11-12T13:14:28.000Z</time>
      </trkpt>
      <trkpt lat="46.1492" lon="6.16253">
        <ele>472.20001220703</ele>
        <time>2012-11-12T13:14:29.000Z</time>
      </trkpt>
      <trkpt lat="46.14931" lon="6.16257">
        <ele>472.20001220703</ele>
        <time>2012-11-12T13:14:30.000Z</time>
      </trkpt>
      <trkpt lat="46.14941" lon="6.16264">
        <ele>470.60000610352</ele>
        <time>2012-11-12T13:14:31.000Z</time>
      </trkpt>
      <trkpt lat="46.1495" lon="6.1627">
        <ele>469.20001220703</ele>
        <time>2012-11-12T13:14:32.000Z</time>
      </trkpt>
      <trkpt lat="46.14961" lon="6.16279">
        <ele>468.20001220703</ele>
        <time>2012-11-12T13:14:33.000Z</time>
      </trkpt>
      <trkpt lat="46.1497" lon="6.16288">
        <ele>467</ele>
        <time>2012-11-12T13:14:34.000Z</time>
      </trkpt>
      <trkpt lat="46.1498" lon="6.16298">
        <ele>465.60000610352</ele>
        <time>2012-11-12T13:14:35.000Z</time>
      </trkpt>
      <trkpt lat="46.14988" lon="6.16306">
        <ele>464.60000610352</ele>
        <time>2012-11-12T13:14:36.000Z</time>
      </trkpt>
      <trkpt lat="46.14995" lon="6.16312">
        <ele>463.60000610352</ele>
        <time>2012-11-12T13:14:37.000Z</time>
      </trkpt>
      <trkpt lat="46.15005" lon="6.16321">
        <ele>462.20001220703</ele>
        <time>2012-11-12T13:14:38.000Z</time>
      </trkpt>
      <trkpt lat="46.1502" lon="6.16331">
        <ele>461</ele>
        <time>2012-11-12T13:14:40.000Z</time>
      </trkpt>
      <trkpt lat="46.15029" lon="6.16333">
        <ele>460</ele>
        <time>2012-11-12T13:14:41.000Z</time>
      </trkpt>
      <trkpt lat="46.15039" lon="6.16333">
        <ele>459</ele>
        <time>2012-11-12T13:14:42.000Z</time>
      </trkpt>
      <trkpt lat="46.1505" lon="6.16332">
        <ele>457.60000610352</ele>
        <time>2012-11-12T13:14:43.000Z</time>
      </trkpt>
      <trkpt lat="46.15059" lon="6.16331">
        <ele>456.60000610352</ele>
        <time>2012-11-12T13:14:44.000Z</time>
      </trkpt>
      <trkpt lat="46.15071" lon="6.16329">
        <ele>455.60000610352</ele>
        <time>2012-11-12T13:14:45.000Z</time>
      </trkpt>
      <trkpt lat="46.15082" lon="6.16326">
        <ele>454.20001220703</ele>
        <time>2012-11-12T13:14:46.000Z</time>
      </trkpt>
      <trkpt lat="46.1509" lon="6.16323">
        <ele>453</ele>
        <time>2012-11-12T13:14:47.000Z</time>
      </trkpt>
      <trkpt lat="46.15103" lon="6.16319">
        <ele>451.20001220703</ele>
        <time>2012-11-12T13:14:48.000Z</time>
      </trkpt>
      <trkpt lat="46.15122" lon="6.16312">
        <ele>449.20001220703</ele>
        <time>2012-11-12T13:14:50.000Z</time>
      </trkpt>
      <trkpt lat="46.15133" lon="6.16309">
        <ele>448</ele>
        <time>2012-11-12T13:14:51.000Z</time>
      </trkpt>
      <trkpt lat="46.15141" lon="6.16309">
        <ele>446.60000610352</ele>
        <time>2012-11-12T13:14:52.000Z</time>
      </trkpt>
      <trkpt lat="46.15151" lon="6.1631">
        <ele>446.60000610352</ele>
        <time>2012-11-12T13:14:53.000Z</time>
      </trkpt>
      <trkpt lat="46.1516" lon="6.16313">
        <ele>445.60000610352</ele>
        <time>2012-11-12T13:14:54.000Z</time>
      </trkpt>
      <trkpt lat="46.15169" lon="6.16318">
        <ele>444.20001220703</ele>
        <time>2012-11-12T13:14:55.000Z</time>
      </trkpt>
      <trkpt lat="46.15177" lon="6.16324">
        <ele>443.20001220703</ele>
        <time>2012-11-12T13:14:56.000Z</time>
      </trkpt>
      <trkpt lat="46.15185" lon="6.16329">
        <ele>443.20001220703</ele>
        <time>2012-11-12T13:14:57.000Z</time>
      </trkpt>
      <trkpt lat="46.15192" lon="6.16333">
        <ele>441.60000610352</ele>
        <time>2012-11-12T13:14:58.000Z</time>
      </trkpt>
      <trkpt lat="46.15206" lon="6.16343">
        <ele>440.60000610352</ele>
        <time>2012-11-12T13:15:00.000Z</time>
      </trkpt>
      <trkpt lat="46.15211" lon="6.16351">
        <ele>440.60000610352</ele>
        <time>2012-11-12T13:15:01.000Z</time>
      </trkpt>
      <trkpt lat="46.15218" lon="6.16382">
        <ele>440.60000610352</ele>
        <time>2012-11-12T13:15:04.000Z</time>
      </trkpt>
      <trkpt lat="46.15229" lon="6.1645">
        <ele>440.60000610352</ele>
        <time>2012-11-12T13:15:11.000Z</time>
      </trkpt>
      <trkpt lat="46.15232" lon="6.16469">
        <ele>444</ele>
        <time>2012-11-12T13:15:13.000Z</time>
      </trkpt>
      <trkpt lat="46.15238" lon="6.16503">
        <ele>445</ele>
        <time>2012-11-12T13:15:17.000Z</time>
      </trkpt>
      <trkpt lat="46.15249" lon="6.16572">
        <ele>445</ele>
        <time>2012-11-12T13:15:24.000Z</time>
      </trkpt>
      <trkpt lat="46.15254" lon="6.16601">
        <ele>446</ele>
        <time>2012-11-12T13:15:27.000Z</time>
      </trkpt>
      <trkpt lat="46.15264" lon="6.16661">
        <ele>446</ele>
        <time>2012-11-12T13:15:33.000Z</time>
      </trkpt>
      <trkpt lat="46.15266" lon="6.16669">
        <ele>447.20001220703</ele>
        <time>2012-11-12T13:15:34.000Z</time>
      </trkpt>
      <trkpt lat="46.15269" lon="6.16689">
        <ele>447.20001220703</ele>
        <time>2012-11-12T13:15:36.000Z</time>
      </trkpt>
      <trkpt lat="46.15279" lon="6.16714">
        <ele>447.20001220703</ele>
        <time>2012-11-12T13:15:39.000Z</time>
      </trkpt>
      <trkpt lat="46.15312" lon="6.16786">
        <ele>447.20001220703</ele>
        <time>2012-11-12T13:15:48.000Z</time>
      </trkpt>
      <trkpt lat="46.15317" lon="6.16804">
        <ele>447.20001220703</ele>
        <time>2012-11-12T13:15:50.000Z</time>
      </trkpt>
      <trkpt lat="46.1532" lon="6.16824">
        <ele>447.20001220703</ele>
        <time>2012-11-12T13:15:52.000Z</time>
      </trkpt>
      <trkpt lat="46.15325" lon="6.16859">
        <ele>444</ele>
        <time>2012-11-12T13:15:55.000Z</time>
      </trkpt>
      <trkpt lat="46.15326" lon="6.1688">
        <ele>444</ele>
        <time>2012-11-12T13:15:57.000Z</time>
      </trkpt>
      <trkpt lat="46.15325" lon="6.16891">
        <ele>444</ele>
        <time>2012-11-12T13:15:58.000Z</time>
      </trkpt>
      <trkpt lat="46.15313" lon="6.1692">
        <ele>444</ele>
        <time>2012-11-12T13:16:01.000Z</time>
      </trkpt>
      <trkpt lat="46.15309" lon="6.16926">
        <ele>444</ele>
        <time>2012-11-12T13:16:02.000Z</time>
      </trkpt>
      <trkpt lat="46.15305" lon="6.16936">
        <ele>446</ele>
        <time>2012-11-12T13:16:03.000Z</time>
      </trkpt>
      <trkpt lat="46.153" lon="6.16955">
        <ele>446</ele>
        <time>2012-11-12T13:16:05.000Z</time>
      </trkpt>
      <trkpt lat="46.15298" lon="6.16973">
        <ele>446</ele>
        <time>2012-11-12T13:16:07.000Z</time>
      </trkpt>
      <trkpt lat="46.15297" lon="6.17003">
        <ele>446</ele>
        <time>2012-11-12T13:16:10.000Z</time>
      </trkpt>
      <trkpt lat="46.15307" lon="6.17033">
        <ele>446</ele>
        <time>2012-11-12T13:16:13.000Z</time>
      </trkpt>
      <trkpt lat="46.15324" lon="6.17058">
        <ele>442.60000610352</ele>
        <time>2012-11-12T13:16:16.000Z</time>
      </trkpt>
      <trkpt lat="46.1533" lon="6.17066">
        <ele>442.60000610352</ele>
        <time>2012-11-12T13:16:17.000Z</time>
      </trkpt>
      <trkpt lat="46.15337" lon="6.17076">
        <ele>441.60000610352</ele>
        <time>2012-11-12T13:16:18.000Z</time>
      </trkpt>
      <trkpt lat="46.15344" lon="6.17086">
        <ele>440.60000610352</ele>
        <time>2012-11-12T13:16:19.000Z</time>
      </trkpt>
      <trkpt lat="46.15356" lon="6.17103">
        <ele>439.20001220703</ele>
        <time>2012-11-12T13:16:21.000Z</time>
      </trkpt>
      <trkpt lat="46.15371" lon="6.17124">
        <ele>438</ele>
        <time>2012-11-12T13:16:23.000Z</time>
      </trkpt>
      <trkpt lat="46.15392" lon="6.17158">
        <ele>436</ele>
        <time>2012-11-12T13:16:26.000Z</time>
      </trkpt>
      <trkpt lat="46.15406" lon="6.17178">
        <ele>435</ele>
        <time>2012-11-12T13:16:28.000Z</time>
      </trkpt>
      <trkpt lat="46.15415" lon="6.17188">
        <ele>435</ele>
        <time>2012-11-12T13:16:29.000Z</time>
      </trkpt>
      <trkpt lat="46.15434" lon="6.17201">
        <ele>433.60000610352</ele>
        <time>2012-11-12T13:16:31.000Z</time>
      </trkpt>
      <trkpt lat="46.15451" lon="6.1721">
        <ele>433.60000610352</ele>
        <time>2012-11-12T13:16:33.000Z</time>
      </trkpt>
      <trkpt lat="46.15458" lon="6.17214">
        <ele>432.60000610352</ele>
        <time>2012-11-12T13:16:34.000Z</time>
      </trkpt>
      <trkpt lat="46.15466" lon="6.1722">
        <ele>432.60000610352</ele>
        <time>2012-11-12T13:16:35.000Z</time>
      </trkpt>
      <trkpt lat="46.15472" lon="6.17223">
        <ele>431.20001220703</ele>
        <time>2012-11-12T13:16:36.000Z</time>
      </trkpt>
      <trkpt lat="46.15487" lon="6.17231">
        <ele>430.20001220703</ele>
        <time>2012-11-12T13:16:38.000Z</time>
      </trkpt>
      <trkpt lat="46.15494" lon="6.17235">
        <ele>430.20001220703</ele>
        <time>2012-11-12T13:16:39.000Z</time>
      </trkpt>
      <trkpt lat="46.15501" lon="6.17239">
        <ele>429</ele>
        <time>2012-11-12T13:16:40.000Z</time>
      </trkpt>
      <trkpt lat="46.15519" lon="6.17248">
        <ele>428</ele>
        <time>2012-11-12T13:16:42.000Z</time>
      </trkpt>
      <trkpt lat="46.15535" lon="6.17258">
        <ele>426.60000610352</ele>
        <time>2012-11-12T13:16:44.000Z</time>
      </trkpt>
      <trkpt lat="46.1554" lon="6.17264">
        <ele>426.60000610352</ele>
        <time>2012-11-12T13:16:45.000Z</time>
      </trkpt>
      <trkpt lat="46.15545" lon="6.17278">
        <ele>425.60000610352</ele>
        <time>2012-11-12T13:16:47.000Z</time>
      </trkpt>
      <trkpt lat="46.15548" lon="6.17285">
        <ele>425.60000610352</ele>
        <time>2012-11-12T13:16:48.000Z</time>
      </trkpt>
      <trkpt lat="46.15557" lon="6.17289">
        <ele>424.60000610352</ele>
        <time>2012-11-12T13:16:50.000Z</time>
      </trkpt>
      <trkpt lat="46.15561" lon="6.17286">
        <ele>424.60000610352</ele>
        <time>2012-11-12T13:16:51.000Z</time>
      </trkpt>
      <trkpt lat="46.15561" lon="6.1727">
        <ele>423.20001220703</ele>
        <time>2012-11-12T13:16:53.000Z</time>
      </trkpt>
      <trkpt lat="46.15557" lon="6.17253">
        <ele>423.20001220703</ele>
        <time>2012-11-12T13:16:55.000Z</time>
      </trkpt>
      <trkpt lat="46.15555" lon="6.17244">
        <ele>422.20001220703</ele>
        <time>2012-11-12T13:16:56.000Z</time>
      </trkpt>
      <trkpt lat="46.15553" lon="6.17235">
        <ele>422.20001220703</ele>
        <time>2012-11-12T13:16:57.000Z</time>
      </trkpt>
      <trkpt lat="46.15551" lon="6.17225">
        <ele>421.20001220703</ele>
        <time>2012-11-12T13:16:58.000Z</time>
      </trkpt>
      <trkpt lat="46.15545" lon="6.17202">
        <ele>419.60000610352</ele>
        <time>2012-11-12T13:17:00.000Z</time>
      </trkpt>
      <trkpt lat="46.15547" lon="6.17186">
        <ele>418.60000610352</ele>
        <time>2012-11-12T13:17:02.000Z</time>
      </trkpt>
      <trkpt lat="46.15556" lon="6.17174">
        <ele>417.20001220703</ele>
        <time>2012-11-12T13:17:04.000Z</time>
      </trkpt>
      <trkpt lat="46.15562" lon="6.17171">
        <ele>417.20001220703</ele>
        <time>2012-11-12T13:17:05.000Z</time>
      </trkpt>
      <trkpt lat="46.15572" lon="6.17177">
        <ele>416.20001220703</ele>
        <time>2012-11-12T13:17:07.000Z</time>
      </trkpt>
      <trkpt lat="46.15581" lon="6.17203">
        <ele>415</ele>
        <time>2012-11-12T13:17:10.000Z</time>
      </trkpt>
      <trkpt lat="46.15583" lon="6.17216">
        <ele>415</ele>
        <time>2012-11-12T13:17:11.000Z</time>
      </trkpt>
      <trkpt lat="46.15592" lon="6.1728">
        <ele>415</ele>
        <time>2012-11-12T13:17:17.000Z</time>
      </trkpt>
      <trkpt lat="46.15594" lon="6.17292">
        <ele>413</ele>
        <time>2012-11-12T13:17:18.000Z</time>
      </trkpt>
      <trkpt lat="46.15598" lon="6.17314">
        <ele>411.60000610352</ele>
        <time>2012-11-12T13:17:20.000Z</time>
      </trkpt>
      <trkpt lat="46.15601" lon="6.17325">
        <ele>410.20001220703</ele>
        <time>2012-11-12T13:17:21.000Z</time>
      </trkpt>
      <trkpt lat="46.15604" lon="6.17336">
        <ele>409</ele>
        <time>2012-11-12T13:17:22.000Z</time>
      </trkpt>
      <trkpt lat="46.15607" lon="6.17352">
        <ele>407.60000610352</ele>
        <time>2012-11-12T13:17:23.000Z</time>
      </trkpt>
      <trkpt lat="46.1561" lon="6.17367">
        <ele>405.60000610352</ele>
        <time>2012-11-12T13:17:24.000Z</time>
      </trkpt>
      <trkpt lat="46.15613" lon="6.17382">
        <ele>404.20001220703</ele>
        <time>2012-11-12T13:17:25.000Z</time>
      </trkpt>
      <trkpt lat="46.15615" lon="6.17398">
        <ele>404.20001220703</ele>
        <time>2012-11-12T13:17:26.000Z</time>
      </trkpt>
      <trkpt lat="46.15616" lon="6.17414">
        <ele>404.20001220703</ele>
        <time>2012-11-12T13:17:27.000Z</time>
      </trkpt>
      <trkpt lat="46.15619" lon="6.17484">
        <ele>404.20001220703</ele>
        <time>2012-11-12T13:17:32.000Z</time>
      </trkpt>
      <trkpt lat="46.15619" lon="6.17522">
        <ele>407.60000610352</ele>
        <time>2012-11-12T13:17:35.000Z</time>
      </trkpt>
      <trkpt lat="46.15619" lon="6.17531">
        <ele>408.60000610352</ele>
        <time>2012-11-12T13:17:36.000Z</time>
      </trkpt>
      <trkpt lat="46.15619" lon="6.17543">
        <ele>408.60000610352</ele>
        <time>2012-11-12T13:17:37.000Z</time>
      </trkpt>
      <trkpt lat="46.15619" lon="6.17554">
        <ele>410.20001220703</ele>
        <time>2012-11-12T13:17:38.000Z</time>
      </trkpt>
      <trkpt lat="46.15619" lon="6.17564">
        <ele>411.20001220703</ele>
        <time>2012-11-12T13:17:39.000Z</time>
      </trkpt>
      <trkpt lat="46.15618" lon="6.17573">
        <ele>412.60000610352</ele>
        <time>2012-11-12T13:17:40.000Z</time>
      </trkpt>
      <trkpt lat="46.15618" lon="6.17601">
        <ele>412.60000610352</ele>
        <time>2012-11-12T13:17:43.000Z</time>
      </trkpt>
      <trkpt lat="46.15619" lon="6.17629">
        <ele>412.60000610352</ele>
        <time>2012-11-12T13:17:46.000Z</time>
      </trkpt>
      <trkpt lat="46.15622" lon="6.17649">
        <ele>412.60000610352</ele>
        <time>2012-11-12T13:17:48.000Z</time>
      </trkpt>
      <trkpt lat="46.15628" lon="6.1767">
        <ele>409.20001220703</ele>
        <time>2012-11-12T13:17:50.000Z</time>
      </trkpt>
      <trkpt lat="46.1563" lon="6.17681">
        <ele>408.20001220703</ele>
        <time>2012-11-12T13:17:51.000Z</time>
      </trkpt>
      <trkpt lat="46.15635" lon="6.17709">
        <ele>406.60000610352</ele>
        <time>2012-11-12T13:17:53.000Z</time>
      </trkpt>
      <trkpt lat="46.15635" lon="6.17724">
        <ele>405.60000610352</ele>
        <time>2012-11-12T13:17:54.000Z</time>
      </trkpt>
      <trkpt lat="46.1564" lon="6.17776">
        <ele>405.60000610352</ele>
        <time>2012-11-12T13:17:58.000Z</time>
      </trkpt>
      <trkpt lat="46.15642" lon="6.17788">
        <ele>408.60000610352</ele>
        <time>2012-11-12T13:17:59.000Z</time>
      </trkpt>
      <trkpt lat="46.15643" lon="6.17798">
        <ele>410.20001220703</ele>
        <time>2012-11-12T13:18:00.000Z</time>
      </trkpt>
      <trkpt lat="46.15645" lon="6.17807">
        <ele>411.60000610352</ele>
        <time>2012-11-12T13:18:01.000Z</time>
      </trkpt>
      <trkpt lat="46.15647" lon="6.17816">
        <ele>411.60000610352</ele>
        <time>2012-11-12T13:18:02.000Z</time>
      </trkpt>
      <trkpt lat="46.1565" lon="6.17832">
        <ele>413</ele>
        <time>2012-11-12T13:18:04.000Z</time>
      </trkpt>
      <trkpt lat="46.15654" lon="6.17858">
        <ele>413</ele>
        <time>2012-11-12T13:18:07.000Z</time>
      </trkpt>
      <trkpt lat="46.15667" lon="6.17936">
        <ele>413</ele>
        <time>2012-11-12T13:18:15.000Z</time>
      </trkpt>
      <trkpt lat="46.15672" lon="6.17965">
        <ele>414</ele>
        <time>2012-11-12T13:18:18.000Z</time>
      </trkpt>
      <trkpt lat="46.15683" lon="6.18021">
        <ele>414</ele>
        <time>2012-11-12T13:18:24.000Z</time>
      </trkpt>
      <trkpt lat="46.15689" lon="6.18051">
        <ele>410.60000610352</ele>
        <time>2012-11-12T13:18:27.000Z</time>
      </trkpt>
      <trkpt lat="46.15696" lon="6.18074">
        <ele>409.60000610352</ele>
        <time>2012-11-12T13:18:29.000Z</time>
      </trkpt>
      <trkpt lat="46.157" lon="6.18085">
        <ele>408.60000610352</ele>
        <time>2012-11-12T13:18:30.000Z</time>
      </trkpt>
      <trkpt lat="46.1572" lon="6.18147">
        <ele>408.60000610352</ele>
        <time>2012-11-12T13:18:36.000Z</time>
      </trkpt>
      <trkpt lat="46.15723" lon="6.18156">
        <ele>407.20001220703</ele>
        <time>2012-11-12T13:18:37.000Z</time>
      </trkpt>
      <trkpt lat="46.15737" lon="6.18196">
        <ele>407.20001220703</ele>
        <time>2012-11-12T13:18:42.000Z</time>
      </trkpt>
      <trkpt lat="46.15746" lon="6.1822">
        <ele>406.20001220703</ele>
        <time>2012-11-12T13:18:45.000Z</time>
      </trkpt>
      <trkpt lat="46.15757" lon="6.18245">
        <ele>405.20001220703</ele>
        <time>2012-11-12T13:18:48.000Z</time>
      </trkpt>
      <trkpt lat="46.15762" lon="6.18262">
        <ele>405.20001220703</ele>
        <time>2012-11-12T13:18:50.000Z</time>
      </trkpt>
      <trkpt lat="46.15771" lon="6.18293">
        <ele>405.20001220703</ele>
        <time>2012-11-12T13:18:54.000Z</time>
      </trkpt>
      <trkpt lat="46.15775" lon="6.18294">
        <ele>405.20001220703</ele>
        <time>2012-11-12T13:18:55.000Z</time>
      </trkpt>
      <trkpt lat="46.15787" lon="6.1828">
        <ele>405.20001220703</ele>
        <time>2012-11-12T13:18:58.000Z</time>
      </trkpt>
      <trkpt lat="46.15792" lon="6.18272">
        <ele>404.20001220703</ele>
        <time>2012-11-12T13:18:59.000Z</time>
      </trkpt>
      <trkpt lat="46.15797" lon="6.18263">
        <ele>402.60000610352</ele>
        <time>2012-11-12T13:19:00.000Z</time>
      </trkpt>
      <trkpt lat="46.15802" lon="6.18255">
        <ele>401.20001220703</ele>
        <time>2012-11-12T13:19:01.000Z</time>
      </trkpt>
      <trkpt lat="46.15809" lon="6.18245">
        <ele>400.20001220703</ele>
        <time>2012-11-12T13:19:02.000Z</time>
      </trkpt>
      <trkpt lat="46.15815" lon="6.18236">
        <ele>399.20001220703</ele>
        <time>2012-11-12T13:19:03.000Z</time>
      </trkpt>
      <trkpt lat="46.15821" lon="6.18226">
        <ele>398</ele>
        <time>2012-11-12T13:19:04.000Z</time>
      </trkpt>
      <trkpt lat="46.15849" lon="6.18194">
        <ele>398</ele>
        <time>2012-11-12T13:19:08.000Z</time>
      </trkpt>
      <trkpt lat="46.15856" lon="6.1819">
        <ele>395.60000610352</ele>
        <time>2012-11-12T13:19:09.000Z</time>
      </trkpt>
      <trkpt lat="46.15874" lon="6.18185">
        <ele>394</ele>
        <time>2012-11-12T13:19:11.000Z</time>
      </trkpt>
      <trkpt lat="46.15884" lon="6.18185">
        <ele>393</ele>
        <time>2012-11-12T13:19:12.000Z</time>
      </trkpt>
      <trkpt lat="46.15894" lon="6.18185">
        <ele>393</ele>
        <time>2012-11-12T13:19:13.000Z</time>
      </trkpt>
      <trkpt lat="46.15903" lon="6.18186">
        <ele>391.60000610352</ele>
        <time>2012-11-12T13:19:14.000Z</time>
      </trkpt>
      <trkpt lat="46.15911" lon="6.18186">
        <ele>390.60000610352</ele>
        <time>2012-11-12T13:19:15.000Z</time>
      </trkpt>
      <trkpt lat="46.15919" lon="6.18185">
        <ele>390.60000610352</ele>
        <time>2012-11-12T13:19:16.000Z</time>
      </trkpt>
      <trkpt lat="46.15928" lon="6.18182">
        <ele>389.60000610352</ele>
        <time>2012-11-12T13:19:17.000Z</time>
      </trkpt>
      <trkpt lat="46.15946" lon="6.18173">
        <ele>388.20001220703</ele>
        <time>2012-11-12T13:19:19.000Z</time>
      </trkpt>
      <trkpt lat="46.15958" lon="6.18165">
        <ele>387.20001220703</ele>
        <time>2012-11-12T13:19:21.000Z</time>
      </trkpt>
      <trkpt lat="46.15964" lon="6.18163">
        <ele>387.20001220703</ele>
        <time>2012-11-12T13:19:22.000Z</time>
      </trkpt>
      <trkpt lat="46.15976" lon="6.18169">
        <ele>386</ele>
        <time>2012-11-12T13:19:24.000Z</time>
      </trkpt>
      <trkpt lat="46.15979" lon="6.18177">
        <ele>386</ele>
        <time>2012-11-12T13:19:25.000Z</time>
      </trkpt>
      <trkpt lat="46.15995" lon="6.18212">
        <ele>386</ele>
        <time>2012-11-12T13:19:29.000Z</time>
      </trkpt>
      <trkpt lat="46.15999" lon="6.18221">
        <ele>386</ele>
        <time>2012-11-12T13:19:30.000Z</time>
      </trkpt>
      <trkpt lat="46.16019" lon="6.1828">
        <ele>386</ele>
        <time>2012-11-12T13:19:36.000Z</time>
      </trkpt>
      <trkpt lat="46.16042" lon="6.18351">
        <ele>386</ele>
        <time>2012-11-12T13:19:43.000Z</time>
      </trkpt>
      <trkpt lat="46.16049" lon="6.18372">
        <ele>386</ele>
        <time>2012-11-12T13:19:45.000Z</time>
      </trkpt>
      <trkpt lat="46.16051" lon="6.18381">
        <ele>385</ele>
        <time>2012-11-12T13:19:46.000Z</time>
      </trkpt>
      <trkpt lat="46.16064" lon="6.18422">
        <ele>385</ele>
        <time>2012-11-12T13:19:50.000Z</time>
      </trkpt>
      <trkpt lat="46.16075" lon="6.18454">
        <ele>382.60000610352</ele>
        <time>2012-11-12T13:19:53.000Z</time>
      </trkpt>
      <trkpt lat="46.16078" lon="6.18465">
        <ele>381.20001220703</ele>
        <time>2012-11-12T13:19:54.000Z</time>
      </trkpt>
      <trkpt lat="46.16082" lon="6.18476">
        <ele>381.20001220703</ele>
        <time>2012-11-12T13:19:55.000Z</time>
      </trkpt>
      <trkpt lat="46.16105" lon="6.18554">
        <ele>381.20001220703</ele>
        <time>2012-11-12T13:20:03.000Z</time>
      </trkpt>
      <trkpt lat="46.16109" lon="6.18566">
        <ele>381.20001220703</ele>
        <time>2012-11-12T13:20:05.000Z</time>
      </trkpt>
      <trkpt lat="46.16112" lon="6.18569">
        <ele>381.20001220703</ele>
        <time>2012-11-12T13:20:06.000Z</time>
      </trkpt>
      <trkpt lat="46.16122" lon="6.18566">
        <ele>381.20001220703</ele>
        <time>2012-11-12T13:20:09.000Z</time>
      </trkpt>
      <trkpt lat="46.16132" lon="6.18554">
        <ele>381.20001220703</ele>
        <time>2012-11-12T13:20:12.000Z</time>
      </trkpt>
      <trkpt lat="46.16136" lon="6.18549">
        <ele>381.20001220703</ele>
        <time>2012-11-12T13:20:13.000Z</time>
      </trkpt>
      <trkpt lat="46.16161" lon="6.18518">
        <ele>381.20001220703</ele>
        <time>2012-11-12T13:20:18.000Z</time>
      </trkpt>
      <trkpt lat="46.16183" lon="6.18494">
        <ele>380.20001220703</ele>
        <time>2012-11-12T13:20:22.000Z</time>
      </trkpt>
      <trkpt lat="46.16209" lon="6.18468">
        <ele>380.20001220703</ele>
        <time>2012-11-12T13:20:26.000Z</time>
      </trkpt>
      <trkpt lat="46.16229" lon="6.18452">
        <ele>379.20001220703</ele>
        <time>2012-11-12T13:20:29.000Z</time>
      </trkpt>
      <trkpt lat="46.16251" lon="6.18436">
        <ele>379.20001220703</ele>
        <time>2012-11-12T13:20:32.000Z</time>
      </trkpt>
      <trkpt lat="46.16266" lon="6.18425">
        <ele>378.20001220703</ele>
        <time>2012-11-12T13:20:34.000Z</time>
      </trkpt>
      <trkpt lat="46.16304" lon="6.18397">
        <ele>378.20001220703</ele>
        <time>2012-11-12T13:20:40.000Z</time>
      </trkpt>
      <trkpt lat="46.16308" lon="6.18397">
        <ele>378.20001220703</ele>
        <time>2012-11-12T13:20:41.000Z</time>
      </trkpt>
      <trkpt lat="46.16315" lon="6.18399">
        <ele>378.20001220703</ele>
        <time>2012-11-12T13:20:43.000Z</time>
      </trkpt>
      <trkpt lat="46.16325" lon="6.18413">
        <ele>378.20001220703</ele>
        <time>2012-11-12T13:20:46.000Z</time>
      </trkpt>
      <trkpt lat="46.16328" lon="6.1842">
        <ele>378.20001220703</ele>
        <time>2012-11-12T13:20:47.000Z</time>
      </trkpt>
      <trkpt lat="46.16346" lon="6.18452">
        <ele>378.20001220703</ele>
        <time>2012-11-12T13:20:51.000Z</time>
      </trkpt>
      <trkpt lat="46.16377" lon="6.1851">
        <ele>378.20001220703</ele>
        <time>2012-11-12T13:20:57.000Z</time>
      </trkpt>
      <trkpt lat="46.16416" lon="6.18576">
        <ele>378.20001220703</ele>
        <time>2012-11-12T13:21:04.000Z</time>
      </trkpt>
      <trkpt lat="46.16422" lon="6.18585">
        <ele>377</ele>
        <time>2012-11-12T13:21:05.000Z</time>
      </trkpt>
      <trkpt lat="46.16464" lon="6.18645">
        <ele>377</ele>
        <time>2012-11-12T13:21:12.000Z</time>
      </trkpt>
      <trkpt lat="46.1647" lon="6.18653">
        <ele>376</ele>
        <time>2012-11-12T13:21:13.000Z</time>
      </trkpt>
      <trkpt lat="46.16503" lon="6.18699">
        <ele>374.60000610352</ele>
        <time>2012-11-12T13:21:18.000Z</time>
      </trkpt>
      <trkpt lat="46.1651" lon="6.18707">
        <ele>373.60000610352</ele>
        <time>2012-11-12T13:21:19.000Z</time>
      </trkpt>
      <trkpt lat="46.16523" lon="6.18725">
        <ele>373.60000610352</ele>
        <time>2012-11-12T13:21:21.000Z</time>
      </trkpt>
      <trkpt lat="46.16556" lon="6.18773">
        <ele>372.60000610352</ele>
        <time>2012-11-12T13:21:26.000Z</time>
      </trkpt>
      <trkpt lat="46.16568" lon="6.18792">
        <ele>372.60000610352</ele>
        <time>2012-11-12T13:21:28.000Z</time>
      </trkpt>
      <trkpt lat="46.16583" lon="6.18815">
        <ele>371.60000610352</ele>
        <time>2012-11-12T13:21:30.000Z</time>
      </trkpt>
      <trkpt lat="46.16596" lon="6.18835">
        <ele>370.20001220703</ele>
        <time>2012-11-12T13:21:32.000Z</time>
      </trkpt>
      <trkpt lat="46.16622" lon="6.1888">
        <ele>370.20001220703</ele>
        <time>2012-11-12T13:21:36.000Z</time>
      </trkpt>
      <trkpt lat="46.16626" lon="6.18891">
        <ele>370.20001220703</ele>
        <time>2012-11-12T13:21:37.000Z</time>
      </trkpt>
      <trkpt lat="46.16629" lon="6.18907">
        <ele>369</ele>
        <time>2012-11-12T13:21:38.000Z</time>
      </trkpt>
      <trkpt lat="46.16631" lon="6.18937">
        <ele>368</ele>
        <time>2012-11-12T13:21:40.000Z</time>
      </trkpt>
      <trkpt lat="46.16632" lon="6.18953">
        <ele>368</ele>
        <time>2012-11-12T13:21:41.000Z</time>
      </trkpt>
      <trkpt lat="46.16632" lon="6.18967">
        <ele>366.60000610352</ele>
        <time>2012-11-12T13:21:42.000Z</time>
      </trkpt>
      <trkpt lat="46.16635" lon="6.19">
        <ele>365.60000610352</ele>
        <time>2012-11-12T13:21:44.000Z</time>
      </trkpt>
      <trkpt lat="46.1664" lon="6.19031">
        <ele>364.60000610352</ele>
        <time>2012-11-12T13:21:46.000Z</time>
      </trkpt>
      <trkpt lat="46.16647" lon="6.19064">
        <ele>363.20001220703</ele>
        <time>2012-11-12T13:21:48.000Z</time>
      </trkpt>
      <trkpt lat="46.16654" lon="6.19097">
        <ele>362</ele>
        <time>2012-11-12T13:21:50.000Z</time>
      </trkpt>
      <trkpt lat="46.16658" lon="6.19113">
        <ele>360.60000610352</ele>
        <time>2012-11-12T13:21:51.000Z</time>
      </trkpt>
      <trkpt lat="46.16662" lon="6.19128">
        <ele>359.60000610352</ele>
        <time>2012-11-12T13:21:52.000Z</time>
      </trkpt>
      <trkpt lat="46.16669" lon="6.19164">
        <ele>358.60000610352</ele>
        <time>2012-11-12T13:21:54.000Z</time>
      </trkpt>
      <trkpt lat="46.16675" lon="6.19199">
        <ele>357.20001220703</ele>
        <time>2012-11-12T13:21:56.000Z</time>
      </trkpt>
      <trkpt lat="46.16677" lon="6.19233">
        <ele>357.20001220703</ele>
        <time>2012-11-12T13:21:58.000Z</time>
      </trkpt>
      <trkpt lat="46.16677" lon="6.19252">
        <ele>356.20001220703</ele>
        <time>2012-11-12T13:21:59.000Z</time>
      </trkpt>
      <trkpt lat="46.16673" lon="6.19288">
        <ele>355.20001220703</ele>
        <time>2012-11-12T13:22:01.000Z</time>
      </trkpt>
      <trkpt lat="46.1667" lon="6.19304">
        <ele>355.20001220703</ele>
        <time>2012-11-12T13:22:02.000Z</time>
      </trkpt>
      <trkpt lat="46.16666" lon="6.19322">
        <ele>354.20001220703</ele>
        <time>2012-11-12T13:22:03.000Z</time>
      </trkpt>
      <trkpt lat="46.16657" lon="6.19356">
        <ele>352.60000610352</ele>
        <time>2012-11-12T13:22:05.000Z</time>
      </trkpt>
      <trkpt lat="46.16653" lon="6.19372">
        <ele>351.60000610352</ele>
        <time>2012-11-12T13:22:06.000Z</time>
      </trkpt>
      <trkpt lat="46.16649" lon="6.19389">
        <ele>350.60000610352</ele>
        <time>2012-11-12T13:22:07.000Z</time>
      </trkpt>
      <trkpt lat="46.16643" lon="6.19426">
        <ele>349.20001220703</ele>
        <time>2012-11-12T13:22:09.000Z</time>
      </trkpt>
      <trkpt lat="46.16642" lon="6.19443">
        <ele>348.20001220703</ele>
        <time>2012-11-12T13:22:10.000Z</time>
      </trkpt>
      <trkpt lat="46.16642" lon="6.19462">
        <ele>348.20001220703</ele>
        <time>2012-11-12T13:22:11.000Z</time>
      </trkpt>
      <trkpt lat="46.16651" lon="6.19528">
        <ele>348.20001220703</ele>
        <time>2012-11-12T13:22:15.000Z</time>
      </trkpt>
      <trkpt lat="46.16662" lon="6.19574">
        <ele>347.20001220703</ele>
        <time>2012-11-12T13:22:18.000Z</time>
      </trkpt>
      <trkpt lat="46.16674" lon="6.19631">
        <ele>347.20001220703</ele>
        <time>2012-11-12T13:22:22.000Z</time>
      </trkpt>
      <trkpt lat="46.16695" lon="6.19712">
        <ele>347.20001220703</ele>
        <time>2012-11-12T13:22:28.000Z</time>
      </trkpt>
      <trkpt lat="46.16699" lon="6.19728">
        <ele>347.20001220703</ele>
        <time>2012-11-12T13:22:29.000Z</time>
      </trkpt>
      <trkpt lat="46.16718" lon="6.19806">
        <ele>347.20001220703</ele>
        <time>2012-11-12T13:22:35.000Z</time>
      </trkpt>
      <trkpt lat="46.16728" lon="6.1984">
        <ele>347.20001220703</ele>
        <time>2012-11-12T13:22:38.000Z</time>
      </trkpt>
      <trkpt lat="46.16754" lon="6.19914">
        <ele>347.20001220703</ele>
        <time>2012-11-12T13:22:44.000Z</time>
      </trkpt>
      <trkpt lat="46.16763" lon="6.19948">
        <ele>347.20001220703</ele>
        <time>2012-11-12T13:22:47.000Z</time>
      </trkpt>
      <trkpt lat="46.16768" lon="6.19986">
        <ele>347.20001220703</ele>
        <time>2012-11-12T13:22:50.000Z</time>
      </trkpt>
      <trkpt lat="46.16767" lon="6.19999">
        <ele>347.20001220703</ele>
        <time>2012-11-12T13:22:51.000Z</time>
      </trkpt>
      <trkpt lat="46.16774" lon="6.20033">
        <ele>347.20001220703</ele>
        <time>2012-11-12T13:22:54.000Z</time>
      </trkpt>
      <trkpt lat="46.16788" lon="6.20076">
        <ele>347.20001220703</ele>
        <time>2012-11-12T13:22:58.000Z</time>
      </trkpt>
      <trkpt lat="46.16809" lon="6.20156">
        <ele>347.20001220703</ele>
        <time>2012-11-12T13:23:05.000Z</time>
      </trkpt>
      <trkpt lat="46.16813" lon="6.20168">
        <ele>347.20001220703</ele>
        <time>2012-11-12T13:23:06.000Z</time>
      </trkpt>
      <trkpt lat="46.16819" lon="6.20191">
        <ele>346</ele>
        <time>2012-11-12T13:23:08.000Z</time>
      </trkpt>
      <trkpt lat="46.16839" lon="6.2027">
        <ele>346</ele>
        <time>2012-11-12T13:23:15.000Z</time>
      </trkpt>
      <trkpt lat="46.16842" lon="6.20281">
        <ele>346</ele>
        <time>2012-11-12T13:23:16.000Z</time>
      </trkpt>
      <trkpt lat="46.16863" lon="6.2036">
        <ele>346</ele>
        <time>2012-11-12T13:23:23.000Z</time>
      </trkpt>
      <trkpt lat="46.16871" lon="6.20394">
        <ele>346</ele>
        <time>2012-11-12T13:23:26.000Z</time>
      </trkpt>
      <trkpt lat="46.16877" lon="6.20415">
        <ele>346</ele>
        <time>2012-11-12T13:23:28.000Z</time>
      </trkpt>
      <trkpt lat="46.16897" lon="6.20495">
        <ele>346</ele>
        <time>2012-11-12T13:23:35.000Z</time>
      </trkpt>
      <trkpt lat="46.16919" lon="6.20573">
        <ele>346</ele>
        <time>2012-11-12T13:23:42.000Z</time>
      </trkpt>
      <trkpt lat="46.1693" lon="6.20606">
        <ele>346</ele>
        <time>2012-11-12T13:23:45.000Z</time>
      </trkpt>
      <trkpt lat="46.16954" lon="6.20673">
        <ele>346</ele>
        <time>2012-11-12T13:23:52.000Z</time>
      </trkpt>
      <trkpt lat="46.16962" lon="6.20692">
        <ele>349.20001220703</ele>
        <time>2012-11-12T13:23:54.000Z</time>
      </trkpt>
      <trkpt lat="46.16973" lon="6.20717">
        <ele>350.20001220703</ele>
        <time>2012-11-12T13:23:57.000Z</time>
      </trkpt>
      <trkpt lat="46.1698" lon="6.20734">
        <ele>351.60000610352</ele>
        <time>2012-11-12T13:23:59.000Z</time>
      </trkpt>
      <trkpt lat="46.16987" lon="6.2075">
        <ele>351.60000610352</ele>
        <time>2012-11-12T13:24:01.000Z</time>
      </trkpt>
      <trkpt lat="46.16998" lon="6.20774">
        <ele>352.60000610352</ele>
        <time>2012-11-12T13:24:04.000Z</time>
      </trkpt>
      <trkpt lat="46.17005" lon="6.2079">
        <ele>354</ele>
        <time>2012-11-12T13:24:06.000Z</time>
      </trkpt>
      <trkpt lat="46.17015" lon="6.20812">
        <ele>354</ele>
        <time>2012-11-12T13:24:09.000Z</time>
      </trkpt>
      <trkpt lat="46.17019" lon="6.2082">
        <ele>355</ele>
        <time>2012-11-12T13:24:10.000Z</time>
      </trkpt>
      <trkpt lat="46.17032" lon="6.20849">
        <ele>356</ele>
        <time>2012-11-12T13:24:14.000Z</time>
      </trkpt>
      <trkpt lat="46.17038" lon="6.20863">
        <ele>357.20001220703</ele>
        <time>2012-11-12T13:24:16.000Z</time>
      </trkpt>
      <trkpt lat="46.17042" lon="6.2087">
        <ele>357.20001220703</ele>
        <time>2012-11-12T13:24:17.000Z</time>
      </trkpt>
      <trkpt lat="46.17055" lon="6.209">
        <ele>358.20001220703</ele>
        <time>2012-11-12T13:24:21.000Z</time>
      </trkpt>
      <trkpt lat="46.17058" lon="6.20906">
        <ele>359.60000610352</ele>
        <time>2012-11-12T13:24:22.000Z</time>
      </trkpt>
      <trkpt lat="46.17068" lon="6.20928">
        <ele>359.60000610352</ele>
        <time>2012-11-12T13:24:25.000Z</time>
      </trkpt>
      <trkpt lat="46.17075" lon="6.20942">
        <ele>360.60000610352</ele>
        <time>2012-11-12T13:24:27.000Z</time>
      </trkpt>
      <trkpt lat="46.17089" lon="6.20972">
        <ele>361.60000610352</ele>
        <time>2012-11-12T13:24:31.000Z</time>
      </trkpt>
      <trkpt lat="46.17095" lon="6.20987">
        <ele>361.60000610352</ele>
        <time>2012-11-12T13:24:33.000Z</time>
      </trkpt>
      <trkpt lat="46.17099" lon="6.20995">
        <ele>363</ele>
        <time>2012-11-12T13:24:34.000Z</time>
      </trkpt>
      <trkpt lat="46.17114" lon="6.21039">
        <ele>363</ele>
        <time>2012-11-12T13:24:39.000Z</time>
      </trkpt>
      <trkpt lat="46.17126" lon="6.21096">
        <ele>363</ele>
        <time>2012-11-12T13:24:45.000Z</time>
      </trkpt>
      <trkpt lat="46.17127" lon="6.21105">
        <ele>364.20001220703</ele>
        <time>2012-11-12T13:24:46.000Z</time>
      </trkpt>
      <trkpt lat="46.17131" lon="6.21163">
        <ele>364.20001220703</ele>
        <time>2012-11-12T13:24:52.000Z</time>
      </trkpt>
      <trkpt lat="46.17129" lon="6.21246">
        <ele>364.20001220703</ele>
        <time>2012-11-12T13:25:00.000Z</time>
      </trkpt>
      <trkpt lat="46.17128" lon="6.21256">
        <ele>364.20001220703</ele>
        <time>2012-11-12T13:25:01.000Z</time>
      </trkpt>
      <trkpt lat="46.17131" lon="6.21334">
        <ele>364.20001220703</ele>
        <time>2012-11-12T13:25:08.000Z</time>
      </trkpt>
      <trkpt lat="46.17139" lon="6.21382">
        <ele>360.60000610352</ele>
        <time>2012-11-12T13:25:12.000Z</time>
      </trkpt>
      <trkpt lat="46.17142" lon="6.21394">
        <ele>360.60000610352</ele>
        <time>2012-11-12T13:25:13.000Z</time>
      </trkpt>
      <trkpt lat="46.17146" lon="6.21406">
        <ele>359.60000610352</ele>
        <time>2012-11-12T13:25:14.000Z</time>
      </trkpt>
      <trkpt lat="46.17154" lon="6.2143">
        <ele>358.20001220703</ele>
        <time>2012-11-12T13:25:16.000Z</time>
      </trkpt>
      <trkpt lat="46.17164" lon="6.21455">
        <ele>357</ele>
        <time>2012-11-12T13:25:18.000Z</time>
      </trkpt>
      <trkpt lat="46.1717" lon="6.21467">
        <ele>357</ele>
        <time>2012-11-12T13:25:19.000Z</time>
      </trkpt>
      <trkpt lat="46.17182" lon="6.21491">
        <ele>355.60000610352</ele>
        <time>2012-11-12T13:25:21.000Z</time>
      </trkpt>
      <trkpt lat="46.17187" lon="6.21502">
        <ele>354.60000610352</ele>
        <time>2012-11-12T13:25:22.000Z</time>
      </trkpt>
      <trkpt lat="46.17195" lon="6.21516">
        <ele>353.60000610352</ele>
        <time>2012-11-12T13:25:23.000Z</time>
      </trkpt>
      <trkpt lat="46.17202" lon="6.21528">
        <ele>352.60000610352</ele>
        <time>2012-11-12T13:25:24.000Z</time>
      </trkpt>
      <trkpt lat="46.17209" lon="6.21541">
        <ele>352.60000610352</ele>
        <time>2012-11-12T13:25:25.000Z</time>
      </trkpt>
      <trkpt lat="46.17244" lon="6.21602">
        <ele>352.60000610352</ele>
        <time>2012-11-12T13:25:30.000Z</time>
      </trkpt>
      <trkpt lat="46.17251" lon="6.21614">
        <ele>351.20001220703</ele>
        <time>2012-11-12T13:25:31.000Z</time>
      </trkpt>
      <trkpt lat="46.17264" lon="6.21637">
        <ele>351.20001220703</ele>
        <time>2012-11-12T13:25:33.000Z</time>
      </trkpt>
      <trkpt lat="46.17294" lon="6.21696">
        <ele>350.20001220703</ele>
        <time>2012-11-12T13:25:38.000Z</time>
      </trkpt>
      <trkpt lat="46.17311" lon="6.21731">
        <ele>350.20001220703</ele>
        <time>2012-11-12T13:25:41.000Z</time>
      </trkpt>
      <trkpt lat="46.17344" lon="6.21796">
        <ele>350.20001220703</ele>
        <time>2012-11-12T13:25:47.000Z</time>
      </trkpt>
      <trkpt lat="46.1736" lon="6.21829">
        <ele>350.20001220703</ele>
        <time>2012-11-12T13:25:50.000Z</time>
      </trkpt>
      <trkpt lat="46.17393" lon="6.21893">
        <ele>350.20001220703</ele>
        <time>2012-11-12T13:25:56.000Z</time>
      </trkpt>
      <trkpt lat="46.17403" lon="6.21914">
        <ele>350.20001220703</ele>
        <time>2012-11-12T13:25:58.000Z</time>
      </trkpt>
      <trkpt lat="46.17439" lon="6.21985">
        <ele>350.20001220703</ele>
        <time>2012-11-12T13:26:05.000Z</time>
      </trkpt>
      <trkpt lat="46.17444" lon="6.21995">
        <ele>350.20001220703</ele>
        <time>2012-11-12T13:26:06.000Z</time>
      </trkpt>
      <trkpt lat="46.17481" lon="6.22067">
        <ele>350.20001220703</ele>
        <time>2012-11-12T13:26:13.000Z</time>
      </trkpt>
      <trkpt lat="46.17503" lon="6.22109">
        <ele>350.20001220703</ele>
        <time>2012-11-12T13:26:17.000Z</time>
      </trkpt>
      <trkpt lat="46.17523" lon="6.22153">
        <ele>350.20001220703</ele>
        <time>2012-11-12T13:26:21.000Z</time>
      </trkpt>
      <trkpt lat="46.17521" lon="6.22164">
        <ele>350.20001220703</ele>
        <time>2012-11-12T13:26:22.000Z</time>
      </trkpt>
      <trkpt lat="46.17517" lon="6.222">
        <ele>350.20001220703</ele>
        <time>2012-11-12T13:26:25.000Z</time>
      </trkpt>
      <trkpt lat="46.17517" lon="6.22219">
        <ele>350.20001220703</ele>
        <time>2012-11-12T13:26:27.000Z</time>
      </trkpt>
      <trkpt lat="46.17517" lon="6.22228">
        <ele>352.20001220703</ele>
        <time>2012-11-12T13:26:28.000Z</time>
      </trkpt>
      <trkpt lat="46.17517" lon="6.22238">
        <ele>352.20001220703</ele>
        <time>2012-11-12T13:26:29.000Z</time>
      </trkpt>
      <trkpt lat="46.17517" lon="6.22255">
        <ele>353.20001220703</ele>
        <time>2012-11-12T13:26:31.000Z</time>
      </trkpt>
      <trkpt lat="46.17517" lon="6.22287">
        <ele>354.20001220703</ele>
        <time>2012-11-12T13:26:35.000Z</time>
      </trkpt>
      <trkpt lat="46.17518" lon="6.22303">
        <ele>354.20001220703</ele>
        <time>2012-11-12T13:26:37.000Z</time>
      </trkpt>
      <trkpt lat="46.17518" lon="6.22312">
        <ele>355.20001220703</ele>
        <time>2012-11-12T13:26:38.000Z</time>
      </trkpt>
      <trkpt lat="46.17518" lon="6.22342">
        <ele>356.60000610352</ele>
        <time>2012-11-12T13:26:42.000Z</time>
      </trkpt>
      <trkpt lat="46.17518" lon="6.22359">
        <ele>357.60000610352</ele>
        <time>2012-11-12T13:26:44.000Z</time>
      </trkpt>
      <trkpt lat="46.17518" lon="6.22374">
        <ele>357.60000610352</ele>
        <time>2012-11-12T13:26:46.000Z</time>
      </trkpt>
      <trkpt lat="46.17518" lon="6.22381">
        <ele>358.60000610352</ele>
        <time>2012-11-12T13:26:47.000Z</time>
      </trkpt>
      <trkpt lat="46.17519" lon="6.22405">
        <ele>360.20001220703</ele>
        <time>2012-11-12T13:26:50.000Z</time>
      </trkpt>
      <trkpt lat="46.1752" lon="6.22412">
        <ele>361.20001220703</ele>
        <time>2012-11-12T13:26:51.000Z</time>
      </trkpt>
      <trkpt lat="46.17522" lon="6.22428">
        <ele>362.20001220703</ele>
        <time>2012-11-12T13:26:53.000Z</time>
      </trkpt>
      <trkpt lat="46.17526" lon="6.22451">
        <ele>362.20001220703</ele>
        <time>2012-11-12T13:26:56.000Z</time>
      </trkpt>
      <trkpt lat="46.17532" lon="6.22472">
        <ele>362.20001220703</ele>
        <time>2012-11-12T13:26:59.000Z</time>
      </trkpt>
      <trkpt lat="46.17536" lon="6.22486">
        <ele>363.20001220703</ele>
        <time>2012-11-12T13:27:01.000Z</time>
      </trkpt>
      <trkpt lat="46.17545" lon="6.22514">
        <ele>363.20001220703</ele>
        <time>2012-11-12T13:27:05.000Z</time>
      </trkpt>
      <trkpt lat="46.17551" lon="6.22535">
        <ele>365.20001220703</ele>
        <time>2012-11-12T13:27:08.000Z</time>
      </trkpt>
      <trkpt lat="46.17556" lon="6.22549">
        <ele>366.20001220703</ele>
        <time>2012-11-12T13:27:10.000Z</time>
      </trkpt>
      <trkpt lat="46.17563" lon="6.22569">
        <ele>367.60000610352</ele>
        <time>2012-11-12T13:27:13.000Z</time>
      </trkpt>
      <trkpt lat="46.17573" lon="6.22585">
        <ele>368.60000610352</ele>
        <time>2012-11-12T13:27:16.000Z</time>
      </trkpt>
      <trkpt lat="46.17576" lon="6.2259">
        <ele>368.60000610352</ele>
        <time>2012-11-12T13:27:17.000Z</time>
      </trkpt>
      <trkpt lat="46.17582" lon="6.226">
        <ele>369.60000610352</ele>
        <time>2012-11-12T13:27:19.000Z</time>
      </trkpt>
      <trkpt lat="46.17592" lon="6.22614">
        <ele>371</ele>
        <time>2012-11-12T13:27:22.000Z</time>
      </trkpt>
      <trkpt lat="46.17598" lon="6.22624">
        <ele>372</ele>
        <time>2012-11-12T13:27:24.000Z</time>
      </trkpt>
      <trkpt lat="46.17607" lon="6.22636">
        <ele>373</ele>
        <time>2012-11-12T13:27:27.000Z</time>
      </trkpt>
      <trkpt lat="46.1761" lon="6.2264">
        <ele>373</ele>
        <time>2012-11-12T13:27:28.000Z</time>
      </trkpt>
      <trkpt lat="46.17618" lon="6.2265">
        <ele>374</ele>
        <time>2012-11-12T13:27:30.000Z</time>
      </trkpt>
      <trkpt lat="46.17621" lon="6.22655">
        <ele>375.20001220703</ele>
        <time>2012-11-12T13:27:31.000Z</time>
      </trkpt>
      <trkpt lat="46.17639" lon="6.22678">
        <ele>376.20001220703</ele>
        <time>2012-11-12T13:27:36.000Z</time>
      </trkpt>
      <trkpt lat="46.1765" lon="6.22692">
        <ele>377.20001220703</ele>
        <time>2012-11-12T13:27:39.000Z</time>
      </trkpt>
      <trkpt lat="46.17665" lon="6.22711">
        <ele>377.20001220703</ele>
        <time>2012-11-12T13:27:43.000Z</time>
      </trkpt>
      <trkpt lat="46.17677" lon="6.22726">
        <ele>378.60000610352</ele>
        <time>2012-11-12T13:27:46.000Z</time>
      </trkpt>
      <trkpt lat="46.17704" lon="6.22762">
        <ele>378.60000610352</ele>
        <time>2012-11-12T13:27:53.000Z</time>
      </trkpt>
      <trkpt lat="46.17739" lon="6.22809">
        <ele>378.60000610352</ele>
        <time>2012-11-12T13:28:01.000Z</time>
      </trkpt>
      <trkpt lat="46.17772" lon="6.22865">
        <ele>378.60000610352</ele>
        <time>2012-11-12T13:28:09.000Z</time>
      </trkpt>
      <trkpt lat="46.1779" lon="6.22916">
        <ele>378.60000610352</ele>
        <time>2012-11-12T13:28:15.000Z</time>
      </trkpt>
      <trkpt lat="46.17805" lon="6.22994">
        <ele>378.60000610352</ele>
        <time>2012-11-12T13:28:23.000Z</time>
      </trkpt>
      <trkpt lat="46.1782" lon="6.23073">
        <ele>378.60000610352</ele>
        <time>2012-11-12T13:28:31.000Z</time>
      </trkpt>
      <trkpt lat="46.17822" lon="6.23082">
        <ele>378.60000610352</ele>
        <time>2012-11-12T13:28:32.000Z</time>
      </trkpt>
      <trkpt lat="46.1783" lon="6.23136">
        <ele>379.60000610352</ele>
        <time>2012-11-12T13:28:37.000Z</time>
      </trkpt>
      <trkpt lat="46.17834" lon="6.23178">
        <ele>379.60000610352</ele>
        <time>2012-11-12T13:28:41.000Z</time>
      </trkpt>
      <trkpt lat="46.1784" lon="6.23264">
        <ele>379.60000610352</ele>
        <time>2012-11-12T13:28:49.000Z</time>
      </trkpt>
      <trkpt lat="46.17839" lon="6.23275">
        <ele>379.60000610352</ele>
        <time>2012-11-12T13:28:50.000Z</time>
      </trkpt>
      <trkpt lat="46.17833" lon="6.23319">
        <ele>379.60000610352</ele>
        <time>2012-11-12T13:28:54.000Z</time>
      </trkpt>
      <trkpt lat="46.17829" lon="6.2333">
        <ele>379.60000610352</ele>
        <time>2012-11-12T13:28:55.000Z</time>
      </trkpt>
      <trkpt lat="46.17811" lon="6.2337">
        <ele>379.60000610352</ele>
        <time>2012-11-12T13:28:59.000Z</time>
      </trkpt>
      <trkpt lat="46.17805" lon="6.23378">
        <ele>376.20001220703</ele>
        <time>2012-11-12T13:29:00.000Z</time>
      </trkpt>
      <trkpt lat="46.17785" lon="6.234">
        <ele>376.20001220703</ele>
        <time>2012-11-12T13:29:03.000Z</time>
      </trkpt>
      <trkpt lat="46.17778" lon="6.23406">
        <ele>376.20001220703</ele>
        <time>2012-11-12T13:29:04.000Z</time>
      </trkpt>
      <trkpt lat="46.17754" lon="6.23424">
        <ele>375</ele>
        <time>2012-11-12T13:29:07.000Z</time>
      </trkpt>
      <trkpt lat="46.17737" lon="6.23437">
        <ele>375</ele>
        <time>2012-11-12T13:29:09.000Z</time>
      </trkpt>
      <trkpt lat="46.1773" lon="6.23443">
        <ele>374</ele>
        <time>2012-11-12T13:29:10.000Z</time>
      </trkpt>
      <trkpt lat="46.17698" lon="6.23467">
        <ele>373</ele>
        <time>2012-11-12T13:29:14.000Z</time>
      </trkpt>
      <trkpt lat="46.17673" lon="6.23486">
        <ele>371.60000610352</ele>
        <time>2012-11-12T13:29:17.000Z</time>
      </trkpt>
      <trkpt lat="46.17664" lon="6.23493">
        <ele>370.20001220703</ele>
        <time>2012-11-12T13:29:18.000Z</time>
      </trkpt>
      <trkpt lat="46.17621" lon="6.23531">
        <ele>370.20001220703</ele>
        <time>2012-11-12T13:29:24.000Z</time>
      </trkpt>
      <trkpt lat="46.17617" lon="6.23546">
        <ele>370.20001220703</ele>
        <time>2012-11-12T13:29:27.000Z</time>
      </trkpt>
      <trkpt lat="46.17616" lon="6.2355">
        <ele>370.20001220703</ele>
        <time>2012-11-12T13:29:28.000Z</time>
      </trkpt>
      <trkpt lat="46.17606" lon="6.23563">
        <ele>370.20001220703</ele>
        <time>2012-11-12T13:29:31.000Z</time>
      </trkpt>
      <trkpt lat="46.17602" lon="6.23566">
        <ele>370.20001220703</ele>
        <time>2012-11-12T13:29:32.000Z</time>
      </trkpt>
      <trkpt lat="46.17581" lon="6.23584">
        <ele>370.20001220703</ele>
        <time>2012-11-12T13:29:36.000Z</time>
      </trkpt>
      <trkpt lat="46.17569" lon="6.23594">
        <ele>373.60000610352</ele>
        <time>2012-11-12T13:29:38.000Z</time>
      </trkpt>
      <trkpt lat="46.17542" lon="6.23619">
        <ele>374.60000610352</ele>
        <time>2012-11-12T13:29:43.000Z</time>
      </trkpt>
      <trkpt lat="46.1752" lon="6.23638">
        <ele>374.60000610352</ele>
        <time>2012-11-12T13:29:47.000Z</time>
      </trkpt>
      <trkpt lat="46.17515" lon="6.23643">
        <ele>376</ele>
        <time>2012-11-12T13:29:48.000Z</time>
      </trkpt>
      <trkpt lat="46.17481" lon="6.23675">
        <ele>376</ele>
        <time>2012-11-12T13:29:54.000Z</time>
      </trkpt>
      <trkpt lat="46.17471" lon="6.23689">
        <ele>377.20001220703</ele>
        <time>2012-11-12T13:29:56.000Z</time>
      </trkpt>
      <trkpt lat="46.17456" lon="6.23712">
        <ele>377.20001220703</ele>
        <time>2012-11-12T13:29:59.000Z</time>
      </trkpt>
      <trkpt lat="46.17447" lon="6.23728">
        <ele>378.60000610352</ele>
        <time>2012-11-12T13:30:01.000Z</time>
      </trkpt>
      <trkpt lat="46.17422" lon="6.23769">
        <ele>379.60000610352</ele>
        <time>2012-11-12T13:30:06.000Z</time>
      </trkpt>
      <trkpt lat="46.17408" lon="6.23793">
        <ele>380.60000610352</ele>
        <time>2012-11-12T13:30:09.000Z</time>
      </trkpt>
      <trkpt lat="46.17371" lon="6.23847">
        <ele>380.60000610352</ele>
        <time>2012-11-12T13:30:16.000Z</time>
      </trkpt>
      <trkpt lat="46.17366" lon="6.23853">
        <ele>381.60000610352</ele>
        <time>2012-11-12T13:30:17.000Z</time>
      </trkpt>
      <trkpt lat="46.1732" lon="6.23907">
        <ele>382.60000610352</ele>
        <time>2012-11-12T13:30:24.000Z</time>
      </trkpt>
      <trkpt lat="46.17289" lon="6.23937">
        <ele>383.60000610352</ele>
        <time>2012-11-12T13:30:29.000Z</time>
      </trkpt>
      <trkpt lat="46.1727" lon="6.23953">
        <ele>383.60000610352</ele>
        <time>2012-11-12T13:30:32.000Z</time>
      </trkpt>
      <trkpt lat="46.17243" lon="6.23973">
        <ele>384.60000610352</ele>
        <time>2012-11-12T13:30:36.000Z</time>
      </trkpt>
      <trkpt lat="46.17223" lon="6.23986">
        <ele>385.60000610352</ele>
        <time>2012-11-12T13:30:39.000Z</time>
      </trkpt>
      <trkpt lat="46.17217" lon="6.2399">
        <ele>385.60000610352</ele>
        <time>2012-11-12T13:30:40.000Z</time>
      </trkpt>
      <trkpt lat="46.1721" lon="6.23994">
        <ele>386.60000610352</ele>
        <time>2012-11-12T13:30:41.000Z</time>
      </trkpt>
      <trkpt lat="46.17169" lon="6.24016">
        <ele>387.60000610352</ele>
        <time>2012-11-12T13:30:47.000Z</time>
      </trkpt>
      <trkpt lat="46.17162" lon="6.24019">
        <ele>387.60000610352</ele>
        <time>2012-11-12T13:30:48.000Z</time>
      </trkpt>
      <trkpt lat="46.17128" lon="6.24033">
        <ele>389</ele>
        <time>2012-11-12T13:30:53.000Z</time>
      </trkpt>
      <trkpt lat="46.17108" lon="6.24039">
        <ele>390</ele>
        <time>2012-11-12T13:30:56.000Z</time>
      </trkpt>
      <trkpt lat="46.17101" lon="6.2404">
        <ele>390</ele>
        <time>2012-11-12T13:30:57.000Z</time>
      </trkpt>
      <trkpt lat="46.17072" lon="6.24045">
        <ele>391</ele>
        <time>2012-11-12T13:31:01.000Z</time>
      </trkpt>
      <trkpt lat="46.17044" lon="6.24049">
        <ele>392</ele>
        <time>2012-11-12T13:31:05.000Z</time>
      </trkpt>
      <trkpt lat="46.17037" lon="6.24049">
        <ele>392</ele>
        <time>2012-11-12T13:31:06.000Z</time>
      </trkpt>
      <trkpt lat="46.1703" lon="6.2405">
        <ele>393.20001220703</ele>
        <time>2012-11-12T13:31:07.000Z</time>
      </trkpt>
      <trkpt lat="46.16986" lon="6.24049">
        <ele>394.20001220703</ele>
        <time>2012-11-12T13:31:13.000Z</time>
      </trkpt>
      <trkpt lat="46.16972" lon="6.24048">
        <ele>394.20001220703</ele>
        <time>2012-11-12T13:31:15.000Z</time>
      </trkpt>
      <trkpt lat="46.16951" lon="6.24046">
        <ele>395.60000610352</ele>
        <time>2012-11-12T13:31:18.000Z</time>
      </trkpt>
      <trkpt lat="46.1693" lon="6.24046">
        <ele>396.60000610352</ele>
        <time>2012-11-12T13:31:21.000Z</time>
      </trkpt>
      <trkpt lat="46.16909" lon="6.24045">
        <ele>396.60000610352</ele>
        <time>2012-11-12T13:31:24.000Z</time>
      </trkpt>
      <trkpt lat="46.16896" lon="6.24047">
        <ele>397.60000610352</ele>
        <time>2012-11-12T13:31:26.000Z</time>
      </trkpt>
      <trkpt lat="46.16883" lon="6.24051">
        <ele>397.60000610352</ele>
        <time>2012-11-12T13:31:28.000Z</time>
      </trkpt>
      <trkpt lat="46.16876" lon="6.24055">
        <ele>397.60000610352</ele>
        <time>2012-11-12T13:31:29.000Z</time>
      </trkpt>
      <trkpt lat="46.16858" lon="6.2407">
        <ele>398.60000610352</ele>
        <time>2012-11-12T13:31:32.000Z</time>
      </trkpt>
      <trkpt lat="46.16848" lon="6.24082">
        <ele>398.60000610352</ele>
        <time>2012-11-12T13:31:34.000Z</time>
      </trkpt>
      <trkpt lat="46.16837" lon="6.24097">
        <ele>398.60000610352</ele>
        <time>2012-11-12T13:31:36.000Z</time>
      </trkpt>
      <trkpt lat="46.16833" lon="6.24104">
        <ele>400</ele>
        <time>2012-11-12T13:31:37.000Z</time>
      </trkpt>
      <trkpt lat="46.16819" lon="6.24127">
        <ele>400</ele>
        <time>2012-11-12T13:31:40.000Z</time>
      </trkpt>
      <trkpt lat="46.16814" lon="6.24135">
        <ele>401</ele>
        <time>2012-11-12T13:31:41.000Z</time>
      </trkpt>
      <trkpt lat="46.16798" lon="6.24156">
        <ele>401</ele>
        <time>2012-11-12T13:31:44.000Z</time>
      </trkpt>
      <trkpt lat="46.16786" lon="6.24164">
        <ele>401</ele>
        <time>2012-11-12T13:31:46.000Z</time>
      </trkpt>
      <trkpt lat="46.16779" lon="6.24167">
        <ele>402.20001220703</ele>
        <time>2012-11-12T13:31:47.000Z</time>
      </trkpt>
      <trkpt lat="46.16765" lon="6.2417">
        <ele>403.20001220703</ele>
        <time>2012-11-12T13:31:49.000Z</time>
      </trkpt>
      <trkpt lat="46.16758" lon="6.24168">
        <ele>403.20001220703</ele>
        <time>2012-11-12T13:31:50.000Z</time>
      </trkpt>
      <trkpt lat="46.16746" lon="6.24164">
        <ele>403.20001220703</ele>
        <time>2012-11-12T13:31:52.000Z</time>
      </trkpt>
      <trkpt lat="46.16739" lon="6.24161">
        <ele>403.20001220703</ele>
        <time>2012-11-12T13:31:53.000Z</time>
      </trkpt>
      <trkpt lat="46.16733" lon="6.24156">
        <ele>404.20001220703</ele>
        <time>2012-11-12T13:31:54.000Z</time>
      </trkpt>
      <trkpt lat="46.16727" lon="6.24153">
        <ele>404.20001220703</ele>
        <time>2012-11-12T13:31:55.000Z</time>
      </trkpt>
      <trkpt lat="46.16716" lon="6.24145">
        <ele>405.20001220703</ele>
        <time>2012-11-12T13:31:57.000Z</time>
      </trkpt>
      <trkpt lat="46.16699" lon="6.24133">
        <ele>406.60000610352</ele>
        <time>2012-11-12T13:32:00.000Z</time>
      </trkpt>
      <trkpt lat="46.16688" lon="6.24124">
        <ele>407.60000610352</ele>
        <time>2012-11-12T13:32:02.000Z</time>
      </trkpt>
      <trkpt lat="46.16676" lon="6.24116">
        <ele>407.60000610352</ele>
        <time>2012-11-12T13:32:04.000Z</time>
      </trkpt>
      <trkpt lat="46.1667" lon="6.24112">
        <ele>408.60000610352</ele>
        <time>2012-11-12T13:32:05.000Z</time>
      </trkpt>
      <trkpt lat="46.16629" lon="6.24089">
        <ele>408.60000610352</ele>
        <time>2012-11-12T13:32:12.000Z</time>
      </trkpt>
      <trkpt lat="46.16618" lon="6.24083">
        <ele>410.20001220703</ele>
        <time>2012-11-12T13:32:14.000Z</time>
      </trkpt>
      <trkpt lat="46.16595" lon="6.24074">
        <ele>411.20001220703</ele>
        <time>2012-11-12T13:32:18.000Z</time>
      </trkpt>
      <trkpt lat="46.16583" lon="6.24071">
        <ele>411.20001220703</ele>
        <time>2012-11-12T13:32:20.000Z</time>
      </trkpt>
      <trkpt lat="46.16533" lon="6.24062">
        <ele>411.20001220703</ele>
        <time>2012-11-12T13:32:28.000Z</time>
      </trkpt>
      <trkpt lat="46.16483" lon="6.2405">
        <ele>408.20001220703</ele>
        <time>2012-11-12T13:32:35.000Z</time>
      </trkpt>
      <trkpt lat="46.16467" lon="6.24046">
        <ele>407.20001220703</ele>
        <time>2012-11-12T13:32:37.000Z</time>
      </trkpt>
      <trkpt lat="46.1645" lon="6.2404">
        <ele>405.60000610352</ele>
        <time>2012-11-12T13:32:39.000Z</time>
      </trkpt>
      <trkpt lat="46.16441" lon="6.24038">
        <ele>404.60000610352</ele>
        <time>2012-11-12T13:32:40.000Z</time>
      </trkpt>
      <trkpt lat="46.16424" lon="6.2403">
        <ele>403.60000610352</ele>
        <time>2012-11-12T13:32:42.000Z</time>
      </trkpt>
      <trkpt lat="46.16397" lon="6.24021">
        <ele>402.60000610352</ele>
        <time>2012-11-12T13:32:45.000Z</time>
      </trkpt>
      <trkpt lat="46.16367" lon="6.24017">
        <ele>401</ele>
        <time>2012-11-12T13:32:48.000Z</time>
      </trkpt>
      <trkpt lat="46.16357" lon="6.24016">
        <ele>399.60000610352</ele>
        <time>2012-11-12T13:32:49.000Z</time>
      </trkpt>
      <trkpt lat="46.16329" lon="6.24007">
        <ele>398.20001220703</ele>
        <time>2012-11-12T13:32:52.000Z</time>
      </trkpt>
      <trkpt lat="46.16318" lon="6.24">
        <ele>397.20001220703</ele>
        <time>2012-11-12T13:32:53.000Z</time>
      </trkpt>
      <trkpt lat="46.16299" lon="6.23989">
        <ele>396.20001220703</ele>
        <time>2012-11-12T13:32:55.000Z</time>
      </trkpt>
      <trkpt lat="46.16251" lon="6.23958">
        <ele>395</ele>
        <time>2012-11-12T13:33:00.000Z</time>
      </trkpt>
      <trkpt lat="46.16242" lon="6.23949">
        <ele>395</ele>
        <time>2012-11-12T13:33:01.000Z</time>
      </trkpt>
      <trkpt lat="46.16225" lon="6.23933">
        <ele>393.60000610352</ele>
        <time>2012-11-12T13:33:03.000Z</time>
      </trkpt>
      <trkpt lat="46.16215" lon="6.2393">
        <ele>393.60000610352</ele>
        <time>2012-11-12T13:33:04.000Z</time>
      </trkpt>
      <trkpt lat="46.16204" lon="6.23932">
        <ele>393.60000610352</ele>
        <time>2012-11-12T13:33:05.000Z</time>
      </trkpt>
      <trkpt lat="46.16195" lon="6.23938">
        <ele>392.20001220703</ele>
        <time>2012-11-12T13:33:06.000Z</time>
      </trkpt>
      <trkpt lat="46.16187" lon="6.23947">
        <ele>391.20001220703</ele>
        <time>2012-11-12T13:33:07.000Z</time>
      </trkpt>
      <trkpt lat="46.16178" lon="6.23976">
        <ele>391.20001220703</ele>
        <time>2012-11-12T13:33:09.000Z</time>
      </trkpt>
      <trkpt lat="46.16177" lon="6.24022">
        <ele>391.20001220703</ele>
        <time>2012-11-12T13:33:12.000Z</time>
      </trkpt>
      <trkpt lat="46.16174" lon="6.2411">
        <ele>391.20001220703</ele>
        <time>2012-11-12T13:33:18.000Z</time>
      </trkpt>
      <trkpt lat="46.16173" lon="6.24123">
        <ele>391.20001220703</ele>
        <time>2012-11-12T13:33:19.000Z</time>
      </trkpt>
      <trkpt lat="46.16167" lon="6.24184">
        <ele>391.20001220703</ele>
        <time>2012-11-12T13:33:24.000Z</time>
      </trkpt>
      <trkpt lat="46.16163" lon="6.24195">
        <ele>391.20001220703</ele>
        <time>2012-11-12T13:33:25.000Z</time>
      </trkpt>
      <trkpt lat="46.1615" lon="6.24212">
        <ele>391.20001220703</ele>
        <time>2012-11-12T13:33:27.000Z</time>
      </trkpt>
      <trkpt lat="46.16127" lon="6.24231">
        <ele>391.20001220703</ele>
        <time>2012-11-12T13:33:30.000Z</time>
      </trkpt>
      <trkpt lat="46.16119" lon="6.24236">
        <ele>391.20001220703</ele>
        <time>2012-11-12T13:33:31.000Z</time>
      </trkpt>
      <trkpt lat="46.16097" lon="6.24253">
        <ele>393.20001220703</ele>
        <time>2012-11-12T13:33:34.000Z</time>
      </trkpt>
      <trkpt lat="46.16045" lon="6.24291">
        <ele>393.20001220703</ele>
        <time>2012-11-12T13:33:41.000Z</time>
      </trkpt>
      <trkpt lat="46.16025" lon="6.24306">
        <ele>394.20001220703</ele>
        <time>2012-11-12T13:33:44.000Z</time>
      </trkpt>
      <trkpt lat="46.16014" lon="6.2431">
        <ele>394.20001220703</ele>
        <time>2012-11-12T13:33:46.000Z</time>
      </trkpt>
      <trkpt lat="46.16008" lon="6.24301">
        <ele>394.20001220703</ele>
        <time>2012-11-12T13:33:48.000Z</time>
      </trkpt>
      <trkpt lat="46.16004" lon="6.24291">
        <ele>394.20001220703</ele>
        <time>2012-11-12T13:33:50.000Z</time>
      </trkpt>
      <trkpt lat="46.15997" lon="6.24275">
        <ele>394.20001220703</ele>
        <time>2012-11-12T13:33:53.000Z</time>
      </trkpt>
      <trkpt lat="46.15981" lon="6.24246">
        <ele>396.20001220703</ele>
        <time>2012-11-12T13:33:58.000Z</time>
      </trkpt>
      <trkpt lat="46.15977" lon="6.24241">
        <ele>396.20001220703</ele>
        <time>2012-11-12T13:33:59.000Z</time>
      </trkpt>
      <trkpt lat="46.15972" lon="6.24237">
        <ele>396.20001220703</ele>
        <time>2012-11-12T13:34:00.000Z</time>
      </trkpt>
      <trkpt lat="46.15967" lon="6.24233">
        <ele>397.60000610352</ele>
        <time>2012-11-12T13:34:01.000Z</time>
      </trkpt>
      <trkpt lat="46.15952" lon="6.24228">
        <ele>398.60000610352</ele>
        <time>2012-11-12T13:34:04.000Z</time>
      </trkpt>
      <trkpt lat="46.15932" lon="6.24232">
        <ele>400</ele>
        <time>2012-11-12T13:34:08.000Z</time>
      </trkpt>
      <trkpt lat="46.15927" lon="6.24234">
        <ele>400</ele>
        <time>2012-11-12T13:34:09.000Z</time>
      </trkpt>
      <trkpt lat="46.15923" lon="6.24237">
        <ele>400</ele>
        <time>2012-11-12T13:34:10.000Z</time>
      </trkpt>
      <trkpt lat="46.15918" lon="6.2424">
        <ele>401</ele>
        <time>2012-11-12T13:34:11.000Z</time>
      </trkpt>
      <trkpt lat="46.15909" lon="6.24247">
        <ele>401</ele>
        <time>2012-11-12T13:34:13.000Z</time>
      </trkpt>
      <trkpt lat="46.15904" lon="6.24251">
        <ele>401</ele>
        <time>2012-11-12T13:34:14.000Z</time>
      </trkpt>
      <trkpt lat="46.15882" lon="6.24269">
        <ele>403</ele>
        <time>2012-11-12T13:34:19.000Z</time>
      </trkpt>
      <trkpt lat="46.15874" lon="6.24276">
        <ele>403</ele>
        <time>2012-11-12T13:34:21.000Z</time>
      </trkpt>
      <trkpt lat="46.1587" lon="6.24279">
        <ele>404</ele>
        <time>2012-11-12T13:34:22.000Z</time>
      </trkpt>
      <trkpt lat="46.15856" lon="6.2429">
        <ele>405.20001220703</ele>
        <time>2012-11-12T13:34:25.000Z</time>
      </trkpt>
      <trkpt lat="46.15848" lon="6.24297">
        <ele>406.20001220703</ele>
        <time>2012-11-12T13:34:27.000Z</time>
      </trkpt>
      <trkpt lat="46.15844" lon="6.24301">
        <ele>406.20001220703</ele>
        <time>2012-11-12T13:34:28.000Z</time>
      </trkpt>
      <trkpt lat="46.15835" lon="6.24308">
        <ele>407.20001220703</ele>
        <time>2012-11-12T13:34:30.000Z</time>
      </trkpt>
      <trkpt lat="46.15823" lon="6.24318">
        <ele>408.60000610352</ele>
        <time>2012-11-12T13:34:33.000Z</time>
      </trkpt>
      <trkpt lat="46.1581" lon="6.24328">
        <ele>409.60000610352</ele>
        <time>2012-11-12T13:34:36.000Z</time>
      </trkpt>
      <trkpt lat="46.15798" lon="6.24338">
        <ele>410.60000610352</ele>
        <time>2012-11-12T13:34:39.000Z</time>
      </trkpt>
      <trkpt lat="46.15786" lon="6.24348">
        <ele>412.20001220703</ele>
        <time>2012-11-12T13:34:42.000Z</time>
      </trkpt>
      <trkpt lat="46.15774" lon="6.24358">
        <ele>413.20001220703</ele>
        <time>2012-11-12T13:34:45.000Z</time>
      </trkpt>
      <trkpt lat="46.15767" lon="6.24364">
        <ele>413.20001220703</ele>
        <time>2012-11-12T13:34:47.000Z</time>
      </trkpt>
      <trkpt lat="46.15762" lon="6.24367">
        <ele>414.20001220703</ele>
        <time>2012-11-12T13:34:48.000Z</time>
      </trkpt>
      <trkpt lat="46.1575" lon="6.24375">
        <ele>415.60000610352</ele>
        <time>2012-11-12T13:34:51.000Z</time>
      </trkpt>
      <trkpt lat="46.15742" lon="6.24377">
        <ele>415.60000610352</ele>
        <time>2012-11-12T13:34:53.000Z</time>
      </trkpt>
      <trkpt lat="46.15738" lon="6.24378">
        <ele>416.60000610352</ele>
        <time>2012-11-12T13:34:54.000Z</time>
      </trkpt>
      <trkpt lat="46.1573" lon="6.24377">
        <ele>417.60000610352</ele>
        <time>2012-11-12T13:34:56.000Z</time>
      </trkpt>
      <trkpt lat="46.15718" lon="6.24373">
        <ele>418.60000610352</ele>
        <time>2012-11-12T13:34:59.000Z</time>
      </trkpt>
      <trkpt lat="46.15708" lon="6.24364">
        <ele>419.60000610352</ele>
        <time>2012-11-12T13:35:02.000Z</time>
      </trkpt>
      <trkpt lat="46.15705" lon="6.2436">
        <ele>419.60000610352</ele>
        <time>2012-11-12T13:35:03.000Z</time>
      </trkpt>
      <trkpt lat="46.15698" lon="6.24353">
        <ele>420.60000610352</ele>
        <time>2012-11-12T13:35:05.000Z</time>
      </trkpt>
      <trkpt lat="46.15696" lon="6.24348">
        <ele>420.60000610352</ele>
        <time>2012-11-12T13:35:06.000Z</time>
      </trkpt>
      <trkpt lat="46.1569" lon="6.24334">
        <ele>426.60000610352</ele>
        <time>2012-11-12T13:35:09.000Z</time>
      </trkpt>
      <trkpt lat="46.15684" lon="6.24301">
        <ele>426.60000610352</ele>
        <time>2012-11-12T13:35:15.000Z</time>
      </trkpt>
      <trkpt lat="46.15684" lon="6.24273">
        <ele>428.60000610352</ele>
        <time>2012-11-12T13:35:20.000Z</time>
      </trkpt>
      <trkpt lat="46.15683" lon="6.24252">
        <ele>428.60000610352</ele>
        <time>2012-11-12T13:35:24.000Z</time>
      </trkpt>
      <trkpt lat="46.15683" lon="6.24247">
        <ele>429.60000610352</ele>
        <time>2012-11-12T13:35:25.000Z</time>
      </trkpt>
      <trkpt lat="46.15682" lon="6.24226">
        <ele>431</ele>
        <time>2012-11-12T13:35:29.000Z</time>
      </trkpt>
      <trkpt lat="46.15681" lon="6.24216">
        <ele>431</ele>
        <time>2012-11-12T13:35:31.000Z</time>
      </trkpt>
      <trkpt lat="46.15681" lon="6.24206">
        <ele>432</ele>
        <time>2012-11-12T13:35:33.000Z</time>
      </trkpt>
      <trkpt lat="46.1568" lon="6.24179">
        <ele>433.20001220703</ele>
        <time>2012-11-12T13:35:38.000Z</time>
      </trkpt>
      <trkpt lat="46.15679" lon="6.24173">
        <ele>433.20001220703</ele>
        <time>2012-11-12T13:35:39.000Z</time>
      </trkpt>
      <trkpt lat="46.15679" lon="6.24159">
        <ele>434.20001220703</ele>
        <time>2012-11-12T13:35:42.000Z</time>
      </trkpt>
      <trkpt lat="46.15678" lon="6.24153">
        <ele>434.20001220703</ele>
        <time>2012-11-12T13:35:43.000Z</time>
      </trkpt>
      <trkpt lat="46.15678" lon="6.24142">
        <ele>435.20001220703</ele>
        <time>2012-11-12T13:35:45.000Z</time>
      </trkpt>
      <trkpt lat="46.15677" lon="6.2413">
        <ele>436.20001220703</ele>
        <time>2012-11-12T13:35:47.000Z</time>
      </trkpt>
      <trkpt lat="46.15677" lon="6.24119">
        <ele>436.20001220703</ele>
        <time>2012-11-12T13:35:49.000Z</time>
      </trkpt>
      <trkpt lat="46.15677" lon="6.24113">
        <ele>437.60000610352</ele>
        <time>2012-11-12T13:35:50.000Z</time>
      </trkpt>
      <trkpt lat="46.15676" lon="6.24103">
        <ele>438.60000610352</ele>
        <time>2012-11-12T13:35:52.000Z</time>
      </trkpt>
      <trkpt lat="46.15675" lon="6.24091">
        <ele>439.60000610352</ele>
        <time>2012-11-12T13:35:54.000Z</time>
      </trkpt>
      <trkpt lat="46.15675" lon="6.2408">
        <ele>440.60000610352</ele>
        <time>2012-11-12T13:35:56.000Z</time>
      </trkpt>
      <trkpt lat="46.15674" lon="6.2407">
        <ele>441.60000610352</ele>
        <time>2012-11-12T13:35:58.000Z</time>
      </trkpt>
      <trkpt lat="46.15674" lon="6.24065">
        <ele>441.60000610352</ele>
        <time>2012-11-12T13:35:59.000Z</time>
      </trkpt>
      <trkpt lat="46.15674" lon="6.24054">
        <ele>443.20001220703</ele>
        <time>2012-11-12T13:36:01.000Z</time>
      </trkpt>
      <trkpt lat="46.15672" lon="6.24031">
        <ele>443.20001220703</ele>
        <time>2012-11-12T13:36:05.000Z</time>
      </trkpt>
      <trkpt lat="46.15672" lon="6.24025">
        <ele>444.20001220703</ele>
        <time>2012-11-12T13:36:06.000Z</time>
      </trkpt>
      <trkpt lat="46.15671" lon="6.24004">
        <ele>445.20001220703</ele>
        <time>2012-11-12T13:36:10.000Z</time>
      </trkpt>
      <trkpt lat="46.1567" lon="6.23987">
        <ele>445.20001220703</ele>
        <time>2012-11-12T13:36:13.000Z</time>
      </trkpt>
      <trkpt lat="46.1567" lon="6.23981">
        <ele>446.20001220703</ele>
        <time>2012-11-12T13:36:14.000Z</time>
      </trkpt>
      <trkpt lat="46.15669" lon="6.23965">
        <ele>447.20001220703</ele>
        <time>2012-11-12T13:36:17.000Z</time>
      </trkpt>
      <trkpt lat="46.15669" lon="6.23942">
        <ele>448.60000610352</ele>
        <time>2012-11-12T13:36:21.000Z</time>
      </trkpt>
      <trkpt lat="46.15669" lon="6.23937">
        <ele>448.60000610352</ele>
        <time>2012-11-12T13:36:22.000Z</time>
      </trkpt>
      <trkpt lat="46.15674" lon="6.23895">
        <ele>450.60000610352</ele>
        <time>2012-11-12T13:36:30.000Z</time>
      </trkpt>
      <trkpt lat="46.1568" lon="6.23874">
        <ele>451.60000610352</ele>
        <time>2012-11-12T13:36:34.000Z</time>
      </trkpt>
      <trkpt lat="46.15688" lon="6.23848">
        <ele>451.60000610352</ele>
        <time>2012-11-12T13:36:39.000Z</time>
      </trkpt>
      <trkpt lat="46.15691" lon="6.23837">
        <ele>452.60000610352</ele>
        <time>2012-11-12T13:36:41.000Z</time>
      </trkpt>
      <trkpt lat="46.157" lon="6.23818">
        <ele>453.60000610352</ele>
        <time>2012-11-12T13:36:45.000Z</time>
      </trkpt>
      <trkpt lat="46.15709" lon="6.23798">
        <ele>455</ele>
        <time>2012-11-12T13:36:49.000Z</time>
      </trkpt>
      <trkpt lat="46.15716" lon="6.23784">
        <ele>455</ele>
        <time>2012-11-12T13:36:52.000Z</time>
      </trkpt>
      <trkpt lat="46.15719" lon="6.23779">
        <ele>456</ele>
        <time>2012-11-12T13:36:53.000Z</time>
      </trkpt>
      <trkpt lat="46.15729" lon="6.2376">
        <ele>457</ele>
        <time>2012-11-12T13:36:57.000Z</time>
      </trkpt>
      <trkpt lat="46.15737" lon="6.23745">
        <ele>457</ele>
        <time>2012-11-12T13:37:00.000Z</time>
      </trkpt>
      <trkpt lat="46.15739" lon="6.2374">
        <ele>458</ele>
        <time>2012-11-12T13:37:01.000Z</time>
      </trkpt>
      <trkpt lat="46.15748" lon="6.23719">
        <ele>459.20001220703</ele>
        <time>2012-11-12T13:37:05.000Z</time>
      </trkpt>
      <trkpt lat="46.15749" lon="6.23714">
        <ele>459.20001220703</ele>
        <time>2012-11-12T13:37:06.000Z</time>
      </trkpt>
      <trkpt lat="46.1575" lon="6.23708">
        <ele>460.20001220703</ele>
        <time>2012-11-12T13:37:07.000Z</time>
      </trkpt>
      <trkpt lat="46.15749" lon="6.23685">
        <ele>461.20001220703</ele>
        <time>2012-11-12T13:37:11.000Z</time>
      </trkpt>
      <trkpt lat="46.15748" lon="6.2368">
        <ele>461.20001220703</ele>
        <time>2012-11-12T13:37:12.000Z</time>
      </trkpt>
      <trkpt lat="46.15744" lon="6.2367">
        <ele>462.20001220703</ele>
        <time>2012-11-12T13:37:14.000Z</time>
      </trkpt>
      <trkpt lat="46.15735" lon="6.23658">
        <ele>463.20001220703</ele>
        <time>2012-11-12T13:37:17.000Z</time>
      </trkpt>
      <trkpt lat="46.1572" lon="6.23652">
        <ele>464.20001220703</ele>
        <time>2012-11-12T13:37:21.000Z</time>
      </trkpt>
      <trkpt lat="46.15717" lon="6.23652">
        <ele>464.20001220703</ele>
        <time>2012-11-12T13:37:22.000Z</time>
      </trkpt>
      <trkpt lat="46.15708" lon="6.23654">
        <ele>465.60000610352</ele>
        <time>2012-11-12T13:37:24.000Z</time>
      </trkpt>
      <trkpt lat="46.15696" lon="6.23661">
        <ele>465.60000610352</ele>
        <time>2012-11-12T13:37:27.000Z</time>
      </trkpt>
      <trkpt lat="46.15693" lon="6.23665">
        <ele>466.60000610352</ele>
        <time>2012-11-12T13:37:28.000Z</time>
      </trkpt>
      <trkpt lat="46.1569" lon="6.2367">
        <ele>466.60000610352</ele>
        <time>2012-11-12T13:37:29.000Z</time>
      </trkpt>
      <trkpt lat="46.15685" lon="6.23678">
        <ele>466.60000610352</ele>
        <time>2012-11-12T13:37:31.000Z</time>
      </trkpt>
      <trkpt lat="46.15683" lon="6.23682">
        <ele>467.60000610352</ele>
        <time>2012-11-12T13:37:32.000Z</time>
      </trkpt>
      <trkpt lat="46.15678" lon="6.2369">
        <ele>468.60000610352</ele>
        <time>2012-11-12T13:37:34.000Z</time>
      </trkpt>
      <trkpt lat="46.15663" lon="6.23714">
        <ele>468.60000610352</ele>
        <time>2012-11-12T13:37:40.000Z</time>
      </trkpt>
      <trkpt lat="46.15646" lon="6.23729">
        <ele>468.60000610352</ele>
        <time>2012-11-12T13:37:45.000Z</time>
      </trkpt>
      <trkpt lat="46.15639" lon="6.23734">
        <ele>471</ele>
        <time>2012-11-12T13:37:47.000Z</time>
      </trkpt>
      <trkpt lat="46.15622" lon="6.23746">
        <ele>472.20001220703</ele>
        <time>2012-11-12T13:37:52.000Z</time>
      </trkpt>
      <trkpt lat="46.15615" lon="6.23752">
        <ele>472.20001220703</ele>
        <time>2012-11-12T13:37:54.000Z</time>
      </trkpt>
      <trkpt lat="46.15612" lon="6.23754">
        <ele>473.20001220703</ele>
        <time>2012-11-12T13:37:55.000Z</time>
      </trkpt>
      <trkpt lat="46.15598" lon="6.23767">
        <ele>474.20001220703</ele>
        <time>2012-11-12T13:37:59.000Z</time>
      </trkpt>
      <trkpt lat="46.15583" lon="6.23784">
        <ele>475.20001220703</ele>
        <time>2012-11-12T13:38:04.000Z</time>
      </trkpt>
      <trkpt lat="46.15571" lon="6.23798">
        <ele>476.20001220703</ele>
        <time>2012-11-12T13:38:08.000Z</time>
      </trkpt>
      <trkpt lat="46.15562" lon="6.23808">
        <ele>477.20001220703</ele>
        <time>2012-11-12T13:38:11.000Z</time>
      </trkpt>
      <trkpt lat="46.15549" lon="6.23821">
        <ele>478.20001220703</ele>
        <time>2012-11-12T13:38:15.000Z</time>
      </trkpt>
      <trkpt lat="46.15535" lon="6.2383">
        <ele>478.20001220703</ele>
        <time>2012-11-12T13:38:19.000Z</time>
      </trkpt>
      <trkpt lat="46.15532" lon="6.23832">
        <ele>479.20001220703</ele>
        <time>2012-11-12T13:38:20.000Z</time>
      </trkpt>
      <trkpt lat="46.15509" lon="6.2384">
        <ele>475.60000610352</ele>
        <time>2012-11-12T13:38:26.000Z</time>
      </trkpt>
      <trkpt lat="46.15506" lon="6.23842">
        <ele>475.60000610352</ele>
        <time>2012-11-12T13:38:27.000Z</time>
      </trkpt>
      <trkpt lat="46.15484" lon="6.23864">
        <ele>475.60000610352</ele>
        <time>2012-11-12T13:38:34.000Z</time>
      </trkpt>
      <trkpt lat="46.15473" lon="6.23879">
        <ele>478.60000610352</ele>
        <time>2012-11-12T13:38:38.000Z</time>
      </trkpt>
      <trkpt lat="46.15465" lon="6.23891">
        <ele>478.60000610352</ele>
        <time>2012-11-12T13:38:41.000Z</time>
      </trkpt>
      <trkpt lat="46.15462" lon="6.23895">
        <ele>479.60000610352</ele>
        <time>2012-11-12T13:38:42.000Z</time>
      </trkpt>
      <trkpt lat="46.15454" lon="6.23909">
        <ele>480.60000610352</ele>
        <time>2012-11-12T13:38:45.000Z</time>
      </trkpt>
      <trkpt lat="46.15441" lon="6.2393">
        <ele>481.60000610352</ele>
        <time>2012-11-12T13:38:50.000Z</time>
      </trkpt>
      <trkpt lat="46.15439" lon="6.23934">
        <ele>481.60000610352</ele>
        <time>2012-11-12T13:38:51.000Z</time>
      </trkpt>
      <trkpt lat="46.15431" lon="6.23948">
        <ele>483</ele>
        <time>2012-11-12T13:38:55.000Z</time>
      </trkpt>
      <trkpt lat="46.15425" lon="6.23955">
        <ele>483</ele>
        <time>2012-11-12T13:38:57.000Z</time>
      </trkpt>
      <trkpt lat="46.15419" lon="6.23963">
        <ele>484</ele>
        <time>2012-11-12T13:38:59.000Z</time>
      </trkpt>
      <trkpt lat="46.15409" lon="6.23972">
        <ele>485</ele>
        <time>2012-11-12T13:39:02.000Z</time>
      </trkpt>
      <trkpt lat="46.15401" lon="6.23977">
        <ele>485</ele>
        <time>2012-11-12T13:39:04.000Z</time>
      </trkpt>
      <trkpt lat="46.15393" lon="6.2398">
        <ele>486</ele>
        <time>2012-11-12T13:39:06.000Z</time>
      </trkpt>
      <trkpt lat="46.15378" lon="6.23983">
        <ele>487.20001220703</ele>
        <time>2012-11-12T13:39:10.000Z</time>
      </trkpt>
      <trkpt lat="46.15363" lon="6.23989">
        <ele>488.20001220703</ele>
        <time>2012-11-12T13:39:14.000Z</time>
      </trkpt>
      <trkpt lat="46.15353" lon="6.23996">
        <ele>488.20001220703</ele>
        <time>2012-11-12T13:39:17.000Z</time>
      </trkpt>
      <trkpt lat="46.15346" lon="6.24003">
        <ele>489.20001220703</ele>
        <time>2012-11-12T13:39:19.000Z</time>
      </trkpt>
      <trkpt lat="46.15335" lon="6.24018">
        <ele>490.20001220703</ele>
        <time>2012-11-12T13:39:23.000Z</time>
      </trkpt>
      <trkpt lat="46.15324" lon="6.24033">
        <ele>491.20001220703</ele>
        <time>2012-11-12T13:39:27.000Z</time>
      </trkpt>
      <trkpt lat="46.15322" lon="6.24037">
        <ele>491.20001220703</ele>
        <time>2012-11-12T13:39:28.000Z</time>
      </trkpt>
      <trkpt lat="46.15316" lon="6.24045">
        <ele>491.20001220703</ele>
        <time>2012-11-12T13:39:30.000Z</time>
      </trkpt>
      <trkpt lat="46.15314" lon="6.24049">
        <ele>492.20001220703</ele>
        <time>2012-11-12T13:39:31.000Z</time>
      </trkpt>
      <trkpt lat="46.15304" lon="6.24065">
        <ele>493.60000610352</ele>
        <time>2012-11-12T13:39:35.000Z</time>
      </trkpt>
      <trkpt lat="46.15291" lon="6.24083">
        <ele>494.60000610352</ele>
        <time>2012-11-12T13:39:40.000Z</time>
      </trkpt>
      <trkpt lat="46.15288" lon="6.24087">
        <ele>494.60000610352</ele>
        <time>2012-11-12T13:39:41.000Z</time>
      </trkpt>
      <trkpt lat="46.1528" lon="6.24099">
        <ele>495.60000610352</ele>
        <time>2012-11-12T13:39:44.000Z</time>
      </trkpt>
      <trkpt lat="46.15278" lon="6.24102">
        <ele>495.60000610352</ele>
        <time>2012-11-12T13:39:45.000Z</time>
      </trkpt>
      <trkpt lat="46.15272" lon="6.2411">
        <ele>496.60000610352</ele>
        <time>2012-11-12T13:39:47.000Z</time>
      </trkpt>
      <trkpt lat="46.15264" lon="6.24119">
        <ele>496.60000610352</ele>
        <time>2012-11-12T13:39:50.000Z</time>
      </trkpt>
      <trkpt lat="46.15256" lon="6.24125">
        <ele>497.60000610352</ele>
        <time>2012-11-12T13:39:52.000Z</time>
      </trkpt>
      <trkpt lat="46.15244" lon="6.24131">
        <ele>497.60000610352</ele>
        <time>2012-11-12T13:39:55.000Z</time>
      </trkpt>
      <trkpt lat="46.15233" lon="6.24131">
        <ele>498.60000610352</ele>
        <time>2012-11-12T13:39:58.000Z</time>
      </trkpt>
      <trkpt lat="46.15225" lon="6.24128">
        <ele>498.60000610352</ele>
        <time>2012-11-12T13:40:00.000Z</time>
      </trkpt>
      <trkpt lat="46.15211" lon="6.2412">
        <ele>499.60000610352</ele>
        <time>2012-11-12T13:40:04.000Z</time>
      </trkpt>
      <trkpt lat="46.152" lon="6.24114">
        <ele>499.60000610352</ele>
        <time>2012-11-12T13:40:07.000Z</time>
      </trkpt>
      <trkpt lat="46.15196" lon="6.24112">
        <ele>501</ele>
        <time>2012-11-12T13:40:08.000Z</time>
      </trkpt>
      <trkpt lat="46.15181" lon="6.24103">
        <ele>502</ele>
        <time>2012-11-12T13:40:12.000Z</time>
      </trkpt>
      <trkpt lat="46.15177" lon="6.24101">
        <ele>502</ele>
        <time>2012-11-12T13:40:13.000Z</time>
      </trkpt>
      <trkpt lat="46.1516" lon="6.24091">
        <ele>503.20001220703</ele>
        <time>2012-11-12T13:40:17.000Z</time>
      </trkpt>
      <trkpt lat="46.15149" lon="6.24085">
        <ele>504.20001220703</ele>
        <time>2012-11-12T13:40:20.000Z</time>
      </trkpt>
      <trkpt lat="46.15145" lon="6.24083">
        <ele>504.20001220703</ele>
        <time>2012-11-12T13:40:21.000Z</time>
      </trkpt>
      <trkpt lat="46.15133" lon="6.24079">
        <ele>505.20001220703</ele>
        <time>2012-11-12T13:40:24.000Z</time>
      </trkpt>
      <trkpt lat="46.15122" lon="6.24076">
        <ele>506.60000610352</ele>
        <time>2012-11-12T13:40:27.000Z</time>
      </trkpt>
      <trkpt lat="46.15107" lon="6.24071">
        <ele>507.60000610352</ele>
        <time>2012-11-12T13:40:31.000Z</time>
      </trkpt>
      <trkpt lat="46.15096" lon="6.24068">
        <ele>507.60000610352</ele>
        <time>2012-11-12T13:40:34.000Z</time>
      </trkpt>
      <trkpt lat="46.15088" lon="6.24064">
        <ele>510.20001220703</ele>
        <time>2012-11-12T13:40:36.000Z</time>
      </trkpt>
      <trkpt lat="46.15068" lon="6.24058">
        <ele>510.20001220703</ele>
        <time>2012-11-12T13:40:41.000Z</time>
      </trkpt>
      <trkpt lat="46.15055" lon="6.24054">
        <ele>512.40002441406</ele>
        <time>2012-11-12T13:40:44.000Z</time>
      </trkpt>
      <trkpt lat="46.15047" lon="6.24051">
        <ele>513.40002441406</ele>
        <time>2012-11-12T13:40:46.000Z</time>
      </trkpt>
      <trkpt lat="46.15038" lon="6.24048">
        <ele>514.40002441406</ele>
        <time>2012-11-12T13:40:48.000Z</time>
      </trkpt>
      <trkpt lat="46.15027" lon="6.24045">
        <ele>516</ele>
        <time>2012-11-12T13:40:51.000Z</time>
      </trkpt>
      <trkpt lat="46.15016" lon="6.24042">
        <ele>516</ele>
        <time>2012-11-12T13:40:54.000Z</time>
      </trkpt>
      <trkpt lat="46.15005" lon="6.24038">
        <ele>517</ele>
        <time>2012-11-12T13:40:57.000Z</time>
      </trkpt>
      <trkpt lat="46.14997" lon="6.24036">
        <ele>517</ele>
        <time>2012-11-12T13:40:59.000Z</time>
      </trkpt>
      <trkpt lat="46.1499" lon="6.24035">
        <ele>518.20001220703</ele>
        <time>2012-11-12T13:41:01.000Z</time>
      </trkpt>
      <trkpt lat="46.14983" lon="6.24034">
        <ele>518.20001220703</ele>
        <time>2012-11-12T13:41:03.000Z</time>
      </trkpt>
      <trkpt lat="46.14979" lon="6.24035">
        <ele>519.20001220703</ele>
        <time>2012-11-12T13:41:04.000Z</time>
      </trkpt>
      <trkpt lat="46.14969" lon="6.24034">
        <ele>520.20001220703</ele>
        <time>2012-11-12T13:41:07.000Z</time>
      </trkpt>
      <trkpt lat="46.14955" lon="6.24034">
        <ele>520.20001220703</ele>
        <time>2012-11-12T13:41:11.000Z</time>
      </trkpt>
      <trkpt lat="46.14937" lon="6.24028">
        <ele>520.20001220703</ele>
        <time>2012-11-12T13:41:16.000Z</time>
      </trkpt>
      <trkpt lat="46.14926" lon="6.2402">
        <ele>520.20001220703</ele>
        <time>2012-11-12T13:41:19.000Z</time>
      </trkpt>
      <trkpt lat="46.14922" lon="6.24016">
        <ele>520.20001220703</ele>
        <time>2012-11-12T13:41:20.000Z</time>
      </trkpt>
      <trkpt lat="46.14905" lon="6.23994">
        <ele>513.20001220703</ele>
        <time>2012-11-12T13:41:25.000Z</time>
      </trkpt>
      <trkpt lat="46.14902" lon="6.23989">
        <ele>523.59997558594</ele>
        <time>2012-11-12T13:41:26.000Z</time>
      </trkpt>
      <trkpt lat="46.14899" lon="6.23984">
        <ele>525</ele>
        <time>2012-11-12T13:41:27.000Z</time>
      </trkpt>
      <trkpt lat="46.14897" lon="6.23979">
        <ele>521</ele>
        <time>2012-11-12T13:41:28.000Z</time>
      </trkpt>
      <trkpt lat="46.14883" lon="6.23945">
        <ele>521</ele>
        <time>2012-11-12T13:41:34.000Z</time>
      </trkpt>
      <trkpt lat="46.1487" lon="6.23907">
        <ele>523.20001220703</ele>
        <time>2012-11-12T13:41:41.000Z</time>
      </trkpt>
      <trkpt lat="46.14868" lon="6.23902">
        <ele>523.20001220703</ele>
        <time>2012-11-12T13:41:42.000Z</time>
      </trkpt>
      <trkpt lat="46.14859" lon="6.23876">
        <ele>524.20001220703</ele>
        <time>2012-11-12T13:41:47.000Z</time>
      </trkpt>
      <trkpt lat="46.14852" lon="6.23854">
        <ele>524.20001220703</ele>
        <time>2012-11-12T13:41:51.000Z</time>
      </trkpt>
      <trkpt lat="46.1485" lon="6.23849">
        <ele>525.20001220703</ele>
        <time>2012-11-12T13:41:52.000Z</time>
      </trkpt>
      <trkpt lat="46.14841" lon="6.23822">
        <ele>526.20001220703</ele>
        <time>2012-11-12T13:41:57.000Z</time>
      </trkpt>
      <trkpt lat="46.14836" lon="6.23807">
        <ele>526.20001220703</ele>
        <time>2012-11-12T13:42:00.000Z</time>
      </trkpt>
      <trkpt lat="46.14834" lon="6.23802">
        <ele>527.20001220703</ele>
        <time>2012-11-12T13:42:01.000Z</time>
      </trkpt>
      <trkpt lat="46.14823" lon="6.23778">
        <ele>528.20001220703</ele>
        <time>2012-11-12T13:42:06.000Z</time>
      </trkpt>
      <trkpt lat="46.14815" lon="6.23758">
        <ele>528.20001220703</ele>
        <time>2012-11-12T13:42:10.000Z</time>
      </trkpt>
      <trkpt lat="46.14813" lon="6.23753">
        <ele>529.40002441406</ele>
        <time>2012-11-12T13:42:11.000Z</time>
      </trkpt>
      <trkpt lat="46.14796" lon="6.23723">
        <ele>530.40002441406</ele>
        <time>2012-11-12T13:42:18.000Z</time>
      </trkpt>
      <trkpt lat="46.14783" lon="6.23706">
        <ele>531.40002441406</ele>
        <time>2012-11-12T13:42:22.000Z</time>
      </trkpt>
      <trkpt lat="46.14772" lon="6.23693">
        <ele>531.40002441406</ele>
        <time>2012-11-12T13:42:25.000Z</time>
      </trkpt>
      <trkpt lat="46.14765" lon="6.23687">
        <ele>532.40002441406</ele>
        <time>2012-11-12T13:42:27.000Z</time>
      </trkpt>
      <trkpt lat="46.1476" lon="6.23685">
        <ele>532.40002441406</ele>
        <time>2012-11-12T13:42:28.000Z</time>
      </trkpt>
      <trkpt lat="46.14747" lon="6.23679">
        <ele>532.40002441406</ele>
        <time>2012-11-12T13:42:31.000Z</time>
      </trkpt>
      <trkpt lat="46.14738" lon="6.23676">
        <ele>533.40002441406</ele>
        <time>2012-11-12T13:42:33.000Z</time>
      </trkpt>
      <trkpt lat="46.14713" lon="6.23671">
        <ele>533.40002441406</ele>
        <time>2012-11-12T13:42:38.000Z</time>
      </trkpt>
      <trkpt lat="46.14703" lon="6.2367">
        <ele>534.40002441406</ele>
        <time>2012-11-12T13:42:40.000Z</time>
      </trkpt>
      <trkpt lat="46.14682" lon="6.23669">
        <ele>535.40002441406</ele>
        <time>2012-11-12T13:42:44.000Z</time>
      </trkpt>
      <trkpt lat="46.14677" lon="6.23669">
        <ele>535.40002441406</ele>
        <time>2012-11-12T13:42:45.000Z</time>
      </trkpt>
      <trkpt lat="46.14668" lon="6.23669">
        <ele>536.40002441406</ele>
        <time>2012-11-12T13:42:47.000Z</time>
      </trkpt>
      <trkpt lat="46.14653" lon="6.23672">
        <ele>536.40002441406</ele>
        <time>2012-11-12T13:42:50.000Z</time>
      </trkpt>
      <trkpt lat="46.14643" lon="6.23674">
        <ele>537.59997558594</ele>
        <time>2012-11-12T13:42:52.000Z</time>
      </trkpt>
      <trkpt lat="46.14638" lon="6.23674">
        <ele>537.59997558594</ele>
        <time>2012-11-12T13:42:53.000Z</time>
      </trkpt>
      <trkpt lat="46.14608" lon="6.23672">
        <ele>537.59997558594</ele>
        <time>2012-11-12T13:42:59.000Z</time>
      </trkpt>
      <trkpt lat="46.14569" lon="6.23666">
        <ele>537.59997558594</ele>
        <time>2012-11-12T13:43:06.000Z</time>
      </trkpt>
      <trkpt lat="46.14564" lon="6.23667">
        <ele>537.59997558594</ele>
        <time>2012-11-12T13:43:07.000Z</time>
      </trkpt>
      <trkpt lat="46.14532" lon="6.2367">
        <ele>537.59997558594</ele>
        <time>2012-11-12T13:43:12.000Z</time>
      </trkpt>
      <trkpt lat="46.14479" lon="6.23682">
        <ele>537.59997558594</ele>
        <time>2012-11-12T13:43:20.000Z</time>
      </trkpt>
      <trkpt lat="46.14466" lon="6.23687">
        <ele>535.59997558594</ele>
        <time>2012-11-12T13:43:22.000Z</time>
      </trkpt>
      <trkpt lat="46.14444" lon="6.23696">
        <ele>534.40002441406</ele>
        <time>2012-11-12T13:43:25.000Z</time>
      </trkpt>
      <trkpt lat="46.14437" lon="6.23699">
        <ele>534.40002441406</ele>
        <time>2012-11-12T13:43:26.000Z</time>
      </trkpt>
      <trkpt lat="46.14416" lon="6.23703">
        <ele>534.40002441406</ele>
        <time>2012-11-12T13:43:29.000Z</time>
      </trkpt>
      <trkpt lat="46.1441" lon="6.23697">
        <ele>534.40002441406</ele>
        <time>2012-11-12T13:43:30.000Z</time>
      </trkpt>
      <trkpt lat="46.14406" lon="6.23682">
        <ele>534.40002441406</ele>
        <time>2012-11-12T13:43:32.000Z</time>
      </trkpt>
      <trkpt lat="46.14403" lon="6.23666">
        <ele>534.40002441406</ele>
        <time>2012-11-12T13:43:34.000Z</time>
      </trkpt>
      <trkpt lat="46.14399" lon="6.23643">
        <ele>537.59997558594</ele>
        <time>2012-11-12T13:43:37.000Z</time>
      </trkpt>
      <trkpt lat="46.14397" lon="6.23627">
        <ele>538.59997558594</ele>
        <time>2012-11-12T13:43:39.000Z</time>
      </trkpt>
      <trkpt lat="46.14396" lon="6.2362">
        <ele>539.59997558594</ele>
        <time>2012-11-12T13:43:40.000Z</time>
      </trkpt>
      <trkpt lat="46.14394" lon="6.23605">
        <ele>539.59997558594</ele>
        <time>2012-11-12T13:43:42.000Z</time>
      </trkpt>
      <trkpt lat="46.14393" lon="6.23598">
        <ele>541</ele>
        <time>2012-11-12T13:43:43.000Z</time>
      </trkpt>
      <trkpt lat="46.14393" lon="6.23583">
        <ele>541</ele>
        <time>2012-11-12T13:43:45.000Z</time>
      </trkpt>
      <trkpt lat="46.14394" lon="6.2357">
        <ele>542</ele>
        <time>2012-11-12T13:43:47.000Z</time>
      </trkpt>
      <trkpt lat="46.14395" lon="6.23564">
        <ele>543.20001220703</ele>
        <time>2012-11-12T13:43:48.000Z</time>
      </trkpt>
      <trkpt lat="46.14398" lon="6.23544">
        <ele>544.20001220703</ele>
        <time>2012-11-12T13:43:51.000Z</time>
      </trkpt>
      <trkpt lat="46.144" lon="6.23539">
        <ele>544.20001220703</ele>
        <time>2012-11-12T13:43:52.000Z</time>
      </trkpt>
      <trkpt lat="46.14404" lon="6.23526">
        <ele>545.40002441406</ele>
        <time>2012-11-12T13:43:54.000Z</time>
      </trkpt>
      <trkpt lat="46.14412" lon="6.23509">
        <ele>546.40002441406</ele>
        <time>2012-11-12T13:43:57.000Z</time>
      </trkpt>
      <trkpt lat="46.14418" lon="6.23498">
        <ele>547.40002441406</ele>
        <time>2012-11-12T13:43:59.000Z</time>
      </trkpt>
      <trkpt lat="46.1442" lon="6.23493">
        <ele>547.40002441406</ele>
        <time>2012-11-12T13:44:00.000Z</time>
      </trkpt>
      <trkpt lat="46.14426" lon="6.23483">
        <ele>548.40002441406</ele>
        <time>2012-11-12T13:44:02.000Z</time>
      </trkpt>
      <trkpt lat="46.14428" lon="6.23477">
        <ele>548.40002441406</ele>
        <time>2012-11-12T13:44:03.000Z</time>
      </trkpt>
      <trkpt lat="46.1443" lon="6.23471">
        <ele>549.40002441406</ele>
        <time>2012-11-12T13:44:04.000Z</time>
      </trkpt>
      <trkpt lat="46.14433" lon="6.2346">
        <ele>550.40002441406</ele>
        <time>2012-11-12T13:44:06.000Z</time>
      </trkpt>
      <trkpt lat="46.14436" lon="6.23442">
        <ele>550.40002441406</ele>
        <time>2012-11-12T13:44:09.000Z</time>
      </trkpt>
      <trkpt lat="46.14436" lon="6.23437">
        <ele>551.59997558594</ele>
        <time>2012-11-12T13:44:10.000Z</time>
      </trkpt>
      <trkpt lat="46.14438" lon="6.23418">
        <ele>551.59997558594</ele>
        <time>2012-11-12T13:44:13.000Z</time>
      </trkpt>
      <trkpt lat="46.14439" lon="6.23394">
        <ele>552.59997558594</ele>
        <time>2012-11-12T13:44:17.000Z</time>
      </trkpt>
      <trkpt lat="46.14441" lon="6.23365">
        <ele>552.59997558594</ele>
        <time>2012-11-12T13:44:22.000Z</time>
      </trkpt>
      <trkpt lat="46.14442" lon="6.23321">
        <ele>549.59997558594</ele>
        <time>2012-11-12T13:44:28.000Z</time>
      </trkpt>
      <trkpt lat="46.14442" lon="6.2331">
        <ele>548.40002441406</ele>
        <time>2012-11-12T13:44:29.000Z</time>
      </trkpt>
      <trkpt lat="46.14441" lon="6.23299">
        <ele>547.40002441406</ele>
        <time>2012-11-12T13:44:30.000Z</time>
      </trkpt>
      <trkpt lat="46.14441" lon="6.2327">
        <ele>546.20001220703</ele>
        <time>2012-11-12T13:44:33.000Z</time>
      </trkpt>
      <trkpt lat="46.14439" lon="6.23246">
        <ele>545</ele>
        <time>2012-11-12T13:44:37.000Z</time>
      </trkpt>
      <trkpt lat="46.14423" lon="6.23234">
        <ele>545</ele>
        <time>2012-11-12T13:44:40.000Z</time>
      </trkpt>
      <trkpt lat="46.14417" lon="6.2323">
        <ele>545</ele>
        <time>2012-11-12T13:44:41.000Z</time>
      </trkpt>
      <trkpt lat="46.14382" lon="6.23208">
        <ele>545</ele>
        <time>2012-11-12T13:44:47.000Z</time>
      </trkpt>
      <trkpt lat="46.14369" lon="6.23201">
        <ele>544</ele>
        <time>2012-11-12T13:44:49.000Z</time>
      </trkpt>
      <trkpt lat="46.14326" lon="6.23174">
        <ele>544</ele>
        <time>2012-11-12T13:44:56.000Z</time>
      </trkpt>
      <trkpt lat="46.14285" lon="6.23148">
        <ele>547.20001220703</ele>
        <time>2012-11-12T13:45:03.000Z</time>
      </trkpt>
      <trkpt lat="46.1428" lon="6.23143">
        <ele>547.20001220703</ele>
        <time>2012-11-12T13:45:04.000Z</time>
      </trkpt>
      <trkpt lat="46.14269" lon="6.23134">
        <ele>548.20001220703</ele>
        <time>2012-11-12T13:45:06.000Z</time>
      </trkpt>
      <trkpt lat="46.14241" lon="6.23105">
        <ele>548.20001220703</ele>
        <time>2012-11-12T13:45:12.000Z</time>
      </trkpt>
      <trkpt lat="46.14217" lon="6.23066">
        <ele>549.20001220703</ele>
        <time>2012-11-12T13:45:18.000Z</time>
      </trkpt>
      <trkpt lat="46.14214" lon="6.23059">
        <ele>549.20001220703</ele>
        <time>2012-11-12T13:45:19.000Z</time>
      </trkpt>
      <trkpt lat="46.14183" lon="6.23009">
        <ele>549.20001220703</ele>
        <time>2012-11-12T13:45:26.000Z</time>
      </trkpt>
      <trkpt lat="46.14177" lon="6.23004">
        <ele>549.20001220703</ele>
        <time>2012-11-12T13:45:27.000Z</time>
      </trkpt>
      <trkpt lat="46.14169" lon="6.22999">
        <ele>546</ele>
        <time>2012-11-12T13:45:28.000Z</time>
      </trkpt>
      <trkpt lat="46.14161" lon="6.22994">
        <ele>544.59997558594</ele>
        <time>2012-11-12T13:45:29.000Z</time>
      </trkpt>
      <trkpt lat="46.14152" lon="6.2299">
        <ele>544.59997558594</ele>
        <time>2012-11-12T13:45:30.000Z</time>
      </trkpt>
      <trkpt lat="46.14144" lon="6.22986">
        <ele>543.40002441406</ele>
        <time>2012-11-12T13:45:31.000Z</time>
      </trkpt>
      <trkpt lat="46.14134" lon="6.22981">
        <ele>542.40002441406</ele>
        <time>2012-11-12T13:45:32.000Z</time>
      </trkpt>
      <trkpt lat="46.14125" lon="6.22977">
        <ele>541.20001220703</ele>
        <time>2012-11-12T13:45:33.000Z</time>
      </trkpt>
      <trkpt lat="46.14116" lon="6.22972">
        <ele>540</ele>
        <time>2012-11-12T13:45:34.000Z</time>
      </trkpt>
      <trkpt lat="46.14105" lon="6.22966">
        <ele>538.59997558594</ele>
        <time>2012-11-12T13:45:35.000Z</time>
      </trkpt>
      <trkpt lat="46.14095" lon="6.2296">
        <ele>537.59997558594</ele>
        <time>2012-11-12T13:45:36.000Z</time>
      </trkpt>
      <trkpt lat="46.14085" lon="6.22954">
        <ele>536.40002441406</ele>
        <time>2012-11-12T13:45:37.000Z</time>
      </trkpt>
      <trkpt lat="46.14054" lon="6.22934">
        <ele>535.40002441406</ele>
        <time>2012-11-12T13:45:40.000Z</time>
      </trkpt>
      <trkpt lat="46.14044" lon="6.22925">
        <ele>534.40002441406</ele>
        <time>2012-11-12T13:45:41.000Z</time>
      </trkpt>
      <trkpt lat="46.14035" lon="6.22916">
        <ele>533.40002441406</ele>
        <time>2012-11-12T13:45:42.000Z</time>
      </trkpt>
      <trkpt lat="46.14026" lon="6.22904">
        <ele>532.20001220703</ele>
        <time>2012-11-12T13:45:43.000Z</time>
      </trkpt>
      <trkpt lat="46.14018" lon="6.22894">
        <ele>531</ele>
        <time>2012-11-12T13:45:44.000Z</time>
      </trkpt>
      <trkpt lat="46.1401" lon="6.22882">
        <ele>529.40002441406</ele>
        <time>2012-11-12T13:45:45.000Z</time>
      </trkpt>
      <trkpt lat="46.13995" lon="6.22858">
        <ele>528.40002441406</ele>
        <time>2012-11-12T13:45:47.000Z</time>
      </trkpt>
      <trkpt lat="46.13989" lon="6.22843">
        <ele>527.20001220703</ele>
        <time>2012-11-12T13:45:48.000Z</time>
      </trkpt>
      <trkpt lat="46.13984" lon="6.22828">
        <ele>526.20001220703</ele>
        <time>2012-11-12T13:45:49.000Z</time>
      </trkpt>
      <trkpt lat="46.13978" lon="6.22812">
        <ele>525</ele>
        <time>2012-11-12T13:45:50.000Z</time>
      </trkpt>
      <trkpt lat="46.13973" lon="6.22797">
        <ele>524</ele>
        <time>2012-11-12T13:45:51.000Z</time>
      </trkpt>
      <trkpt lat="46.13968" lon="6.22782">
        <ele>522.59997558594</ele>
        <time>2012-11-12T13:45:52.000Z</time>
      </trkpt>
      <trkpt lat="46.13962" lon="6.22764">
        <ele>521.40002441406</ele>
        <time>2012-11-12T13:45:53.000Z</time>
      </trkpt>
      <trkpt lat="46.13956" lon="6.22748">
        <ele>520.40002441406</ele>
        <time>2012-11-12T13:45:54.000Z</time>
      </trkpt>
      <trkpt lat="46.13942" lon="6.22717">
        <ele>519.20001220703</ele>
        <time>2012-11-12T13:45:56.000Z</time>
      </trkpt>
      <trkpt lat="46.13935" lon="6.22702">
        <ele>519.20001220703</ele>
        <time>2012-11-12T13:45:57.000Z</time>
      </trkpt>
      <trkpt lat="46.13921" lon="6.22673">
        <ele>518</ele>
        <time>2012-11-12T13:45:59.000Z</time>
      </trkpt>
      <trkpt lat="46.13889" lon="6.22605">
        <ele>518</ele>
        <time>2012-11-12T13:46:04.000Z</time>
      </trkpt>
      <trkpt lat="46.13877" lon="6.22578">
        <ele>517</ele>
        <time>2012-11-12T13:46:06.000Z</time>
      </trkpt>
      <trkpt lat="46.13841" lon="6.22504">
        <ele>516</ele>
        <time>2012-11-12T13:46:12.000Z</time>
      </trkpt>
      <trkpt lat="46.13814" lon="6.22465">
        <ele>516</ele>
        <time>2012-11-12T13:46:16.000Z</time>
      </trkpt>
      <trkpt lat="46.1377" lon="6.2242">
        <ele>516</ele>
        <time>2012-11-12T13:46:22.000Z</time>
      </trkpt>
      <trkpt lat="46.13728" lon="6.22381">
        <ele>516</ele>
        <time>2012-11-12T13:46:28.000Z</time>
      </trkpt>
      <trkpt lat="46.13684" lon="6.22333">
        <ele>516</ele>
        <time>2012-11-12T13:46:35.000Z</time>
      </trkpt>
      <trkpt lat="46.13673" lon="6.22319">
        <ele>516</ele>
        <time>2012-11-12T13:46:37.000Z</time>
      </trkpt>
      <trkpt lat="46.1364" lon="6.22274">
        <ele>516</ele>
        <time>2012-11-12T13:46:43.000Z</time>
      </trkpt>
      <trkpt lat="46.13633" lon="6.22267">
        <ele>516</ele>
        <time>2012-11-12T13:46:44.000Z</time>
      </trkpt>
      <trkpt lat="46.13622" lon="6.22258">
        <ele>519</ele>
        <time>2012-11-12T13:46:46.000Z</time>
      </trkpt>
      <trkpt lat="46.13609" lon="6.22249">
        <ele>520</ele>
        <time>2012-11-12T13:46:48.000Z</time>
      </trkpt>
      <trkpt lat="46.13603" lon="6.22245">
        <ele>520</ele>
        <time>2012-11-12T13:46:49.000Z</time>
      </trkpt>
      <trkpt lat="46.13596" lon="6.22241">
        <ele>521.20001220703</ele>
        <time>2012-11-12T13:46:50.000Z</time>
      </trkpt>
      <trkpt lat="46.13578" lon="6.22229">
        <ele>522.40002441406</ele>
        <time>2012-11-12T13:46:53.000Z</time>
      </trkpt>
      <trkpt lat="46.13561" lon="6.22218">
        <ele>523.40002441406</ele>
        <time>2012-11-12T13:46:56.000Z</time>
      </trkpt>
      <trkpt lat="46.13549" lon="6.22211">
        <ele>524.59997558594</ele>
        <time>2012-11-12T13:46:58.000Z</time>
      </trkpt>
      <trkpt lat="46.13533" lon="6.22199">
        <ele>529.40002441406</ele>
        <time>2012-11-12T13:47:01.000Z</time>
      </trkpt>
      <trkpt lat="46.13527" lon="6.22195">
        <ele>525.59997558594</ele>
        <time>2012-11-12T13:47:02.000Z</time>
      </trkpt>
      <trkpt lat="46.13522" lon="6.22191">
        <ele>531</ele>
        <time>2012-11-12T13:47:03.000Z</time>
      </trkpt>
      <trkpt lat="46.13486" lon="6.22155">
        <ele>531</ele>
        <time>2012-11-12T13:47:10.000Z</time>
      </trkpt>
      <trkpt lat="46.13444" lon="6.22115">
        <ele>531</ele>
        <time>2012-11-12T13:47:18.000Z</time>
      </trkpt>
      <trkpt lat="46.13407" lon="6.22074">
        <ele>531</ele>
        <time>2012-11-12T13:47:25.000Z</time>
      </trkpt>
      <trkpt lat="46.13371" lon="6.22022">
        <ele>531</ele>
        <time>2012-11-12T13:47:33.000Z</time>
      </trkpt>
      <trkpt lat="46.13324" lon="6.21967">
        <ele>531</ele>
        <time>2012-11-12T13:47:43.000Z</time>
      </trkpt>
      <trkpt lat="46.1332" lon="6.21962">
        <ele>533</ele>
        <time>2012-11-12T13:47:44.000Z</time>
      </trkpt>
      <trkpt lat="46.13276" lon="6.21912">
        <ele>533</ele>
        <time>2012-11-12T13:47:53.000Z</time>
      </trkpt>
      <trkpt lat="46.1325" lon="6.21861">
        <ele>533</ele>
        <time>2012-11-12T13:48:00.000Z</time>
      </trkpt>
      <trkpt lat="46.13238" lon="6.21833">
        <ele>535</ele>
        <time>2012-11-12T13:48:04.000Z</time>
      </trkpt>
      <trkpt lat="46.13225" lon="6.21806">
        <ele>536</ele>
        <time>2012-11-12T13:48:08.000Z</time>
      </trkpt>
      <trkpt lat="46.13222" lon="6.21799">
        <ele>536</ele>
        <time>2012-11-12T13:48:09.000Z</time>
      </trkpt>
      <trkpt lat="46.13215" lon="6.21787">
        <ele>537.20001220703</ele>
        <time>2012-11-12T13:48:11.000Z</time>
      </trkpt>
      <trkpt lat="46.13207" lon="6.21775">
        <ele>538.20001220703</ele>
        <time>2012-11-12T13:48:13.000Z</time>
      </trkpt>
      <trkpt lat="46.13198" lon="6.21766">
        <ele>540.40002441406</ele>
        <time>2012-11-12T13:48:15.000Z</time>
      </trkpt>
      <trkpt lat="46.13181" lon="6.2175">
        <ele>541.59997558594</ele>
        <time>2012-11-12T13:48:19.000Z</time>
      </trkpt>
      <trkpt lat="46.13172" lon="6.21743">
        <ele>542.59997558594</ele>
        <time>2012-11-12T13:48:21.000Z</time>
      </trkpt>
      <trkpt lat="46.13164" lon="6.21736">
        <ele>542.59997558594</ele>
        <time>2012-11-12T13:48:23.000Z</time>
      </trkpt>
      <trkpt lat="46.1316" lon="6.21732">
        <ele>544</ele>
        <time>2012-11-12T13:48:24.000Z</time>
      </trkpt>
      <trkpt lat="46.13152" lon="6.21725">
        <ele>545</ele>
        <time>2012-11-12T13:48:26.000Z</time>
      </trkpt>
      <trkpt lat="46.13145" lon="6.2172">
        <ele>546.20001220703</ele>
        <time>2012-11-12T13:48:28.000Z</time>
      </trkpt>
      <trkpt lat="46.13135" lon="6.21712">
        <ele>546.20001220703</ele>
        <time>2012-11-12T13:48:30.000Z</time>
      </trkpt>
      <trkpt lat="46.13132" lon="6.21709">
        <ele>547.40002441406</ele>
        <time>2012-11-12T13:48:31.000Z</time>
      </trkpt>
      <trkpt lat="46.13123" lon="6.21703">
        <ele>548.40002441406</ele>
        <time>2012-11-12T13:48:33.000Z</time>
      </trkpt>
      <trkpt lat="46.13116" lon="6.21696">
        <ele>549.40002441406</ele>
        <time>2012-11-12T13:48:35.000Z</time>
      </trkpt>
      <trkpt lat="46.13104" lon="6.21685">
        <ele>551</ele>
        <time>2012-11-12T13:48:38.000Z</time>
      </trkpt>
      <trkpt lat="46.13089" lon="6.21671">
        <ele>552</ele>
        <time>2012-11-12T13:48:42.000Z</time>
      </trkpt>
      <trkpt lat="46.13076" lon="6.21659">
        <ele>553.20001220703</ele>
        <time>2012-11-12T13:48:45.000Z</time>
      </trkpt>
      <trkpt lat="46.13073" lon="6.21655">
        <ele>553.20001220703</ele>
        <time>2012-11-12T13:48:46.000Z</time>
      </trkpt>
      <trkpt lat="46.13066" lon="6.21645">
        <ele>554.20001220703</ele>
        <time>2012-11-12T13:48:48.000Z</time>
      </trkpt>
      <trkpt lat="46.13057" lon="6.2163">
        <ele>555.20001220703</ele>
        <time>2012-11-12T13:48:51.000Z</time>
      </trkpt>
      <trkpt lat="46.13051" lon="6.2162">
        <ele>555.20001220703</ele>
        <time>2012-11-12T13:48:53.000Z</time>
      </trkpt>
      <trkpt lat="46.13048" lon="6.21614">
        <ele>556.20001220703</ele>
        <time>2012-11-12T13:48:54.000Z</time>
      </trkpt>
      <trkpt lat="46.13043" lon="6.21603">
        <ele>557.40002441406</ele>
        <time>2012-11-12T13:48:56.000Z</time>
      </trkpt>
      <trkpt lat="46.13034" lon="6.2158">
        <ele>558.40002441406</ele>
        <time>2012-11-12T13:49:00.000Z</time>
      </trkpt>
      <trkpt lat="46.13031" lon="6.21574">
        <ele>558.40002441406</ele>
        <time>2012-11-12T13:49:01.000Z</time>
      </trkpt>
      <trkpt lat="46.13021" lon="6.21544">
        <ele>561</ele>
        <time>2012-11-12T13:49:06.000Z</time>
      </trkpt>
      <trkpt lat="46.13018" lon="6.21539">
        <ele>558</ele>
        <time>2012-11-12T13:49:07.000Z</time>
      </trkpt>
      <trkpt lat="46.13013" lon="6.21526">
        <ele>558</ele>
        <time>2012-11-12T13:49:09.000Z</time>
      </trkpt>
      <trkpt lat="46.13008" lon="6.21514">
        <ele>564.20001220703</ele>
        <time>2012-11-12T13:49:11.000Z</time>
      </trkpt>
      <trkpt lat="46.12986" lon="6.21466">
        <ele>564.20001220703</ele>
        <time>2012-11-12T13:49:18.000Z</time>
      </trkpt>
      <trkpt lat="46.12958" lon="6.21416">
        <ele>564.20001220703</ele>
        <time>2012-11-12T13:49:25.000Z</time>
      </trkpt>
      <trkpt lat="46.12918" lon="6.21353">
        <ele>564.20001220703</ele>
        <time>2012-11-12T13:49:34.000Z</time>
      </trkpt>
      <trkpt lat="46.12881" lon="6.21312">
        <ele>564.20001220703</ele>
        <time>2012-11-12T13:49:41.000Z</time>
      </trkpt>
      <trkpt lat="46.12846" lon="6.21272">
        <ele>562.20001220703</ele>
        <time>2012-11-12T13:49:47.000Z</time>
      </trkpt>
      <trkpt lat="46.12827" lon="6.21246">
        <ele>560.59997558594</ele>
        <time>2012-11-12T13:49:50.000Z</time>
      </trkpt>
      <trkpt lat="46.12814" lon="6.21227">
        <ele>559.40002441406</ele>
        <time>2012-11-12T13:49:52.000Z</time>
      </trkpt>
      <trkpt lat="46.12799" lon="6.21204">
        <ele>558</ele>
        <time>2012-11-12T13:49:54.000Z</time>
      </trkpt>
      <trkpt lat="46.12793" lon="6.21191">
        <ele>558</ele>
        <time>2012-11-12T13:49:55.000Z</time>
      </trkpt>
      <trkpt lat="46.12789" lon="6.21177">
        <ele>558</ele>
        <time>2012-11-12T13:49:56.000Z</time>
      </trkpt>
      <trkpt lat="46.12786" lon="6.21164">
        <ele>555.40002441406</ele>
        <time>2012-11-12T13:49:57.000Z</time>
      </trkpt>
      <trkpt lat="46.12781" lon="6.21151">
        <ele>554.40002441406</ele>
        <time>2012-11-12T13:49:58.000Z</time>
      </trkpt>
      <trkpt lat="46.12774" lon="6.21138">
        <ele>552.59997558594</ele>
        <time>2012-11-12T13:49:59.000Z</time>
      </trkpt>
      <trkpt lat="46.12766" lon="6.21127">
        <ele>552.59997558594</ele>
        <time>2012-11-12T13:50:00.000Z</time>
      </trkpt>
      <trkpt lat="46.12747" lon="6.21106">
        <ele>551.40002441406</ele>
        <time>2012-11-12T13:50:02.000Z</time>
      </trkpt>
      <trkpt lat="46.1273" lon="6.21082">
        <ele>551.40002441406</ele>
        <time>2012-11-12T13:50:04.000Z</time>
      </trkpt>
      <trkpt lat="46.12722" lon="6.21068">
        <ele>549.40002441406</ele>
        <time>2012-11-12T13:50:05.000Z</time>
      </trkpt>
      <trkpt lat="46.12716" lon="6.21053">
        <ele>548.40002441406</ele>
        <time>2012-11-12T13:50:06.000Z</time>
      </trkpt>
      <trkpt lat="46.12709" lon="6.21039">
        <ele>548.40002441406</ele>
        <time>2012-11-12T13:50:07.000Z</time>
      </trkpt>
      <trkpt lat="46.127" lon="6.21026">
        <ele>548.40002441406</ele>
        <time>2012-11-12T13:50:08.000Z</time>
      </trkpt>
      <trkpt lat="46.1269" lon="6.21015">
        <ele>547.40002441406</ele>
        <time>2012-11-12T13:50:09.000Z</time>
      </trkpt>
      <trkpt lat="46.12681" lon="6.21006">
        <ele>547.40002441406</ele>
        <time>2012-11-12T13:50:10.000Z</time>
      </trkpt>
      <trkpt lat="46.1266" lon="6.20991">
        <ele>546.40002441406</ele>
        <time>2012-11-12T13:50:12.000Z</time>
      </trkpt>
      <trkpt lat="46.12649" lon="6.20983">
        <ele>546.40002441406</ele>
        <time>2012-11-12T13:50:13.000Z</time>
      </trkpt>
      <trkpt lat="46.12638" lon="6.20976">
        <ele>546.40002441406</ele>
        <time>2012-11-12T13:50:14.000Z</time>
      </trkpt>
      <trkpt lat="46.12609" lon="6.20954">
        <ele>546.40002441406</ele>
        <time>2012-11-12T13:50:17.000Z</time>
      </trkpt>
      <trkpt lat="46.12593" lon="6.20935">
        <ele>546.40002441406</ele>
        <time>2012-11-12T13:50:19.000Z</time>
      </trkpt>
      <trkpt lat="46.12567" lon="6.209">
        <ele>546.40002441406</ele>
        <time>2012-11-12T13:50:23.000Z</time>
      </trkpt>
      <trkpt lat="46.12542" lon="6.20865">
        <ele>546.40002441406</ele>
        <time>2012-11-12T13:50:28.000Z</time>
      </trkpt>
      <trkpt lat="46.12524" lon="6.20843">
        <ele>549.40002441406</ele>
        <time>2012-11-12T13:50:32.000Z</time>
      </trkpt>
      <trkpt lat="46.12515" lon="6.2083">
        <ele>549.40002441406</ele>
        <time>2012-11-12T13:50:34.000Z</time>
      </trkpt>
      <trkpt lat="46.12505" lon="6.20819">
        <ele>549.40002441406</ele>
        <time>2012-11-12T13:50:36.000Z</time>
      </trkpt>
      <trkpt lat="46.12489" lon="6.20803">
        <ele>549.40002441406</ele>
        <time>2012-11-12T13:50:39.000Z</time>
      </trkpt>
      <trkpt lat="46.12477" lon="6.20795">
        <ele>549.40002441406</ele>
        <time>2012-11-12T13:50:41.000Z</time>
      </trkpt>
      <trkpt lat="46.12464" lon="6.20791">
        <ele>549.40002441406</ele>
        <time>2012-11-12T13:50:43.000Z</time>
      </trkpt>
      <trkpt lat="46.12445" lon="6.20788">
        <ele>549.40002441406</ele>
        <time>2012-11-12T13:50:46.000Z</time>
      </trkpt>
      <trkpt lat="46.12434" lon="6.20788">
        <ele>551.40002441406</ele>
        <time>2012-11-12T13:50:48.000Z</time>
      </trkpt>
      <trkpt lat="46.12429" lon="6.20789">
        <ele>551.40002441406</ele>
        <time>2012-11-12T13:50:49.000Z</time>
      </trkpt>
      <trkpt lat="46.12424" lon="6.2079">
        <ele>552.40002441406</ele>
        <time>2012-11-12T13:50:50.000Z</time>
      </trkpt>
      <trkpt lat="46.12419" lon="6.20789">
        <ele>552.40002441406</ele>
        <time>2012-11-12T13:50:51.000Z</time>
      </trkpt>
      <trkpt lat="46.1241" lon="6.20789">
        <ele>553.40002441406</ele>
        <time>2012-11-12T13:50:53.000Z</time>
      </trkpt>
      <trkpt lat="46.12406" lon="6.20789">
        <ele>553.40002441406</ele>
        <time>2012-11-12T13:50:54.000Z</time>
      </trkpt>
      <trkpt lat="46.12402" lon="6.20788">
        <ele>553.40002441406</ele>
        <time>2012-11-12T13:50:55.000Z</time>
      </trkpt>
      <trkpt lat="46.12397" lon="6.20785">
        <ele>554.40002441406</ele>
        <time>2012-11-12T13:50:56.000Z</time>
      </trkpt>
      <trkpt lat="46.12393" lon="6.20775">
        <ele>554.40002441406</ele>
        <time>2012-11-12T13:50:58.000Z</time>
      </trkpt>
      <trkpt lat="46.12393" lon="6.20768">
        <ele>555.40002441406</ele>
        <time>2012-11-12T13:50:59.000Z</time>
      </trkpt>
      <trkpt lat="46.12396" lon="6.20763">
        <ele>556.40002441406</ele>
        <time>2012-11-12T13:51:00.000Z</time>
      </trkpt>
      <trkpt lat="46.12399" lon="6.2076">
        <ele>558</ele>
        <time>2012-11-12T13:51:01.000Z</time>
      </trkpt>
      <trkpt lat="46.12403" lon="6.20757">
        <ele>560</ele>
        <time>2012-11-12T13:51:02.000Z</time>
      </trkpt>
      <trkpt lat="46.12407" lon="6.20755">
        <ele>561.40002441406</ele>
        <time>2012-11-12T13:51:03.000Z</time>
      </trkpt>
      <trkpt lat="46.12415" lon="6.20752">
        <ele>561.40002441406</ele>
        <time>2012-11-12T13:51:05.000Z</time>
      </trkpt>
      <trkpt lat="46.1242" lon="6.2075">
        <ele>557.20001220703</ele>
        <time>2012-11-12T13:51:06.000Z</time>
      </trkpt>
      <trkpt lat="46.12424" lon="6.20749">
        <ele>560</ele>
        <time>2012-11-12T13:51:07.000Z</time>
      </trkpt>
      <trkpt lat="46.12428" lon="6.20746">
        <ele>560</ele>
        <time>2012-11-12T13:51:08.000Z</time>
      </trkpt>
      <trkpt lat="46.12439" lon="6.20736">
        <ele>560</ele>
        <time>2012-11-12T13:51:11.000Z</time>
      </trkpt>
      <trkpt lat="46.12441" lon="6.20731">
        <ele>562</ele>
        <time>2012-11-12T13:51:12.000Z</time>
      </trkpt>
      <trkpt lat="46.1244" lon="6.20714">
        <ele>563.20001220703</ele>
        <time>2012-11-12T13:51:15.000Z</time>
      </trkpt>
      <trkpt lat="46.12431" lon="6.20702">
        <ele>564.20001220703</ele>
        <time>2012-11-12T13:51:18.000Z</time>
      </trkpt>
      <trkpt lat="46.12427" lon="6.20699">
        <ele>564.20001220703</ele>
        <time>2012-11-12T13:51:19.000Z</time>
      </trkpt>
      <trkpt lat="46.12421" lon="6.20692">
        <ele>565.40002441406</ele>
        <time>2012-11-12T13:51:21.000Z</time>
      </trkpt>
      <trkpt lat="46.12415" lon="6.20685">
        <ele>566.40002441406</ele>
        <time>2012-11-12T13:51:23.000Z</time>
      </trkpt>
      <trkpt lat="46.12411" lon="6.20676">
        <ele>567.40002441406</ele>
        <time>2012-11-12T13:51:25.000Z</time>
      </trkpt>
      <trkpt lat="46.12409" lon="6.20671">
        <ele>567.40002441406</ele>
        <time>2012-11-12T13:51:26.000Z</time>
      </trkpt>
      <trkpt lat="46.12408" lon="6.20666">
        <ele>568.40002441406</ele>
        <time>2012-11-12T13:51:27.000Z</time>
      </trkpt>
      <trkpt lat="46.12406" lon="6.20651">
        <ele>569.40002441406</ele>
        <time>2012-11-12T13:51:30.000Z</time>
      </trkpt>
      <trkpt lat="46.12406" lon="6.20641">
        <ele>569.40002441406</ele>
        <time>2012-11-12T13:51:32.000Z</time>
      </trkpt>
      <trkpt lat="46.12406" lon="6.20636">
        <ele>570.40002441406</ele>
        <time>2012-11-12T13:51:33.000Z</time>
      </trkpt>
      <trkpt lat="46.12406" lon="6.2062">
        <ele>571.59997558594</ele>
        <time>2012-11-12T13:51:36.000Z</time>
      </trkpt>
      <trkpt lat="46.12406" lon="6.20605">
        <ele>572.59997558594</ele>
        <time>2012-11-12T13:51:39.000Z</time>
      </trkpt>
      <trkpt lat="46.12407" lon="6.20591">
        <ele>572.59997558594</ele>
        <time>2012-11-12T13:51:42.000Z</time>
      </trkpt>
      <trkpt lat="46.12408" lon="6.20586">
        <ele>573.59997558594</ele>
        <time>2012-11-12T13:51:43.000Z</time>
      </trkpt>
      <trkpt lat="46.12412" lon="6.20577">
        <ele>575</ele>
        <time>2012-11-12T13:51:45.000Z</time>
      </trkpt>
      <trkpt lat="46.12415" lon="6.20575">
        <ele>575</ele>
        <time>2012-11-12T13:51:46.000Z</time>
      </trkpt>
      <trkpt lat="46.12425" lon="6.20567">
        <ele>576</ele>
        <time>2012-11-12T13:51:49.000Z</time>
      </trkpt>
      <trkpt lat="46.12427" lon="6.20553">
        <ele>576</ele>
        <time>2012-11-12T13:51:52.000Z</time>
      </trkpt>
      <trkpt lat="46.12426" lon="6.20549">
        <ele>577</ele>
        <time>2012-11-12T13:51:53.000Z</time>
      </trkpt>
      <trkpt lat="46.12422" lon="6.20542">
        <ele>577</ele>
        <time>2012-11-12T13:51:55.000Z</time>
      </trkpt>
      <trkpt lat="46.12418" lon="6.20542">
        <ele>577</ele>
        <time>2012-11-12T13:51:56.000Z</time>
      </trkpt>
      <trkpt lat="46.12403" lon="6.20549">
        <ele>577</ele>
        <time>2012-11-12T13:52:00.000Z</time>
      </trkpt>
      <trkpt lat="46.12399" lon="6.20551">
        <ele>577</ele>
        <time>2012-11-12T13:52:01.000Z</time>
      </trkpt>
      <trkpt lat="46.12368" lon="6.20566">
        <ele>577</ele>
        <time>2012-11-12T13:52:08.000Z</time>
      </trkpt>
      <trkpt lat="46.12343" lon="6.20578">
        <ele>579.20001220703</ele>
        <time>2012-11-12T13:52:13.000Z</time>
      </trkpt>
      <trkpt lat="46.12339" lon="6.2058">
        <ele>580.40002441406</ele>
        <time>2012-11-12T13:52:14.000Z</time>
      </trkpt>
      <trkpt lat="46.12326" lon="6.2058">
        <ele>580.40002441406</ele>
        <time>2012-11-12T13:52:18.000Z</time>
      </trkpt>
      <trkpt lat="46.12327" lon="6.20576">
        <ele>581.40002441406</ele>
        <time>2012-11-12T13:52:19.000Z</time>
      </trkpt>
      <trkpt lat="46.12328" lon="6.20575">
        <ele>581.40002441406</ele>
        <time>2012-11-12T13:52:21.000Z</time>
      </trkpt>
      <trkpt lat="46.12328" lon="6.20576">
        <ele>581.40002441406</ele>
        <time>2012-11-12T13:52:28.000Z</time>
      </trkpt>
      <trkpt lat="46.12327" lon="6.20577">
        <ele>581.40002441406</ele>
        <time>2012-11-12T13:52:35.000Z</time>
      </trkpt>
      <trkpt lat="46.12323" lon="6.20584">
        <ele>581.40002441406</ele>
        <time>2012-11-12T13:52:43.000Z</time>
      </trkpt>
      <trkpt lat="46.12317" lon="6.20587">
        <ele>581.40002441406</ele>
        <time>2012-11-12T13:52:46.000Z</time>
      </trkpt>
      <trkpt lat="46.12314" lon="6.20585">
        <ele>581.40002441406</ele>
        <time>2012-11-12T13:52:47.000Z</time>
      </trkpt>
      <trkpt lat="46.12312" lon="6.20581">
        <ele>582.40002441406</ele>
        <time>2012-11-12T13:52:48.000Z</time>
      </trkpt>
      <trkpt lat="46.12311" lon="6.20572">
        <ele>582.40002441406</ele>
        <time>2012-11-12T13:52:50.000Z</time>
      </trkpt>
      <trkpt lat="46.1231" lon="6.20567">
        <ele>582.40002441406</ele>
        <time>2012-11-12T13:52:51.000Z</time>
      </trkpt>
      <trkpt lat="46.12309" lon="6.2055">
        <ele>584.40002441406</ele>
        <time>2012-11-12T13:52:54.000Z</time>
      </trkpt>
      <trkpt lat="46.12309" lon="6.20544">
        <ele>585.40002441406</ele>
        <time>2012-11-12T13:52:55.000Z</time>
      </trkpt>
      <trkpt lat="46.12309" lon="6.20537">
        <ele>585.40002441406</ele>
        <time>2012-11-12T13:52:56.000Z</time>
      </trkpt>
      <trkpt lat="46.1231" lon="6.20531">
        <ele>585.40002441406</ele>
        <time>2012-11-12T13:52:57.000Z</time>
      </trkpt>
      <trkpt lat="46.12315" lon="6.20493">
        <ele>585.40002441406</ele>
        <time>2012-11-12T13:53:03.000Z</time>
      </trkpt>
      <trkpt lat="46.12316" lon="6.20487">
        <ele>585.40002441406</ele>
        <time>2012-11-12T13:53:04.000Z</time>
      </trkpt>
      <trkpt lat="46.12324" lon="6.20436">
        <ele>586.59997558594</ele>
        <time>2012-11-12T13:53:12.000Z</time>
      </trkpt>
      <trkpt lat="46.1233" lon="6.20405">
        <ele>587.59997558594</ele>
        <time>2012-11-12T13:53:17.000Z</time>
      </trkpt>
      <trkpt lat="46.12334" lon="6.20394">
        <ele>587.59997558594</ele>
        <time>2012-11-12T13:53:19.000Z</time>
      </trkpt>
      <trkpt lat="46.12337" lon="6.20388">
        <ele>587.59997558594</ele>
        <time>2012-11-12T13:53:20.000Z</time>
      </trkpt>
      <trkpt lat="46.12341" lon="6.20378">
        <ele>588.59997558594</ele>
        <time>2012-11-12T13:53:22.000Z</time>
      </trkpt>
      <trkpt lat="46.12355" lon="6.20351">
        <ele>590</ele>
        <time>2012-11-12T13:53:27.000Z</time>
      </trkpt>
      <trkpt lat="46.12361" lon="6.2034">
        <ele>590</ele>
        <time>2012-11-12T13:53:29.000Z</time>
      </trkpt>
      <trkpt lat="46.12367" lon="6.20331">
        <ele>590</ele>
        <time>2012-11-12T13:53:31.000Z</time>
      </trkpt>
      <trkpt lat="46.12374" lon="6.20322">
        <ele>591</ele>
        <time>2012-11-12T13:53:33.000Z</time>
      </trkpt>
      <trkpt lat="46.12383" lon="6.20307">
        <ele>592.20001220703</ele>
        <time>2012-11-12T13:53:36.000Z</time>
      </trkpt>
      <trkpt lat="46.12391" lon="6.20293">
        <ele>592.20001220703</ele>
        <time>2012-11-12T13:53:39.000Z</time>
      </trkpt>
      <trkpt lat="46.12393" lon="6.20288">
        <ele>593.20001220703</ele>
        <time>2012-11-12T13:53:40.000Z</time>
      </trkpt>
      <trkpt lat="46.12398" lon="6.20279">
        <ele>595</ele>
        <time>2012-11-12T13:53:42.000Z</time>
      </trkpt>
      <trkpt lat="46.12401" lon="6.20268">
        <ele>595</ele>
        <time>2012-11-12T13:53:44.000Z</time>
      </trkpt>
      <trkpt lat="46.12403" lon="6.20257">
        <ele>595</ele>
        <time>2012-11-12T13:53:46.000Z</time>
      </trkpt>
      <trkpt lat="46.12406" lon="6.20239">
        <ele>597</ele>
        <time>2012-11-12T13:53:49.000Z</time>
      </trkpt>
      <trkpt lat="46.12406" lon="6.20233">
        <ele>597</ele>
        <time>2012-11-12T13:53:50.000Z</time>
      </trkpt>
      <trkpt lat="46.12407" lon="6.20223">
        <ele>598</ele>
        <time>2012-11-12T13:53:52.000Z</time>
      </trkpt>
      <trkpt lat="46.12407" lon="6.20205">
        <ele>599.20001220703</ele>
        <time>2012-11-12T13:53:55.000Z</time>
      </trkpt>
      <trkpt lat="46.12407" lon="6.20188">
        <ele>600.20001220703</ele>
        <time>2012-11-12T13:53:58.000Z</time>
      </trkpt>
      <trkpt lat="46.12404" lon="6.20172">
        <ele>601.40002441406</ele>
        <time>2012-11-12T13:54:01.000Z</time>
      </trkpt>
      <trkpt lat="46.124" lon="6.20163">
        <ele>601.40002441406</ele>
        <time>2012-11-12T13:54:03.000Z</time>
      </trkpt>
      <trkpt lat="46.12394" lon="6.20155">
        <ele>602.40002441406</ele>
        <time>2012-11-12T13:54:05.000Z</time>
      </trkpt>
      <trkpt lat="46.12391" lon="6.20152">
        <ele>602.40002441406</ele>
        <time>2012-11-12T13:54:06.000Z</time>
      </trkpt>
      <trkpt lat="46.12382" lon="6.20139">
        <ele>604</ele>
        <time>2012-11-12T13:54:09.000Z</time>
      </trkpt>
      <trkpt lat="46.12379" lon="6.20118">
        <ele>605</ele>
        <time>2012-11-12T13:54:13.000Z</time>
      </trkpt>
      <trkpt lat="46.12384" lon="6.20097">
        <ele>606.20001220703</ele>
        <time>2012-11-12T13:54:17.000Z</time>
      </trkpt>
      <trkpt lat="46.12389" lon="6.20083">
        <ele>607.20001220703</ele>
        <time>2012-11-12T13:54:20.000Z</time>
      </trkpt>
      <trkpt lat="46.124" lon="6.20067">
        <ele>607.20001220703</ele>
        <time>2012-11-12T13:54:24.000Z</time>
      </trkpt>
      <trkpt lat="46.12403" lon="6.20064">
        <ele>608.20001220703</ele>
        <time>2012-11-12T13:54:25.000Z</time>
      </trkpt>
      <trkpt lat="46.12414" lon="6.2006">
        <ele>609.20001220703</ele>
        <time>2012-11-12T13:54:28.000Z</time>
      </trkpt>
      <trkpt lat="46.12425" lon="6.20063">
        <ele>610.40002441406</ele>
        <time>2012-11-12T13:54:31.000Z</time>
      </trkpt>
      <trkpt lat="46.12429" lon="6.20066">
        <ele>610.40002441406</ele>
        <time>2012-11-12T13:54:32.000Z</time>
      </trkpt>
      <trkpt lat="46.12436" lon="6.20072">
        <ele>611.40002441406</ele>
        <time>2012-11-12T13:54:34.000Z</time>
      </trkpt>
      <trkpt lat="46.12447" lon="6.20087">
        <ele>612.40002441406</ele>
        <time>2012-11-12T13:54:38.000Z</time>
      </trkpt>
      <trkpt lat="46.1245" lon="6.20092">
        <ele>612.40002441406</ele>
        <time>2012-11-12T13:54:39.000Z</time>
      </trkpt>
      <trkpt lat="46.12456" lon="6.20108">
        <ele>613.40002441406</ele>
        <time>2012-11-12T13:54:42.000Z</time>
      </trkpt>
      <trkpt lat="46.12459" lon="6.20118">
        <ele>613.40002441406</ele>
        <time>2012-11-12T13:54:44.000Z</time>
      </trkpt>
      <trkpt lat="46.12465" lon="6.20139">
        <ele>614.59997558594</ele>
        <time>2012-11-12T13:54:48.000Z</time>
      </trkpt>
      <trkpt lat="46.12471" lon="6.20153">
        <ele>614.59997558594</ele>
        <time>2012-11-12T13:54:51.000Z</time>
      </trkpt>
      <trkpt lat="46.12472" lon="6.20157">
        <ele>615.59997558594</ele>
        <time>2012-11-12T13:54:52.000Z</time>
      </trkpt>
      <trkpt lat="46.12488" lon="6.20184">
        <ele>615.59997558594</ele>
        <time>2012-11-12T13:54:58.000Z</time>
      </trkpt>
      <trkpt lat="46.1249" lon="6.20188">
        <ele>617</ele>
        <time>2012-11-12T13:54:59.000Z</time>
      </trkpt>
      <trkpt lat="46.12507" lon="6.20211">
        <ele>618</ele>
        <time>2012-11-12T13:55:05.000Z</time>
      </trkpt>
      <trkpt lat="46.1251" lon="6.20214">
        <ele>618</ele>
        <time>2012-11-12T13:55:06.000Z</time>
      </trkpt>
      <trkpt lat="46.12524" lon="6.20232">
        <ele>619</ele>
        <time>2012-11-12T13:55:11.000Z</time>
      </trkpt>
      <trkpt lat="46.12535" lon="6.20246">
        <ele>620</ele>
        <time>2012-11-12T13:55:15.000Z</time>
      </trkpt>
      <trkpt lat="46.12553" lon="6.20263">
        <ele>621.20001220703</ele>
        <time>2012-11-12T13:55:21.000Z</time>
      </trkpt>
      <trkpt lat="46.1256" lon="6.20266">
        <ele>621.20001220703</ele>
        <time>2012-11-12T13:55:23.000Z</time>
      </trkpt>
      <trkpt lat="46.1257" lon="6.2027">
        <ele>622.20001220703</ele>
        <time>2012-11-12T13:55:26.000Z</time>
      </trkpt>
      <trkpt lat="46.12589" lon="6.2027">
        <ele>622.20001220703</ele>
        <time>2012-11-12T13:55:31.000Z</time>
      </trkpt>
      <trkpt lat="46.12606" lon="6.20261">
        <ele>624.20001220703</ele>
        <time>2012-11-12T13:55:36.000Z</time>
      </trkpt>
      <trkpt lat="46.12609" lon="6.20259">
        <ele>624.20001220703</ele>
        <time>2012-11-12T13:55:37.000Z</time>
      </trkpt>
      <trkpt lat="46.1262" lon="6.20253">
        <ele>625.40002441406</ele>
        <time>2012-11-12T13:55:40.000Z</time>
      </trkpt>
      <trkpt lat="46.12637" lon="6.20242">
        <ele>626.40002441406</ele>
        <time>2012-11-12T13:55:45.000Z</time>
      </trkpt>
      <trkpt lat="46.1264" lon="6.20239">
        <ele>626.40002441406</ele>
        <time>2012-11-12T13:55:46.000Z</time>
      </trkpt>
      <trkpt lat="46.12647" lon="6.20228">
        <ele>627.40002441406</ele>
        <time>2012-11-12T13:55:49.000Z</time>
      </trkpt>
      <trkpt lat="46.12649" lon="6.20218">
        <ele>627.40002441406</ele>
        <time>2012-11-12T13:55:51.000Z</time>
      </trkpt>
      <trkpt lat="46.12649" lon="6.20208">
        <ele>628.40002441406</ele>
        <time>2012-11-12T13:55:53.000Z</time>
      </trkpt>
      <trkpt lat="46.12646" lon="6.20198">
        <ele>628.40002441406</ele>
        <time>2012-11-12T13:55:55.000Z</time>
      </trkpt>
      <trkpt lat="46.1264" lon="6.20191">
        <ele>629.40002441406</ele>
        <time>2012-11-12T13:55:57.000Z</time>
      </trkpt>
      <trkpt lat="46.12634" lon="6.20186">
        <ele>629.40002441406</ele>
        <time>2012-11-12T13:55:59.000Z</time>
      </trkpt>
      <trkpt lat="46.1263" lon="6.20184">
        <ele>630.40002441406</ele>
        <time>2012-11-12T13:56:00.000Z</time>
      </trkpt>
      <trkpt lat="46.12616" lon="6.20176">
        <ele>631.59997558594</ele>
        <time>2012-11-12T13:56:04.000Z</time>
      </trkpt>
      <trkpt lat="46.12605" lon="6.20169">
        <ele>631.59997558594</ele>
        <time>2012-11-12T13:56:07.000Z</time>
      </trkpt>
      <trkpt lat="46.12602" lon="6.20166">
        <ele>632.59997558594</ele>
        <time>2012-11-12T13:56:08.000Z</time>
      </trkpt>
      <trkpt lat="46.12599" lon="6.20163">
        <ele>634.20001220703</ele>
        <time>2012-11-12T13:56:09.000Z</time>
      </trkpt>
      <trkpt lat="46.12587" lon="6.20147">
        <ele>634.20001220703</ele>
        <time>2012-11-12T13:56:13.000Z</time>
      </trkpt>
      <trkpt lat="46.12578" lon="6.20129">
        <ele>636.20001220703</ele>
        <time>2012-11-12T13:56:17.000Z</time>
      </trkpt>
      <trkpt lat="46.1257" lon="6.20115">
        <ele>636.20001220703</ele>
        <time>2012-11-12T13:56:20.000Z</time>
      </trkpt>
      <trkpt lat="46.12568" lon="6.2011">
        <ele>637.40002441406</ele>
        <time>2012-11-12T13:56:21.000Z</time>
      </trkpt>
      <trkpt lat="46.12558" lon="6.20094">
        <ele>638.59997558594</ele>
        <time>2012-11-12T13:56:25.000Z</time>
      </trkpt>
      <trkpt lat="46.12551" lon="6.20081">
        <ele>639.59997558594</ele>
        <time>2012-11-12T13:56:28.000Z</time>
      </trkpt>
      <trkpt lat="46.12546" lon="6.20066">
        <ele>640.59997558594</ele>
        <time>2012-11-12T13:56:31.000Z</time>
      </trkpt>
      <trkpt lat="46.12542" lon="6.20047">
        <ele>642</ele>
        <time>2012-11-12T13:56:35.000Z</time>
      </trkpt>
      <trkpt lat="46.12543" lon="6.20031">
        <ele>643.20001220703</ele>
        <time>2012-11-12T13:56:38.000Z</time>
      </trkpt>
      <trkpt lat="46.12547" lon="6.20015">
        <ele>644.20001220703</ele>
        <time>2012-11-12T13:56:41.000Z</time>
      </trkpt>
      <trkpt lat="46.12555" lon="6.19985">
        <ele>645.20001220703</ele>
        <time>2012-11-12T13:56:47.000Z</time>
      </trkpt>
      <trkpt lat="46.12559" lon="6.19968">
        <ele>646.40002441406</ele>
        <time>2012-11-12T13:56:50.000Z</time>
      </trkpt>
      <trkpt lat="46.12561" lon="6.19963">
        <ele>646.40002441406</ele>
        <time>2012-11-12T13:56:51.000Z</time>
      </trkpt>
      <trkpt lat="46.12564" lon="6.1996">
        <ele>646.40002441406</ele>
        <time>2012-11-12T13:56:52.000Z</time>
      </trkpt>
      <trkpt lat="46.12572" lon="6.19956">
        <ele>646.40002441406</ele>
        <time>2012-11-12T13:56:54.000Z</time>
      </trkpt>
      <trkpt lat="46.12582" lon="6.19959">
        <ele>647.40002441406</ele>
        <time>2012-11-12T13:56:57.000Z</time>
      </trkpt>
      <trkpt lat="46.12586" lon="6.1996">
        <ele>647.40002441406</ele>
        <time>2012-11-12T13:56:58.000Z</time>
      </trkpt>
      <trkpt lat="46.12592" lon="6.19961">
        <ele>648.59997558594</ele>
        <time>2012-11-12T13:57:00.000Z</time>
      </trkpt>
      <trkpt lat="46.12601" lon="6.19956">
        <ele>648.59997558594</ele>
        <time>2012-11-12T13:57:03.000Z</time>
      </trkpt>
      <trkpt lat="46.12608" lon="6.19944">
        <ele>650</ele>
        <time>2012-11-12T13:57:06.000Z</time>
      </trkpt>
      <trkpt lat="46.12611" lon="6.19935">
        <ele>650</ele>
        <time>2012-11-12T13:57:08.000Z</time>
      </trkpt>
      <trkpt lat="46.12611" lon="6.1993">
        <ele>651.20001220703</ele>
        <time>2012-11-12T13:57:09.000Z</time>
      </trkpt>
      <trkpt lat="46.12612" lon="6.19925">
        <ele>651.20001220703</ele>
        <time>2012-11-12T13:57:10.000Z</time>
      </trkpt>
      <trkpt lat="46.12613" lon="6.19919">
        <ele>652.20001220703</ele>
        <time>2012-11-12T13:57:11.000Z</time>
      </trkpt>
      <trkpt lat="46.12615" lon="6.19903">
        <ele>653.40002441406</ele>
        <time>2012-11-12T13:57:14.000Z</time>
      </trkpt>
      <trkpt lat="46.12615" lon="6.19898">
        <ele>653.40002441406</ele>
        <time>2012-11-12T13:57:15.000Z</time>
      </trkpt>
      <trkpt lat="46.12618" lon="6.19888">
        <ele>654.40002441406</ele>
        <time>2012-11-12T13:57:17.000Z</time>
      </trkpt>
      <trkpt lat="46.12619" lon="6.19871">
        <ele>655.40002441406</ele>
        <time>2012-11-12T13:57:20.000Z</time>
      </trkpt>
      <trkpt lat="46.1262" lon="6.19866">
        <ele>655.40002441406</ele>
        <time>2012-11-12T13:57:21.000Z</time>
      </trkpt>
      <trkpt lat="46.12621" lon="6.19855">
        <ele>656.59997558594</ele>
        <time>2012-11-12T13:57:23.000Z</time>
      </trkpt>
      <trkpt lat="46.12624" lon="6.19834">
        <ele>658.20001220703</ele>
        <time>2012-11-12T13:57:27.000Z</time>
      </trkpt>
      <trkpt lat="46.12625" lon="6.19828">
        <ele>658.20001220703</ele>
        <time>2012-11-12T13:57:28.000Z</time>
      </trkpt>
      <trkpt lat="46.12626" lon="6.19813">
        <ele>659.40002441406</ele>
        <time>2012-11-12T13:57:31.000Z</time>
      </trkpt>
      <trkpt lat="46.12626" lon="6.19801">
        <ele>659.40002441406</ele>
        <time>2012-11-12T13:57:33.000Z</time>
      </trkpt>
      <trkpt lat="46.12624" lon="6.19791">
        <ele>660.40002441406</ele>
        <time>2012-11-12T13:57:35.000Z</time>
      </trkpt>
      <trkpt lat="46.12621" lon="6.19781">
        <ele>661.40002441406</ele>
        <time>2012-11-12T13:57:37.000Z</time>
      </trkpt>
      <trkpt lat="46.12618" lon="6.19776">
        <ele>661.40002441406</ele>
        <time>2012-11-12T13:57:38.000Z</time>
      </trkpt>
      <trkpt lat="46.12614" lon="6.19772">
        <ele>662.40002441406</ele>
        <time>2012-11-12T13:57:39.000Z</time>
      </trkpt>
      <trkpt lat="46.12608" lon="6.19766">
        <ele>663.59997558594</ele>
        <time>2012-11-12T13:57:41.000Z</time>
      </trkpt>
      <trkpt lat="46.12601" lon="6.1976">
        <ele>663.59997558594</ele>
        <time>2012-11-12T13:57:43.000Z</time>
      </trkpt>
      <trkpt lat="46.12598" lon="6.19758">
        <ele>664.59997558594</ele>
        <time>2012-11-12T13:57:44.000Z</time>
      </trkpt>
      <trkpt lat="46.12588" lon="6.19751">
        <ele>666</ele>
        <time>2012-11-12T13:57:47.000Z</time>
      </trkpt>
      <trkpt lat="46.12578" lon="6.19745">
        <ele>667.20001220703</ele>
        <time>2012-11-12T13:57:50.000Z</time>
      </trkpt>
      <trkpt lat="46.12572" lon="6.19739">
        <ele>667.20001220703</ele>
        <time>2012-11-12T13:57:52.000Z</time>
      </trkpt>
      <trkpt lat="46.12566" lon="6.19733">
        <ele>668.20001220703</ele>
        <time>2012-11-12T13:57:54.000Z</time>
      </trkpt>
      <trkpt lat="46.1255" lon="6.19714">
        <ele>668.20001220703</ele>
        <time>2012-11-12T13:58:00.000Z</time>
      </trkpt>
      <trkpt lat="46.12547" lon="6.1971">
        <ele>669.40002441406</ele>
        <time>2012-11-12T13:58:01.000Z</time>
      </trkpt>
      <trkpt lat="46.12534" lon="6.19692">
        <ele>670.40002441406</ele>
        <time>2012-11-12T13:58:06.000Z</time>
      </trkpt>
      <trkpt lat="46.12527" lon="6.19681">
        <ele>671.40002441406</ele>
        <time>2012-11-12T13:58:09.000Z</time>
      </trkpt>
      <trkpt lat="46.12517" lon="6.19665">
        <ele>672.40002441406</ele>
        <time>2012-11-12T13:58:13.000Z</time>
      </trkpt>
      <trkpt lat="46.12512" lon="6.19657">
        <ele>672.40002441406</ele>
        <time>2012-11-12T13:58:15.000Z</time>
      </trkpt>
      <trkpt lat="46.12507" lon="6.19649">
        <ele>673.59997558594</ele>
        <time>2012-11-12T13:58:17.000Z</time>
      </trkpt>
      <trkpt lat="46.12498" lon="6.19626">
        <ele>674.59997558594</ele>
        <time>2012-11-12T13:58:22.000Z</time>
      </trkpt>
      <trkpt lat="46.12494" lon="6.19611">
        <ele>674.59997558594</ele>
        <time>2012-11-12T13:58:25.000Z</time>
      </trkpt>
      <trkpt lat="46.12487" lon="6.19586">
        <ele>677</ele>
        <time>2012-11-12T13:58:30.000Z</time>
      </trkpt>
      <trkpt lat="46.12483" lon="6.19572">
        <ele>677</ele>
        <time>2012-11-12T13:58:33.000Z</time>
      </trkpt>
      <trkpt lat="46.12467" lon="6.1954">
        <ele>679.20001220703</ele>
        <time>2012-11-12T13:58:41.000Z</time>
      </trkpt>
      <trkpt lat="46.12459" lon="6.1953">
        <ele>680.20001220703</ele>
        <time>2012-11-12T13:58:44.000Z</time>
      </trkpt>
      <trkpt lat="46.1245" lon="6.19522">
        <ele>681.20001220703</ele>
        <time>2012-11-12T13:58:47.000Z</time>
      </trkpt>
      <trkpt lat="46.12443" lon="6.19517">
        <ele>681.20001220703</ele>
        <time>2012-11-12T13:58:49.000Z</time>
      </trkpt>
      <trkpt lat="46.12436" lon="6.19512">
        <ele>682.40002441406</ele>
        <time>2012-11-12T13:58:51.000Z</time>
      </trkpt>
      <trkpt lat="46.12426" lon="6.19507">
        <ele>683.40002441406</ele>
        <time>2012-11-12T13:58:54.000Z</time>
      </trkpt>
      <trkpt lat="46.12415" lon="6.19501">
        <ele>684.40002441406</ele>
        <time>2012-11-12T13:58:57.000Z</time>
      </trkpt>
      <trkpt lat="46.12412" lon="6.19499">
        <ele>684.40002441406</ele>
        <time>2012-11-12T13:58:58.000Z</time>
      </trkpt>
      <trkpt lat="46.12408" lon="6.19498">
        <ele>685.59997558594</ele>
        <time>2012-11-12T13:58:59.000Z</time>
      </trkpt>
      <trkpt lat="46.12394" lon="6.19491">
        <ele>686.59997558594</ele>
        <time>2012-11-12T13:59:03.000Z</time>
      </trkpt>
      <trkpt lat="46.12387" lon="6.19487">
        <ele>686.59997558594</ele>
        <time>2012-11-12T13:59:05.000Z</time>
      </trkpt>
      <trkpt lat="46.12381" lon="6.19482">
        <ele>688</ele>
        <time>2012-11-12T13:59:07.000Z</time>
      </trkpt>
      <trkpt lat="46.12373" lon="6.19473">
        <ele>689</ele>
        <time>2012-11-12T13:59:10.000Z</time>
      </trkpt>
      <trkpt lat="46.1237" lon="6.19464">
        <ele>689</ele>
        <time>2012-11-12T13:59:12.000Z</time>
      </trkpt>
      <trkpt lat="46.1237" lon="6.19458">
        <ele>690</ele>
        <time>2012-11-12T13:59:13.000Z</time>
      </trkpt>
      <trkpt lat="46.12372" lon="6.19444">
        <ele>690</ele>
        <time>2012-11-12T13:59:16.000Z</time>
      </trkpt>
      <trkpt lat="46.12378" lon="6.19437">
        <ele>691.20001220703</ele>
        <time>2012-11-12T13:59:18.000Z</time>
      </trkpt>
      <trkpt lat="46.12385" lon="6.19435">
        <ele>691.20001220703</ele>
        <time>2012-11-12T13:59:20.000Z</time>
      </trkpt>
      <trkpt lat="46.12388" lon="6.19435">
        <ele>692.20001220703</ele>
        <time>2012-11-12T13:59:21.000Z</time>
      </trkpt>
      <trkpt lat="46.12399" lon="6.19441">
        <ele>692.20001220703</ele>
        <time>2012-11-12T13:59:24.000Z</time>
      </trkpt>
      <trkpt lat="46.12402" lon="6.19444">
        <ele>693.40002441406</ele>
        <time>2012-11-12T13:59:25.000Z</time>
      </trkpt>
      <trkpt lat="46.12417" lon="6.19463">
        <ele>693.40002441406</ele>
        <time>2012-11-12T13:59:30.000Z</time>
      </trkpt>
      <trkpt lat="46.12421" lon="6.19465">
        <ele>694.40002441406</ele>
        <time>2012-11-12T13:59:31.000Z</time>
      </trkpt>
      <trkpt lat="46.12431" lon="6.19469">
        <ele>695.40002441406</ele>
        <time>2012-11-12T13:59:34.000Z</time>
      </trkpt>
      <trkpt lat="46.12434" lon="6.19468">
        <ele>695.40002441406</ele>
        <time>2012-11-12T13:59:35.000Z</time>
      </trkpt>
      <trkpt lat="46.12443" lon="6.19461">
        <ele>696.40002441406</ele>
        <time>2012-11-12T13:59:38.000Z</time>
      </trkpt>
      <trkpt lat="46.12444" lon="6.19457">
        <ele>696.40002441406</ele>
        <time>2012-11-12T13:59:39.000Z</time>
      </trkpt>
      <trkpt lat="46.12445" lon="6.19447">
        <ele>697.59997558594</ele>
        <time>2012-11-12T13:59:41.000Z</time>
      </trkpt>
      <trkpt lat="46.12444" lon="6.19437">
        <ele>697.59997558594</ele>
        <time>2012-11-12T13:59:43.000Z</time>
      </trkpt>
      <trkpt lat="46.12443" lon="6.19432">
        <ele>698.59997558594</ele>
        <time>2012-11-12T13:59:44.000Z</time>
      </trkpt>
      <trkpt lat="46.12436" lon="6.19415">
        <ele>699.59997558594</ele>
        <time>2012-11-12T13:59:48.000Z</time>
      </trkpt>
      <trkpt lat="46.12433" lon="6.19411">
        <ele>699.59997558594</ele>
        <time>2012-11-12T13:59:49.000Z</time>
      </trkpt>
      <trkpt lat="46.12426" lon="6.19399">
        <ele>701</ele>
        <time>2012-11-12T13:59:52.000Z</time>
      </trkpt>
      <trkpt lat="46.1242" lon="6.19389">
        <ele>701</ele>
        <time>2012-11-12T13:59:54.000Z</time>
      </trkpt>
      <trkpt lat="46.12417" lon="6.19384">
        <ele>702</ele>
        <time>2012-11-12T13:59:55.000Z</time>
      </trkpt>
      <trkpt lat="46.1241" lon="6.19371">
        <ele>703.20001220703</ele>
        <time>2012-11-12T13:59:58.000Z</time>
      </trkpt>
      <trkpt lat="46.12404" lon="6.19356">
        <ele>704.20001220703</ele>
        <time>2012-11-12T14:00:01.000Z</time>
      </trkpt>
      <trkpt lat="46.12401" lon="6.19347">
        <ele>704.20001220703</ele>
        <time>2012-11-12T14:00:03.000Z</time>
      </trkpt>
      <trkpt lat="46.12399" lon="6.19343">
        <ele>705.40002441406</ele>
        <time>2012-11-12T14:00:04.000Z</time>
      </trkpt>
      <trkpt lat="46.12393" lon="6.19329">
        <ele>706.40002441406</ele>
        <time>2012-11-12T14:00:07.000Z</time>
      </trkpt>
      <trkpt lat="46.12386" lon="6.19318">
        <ele>707.40002441406</ele>
        <time>2012-11-12T14:00:10.000Z</time>
      </trkpt>
      <trkpt lat="46.1238" lon="6.19312">
        <ele>707.40002441406</ele>
        <time>2012-11-12T14:00:12.000Z</time>
      </trkpt>
      <trkpt lat="46.12377" lon="6.19309">
        <ele>708.59997558594</ele>
        <time>2012-11-12T14:00:13.000Z</time>
      </trkpt>
      <trkpt lat="46.12364" lon="6.193">
        <ele>710</ele>
        <time>2012-11-12T14:00:17.000Z</time>
      </trkpt>
      <trkpt lat="46.12356" lon="6.19291">
        <ele>711</ele>
        <time>2012-11-12T14:00:20.000Z</time>
      </trkpt>
      <trkpt lat="46.1235" lon="6.19279">
        <ele>712</ele>
        <time>2012-11-12T14:00:23.000Z</time>
      </trkpt>
      <trkpt lat="46.12347" lon="6.19262">
        <ele>713</ele>
        <time>2012-11-12T14:00:26.000Z</time>
      </trkpt>
      <trkpt lat="46.12346" lon="6.19251">
        <ele>713</ele>
        <time>2012-11-12T14:00:28.000Z</time>
      </trkpt>
      <trkpt lat="46.12344" lon="6.19245">
        <ele>714.20001220703</ele>
        <time>2012-11-12T14:00:29.000Z</time>
      </trkpt>
      <trkpt lat="46.12335" lon="6.19221">
        <ele>714.20001220703</ele>
        <time>2012-11-12T14:00:34.000Z</time>
      </trkpt>
      <trkpt lat="46.12335" lon="6.19223">
        <ele>715.40002441406</ele>
        <time>2012-11-12T14:00:35.000Z</time>
      </trkpt>
      <trkpt lat="46.1232" lon="6.19212">
        <ele>716.40002441406</ele>
        <time>2012-11-12T14:00:38.000Z</time>
      </trkpt>
      <trkpt lat="46.12309" lon="6.19213">
        <ele>717.40002441406</ele>
        <time>2012-11-12T14:00:41.000Z</time>
      </trkpt>
      <trkpt lat="46.12305" lon="6.19214">
        <ele>717.40002441406</ele>
        <time>2012-11-12T14:00:42.000Z</time>
      </trkpt>
      <trkpt lat="46.12297" lon="6.19217">
        <ele>718.59997558594</ele>
        <time>2012-11-12T14:00:44.000Z</time>
      </trkpt>
      <trkpt lat="46.12285" lon="6.19227">
        <ele>718.59997558594</ele>
        <time>2012-11-12T14:00:48.000Z</time>
      </trkpt>
      <trkpt lat="46.12279" lon="6.19233">
        <ele>719.59997558594</ele>
        <time>2012-11-12T14:00:50.000Z</time>
      </trkpt>
      <trkpt lat="46.12267" lon="6.1925">
        <ele>721</ele>
        <time>2012-11-12T14:00:55.000Z</time>
      </trkpt>
      <trkpt lat="46.12256" lon="6.19263">
        <ele>722.40002441406</ele>
        <time>2012-11-12T14:00:59.000Z</time>
      </trkpt>
      <trkpt lat="46.12251" lon="6.19271">
        <ele>722.40002441406</ele>
        <time>2012-11-12T14:01:01.000Z</time>
      </trkpt>
      <trkpt lat="46.12249" lon="6.19274">
        <ele>723.40002441406</ele>
        <time>2012-11-12T14:01:02.000Z</time>
      </trkpt>
      <trkpt lat="46.12237" lon="6.19286">
        <ele>723.40002441406</ele>
        <time>2012-11-12T14:01:06.000Z</time>
      </trkpt>
      <trkpt lat="46.12232" lon="6.19293">
        <ele>724.40002441406</ele>
        <time>2012-11-12T14:01:08.000Z</time>
      </trkpt>
      <trkpt lat="46.12221" lon="6.19308">
        <ele>725.59997558594</ele>
        <time>2012-11-12T14:01:12.000Z</time>
      </trkpt>
      <trkpt lat="46.12213" lon="6.19318">
        <ele>727</ele>
        <time>2012-11-12T14:01:15.000Z</time>
      </trkpt>
      <trkpt lat="46.12194" lon="6.19335">
        <ele>727</ele>
        <time>2012-11-12T14:01:21.000Z</time>
      </trkpt>
      <trkpt lat="46.12186" lon="6.19339">
        <ele>729</ele>
        <time>2012-11-12T14:01:23.000Z</time>
      </trkpt>
      <trkpt lat="46.12175" lon="6.19339">
        <ele>729</ele>
        <time>2012-11-12T14:01:26.000Z</time>
      </trkpt>
      <trkpt lat="46.12172" lon="6.19338">
        <ele>730.20001220703</ele>
        <time>2012-11-12T14:01:27.000Z</time>
      </trkpt>
      <trkpt lat="46.12165" lon="6.19338">
        <ele>730.20001220703</ele>
        <time>2012-11-12T14:01:29.000Z</time>
      </trkpt>
      <trkpt lat="46.12158" lon="6.19341">
        <ele>731.20001220703</ele>
        <time>2012-11-12T14:01:31.000Z</time>
      </trkpt>
      <trkpt lat="46.12155" lon="6.19343">
        <ele>731.20001220703</ele>
        <time>2012-11-12T14:01:32.000Z</time>
      </trkpt>
      <trkpt lat="46.12148" lon="6.19351">
        <ele>732.20001220703</ele>
        <time>2012-11-12T14:01:35.000Z</time>
      </trkpt>
      <trkpt lat="46.12146" lon="6.19356">
        <ele>732.20001220703</ele>
        <time>2012-11-12T14:01:36.000Z</time>
      </trkpt>
      <trkpt lat="46.12142" lon="6.19371">
        <ele>733.20001220703</ele>
        <time>2012-11-12T14:01:39.000Z</time>
      </trkpt>
      <trkpt lat="46.12141" lon="6.19387">
        <ele>733.20001220703</ele>
        <time>2012-11-12T14:01:42.000Z</time>
      </trkpt>
      <trkpt lat="46.1214" lon="6.19393">
        <ele>734.20001220703</ele>
        <time>2012-11-12T14:01:43.000Z</time>
      </trkpt>
      <trkpt lat="46.1214" lon="6.1941">
        <ele>735.40002441406</ele>
        <time>2012-11-12T14:01:46.000Z</time>
      </trkpt>
      <trkpt lat="46.12139" lon="6.19433">
        <ele>735.40002441406</ele>
        <time>2012-11-12T14:01:50.000Z</time>
      </trkpt>
      <trkpt lat="46.12139" lon="6.19438">
        <ele>736.40002441406</ele>
        <time>2012-11-12T14:01:51.000Z</time>
      </trkpt>
      <trkpt lat="46.12138" lon="6.19461">
        <ele>737.40002441406</ele>
        <time>2012-11-12T14:01:55.000Z</time>
      </trkpt>
      <trkpt lat="46.12137" lon="6.19482">
        <ele>737.40002441406</ele>
        <time>2012-11-12T14:01:59.000Z</time>
      </trkpt>
      <trkpt lat="46.12136" lon="6.19488">
        <ele>738.40002441406</ele>
        <time>2012-11-12T14:02:00.000Z</time>
      </trkpt>
      <trkpt lat="46.12127" lon="6.19512">
        <ele>738.40002441406</ele>
        <time>2012-11-12T14:02:05.000Z</time>
      </trkpt>
      <trkpt lat="46.12124" lon="6.19515">
        <ele>739.40002441406</ele>
        <time>2012-11-12T14:02:06.000Z</time>
      </trkpt>
      <trkpt lat="46.12112" lon="6.1952">
        <ele>739.40002441406</ele>
        <time>2012-11-12T14:02:09.000Z</time>
      </trkpt>
      <trkpt lat="46.12096" lon="6.19516">
        <ele>740.59997558594</ele>
        <time>2012-11-12T14:02:13.000Z</time>
      </trkpt>
      <trkpt lat="46.12092" lon="6.19515">
        <ele>740.59997558594</ele>
        <time>2012-11-12T14:02:14.000Z</time>
      </trkpt>
      <trkpt lat="46.1208" lon="6.1951">
        <ele>741.59997558594</ele>
        <time>2012-11-12T14:02:17.000Z</time>
      </trkpt>
      <trkpt lat="46.12067" lon="6.19506">
        <ele>741.59997558594</ele>
        <time>2012-11-12T14:02:20.000Z</time>
      </trkpt>
      <trkpt lat="46.12063" lon="6.19504">
        <ele>741.59997558594</ele>
        <time>2012-11-12T14:02:21.000Z</time>
      </trkpt>
      <trkpt lat="46.1206" lon="6.19503">
        <ele>742.59997558594</ele>
        <time>2012-11-12T14:02:22.000Z</time>
      </trkpt>
      <trkpt lat="46.12043" lon="6.19494">
        <ele>743.59997558594</ele>
        <time>2012-11-12T14:02:26.000Z</time>
      </trkpt>
      <trkpt lat="46.1204" lon="6.19491">
        <ele>748.20001220703</ele>
        <time>2012-11-12T14:02:27.000Z</time>
      </trkpt>
      <trkpt lat="46.12038" lon="6.1949">
        <ele>748.20001220703</ele>
        <time>2012-11-12T14:02:28.000Z</time>
      </trkpt>
      <trkpt lat="46.12033" lon="6.19486">
        <ele>748.20001220703</ele>
        <time>2012-11-12T14:02:29.000Z</time>
      </trkpt>
      <trkpt lat="46.12029" lon="6.19482">
        <ele>744.40002441406</ele>
        <time>2012-11-12T14:02:30.000Z</time>
      </trkpt>
      <trkpt lat="46.12007" lon="6.19468">
        <ele>744.40002441406</ele>
        <time>2012-11-12T14:02:36.000Z</time>
      </trkpt>
      <trkpt lat="46.11984" lon="6.19469">
        <ele>744.40002441406</ele>
        <time>2012-11-12T14:02:42.000Z</time>
      </trkpt>
      <trkpt lat="46.11977" lon="6.19472">
        <ele>747.59997558594</ele>
        <time>2012-11-12T14:02:44.000Z</time>
      </trkpt>
      <trkpt lat="46.11964" lon="6.19484">
        <ele>747.59997558594</ele>
        <time>2012-11-12T14:02:48.000Z</time>
      </trkpt>
      <trkpt lat="46.11961" lon="6.19487">
        <ele>749</ele>
        <time>2012-11-12T14:02:49.000Z</time>
      </trkpt>
      <trkpt lat="46.11955" lon="6.19494">
        <ele>750.20001220703</ele>
        <time>2012-11-12T14:02:51.000Z</time>
      </trkpt>
      <trkpt lat="46.11944" lon="6.19511">
        <ele>750.20001220703</ele>
        <time>2012-11-12T14:02:55.000Z</time>
      </trkpt>
      <trkpt lat="46.11937" lon="6.19521">
        <ele>751.20001220703</ele>
        <time>2012-11-12T14:02:58.000Z</time>
      </trkpt>
      <trkpt lat="46.11929" lon="6.19535">
        <ele>751.20001220703</ele>
        <time>2012-11-12T14:03:01.000Z</time>
      </trkpt>
      <trkpt lat="46.11924" lon="6.19543">
        <ele>752.40002441406</ele>
        <time>2012-11-12T14:03:03.000Z</time>
      </trkpt>
      <trkpt lat="46.11909" lon="6.19569">
        <ele>753.40002441406</ele>
        <time>2012-11-12T14:03:09.000Z</time>
      </trkpt>
      <trkpt lat="46.11906" lon="6.19573">
        <ele>753.40002441406</ele>
        <time>2012-11-12T14:03:10.000Z</time>
      </trkpt>
      <trkpt lat="46.11901" lon="6.19581">
        <ele>754.40002441406</ele>
        <time>2012-11-12T14:03:12.000Z</time>
      </trkpt>
      <trkpt lat="46.11886" lon="6.19599">
        <ele>754.40002441406</ele>
        <time>2012-11-12T14:03:17.000Z</time>
      </trkpt>
      <trkpt lat="46.11882" lon="6.19602">
        <ele>755.40002441406</ele>
        <time>2012-11-12T14:03:18.000Z</time>
      </trkpt>
      <trkpt lat="46.11874" lon="6.19606">
        <ele>755.40002441406</ele>
        <time>2012-11-12T14:03:20.000Z</time>
      </trkpt>
      <trkpt lat="46.11861" lon="6.19609">
        <ele>755.40002441406</ele>
        <time>2012-11-12T14:03:23.000Z</time>
      </trkpt>
      <trkpt lat="46.11857" lon="6.19609">
        <ele>756.40002441406</ele>
        <time>2012-11-12T14:03:24.000Z</time>
      </trkpt>
      <trkpt lat="46.11849" lon="6.19608">
        <ele>756.40002441406</ele>
        <time>2012-11-12T14:03:26.000Z</time>
      </trkpt>
      <trkpt lat="46.11841" lon="6.19606">
        <ele>757.40002441406</ele>
        <time>2012-11-12T14:03:28.000Z</time>
      </trkpt>
      <trkpt lat="46.11836" lon="6.19604">
        <ele>757.40002441406</ele>
        <time>2012-11-12T14:03:29.000Z</time>
      </trkpt>
      <trkpt lat="46.11825" lon="6.19599">
        <ele>758.40002441406</ele>
        <time>2012-11-12T14:03:32.000Z</time>
      </trkpt>
      <trkpt lat="46.11801" lon="6.19589">
        <ele>759.40002441406</ele>
        <time>2012-11-12T14:03:38.000Z</time>
      </trkpt>
      <trkpt lat="46.11795" lon="6.19585">
        <ele>759.40002441406</ele>
        <time>2012-11-12T14:03:40.000Z</time>
      </trkpt>
      <trkpt lat="46.11768" lon="6.19575">
        <ele>760.59997558594</ele>
        <time>2012-11-12T14:03:46.000Z</time>
      </trkpt>
      <trkpt lat="46.1176" lon="6.19571">
        <ele>760.59997558594</ele>
        <time>2012-11-12T14:03:48.000Z</time>
      </trkpt>
      <trkpt lat="46.11751" lon="6.19568">
        <ele>761.59997558594</ele>
        <time>2012-11-12T14:03:50.000Z</time>
      </trkpt>
      <trkpt lat="46.11739" lon="6.19563">
        <ele>762.59997558594</ele>
        <time>2012-11-12T14:03:53.000Z</time>
      </trkpt>
      <trkpt lat="46.11722" lon="6.19556">
        <ele>762.59997558594</ele>
        <time>2012-11-12T14:03:57.000Z</time>
      </trkpt>
      <trkpt lat="46.11709" lon="6.19551">
        <ele>764</ele>
        <time>2012-11-12T14:04:00.000Z</time>
      </trkpt>
      <trkpt lat="46.11705" lon="6.19548">
        <ele>764</ele>
        <time>2012-11-12T14:04:01.000Z</time>
      </trkpt>
      <trkpt lat="46.11694" lon="6.1954">
        <ele>764</ele>
        <time>2012-11-12T14:04:04.000Z</time>
      </trkpt>
      <trkpt lat="46.1169" lon="6.19537">
        <ele>765</ele>
        <time>2012-11-12T14:04:05.000Z</time>
      </trkpt>
      <trkpt lat="46.1168" lon="6.19528">
        <ele>766.20001220703</ele>
        <time>2012-11-12T14:04:08.000Z</time>
      </trkpt>
      <trkpt lat="46.11671" lon="6.19516">
        <ele>767.40002441406</ele>
        <time>2012-11-12T14:04:11.000Z</time>
      </trkpt>
      <trkpt lat="46.11663" lon="6.19504">
        <ele>768.40002441406</ele>
        <time>2012-11-12T14:04:14.000Z</time>
      </trkpt>
      <trkpt lat="46.11658" lon="6.19497">
        <ele>769.40002441406</ele>
        <time>2012-11-12T14:04:16.000Z</time>
      </trkpt>
      <trkpt lat="46.11656" lon="6.19493">
        <ele>777.59997558594</ele>
        <time>2012-11-12T14:04:17.000Z</time>
      </trkpt>
      <trkpt lat="46.11652" lon="6.19489">
        <ele>770.20001220703</ele>
        <time>2012-11-12T14:04:18.000Z</time>
      </trkpt>
      <trkpt lat="46.11637" lon="6.19467">
        <ele>772.40002441406</ele>
        <time>2012-11-12T14:04:24.000Z</time>
      </trkpt>
      <trkpt lat="46.11631" lon="6.1946">
        <ele>772.40002441406</ele>
        <time>2012-11-12T14:04:26.000Z</time>
      </trkpt>
      <trkpt lat="46.11626" lon="6.19453">
        <ele>773.40002441406</ele>
        <time>2012-11-12T14:04:28.000Z</time>
      </trkpt>
      <trkpt lat="46.11616" lon="6.19438">
        <ele>774.40002441406</ele>
        <time>2012-11-12T14:04:32.000Z</time>
      </trkpt>
      <trkpt lat="46.11608" lon="6.19428">
        <ele>774.40002441406</ele>
        <time>2012-11-12T14:04:35.000Z</time>
      </trkpt>
      <trkpt lat="46.11605" lon="6.19424">
        <ele>775.40002441406</ele>
        <time>2012-11-12T14:04:36.000Z</time>
      </trkpt>
      <trkpt lat="46.11593" lon="6.19412">
        <ele>776.59997558594</ele>
        <time>2012-11-12T14:04:40.000Z</time>
      </trkpt>
      <trkpt lat="46.11586" lon="6.19407">
        <ele>776.59997558594</ele>
        <time>2012-11-12T14:04:42.000Z</time>
      </trkpt>
      <trkpt lat="46.11579" lon="6.19402">
        <ele>777.59997558594</ele>
        <time>2012-11-12T14:04:44.000Z</time>
      </trkpt>
      <trkpt lat="46.11565" lon="6.19394">
        <ele>779</ele>
        <time>2012-11-12T14:04:48.000Z</time>
      </trkpt>
      <trkpt lat="46.11558" lon="6.19391">
        <ele>779</ele>
        <time>2012-11-12T14:04:50.000Z</time>
      </trkpt>
      <trkpt lat="46.11554" lon="6.19389">
        <ele>780</ele>
        <time>2012-11-12T14:04:51.000Z</time>
      </trkpt>
      <trkpt lat="46.1154" lon="6.19382">
        <ele>781.20001220703</ele>
        <time>2012-11-12T14:04:55.000Z</time>
      </trkpt>
      <trkpt lat="46.1153" lon="6.19377">
        <ele>781.20001220703</ele>
        <time>2012-11-12T14:04:58.000Z</time>
      </trkpt>
      <trkpt lat="46.11526" lon="6.19375">
        <ele>782.40002441406</ele>
        <time>2012-11-12T14:04:59.000Z</time>
      </trkpt>
      <trkpt lat="46.11516" lon="6.19369">
        <ele>783.40002441406</ele>
        <time>2012-11-12T14:05:02.000Z</time>
      </trkpt>
      <trkpt lat="46.11509" lon="6.19366">
        <ele>783.40002441406</ele>
        <time>2012-11-12T14:05:04.000Z</time>
      </trkpt>
      <trkpt lat="46.11502" lon="6.19362">
        <ele>784.40002441406</ele>
        <time>2012-11-12T14:05:06.000Z</time>
      </trkpt>
      <trkpt lat="46.11492" lon="6.19359">
        <ele>785.40002441406</ele>
        <time>2012-11-12T14:05:09.000Z</time>
      </trkpt>
      <trkpt lat="46.11478" lon="6.19357">
        <ele>786.59997558594</ele>
        <time>2012-11-12T14:05:13.000Z</time>
      </trkpt>
      <trkpt lat="46.11464" lon="6.19361">
        <ele>787.59997558594</ele>
        <time>2012-11-12T14:05:17.000Z</time>
      </trkpt>
      <trkpt lat="46.11457" lon="6.19363">
        <ele>787.59997558594</ele>
        <time>2012-11-12T14:05:19.000Z</time>
      </trkpt>
      <trkpt lat="46.11454" lon="6.19366">
        <ele>789</ele>
        <time>2012-11-12T14:05:20.000Z</time>
      </trkpt>
      <trkpt lat="46.11444" lon="6.19371">
        <ele>790</ele>
        <time>2012-11-12T14:05:23.000Z</time>
      </trkpt>
      <trkpt lat="46.11438" lon="6.19376">
        <ele>790</ele>
        <time>2012-11-12T14:05:25.000Z</time>
      </trkpt>
      <trkpt lat="46.11431" lon="6.1938">
        <ele>791</ele>
        <time>2012-11-12T14:05:27.000Z</time>
      </trkpt>
      <trkpt lat="46.11417" lon="6.19382">
        <ele>791</ele>
        <time>2012-11-12T14:05:31.000Z</time>
      </trkpt>
      <trkpt lat="46.11412" lon="6.19375">
        <ele>791</ele>
        <time>2012-11-12T14:05:33.000Z</time>
      </trkpt>
      <trkpt lat="46.11411" lon="6.19371">
        <ele>791</ele>
        <time>2012-11-12T14:05:34.000Z</time>
      </trkpt>
      <trkpt lat="46.1141" lon="6.19365">
        <ele>793</ele>
        <time>2012-11-12T14:05:35.000Z</time>
      </trkpt>
      <trkpt lat="46.1141" lon="6.19354">
        <ele>794.20001220703</ele>
        <time>2012-11-12T14:05:37.000Z</time>
      </trkpt>
      <trkpt lat="46.11412" lon="6.1935">
        <ele>794.20001220703</ele>
        <time>2012-11-12T14:05:38.000Z</time>
      </trkpt>
      <trkpt lat="46.11418" lon="6.19346">
        <ele>795.20001220703</ele>
        <time>2012-11-12T14:05:40.000Z</time>
      </trkpt>
      <trkpt lat="46.11423" lon="6.19343">
        <ele>795.20001220703</ele>
        <time>2012-11-12T14:05:42.000Z</time>
      </trkpt>
      <trkpt lat="46.1143" lon="6.1934">
        <ele>786.59997558594</ele>
        <time>2012-11-12T14:05:44.000Z</time>
      </trkpt>
      <trkpt lat="46.11433" lon="6.19339">
        <ele>796.20001220703</ele>
        <time>2012-11-12T14:05:45.000Z</time>
      </trkpt>
      <trkpt lat="46.11436" lon="6.19337">
        <ele>799.20001220703</ele>
        <time>2012-11-12T14:05:46.000Z</time>
      </trkpt>
      <trkpt lat="46.11439" lon="6.19335">
        <ele>793.40002441406</ele>
        <time>2012-11-12T14:05:47.000Z</time>
      </trkpt>
      <trkpt lat="46.11443" lon="6.19334">
        <ele>792.59997558594</ele>
        <time>2012-11-12T14:05:48.000Z</time>
      </trkpt>
      <trkpt lat="46.11462" lon="6.19321">
        <ele>792.59997558594</ele>
        <time>2012-11-12T14:05:54.000Z</time>
      </trkpt>
      <trkpt lat="46.11474" lon="6.19311">
        <ele>795</ele>
        <time>2012-11-12T14:05:58.000Z</time>
      </trkpt>
      <trkpt lat="46.11487" lon="6.193">
        <ele>796</ele>
        <time>2012-11-12T14:06:02.000Z</time>
      </trkpt>
      <trkpt lat="46.11499" lon="6.19288">
        <ele>797.20001220703</ele>
        <time>2012-11-12T14:06:06.000Z</time>
      </trkpt>
      <trkpt lat="46.11508" lon="6.1928">
        <ele>798.20001220703</ele>
        <time>2012-11-12T14:06:09.000Z</time>
      </trkpt>
      <trkpt lat="46.11511" lon="6.19279">
        <ele>798.20001220703</ele>
        <time>2012-11-12T14:06:10.000Z</time>
      </trkpt>
      <trkpt lat="46.11518" lon="6.19276">
        <ele>799.40002441406</ele>
        <time>2012-11-12T14:06:12.000Z</time>
      </trkpt>
      <trkpt lat="46.11531" lon="6.19275">
        <ele>799.40002441406</ele>
        <time>2012-11-12T14:06:16.000Z</time>
      </trkpt>
      <trkpt lat="46.11542" lon="6.19275">
        <ele>800.40002441406</ele>
        <time>2012-11-12T14:06:19.000Z</time>
      </trkpt>
      <trkpt lat="46.11546" lon="6.19278">
        <ele>800.40002441406</ele>
        <time>2012-11-12T14:06:20.000Z</time>
      </trkpt>
      <trkpt lat="46.11552" lon="6.1928">
        <ele>801.59997558594</ele>
        <time>2012-11-12T14:06:22.000Z</time>
      </trkpt>
      <trkpt lat="46.11562" lon="6.19282">
        <ele>803</ele>
        <time>2012-11-12T14:06:25.000Z</time>
      </trkpt>
      <trkpt lat="46.11572" lon="6.19279">
        <ele>804</ele>
        <time>2012-11-12T14:06:28.000Z</time>
      </trkpt>
      <trkpt lat="46.11577" lon="6.19272">
        <ele>804</ele>
        <time>2012-11-12T14:06:30.000Z</time>
      </trkpt>
      <trkpt lat="46.11581" lon="6.19264">
        <ele>805</ele>
        <time>2012-11-12T14:06:32.000Z</time>
      </trkpt>
      <trkpt lat="46.11582" lon="6.19255">
        <ele>805</ele>
        <time>2012-11-12T14:06:34.000Z</time>
      </trkpt>
      <trkpt lat="46.1158" lon="6.19244">
        <ele>806.20001220703</ele>
        <time>2012-11-12T14:06:36.000Z</time>
      </trkpt>
      <trkpt lat="46.11575" lon="6.19237">
        <ele>806.20001220703</ele>
        <time>2012-11-12T14:06:38.000Z</time>
      </trkpt>
      <trkpt lat="46.11572" lon="6.19234">
        <ele>807.40002441406</ele>
        <time>2012-11-12T14:06:39.000Z</time>
      </trkpt>
      <trkpt lat="46.11562" lon="6.1923">
        <ele>808.40002441406</ele>
        <time>2012-11-12T14:06:42.000Z</time>
      </trkpt>
      <trkpt lat="46.11537" lon="6.19229">
        <ele>808.40002441406</ele>
        <time>2012-11-12T14:06:49.000Z</time>
      </trkpt>
      <trkpt lat="46.11527" lon="6.19228">
        <ele>810.40002441406</ele>
        <time>2012-11-12T14:06:52.000Z</time>
      </trkpt>
      <trkpt lat="46.11513" lon="6.19225">
        <ele>810.40002441406</ele>
        <time>2012-11-12T14:06:56.000Z</time>
      </trkpt>
      <trkpt lat="46.1151" lon="6.19225">
        <ele>811.40002441406</ele>
        <time>2012-11-12T14:06:57.000Z</time>
      </trkpt>
      <trkpt lat="46.115" lon="6.19221">
        <ele>812.40002441406</ele>
        <time>2012-11-12T14:07:00.000Z</time>
      </trkpt>
      <trkpt lat="46.11497" lon="6.1922">
        <ele>812.40002441406</ele>
        <time>2012-11-12T14:07:01.000Z</time>
      </trkpt>
      <trkpt lat="46.11493" lon="6.19218">
        <ele>813.59997558594</ele>
        <time>2012-11-12T14:07:02.000Z</time>
      </trkpt>
      <trkpt lat="46.11482" lon="6.19214">
        <ele>813.59997558594</ele>
        <time>2012-11-12T14:07:05.000Z</time>
      </trkpt>
      <trkpt lat="46.11462" lon="6.19206">
        <ele>813.59997558594</ele>
        <time>2012-11-12T14:07:11.000Z</time>
      </trkpt>
      <trkpt lat="46.11459" lon="6.19205">
        <ele>815.59997558594</ele>
        <time>2012-11-12T14:07:12.000Z</time>
      </trkpt>
      <trkpt lat="46.11444" lon="6.19205">
        <ele>816.59997558594</ele>
        <time>2012-11-12T14:07:16.000Z</time>
      </trkpt>
      <trkpt lat="46.11437" lon="6.19204">
        <ele>816.59997558594</ele>
        <time>2012-11-12T14:07:18.000Z</time>
      </trkpt>
      <trkpt lat="46.1143" lon="6.19205">
        <ele>818.20001220703</ele>
        <time>2012-11-12T14:07:20.000Z</time>
      </trkpt>
      <trkpt lat="46.11419" lon="6.19207">
        <ele>819.20001220703</ele>
        <time>2012-11-12T14:07:23.000Z</time>
      </trkpt>
      <trkpt lat="46.11405" lon="6.1921">
        <ele>820.20001220703</ele>
        <time>2012-11-12T14:07:27.000Z</time>
      </trkpt>
      <trkpt lat="46.11394" lon="6.19215">
        <ele>821.20001220703</ele>
        <time>2012-11-12T14:07:30.000Z</time>
      </trkpt>
      <trkpt lat="46.11385" lon="6.19222">
        <ele>821.20001220703</ele>
        <time>2012-11-12T14:07:33.000Z</time>
      </trkpt>
      <trkpt lat="46.11382" lon="6.19225">
        <ele>822.40002441406</ele>
        <time>2012-11-12T14:07:34.000Z</time>
      </trkpt>
      <trkpt lat="46.11372" lon="6.19233">
        <ele>823.40002441406</ele>
        <time>2012-11-12T14:07:37.000Z</time>
      </trkpt>
      <trkpt lat="46.11359" lon="6.19245">
        <ele>824.40002441406</ele>
        <time>2012-11-12T14:07:41.000Z</time>
      </trkpt>
      <trkpt lat="46.11356" lon="6.19246">
        <ele>824.40002441406</ele>
        <time>2012-11-12T14:07:42.000Z</time>
      </trkpt>
      <trkpt lat="46.11349" lon="6.19248">
        <ele>825.40002441406</ele>
        <time>2012-11-12T14:07:44.000Z</time>
      </trkpt>
      <trkpt lat="46.11337" lon="6.19245">
        <ele>826.40002441406</ele>
        <time>2012-11-12T14:07:47.000Z</time>
      </trkpt>
      <trkpt lat="46.11323" lon="6.19227">
        <ele>826.40002441406</ele>
        <time>2012-11-12T14:07:52.000Z</time>
      </trkpt>
      <trkpt lat="46.11321" lon="6.19222">
        <ele>827.59997558594</ele>
        <time>2012-11-12T14:07:53.000Z</time>
      </trkpt>
      <trkpt lat="46.1132" lon="6.19199">
        <ele>827.59997558594</ele>
        <time>2012-11-12T14:07:57.000Z</time>
      </trkpt>
      <trkpt lat="46.11328" lon="6.19177">
        <ele>827.59997558594</ele>
        <time>2012-11-12T14:08:01.000Z</time>
      </trkpt>
      <trkpt lat="46.1134" lon="6.19166">
        <ele>828.59997558594</ele>
        <time>2012-11-12T14:08:04.000Z</time>
      </trkpt>
      <trkpt lat="46.11344" lon="6.19164">
        <ele>828.59997558594</ele>
        <time>2012-11-12T14:08:05.000Z</time>
      </trkpt>
      <trkpt lat="46.11349" lon="6.19161">
        <ele>828.59997558594</ele>
        <time>2012-11-12T14:08:06.000Z</time>
      </trkpt>
      <trkpt lat="46.11389" lon="6.19139">
        <ele>828.59997558594</ele>
        <time>2012-11-12T14:08:15.000Z</time>
      </trkpt>
      <trkpt lat="46.11393" lon="6.19138">
        <ele>829.59997558594</ele>
        <time>2012-11-12T14:08:16.000Z</time>
      </trkpt>
      <trkpt lat="46.11416" lon="6.19126">
        <ele>830.59997558594</ele>
        <time>2012-11-12T14:08:21.000Z</time>
      </trkpt>
      <trkpt lat="46.11419" lon="6.19124">
        <ele>830.59997558594</ele>
        <time>2012-11-12T14:08:22.000Z</time>
      </trkpt>
      <trkpt lat="46.11436" lon="6.19115">
        <ele>831.59997558594</ele>
        <time>2012-11-12T14:08:26.000Z</time>
      </trkpt>
      <trkpt lat="46.11448" lon="6.19107">
        <ele>831.59997558594</ele>
        <time>2012-11-12T14:08:29.000Z</time>
      </trkpt>
      <trkpt lat="46.11452" lon="6.19104">
        <ele>831.59997558594</ele>
        <time>2012-11-12T14:08:30.000Z</time>
      </trkpt>
      <trkpt lat="46.1146" lon="6.19098">
        <ele>833</ele>
        <time>2012-11-12T14:08:32.000Z</time>
      </trkpt>
      <trkpt lat="46.11477" lon="6.19079">
        <ele>833</ele>
        <time>2012-11-12T14:08:37.000Z</time>
      </trkpt>
      <trkpt lat="46.11487" lon="6.19067">
        <ele>835</ele>
        <time>2012-11-12T14:08:40.000Z</time>
      </trkpt>
      <trkpt lat="46.115" lon="6.19055">
        <ele>835</ele>
        <time>2012-11-12T14:08:44.000Z</time>
      </trkpt>
      <trkpt lat="46.11504" lon="6.19051">
        <ele>836.20001220703</ele>
        <time>2012-11-12T14:08:45.000Z</time>
      </trkpt>
      <trkpt lat="46.11513" lon="6.19041">
        <ele>837.20001220703</ele>
        <time>2012-11-12T14:08:48.000Z</time>
      </trkpt>
      <trkpt lat="46.1152" lon="6.19034">
        <ele>837.20001220703</ele>
        <time>2012-11-12T14:08:50.000Z</time>
      </trkpt>
      <trkpt lat="46.11523" lon="6.19031">
        <ele>838.20001220703</ele>
        <time>2012-11-12T14:08:51.000Z</time>
      </trkpt>
      <trkpt lat="46.11529" lon="6.19025">
        <ele>839.20001220703</ele>
        <time>2012-11-12T14:08:53.000Z</time>
      </trkpt>
      <trkpt lat="46.11545" lon="6.19007">
        <ele>840.40002441406</ele>
        <time>2012-11-12T14:08:58.000Z</time>
      </trkpt>
      <trkpt lat="46.11568" lon="6.1898">
        <ele>842.59997558594</ele>
        <time>2012-11-12T14:09:05.000Z</time>
      </trkpt>
      <trkpt lat="46.11571" lon="6.18976">
        <ele>842.59997558594</ele>
        <time>2012-11-12T14:09:06.000Z</time>
      </trkpt>
      <trkpt lat="46.11576" lon="6.18968">
        <ele>844</ele>
        <time>2012-11-12T14:09:08.000Z</time>
      </trkpt>
      <trkpt lat="46.11584" lon="6.18957">
        <ele>845</ele>
        <time>2012-11-12T14:09:11.000Z</time>
      </trkpt>
      <trkpt lat="46.11592" lon="6.18946">
        <ele>846</ele>
        <time>2012-11-12T14:09:14.000Z</time>
      </trkpt>
      <trkpt lat="46.116" lon="6.18934">
        <ele>847</ele>
        <time>2012-11-12T14:09:17.000Z</time>
      </trkpt>
      <trkpt lat="46.11611" lon="6.18919">
        <ele>848.20001220703</ele>
        <time>2012-11-12T14:09:21.000Z</time>
      </trkpt>
      <trkpt lat="46.11617" lon="6.1891">
        <ele>848.20001220703</ele>
        <time>2012-11-12T14:09:24.000Z</time>
      </trkpt>
      <trkpt lat="46.11622" lon="6.18904">
        <ele>849.40002441406</ele>
        <time>2012-11-12T14:09:25.000Z</time>
      </trkpt>
      <trkpt lat="46.1163" lon="6.18892">
        <ele>850.40002441406</ele>
        <time>2012-11-12T14:09:28.000Z</time>
      </trkpt>
      <trkpt lat="46.11634" lon="6.18886">
        <ele>850.40002441406</ele>
        <time>2012-11-12T14:09:30.000Z</time>
      </trkpt>
      <trkpt lat="46.11638" lon="6.1888">
        <ele>851.40002441406</ele>
        <time>2012-11-12T14:09:31.000Z</time>
      </trkpt>
      <trkpt lat="46.11646" lon="6.18869">
        <ele>852.40002441406</ele>
        <time>2012-11-12T14:09:34.000Z</time>
      </trkpt>
      <trkpt lat="46.11656" lon="6.18854">
        <ele>853.40002441406</ele>
        <time>2012-11-12T14:09:38.000Z</time>
      </trkpt>
      <trkpt lat="46.11664" lon="6.18843">
        <ele>854.40002441406</ele>
        <time>2012-11-12T14:09:41.000Z</time>
      </trkpt>
      <trkpt lat="46.11674" lon="6.18822">
        <ele>855.59997558594</ele>
        <time>2012-11-12T14:09:46.000Z</time>
      </trkpt>
      <trkpt lat="46.11676" lon="6.18817">
        <ele>855.59997558594</ele>
        <time>2012-11-12T14:09:47.000Z</time>
      </trkpt>
      <trkpt lat="46.1168" lon="6.18802">
        <ele>857</ele>
        <time>2012-11-12T14:09:50.000Z</time>
      </trkpt>
      <trkpt lat="46.11685" lon="6.18783">
        <ele>858</ele>
        <time>2012-11-12T14:09:54.000Z</time>
      </trkpt>
      <trkpt lat="46.11685" lon="6.18777">
        <ele>858</ele>
        <time>2012-11-12T14:09:55.000Z</time>
      </trkpt>
      <trkpt lat="46.11687" lon="6.18762">
        <ele>859</ele>
        <time>2012-11-12T14:09:58.000Z</time>
      </trkpt>
      <trkpt lat="46.11689" lon="6.18735">
        <ele>860.20001220703</ele>
        <time>2012-11-12T14:10:03.000Z</time>
      </trkpt>
      <trkpt lat="46.11689" lon="6.1873">
        <ele>860.20001220703</ele>
        <time>2012-11-12T14:10:04.000Z</time>
      </trkpt>
      <trkpt lat="46.11689" lon="6.18714">
        <ele>861.20001220703</ele>
        <time>2012-11-12T14:10:07.000Z</time>
      </trkpt>
      <trkpt lat="46.11689" lon="6.18686">
        <ele>861.20001220703</ele>
        <time>2012-11-12T14:10:12.000Z</time>
      </trkpt>
      <trkpt lat="46.11687" lon="6.18674">
        <ele>862.40002441406</ele>
        <time>2012-11-12T14:10:14.000Z</time>
      </trkpt>
      <trkpt lat="46.11681" lon="6.18653">
        <ele>862.40002441406</ele>
        <time>2012-11-12T14:10:18.000Z</time>
      </trkpt>
      <trkpt lat="46.11664" lon="6.18616">
        <ele>862.40002441406</ele>
        <time>2012-11-12T14:10:24.000Z</time>
      </trkpt>
      <trkpt lat="46.11633" lon="6.18559">
        <ele>862.40002441406</ele>
        <time>2012-11-12T14:10:34.000Z</time>
      </trkpt>
      <trkpt lat="46.1163" lon="6.18552">
        <ele>864.40002441406</ele>
        <time>2012-11-12T14:10:35.000Z</time>
      </trkpt>
      <trkpt lat="46.11626" lon="6.18538">
        <ele>864.40002441406</ele>
        <time>2012-11-12T14:10:37.000Z</time>
      </trkpt>
      <trkpt lat="46.11624" lon="6.18524">
        <ele>864.40002441406</ele>
        <time>2012-11-12T14:10:39.000Z</time>
      </trkpt>
      <trkpt lat="46.11624" lon="6.18517">
        <ele>865.40002441406</ele>
        <time>2012-11-12T14:10:40.000Z</time>
      </trkpt>
      <trkpt lat="46.11625" lon="6.18503">
        <ele>865.40002441406</ele>
        <time>2012-11-12T14:10:42.000Z</time>
      </trkpt>
      <trkpt lat="46.11626" lon="6.18487">
        <ele>865.40002441406</ele>
        <time>2012-11-12T14:10:44.000Z</time>
      </trkpt>
      <trkpt lat="46.1163" lon="6.18454">
        <ele>866.40002441406</ele>
        <time>2012-11-12T14:10:49.000Z</time>
      </trkpt>
      <trkpt lat="46.11632" lon="6.18436">
        <ele>866.40002441406</ele>
        <time>2012-11-12T14:10:52.000Z</time>
      </trkpt>
      <trkpt lat="46.11633" lon="6.18428">
        <ele>867.40002441406</ele>
        <time>2012-11-12T14:10:53.000Z</time>
      </trkpt>
      <trkpt lat="46.11634" lon="6.18411">
        <ele>868.40002441406</ele>
        <time>2012-11-12T14:10:56.000Z</time>
      </trkpt>
      <trkpt lat="46.11633" lon="6.18401">
        <ele>871.40002441406</ele>
        <time>2012-11-12T14:10:58.000Z</time>
      </trkpt>
      <trkpt lat="46.11623" lon="6.18371">
        <ele>871.40002441406</ele>
        <time>2012-11-12T14:11:04.000Z</time>
      </trkpt>
      <trkpt lat="46.1162" lon="6.18367">
        <ele>873.40002441406</ele>
        <time>2012-11-12T14:11:05.000Z</time>
      </trkpt>
      <trkpt lat="46.11617" lon="6.18362">
        <ele>873.40002441406</ele>
        <time>2012-11-12T14:11:06.000Z</time>
      </trkpt>
      <trkpt lat="46.1161" lon="6.18356">
        <ele>874.40002441406</ele>
        <time>2012-11-12T14:11:08.000Z</time>
      </trkpt>
      <trkpt lat="46.11598" lon="6.18349">
        <ele>875.59997558594</ele>
        <time>2012-11-12T14:11:11.000Z</time>
      </trkpt>
      <trkpt lat="46.11586" lon="6.18348">
        <ele>876.59997558594</ele>
        <time>2012-11-12T14:11:14.000Z</time>
      </trkpt>
      <trkpt lat="46.11576" lon="6.18352">
        <ele>876.59997558594</ele>
        <time>2012-11-12T14:11:17.000Z</time>
      </trkpt>
      <trkpt lat="46.11571" lon="6.18354">
        <ele>878</ele>
        <time>2012-11-12T14:11:18.000Z</time>
      </trkpt>
      <trkpt lat="46.11563" lon="6.18359">
        <ele>878</ele>
        <time>2012-11-12T14:11:20.000Z</time>
      </trkpt>
      <trkpt lat="46.11529" lon="6.1838">
        <ele>878</ele>
        <time>2012-11-12T14:11:28.000Z</time>
      </trkpt>
      <trkpt lat="46.11496" lon="6.18391">
        <ele>878</ele>
        <time>2012-11-12T14:11:34.000Z</time>
      </trkpt>
      <trkpt lat="46.11452" lon="6.18396">
        <ele>878</ele>
        <time>2012-11-12T14:11:41.000Z</time>
      </trkpt>
      <trkpt lat="46.114" lon="6.18401">
        <ele>875</ele>
        <time>2012-11-12T14:11:48.000Z</time>
      </trkpt>
      <trkpt lat="46.11382" lon="6.18401">
        <ele>873.59997558594</ele>
        <time>2012-11-12T14:11:50.000Z</time>
      </trkpt>
      <trkpt lat="46.11365" lon="6.18398">
        <ele>872.59997558594</ele>
        <time>2012-11-12T14:11:52.000Z</time>
      </trkpt>
      <trkpt lat="46.11354" lon="6.18395">
        <ele>872.59997558594</ele>
        <time>2012-11-12T14:11:53.000Z</time>
      </trkpt>
      <trkpt lat="46.11343" lon="6.18394">
        <ele>871.59997558594</ele>
        <time>2012-11-12T14:11:54.000Z</time>
      </trkpt>
      <trkpt lat="46.11323" lon="6.1839">
        <ele>870.40002441406</ele>
        <time>2012-11-12T14:11:56.000Z</time>
      </trkpt>
      <trkpt lat="46.11302" lon="6.18385">
        <ele>870.40002441406</ele>
        <time>2012-11-12T14:11:58.000Z</time>
      </trkpt>
      <trkpt lat="46.11291" lon="6.18382">
        <ele>869.40002441406</ele>
        <time>2012-11-12T14:11:59.000Z</time>
      </trkpt>
      <trkpt lat="46.11269" lon="6.18377">
        <ele>868.40002441406</ele>
        <time>2012-11-12T14:12:01.000Z</time>
      </trkpt>
      <trkpt lat="46.11245" lon="6.18373">
        <ele>867.40002441406</ele>
        <time>2012-11-12T14:12:03.000Z</time>
      </trkpt>
      <trkpt lat="46.11222" lon="6.18366">
        <ele>865.40002441406</ele>
        <time>2012-11-12T14:12:05.000Z</time>
      </trkpt>
      <trkpt lat="46.1121" lon="6.18361">
        <ele>864.40002441406</ele>
        <time>2012-11-12T14:12:06.000Z</time>
      </trkpt>
      <trkpt lat="46.11188" lon="6.18348">
        <ele>863.20001220703</ele>
        <time>2012-11-12T14:12:08.000Z</time>
      </trkpt>
      <trkpt lat="46.11176" lon="6.18342">
        <ele>862</ele>
        <time>2012-11-12T14:12:09.000Z</time>
      </trkpt>
      <trkpt lat="46.11152" lon="6.18332">
        <ele>860.59997558594</ele>
        <time>2012-11-12T14:12:11.000Z</time>
      </trkpt>
      <trkpt lat="46.11128" lon="6.18325">
        <ele>860.59997558594</ele>
        <time>2012-11-12T14:12:13.000Z</time>
      </trkpt>
      <trkpt lat="46.11116" lon="6.18322">
        <ele>859.59997558594</ele>
        <time>2012-11-12T14:12:14.000Z</time>
      </trkpt>
      <trkpt lat="46.11072" lon="6.18311">
        <ele>859.59997558594</ele>
        <time>2012-11-12T14:12:18.000Z</time>
      </trkpt>
      <trkpt lat="46.11062" lon="6.18306">
        <ele>858.40002441406</ele>
        <time>2012-11-12T14:12:19.000Z</time>
      </trkpt>
      <trkpt lat="46.11051" lon="6.18299">
        <ele>858.40002441406</ele>
        <time>2012-11-12T14:12:20.000Z</time>
      </trkpt>
      <trkpt lat="46.11042" lon="6.18289">
        <ele>857.40002441406</ele>
        <time>2012-11-12T14:12:21.000Z</time>
      </trkpt>
      <trkpt lat="46.1102" lon="6.18254">
        <ele>857.40002441406</ele>
        <time>2012-11-12T14:12:24.000Z</time>
      </trkpt>
      <trkpt lat="46.11013" lon="6.18241">
        <ele>856.20001220703</ele>
        <time>2012-11-12T14:12:25.000Z</time>
      </trkpt>
      <trkpt lat="46.10998" lon="6.18219">
        <ele>855</ele>
        <time>2012-11-12T14:12:27.000Z</time>
      </trkpt>
      <trkpt lat="46.10979" lon="6.18198">
        <ele>853.59997558594</ele>
        <time>2012-11-12T14:12:29.000Z</time>
      </trkpt>
      <trkpt lat="46.10959" lon="6.1818">
        <ele>852.59997558594</ele>
        <time>2012-11-12T14:12:31.000Z</time>
      </trkpt>
      <trkpt lat="46.10938" lon="6.18164">
        <ele>851.40002441406</ele>
        <time>2012-11-12T14:12:33.000Z</time>
      </trkpt>
      <trkpt lat="46.10917" lon="6.18149">
        <ele>850.20001220703</ele>
        <time>2012-11-12T14:12:35.000Z</time>
      </trkpt>
      <trkpt lat="46.10896" lon="6.18138">
        <ele>848.40002441406</ele>
        <time>2012-11-12T14:12:37.000Z</time>
      </trkpt>
      <trkpt lat="46.10885" lon="6.18135">
        <ele>847.40002441406</ele>
        <time>2012-11-12T14:12:38.000Z</time>
      </trkpt>
      <trkpt lat="46.10865" lon="6.18139">
        <ele>846.40002441406</ele>
        <time>2012-11-12T14:12:40.000Z</time>
      </trkpt>
      <trkpt lat="46.10855" lon="6.18146">
        <ele>846.40002441406</ele>
        <time>2012-11-12T14:12:41.000Z</time>
      </trkpt>
      <trkpt lat="46.10838" lon="6.18163">
        <ele>846.40002441406</ele>
        <time>2012-11-12T14:12:43.000Z</time>
      </trkpt>
      <trkpt lat="46.10829" lon="6.18168">
        <ele>845.40002441406</ele>
        <time>2012-11-12T14:12:44.000Z</time>
      </trkpt>
      <trkpt lat="46.108" lon="6.18176">
        <ele>844.40002441406</ele>
        <time>2012-11-12T14:12:47.000Z</time>
      </trkpt>
      <trkpt lat="46.10759" lon="6.1819">
        <ele>844.40002441406</ele>
        <time>2012-11-12T14:12:51.000Z</time>
      </trkpt>
      <trkpt lat="46.10751" lon="6.18195">
        <ele>844.40002441406</ele>
        <time>2012-11-12T14:12:52.000Z</time>
      </trkpt>
      <trkpt lat="46.10721" lon="6.18214">
        <ele>844.40002441406</ele>
        <time>2012-11-12T14:12:56.000Z</time>
      </trkpt>
      <trkpt lat="46.10708" lon="6.18218">
        <ele>844.40002441406</ele>
        <time>2012-11-12T14:12:58.000Z</time>
      </trkpt>
      <trkpt lat="46.10694" lon="6.1822">
        <ele>847.40002441406</ele>
        <time>2012-11-12T14:13:00.000Z</time>
      </trkpt>
      <trkpt lat="46.10687" lon="6.18221">
        <ele>847.40002441406</ele>
        <time>2012-11-12T14:13:01.000Z</time>
      </trkpt>
      <trkpt lat="46.10673" lon="6.18219">
        <ele>848.40002441406</ele>
        <time>2012-11-12T14:13:03.000Z</time>
      </trkpt>
      <trkpt lat="46.10654" lon="6.18215">
        <ele>848.40002441406</ele>
        <time>2012-11-12T14:13:06.000Z</time>
      </trkpt>
      <trkpt lat="46.10617" lon="6.18203">
        <ele>849.40002441406</ele>
        <time>2012-11-12T14:13:12.000Z</time>
      </trkpt>
      <trkpt lat="46.10605" lon="6.18199">
        <ele>849.40002441406</ele>
        <time>2012-11-12T14:13:14.000Z</time>
      </trkpt>
      <trkpt lat="46.10595" lon="6.18196">
        <ele>850.40002441406</ele>
        <time>2012-11-12T14:13:16.000Z</time>
      </trkpt>
      <trkpt lat="46.10579" lon="6.18191">
        <ele>851.59997558594</ele>
        <time>2012-11-12T14:13:19.000Z</time>
      </trkpt>
      <trkpt lat="46.10574" lon="6.18188">
        <ele>851.59997558594</ele>
        <time>2012-11-12T14:13:20.000Z</time>
      </trkpt>
      <trkpt lat="46.10568" lon="6.18185">
        <ele>851.59997558594</ele>
        <time>2012-11-12T14:13:21.000Z</time>
      </trkpt>
      <trkpt lat="46.10558" lon="6.18178">
        <ele>852.59997558594</ele>
        <time>2012-11-12T14:13:23.000Z</time>
      </trkpt>
      <trkpt lat="46.10535" lon="6.18164">
        <ele>852.59997558594</ele>
        <time>2012-11-12T14:13:27.000Z</time>
      </trkpt>
      <trkpt lat="46.10489" lon="6.18125">
        <ele>852.59997558594</ele>
        <time>2012-11-12T14:13:35.000Z</time>
      </trkpt>
      <trkpt lat="46.10442" lon="6.18073">
        <ele>852.59997558594</ele>
        <time>2012-11-12T14:13:43.000Z</time>
      </trkpt>
      <trkpt lat="46.10435" lon="6.18067">
        <ele>852.59997558594</ele>
        <time>2012-11-12T14:13:44.000Z</time>
      </trkpt>
      <trkpt lat="46.10429" lon="6.1806">
        <ele>850.40002441406</ele>
        <time>2012-11-12T14:13:45.000Z</time>
      </trkpt>
      <trkpt lat="46.10396" lon="6.18024">
        <ele>849.40002441406</ele>
        <time>2012-11-12T14:13:50.000Z</time>
      </trkpt>
      <trkpt lat="46.10383" lon="6.1801">
        <ele>849.40002441406</ele>
        <time>2012-11-12T14:13:52.000Z</time>
      </trkpt>
      <trkpt lat="46.10376" lon="6.18002">
        <ele>848.40002441406</ele>
        <time>2012-11-12T14:13:53.000Z</time>
      </trkpt>
      <trkpt lat="46.10369" lon="6.17995">
        <ele>847.40002441406</ele>
        <time>2012-11-12T14:13:54.000Z</time>
      </trkpt>
      <trkpt lat="46.10339" lon="6.17971">
        <ele>847.40002441406</ele>
        <time>2012-11-12T14:13:58.000Z</time>
      </trkpt>
      <trkpt lat="46.1029" lon="6.17952">
        <ele>847.40002441406</ele>
        <time>2012-11-12T14:14:04.000Z</time>
      </trkpt>
      <trkpt lat="46.10281" lon="6.17949">
        <ele>846.20001220703</ele>
        <time>2012-11-12T14:14:05.000Z</time>
      </trkpt>
      <trkpt lat="46.10256" lon="6.1794">
        <ele>845.20001220703</ele>
        <time>2012-11-12T14:14:08.000Z</time>
      </trkpt>
      <trkpt lat="46.10222" lon="6.17925">
        <ele>844.20001220703</ele>
        <time>2012-11-12T14:14:12.000Z</time>
      </trkpt>
      <trkpt lat="46.10212" lon="6.17922">
        <ele>844.20001220703</ele>
        <time>2012-11-12T14:14:13.000Z</time>
      </trkpt>
      <trkpt lat="46.10203" lon="6.17918">
        <ele>843.20001220703</ele>
        <time>2012-11-12T14:14:14.000Z</time>
      </trkpt>
      <trkpt lat="46.10177" lon="6.17903">
        <ele>843.20001220703</ele>
        <time>2012-11-12T14:14:17.000Z</time>
      </trkpt>
      <trkpt lat="46.10169" lon="6.17894">
        <ele>842</ele>
        <time>2012-11-12T14:14:18.000Z</time>
      </trkpt>
      <trkpt lat="46.10144" lon="6.17856">
        <ele>842</ele>
        <time>2012-11-12T14:14:22.000Z</time>
      </trkpt>
      <trkpt lat="46.10136" lon="6.17845">
        <ele>841</ele>
        <time>2012-11-12T14:14:23.000Z</time>
      </trkpt>
      <trkpt lat="46.1013" lon="6.17835">
        <ele>839.59997558594</ele>
        <time>2012-11-12T14:14:24.000Z</time>
      </trkpt>
      <trkpt lat="46.10091" lon="6.17782">
        <ele>839.59997558594</ele>
        <time>2012-11-12T14:14:30.000Z</time>
      </trkpt>
      <trkpt lat="46.10084" lon="6.17774">
        <ele>839.59997558594</ele>
        <time>2012-11-12T14:14:31.000Z</time>
      </trkpt>
      <trkpt lat="46.1006" lon="6.17743">
        <ele>843</ele>
        <time>2012-11-12T14:14:35.000Z</time>
      </trkpt>
      <trkpt lat="46.10044" lon="6.17721">
        <ele>844.20001220703</ele>
        <time>2012-11-12T14:14:38.000Z</time>
      </trkpt>
      <trkpt lat="46.10029" lon="6.17699">
        <ele>845.20001220703</ele>
        <time>2012-11-12T14:14:41.000Z</time>
      </trkpt>
      <trkpt lat="46.10019" lon="6.17685">
        <ele>846.20001220703</ele>
        <time>2012-11-12T14:14:43.000Z</time>
      </trkpt>
      <trkpt lat="46.1001" lon="6.17671">
        <ele>847.40002441406</ele>
        <time>2012-11-12T14:14:45.000Z</time>
      </trkpt>
      <trkpt lat="46.09987" lon="6.17636">
        <ele>848.40002441406</ele>
        <time>2012-11-12T14:14:50.000Z</time>
      </trkpt>
      <trkpt lat="46.09983" lon="6.17629">
        <ele>849.59997558594</ele>
        <time>2012-11-12T14:14:51.000Z</time>
      </trkpt>
      <trkpt lat="46.09978" lon="6.17623">
        <ele>849.59997558594</ele>
        <time>2012-11-12T14:14:52.000Z</time>
      </trkpt>
      <trkpt lat="46.09969" lon="6.17608">
        <ele>850.59997558594</ele>
        <time>2012-11-12T14:14:54.000Z</time>
      </trkpt>
      <trkpt lat="46.0995" lon="6.1758">
        <ele>850.59997558594</ele>
        <time>2012-11-12T14:14:58.000Z</time>
      </trkpt>
      <trkpt lat="46.09941" lon="6.17565">
        <ele>852</ele>
        <time>2012-11-12T14:15:00.000Z</time>
      </trkpt>
      <trkpt lat="46.09918" lon="6.17532">
        <ele>853.20001220703</ele>
        <time>2012-11-12T14:15:05.000Z</time>
      </trkpt>
      <trkpt lat="46.09885" lon="6.17486">
        <ele>853.20001220703</ele>
        <time>2012-11-12T14:15:12.000Z</time>
      </trkpt>
      <trkpt lat="46.09876" lon="6.17473">
        <ele>854.20001220703</ele>
        <time>2012-11-12T14:15:14.000Z</time>
      </trkpt>
      <trkpt lat="46.09858" lon="6.17449">
        <ele>855.40002441406</ele>
        <time>2012-11-12T14:15:18.000Z</time>
      </trkpt>
      <trkpt lat="46.09845" lon="6.17431">
        <ele>855.40002441406</ele>
        <time>2012-11-12T14:15:21.000Z</time>
      </trkpt>
      <trkpt lat="46.09838" lon="6.17418">
        <ele>856.40002441406</ele>
        <time>2012-11-12T14:15:23.000Z</time>
      </trkpt>
      <trkpt lat="46.09819" lon="6.17385">
        <ele>856.40002441406</ele>
        <time>2012-11-12T14:15:28.000Z</time>
      </trkpt>
      <trkpt lat="46.098" lon="6.1735">
        <ele>857.40002441406</ele>
        <time>2012-11-12T14:15:33.000Z</time>
      </trkpt>
      <trkpt lat="46.0979" lon="6.17331">
        <ele>857.40002441406</ele>
        <time>2012-11-12T14:15:36.000Z</time>
      </trkpt>
      <trkpt lat="46.09775" lon="6.17304">
        <ele>858.40002441406</ele>
        <time>2012-11-12T14:15:40.000Z</time>
      </trkpt>
      <trkpt lat="46.09763" lon="6.17283">
        <ele>858.40002441406</ele>
        <time>2012-11-12T14:15:43.000Z</time>
      </trkpt>
      <trkpt lat="46.09739" lon="6.17231">
        <ele>858.40002441406</ele>
        <time>2012-11-12T14:15:50.000Z</time>
      </trkpt>
      <trkpt lat="46.0972" lon="6.17176">
        <ele>858.40002441406</ele>
        <time>2012-11-12T14:15:56.000Z</time>
      </trkpt>
      <trkpt lat="46.09694" lon="6.17122">
        <ele>858.40002441406</ele>
        <time>2012-11-12T14:16:02.000Z</time>
      </trkpt>
      <trkpt lat="46.09659" lon="6.1707">
        <ele>858.40002441406</ele>
        <time>2012-11-12T14:16:09.000Z</time>
      </trkpt>
      <trkpt lat="46.09648" lon="6.17054">
        <ele>855.40002441406</ele>
        <time>2012-11-12T14:16:11.000Z</time>
      </trkpt>
      <trkpt lat="46.09623" lon="6.17028">
        <ele>854.20001220703</ele>
        <time>2012-11-12T14:16:15.000Z</time>
      </trkpt>
      <trkpt lat="46.09599" lon="6.17017">
        <ele>853.20001220703</ele>
        <time>2012-11-12T14:16:18.000Z</time>
      </trkpt>
      <trkpt lat="46.0959" lon="6.17013">
        <ele>853.20001220703</ele>
        <time>2012-11-12T14:16:19.000Z</time>
      </trkpt>
      <trkpt lat="46.09558" lon="6.16994">
        <ele>851.59997558594</ele>
        <time>2012-11-12T14:16:23.000Z</time>
      </trkpt>
      <trkpt lat="46.0955" lon="6.16987">
        <ele>850.59997558594</ele>
        <time>2012-11-12T14:16:24.000Z</time>
      </trkpt>
      <trkpt lat="46.0951" lon="6.16955">
        <ele>849.59997558594</ele>
        <time>2012-11-12T14:16:29.000Z</time>
      </trkpt>
      <trkpt lat="46.09478" lon="6.16929">
        <ele>849.59997558594</ele>
        <time>2012-11-12T14:16:33.000Z</time>
      </trkpt>
      <trkpt lat="46.09462" lon="6.16916">
        <ele>849.59997558594</ele>
        <time>2012-11-12T14:16:35.000Z</time>
      </trkpt>
      <trkpt lat="46.09417" lon="6.1688">
        <ele>849.59997558594</ele>
        <time>2012-11-12T14:16:41.000Z</time>
      </trkpt>
      <trkpt lat="46.09388" lon="6.16856">
        <ele>848.59997558594</ele>
        <time>2012-11-12T14:16:45.000Z</time>
      </trkpt>
      <trkpt lat="46.09359" lon="6.16825">
        <ele>848.59997558594</ele>
        <time>2012-11-12T14:16:49.000Z</time>
      </trkpt>
      <trkpt lat="46.09353" lon="6.16815">
        <ele>847.40002441406</ele>
        <time>2012-11-12T14:16:50.000Z</time>
      </trkpt>
      <trkpt lat="46.09342" lon="6.16796">
        <ele>846.40002441406</ele>
        <time>2012-11-12T14:16:52.000Z</time>
      </trkpt>
      <trkpt lat="46.09329" lon="6.16774">
        <ele>845.40002441406</ele>
        <time>2012-11-12T14:16:54.000Z</time>
      </trkpt>
      <trkpt lat="46.09315" lon="6.16755">
        <ele>845.40002441406</ele>
        <time>2012-11-12T14:16:56.000Z</time>
      </trkpt>
      <trkpt lat="46.09307" lon="6.16748">
        <ele>844.20001220703</ele>
        <time>2012-11-12T14:16:57.000Z</time>
      </trkpt>
      <trkpt lat="46.09299" lon="6.16742">
        <ele>844.20001220703</ele>
        <time>2012-11-12T14:16:58.000Z</time>
      </trkpt>
      <trkpt lat="46.09288" lon="6.16737">
        <ele>843.20001220703</ele>
        <time>2012-11-12T14:16:59.000Z</time>
      </trkpt>
      <trkpt lat="46.09278" lon="6.16732">
        <ele>843.20001220703</ele>
        <time>2012-11-12T14:17:00.000Z</time>
      </trkpt>
      <trkpt lat="46.09268" lon="6.16727">
        <ele>842.20001220703</ele>
        <time>2012-11-12T14:17:01.000Z</time>
      </trkpt>
      <trkpt lat="46.0926" lon="6.16723">
        <ele>842.20001220703</ele>
        <time>2012-11-12T14:17:02.000Z</time>
      </trkpt>
      <trkpt lat="46.0921" lon="6.16696">
        <ele>841</ele>
        <time>2012-11-12T14:17:07.000Z</time>
      </trkpt>
      <trkpt lat="46.09201" lon="6.16689">
        <ele>841</ele>
        <time>2012-11-12T14:17:08.000Z</time>
      </trkpt>
      <trkpt lat="46.09192" lon="6.16681">
        <ele>839.59997558594</ele>
        <time>2012-11-12T14:17:09.000Z</time>
      </trkpt>
      <trkpt lat="46.09172" lon="6.16668">
        <ele>838.59997558594</ele>
        <time>2012-11-12T14:17:11.000Z</time>
      </trkpt>
      <trkpt lat="46.09163" lon="6.16665">
        <ele>838.59997558594</ele>
        <time>2012-11-12T14:17:12.000Z</time>
      </trkpt>
      <trkpt lat="46.09141" lon="6.16658">
        <ele>837.40002441406</ele>
        <time>2012-11-12T14:17:14.000Z</time>
      </trkpt>
      <trkpt lat="46.0912" lon="6.16652">
        <ele>836.40002441406</ele>
        <time>2012-11-12T14:17:16.000Z</time>
      </trkpt>
      <trkpt lat="46.0911" lon="6.16649">
        <ele>836.40002441406</ele>
        <time>2012-11-12T14:17:17.000Z</time>
      </trkpt>
      <trkpt lat="46.0905" lon="6.16633">
        <ele>836.40002441406</ele>
        <time>2012-11-12T14:17:23.000Z</time>
      </trkpt>
      <trkpt lat="46.09041" lon="6.1663">
        <ele>836.40002441406</ele>
        <time>2012-11-12T14:17:24.000Z</time>
      </trkpt>
      <trkpt lat="46.09025" lon="6.16625">
        <ele>840</ele>
        <time>2012-11-12T14:17:26.000Z</time>
      </trkpt>
      <trkpt lat="46.09003" lon="6.16624">
        <ele>840</ele>
        <time>2012-11-12T14:17:29.000Z</time>
      </trkpt>
      <trkpt lat="46.08996" lon="6.16625">
        <ele>841</ele>
        <time>2012-11-12T14:17:30.000Z</time>
      </trkpt>
      <trkpt lat="46.08982" lon="6.16626">
        <ele>842</ele>
        <time>2012-11-12T14:17:32.000Z</time>
      </trkpt>
      <trkpt lat="46.08931" lon="6.16631">
        <ele>842</ele>
        <time>2012-11-12T14:17:39.000Z</time>
      </trkpt>
      <trkpt lat="46.0889" lon="6.1663">
        <ele>843.20001220703</ele>
        <time>2012-11-12T14:17:45.000Z</time>
      </trkpt>
      <trkpt lat="46.08885" lon="6.16619">
        <ele>843.20001220703</ele>
        <time>2012-11-12T14:17:48.000Z</time>
      </trkpt>
      <trkpt lat="46.08883" lon="6.16615">
        <ele>843.20001220703</ele>
        <time>2012-11-12T14:17:52.000Z</time>
      </trkpt>
      <trkpt lat="46.08883" lon="6.16615">
        <ele>843.20001220703</ele>
        <time>2012-11-12T14:18:00.000Z</time>
      </trkpt>
      <trkpt lat="46.08883" lon="6.16613">
        <ele>843.20001220703</ele>
        <time>2012-11-12T14:18:08.000Z</time>
      </trkpt>
      <trkpt lat="46.08881" lon="6.16613">
        <ele>843.20001220703</ele>
        <time>2012-11-12T14:18:09.000Z</time>
      </trkpt>
      <trkpt lat="46.08877" lon="6.16613">
        <ele>843.20001220703</ele>
        <time>2012-11-12T14:18:12.000Z</time>
      </trkpt>
      <trkpt lat="46.08866" lon="6.16603">
        <ele>843.20001220703</ele>
        <time>2012-11-12T14:18:16.000Z</time>
      </trkpt>
      <trkpt lat="46.08863" lon="6.16598">
        <ele>843.20001220703</ele>
        <time>2012-11-12T14:18:17.000Z</time>
      </trkpt>
      <trkpt lat="46.08853" lon="6.16582">
        <ele>843.20001220703</ele>
        <time>2012-11-12T14:18:20.000Z</time>
      </trkpt>
      <trkpt lat="46.08851" lon="6.16575">
        <ele>844.20001220703</ele>
        <time>2012-11-12T14:18:21.000Z</time>
      </trkpt>
      <trkpt lat="46.08838" lon="6.16555">
        <ele>844.20001220703</ele>
        <time>2012-11-12T14:18:25.000Z</time>
      </trkpt>
      <trkpt lat="46.08833" lon="6.16549">
        <ele>844.20001220703</ele>
        <time>2012-11-12T14:18:26.000Z</time>
      </trkpt>
      <trkpt lat="46.08803" lon="6.16521">
        <ele>844.20001220703</ele>
        <time>2012-11-12T14:18:31.000Z</time>
      </trkpt>
      <trkpt lat="46.08788" lon="6.16508">
        <ele>841.59997558594</ele>
        <time>2012-11-12T14:18:33.000Z</time>
      </trkpt>
      <trkpt lat="46.08771" lon="6.16495">
        <ele>840.40002441406</ele>
        <time>2012-11-12T14:18:35.000Z</time>
      </trkpt>
      <trkpt lat="46.08762" lon="6.16488">
        <ele>840.40002441406</ele>
        <time>2012-11-12T14:18:36.000Z</time>
      </trkpt>
      <trkpt lat="46.08755" lon="6.16482">
        <ele>838.59997558594</ele>
        <time>2012-11-12T14:18:37.000Z</time>
      </trkpt>
      <trkpt lat="46.08744" lon="6.16473">
        <ele>837.40002441406</ele>
        <time>2012-11-12T14:18:38.000Z</time>
      </trkpt>
      <trkpt lat="46.08725" lon="6.16459">
        <ele>836.20001220703</ele>
        <time>2012-11-12T14:18:40.000Z</time>
      </trkpt>
      <trkpt lat="46.08714" lon="6.16451">
        <ele>835.20001220703</ele>
        <time>2012-11-12T14:18:41.000Z</time>
      </trkpt>
      <trkpt lat="46.08704" lon="6.16443">
        <ele>834.20001220703</ele>
        <time>2012-11-12T14:18:42.000Z</time>
      </trkpt>
      <trkpt lat="46.08692" lon="6.16435">
        <ele>833.20001220703</ele>
        <time>2012-11-12T14:18:43.000Z</time>
      </trkpt>
      <trkpt lat="46.08681" lon="6.16426">
        <ele>832.20001220703</ele>
        <time>2012-11-12T14:18:44.000Z</time>
      </trkpt>
      <trkpt lat="46.08669" lon="6.16417">
        <ele>831</ele>
        <time>2012-11-12T14:18:45.000Z</time>
      </trkpt>
      <trkpt lat="46.08659" lon="6.16408">
        <ele>829.59997558594</ele>
        <time>2012-11-12T14:18:46.000Z</time>
      </trkpt>
      <trkpt lat="46.08647" lon="6.16398">
        <ele>828.40002441406</ele>
        <time>2012-11-12T14:18:47.000Z</time>
      </trkpt>
      <trkpt lat="46.08636" lon="6.16385">
        <ele>827.20001220703</ele>
        <time>2012-11-12T14:18:48.000Z</time>
      </trkpt>
      <trkpt lat="46.08625" lon="6.16371">
        <ele>825.59997558594</ele>
        <time>2012-11-12T14:18:49.000Z</time>
      </trkpt>
      <trkpt lat="46.08615" lon="6.16357">
        <ele>824.40002441406</ele>
        <time>2012-11-12T14:18:50.000Z</time>
      </trkpt>
      <trkpt lat="46.08606" lon="6.16341">
        <ele>822.59997558594</ele>
        <time>2012-11-12T14:18:51.000Z</time>
      </trkpt>
      <trkpt lat="46.08597" lon="6.16326">
        <ele>821.40002441406</ele>
        <time>2012-11-12T14:18:52.000Z</time>
      </trkpt>
      <trkpt lat="46.08588" lon="6.16307">
        <ele>819.59997558594</ele>
        <time>2012-11-12T14:18:53.000Z</time>
      </trkpt>
      <trkpt lat="46.0858" lon="6.1629">
        <ele>818.40002441406</ele>
        <time>2012-11-12T14:18:54.000Z</time>
      </trkpt>
      <trkpt lat="46.08571" lon="6.16273">
        <ele>817</ele>
        <time>2012-11-12T14:18:55.000Z</time>
      </trkpt>
      <trkpt lat="46.08562" lon="6.16253">
        <ele>815.40002441406</ele>
        <time>2012-11-12T14:18:56.000Z</time>
      </trkpt>
      <trkpt lat="46.08554" lon="6.16235">
        <ele>814</ele>
        <time>2012-11-12T14:18:57.000Z</time>
      </trkpt>
      <trkpt lat="46.08546" lon="6.16217">
        <ele>812.40002441406</ele>
        <time>2012-11-12T14:18:58.000Z</time>
      </trkpt>
      <trkpt lat="46.08537" lon="6.16196">
        <ele>810.59997558594</ele>
        <time>2012-11-12T14:18:59.000Z</time>
      </trkpt>
      <trkpt lat="46.08529" lon="6.16178">
        <ele>809.40002441406</ele>
        <time>2012-11-12T14:19:00.000Z</time>
      </trkpt>
      <trkpt lat="46.08521" lon="6.16158">
        <ele>808</ele>
        <time>2012-11-12T14:19:01.000Z</time>
      </trkpt>
      <trkpt lat="46.08514" lon="6.1614">
        <ele>806.59997558594</ele>
        <time>2012-11-12T14:19:02.000Z</time>
      </trkpt>
      <trkpt lat="46.08505" lon="6.1612">
        <ele>805.40002441406</ele>
        <time>2012-11-12T14:19:03.000Z</time>
      </trkpt>
      <trkpt lat="46.08498" lon="6.16103">
        <ele>804.20001220703</ele>
        <time>2012-11-12T14:19:04.000Z</time>
      </trkpt>
      <trkpt lat="46.08489" lon="6.16082">
        <ele>803.20001220703</ele>
        <time>2012-11-12T14:19:05.000Z</time>
      </trkpt>
      <trkpt lat="46.0848" lon="6.16063">
        <ele>802.20001220703</ele>
        <time>2012-11-12T14:19:06.000Z</time>
      </trkpt>
      <trkpt lat="46.08472" lon="6.16047">
        <ele>801</ele>
        <time>2012-11-12T14:19:07.000Z</time>
      </trkpt>
      <trkpt lat="46.08462" lon="6.16028">
        <ele>800</ele>
        <time>2012-11-12T14:19:08.000Z</time>
      </trkpt>
      <trkpt lat="46.08452" lon="6.16013">
        <ele>800</ele>
        <time>2012-11-12T14:19:09.000Z</time>
      </trkpt>
      <trkpt lat="46.08444" lon="6.16003">
        <ele>798.40002441406</ele>
        <time>2012-11-12T14:19:10.000Z</time>
      </trkpt>
      <trkpt lat="46.08433" lon="6.15987">
        <ele>797.40002441406</ele>
        <time>2012-11-12T14:19:11.000Z</time>
      </trkpt>
      <trkpt lat="46.08424" lon="6.15975">
        <ele>796.20001220703</ele>
        <time>2012-11-12T14:19:12.000Z</time>
      </trkpt>
      <trkpt lat="46.08412" lon="6.15962">
        <ele>794.59997558594</ele>
        <time>2012-11-12T14:19:13.000Z</time>
      </trkpt>
      <trkpt lat="46.08402" lon="6.15952">
        <ele>793.59997558594</ele>
        <time>2012-11-12T14:19:14.000Z</time>
      </trkpt>
      <trkpt lat="46.08391" lon="6.15941">
        <ele>792.40002441406</ele>
        <time>2012-11-12T14:19:15.000Z</time>
      </trkpt>
      <trkpt lat="46.08377" lon="6.15923">
        <ele>791.20001220703</ele>
        <time>2012-11-12T14:19:17.000Z</time>
      </trkpt>
      <trkpt lat="46.08363" lon="6.15909">
        <ele>790</ele>
        <time>2012-11-12T14:19:19.000Z</time>
      </trkpt>
      <trkpt lat="46.08355" lon="6.15905">
        <ele>790</ele>
        <time>2012-11-12T14:19:20.000Z</time>
      </trkpt>
      <trkpt lat="46.08347" lon="6.159">
        <ele>789</ele>
        <time>2012-11-12T14:19:21.000Z</time>
      </trkpt>
      <trkpt lat="46.0834" lon="6.15894">
        <ele>789</ele>
        <time>2012-11-12T14:19:22.000Z</time>
      </trkpt>
      <trkpt lat="46.08326" lon="6.15877">
        <ele>789</ele>
        <time>2012-11-12T14:19:24.000Z</time>
      </trkpt>
      <trkpt lat="46.08307" lon="6.15854">
        <ele>789</ele>
        <time>2012-11-12T14:19:27.000Z</time>
      </trkpt>
      <trkpt lat="46.08302" lon="6.15844">
        <ele>789</ele>
        <time>2012-11-12T14:19:28.000Z</time>
      </trkpt>
      <trkpt lat="46.08291" lon="6.1581">
        <ele>789</ele>
        <time>2012-11-12T14:19:31.000Z</time>
      </trkpt>
      <trkpt lat="46.08287" lon="6.15801">
        <ele>789</ele>
        <time>2012-11-12T14:19:32.000Z</time>
      </trkpt>
      <trkpt lat="46.08275" lon="6.15784">
        <ele>789</ele>
        <time>2012-11-12T14:19:34.000Z</time>
      </trkpt>
      <trkpt lat="46.08261" lon="6.1577">
        <ele>789</ele>
        <time>2012-11-12T14:19:36.000Z</time>
      </trkpt>
      <trkpt lat="46.08243" lon="6.15745">
        <ele>789</ele>
        <time>2012-11-12T14:19:39.000Z</time>
      </trkpt>
      <trkpt lat="46.08234" lon="6.15712">
        <ele>789</ele>
        <time>2012-11-12T14:19:42.000Z</time>
      </trkpt>
      <trkpt lat="46.08212" lon="6.15634">
        <ele>789</ele>
        <time>2012-11-12T14:19:49.000Z</time>
      </trkpt>
      <trkpt lat="46.08208" lon="6.15624">
        <ele>789</ele>
        <time>2012-11-12T14:19:50.000Z</time>
      </trkpt>
      <trkpt lat="46.08203" lon="6.15615">
        <ele>789</ele>
        <time>2012-11-12T14:19:51.000Z</time>
      </trkpt>
      <trkpt lat="46.08182" lon="6.15598">
        <ele>789</ele>
        <time>2012-11-12T14:19:54.000Z</time>
      </trkpt>
      <trkpt lat="46.08166" lon="6.15591">
        <ele>789</ele>
        <time>2012-11-12T14:19:56.000Z</time>
      </trkpt>
      <trkpt lat="46.08136" lon="6.15579">
        <ele>789</ele>
        <time>2012-11-12T14:20:00.000Z</time>
      </trkpt>
      <trkpt lat="46.08128" lon="6.15579">
        <ele>789</ele>
        <time>2012-11-12T14:20:01.000Z</time>
      </trkpt>
      <trkpt lat="46.08106" lon="6.15582">
        <ele>789</ele>
        <time>2012-11-12T14:20:04.000Z</time>
      </trkpt>
      <trkpt lat="46.08091" lon="6.15587">
        <ele>789</ele>
        <time>2012-11-12T14:20:06.000Z</time>
      </trkpt>
      <trkpt lat="46.08084" lon="6.1559">
        <ele>791.20001220703</ele>
        <time>2012-11-12T14:20:07.000Z</time>
      </trkpt>
      <trkpt lat="46.08069" lon="6.15594">
        <ele>792.20001220703</ele>
        <time>2012-11-12T14:20:09.000Z</time>
      </trkpt>
      <trkpt lat="46.08047" lon="6.15598">
        <ele>793.20001220703</ele>
        <time>2012-11-12T14:20:12.000Z</time>
      </trkpt>
      <trkpt lat="46.08032" lon="6.15597">
        <ele>793.20001220703</ele>
        <time>2012-11-12T14:20:14.000Z</time>
      </trkpt>
      <trkpt lat="46.08025" lon="6.15596">
        <ele>794.20001220703</ele>
        <time>2012-11-12T14:20:15.000Z</time>
      </trkpt>
      <trkpt lat="46.08004" lon="6.15589">
        <ele>794.20001220703</ele>
        <time>2012-11-12T14:20:18.000Z</time>
      </trkpt>
      <trkpt lat="46.0799" lon="6.15581">
        <ele>795.20001220703</ele>
        <time>2012-11-12T14:20:20.000Z</time>
      </trkpt>
      <trkpt lat="46.07984" lon="6.15575">
        <ele>795.20001220703</ele>
        <time>2012-11-12T14:20:21.000Z</time>
      </trkpt>
      <trkpt lat="46.07972" lon="6.15565">
        <ele>795.20001220703</ele>
        <time>2012-11-12T14:20:23.000Z</time>
      </trkpt>
      <trkpt lat="46.07967" lon="6.1556">
        <ele>796.20001220703</ele>
        <time>2012-11-12T14:20:24.000Z</time>
      </trkpt>
      <trkpt lat="46.07939" lon="6.15537">
        <ele>797.20001220703</ele>
        <time>2012-11-12T14:20:29.000Z</time>
      </trkpt>
      <trkpt lat="46.07926" lon="6.1553">
        <ele>798.40002441406</ele>
        <time>2012-11-12T14:20:31.000Z</time>
      </trkpt>
      <trkpt lat="46.07886" lon="6.15518">
        <ele>798.40002441406</ele>
        <time>2012-11-12T14:20:37.000Z</time>
      </trkpt>
      <trkpt lat="46.07831" lon="6.15511">
        <ele>798.40002441406</ele>
        <time>2012-11-12T14:20:45.000Z</time>
      </trkpt>
      <trkpt lat="46.07825" lon="6.1551">
        <ele>799.40002441406</ele>
        <time>2012-11-12T14:20:46.000Z</time>
      </trkpt>
      <trkpt lat="46.07769" lon="6.15499">
        <ele>799.40002441406</ele>
        <time>2012-11-12T14:20:54.000Z</time>
      </trkpt>
      <trkpt lat="46.07763" lon="6.15496">
        <ele>799.40002441406</ele>
        <time>2012-11-12T14:20:55.000Z</time>
      </trkpt>
      <trkpt lat="46.07735" lon="6.15483">
        <ele>800.40002441406</ele>
        <time>2012-11-12T14:20:59.000Z</time>
      </trkpt>
      <trkpt lat="46.07702" lon="6.15467">
        <ele>800.40002441406</ele>
        <time>2012-11-12T14:21:04.000Z</time>
      </trkpt>
      <trkpt lat="46.07656" lon="6.1544">
        <ele>801.59997558594</ele>
        <time>2012-11-12T14:21:11.000Z</time>
      </trkpt>
      <trkpt lat="46.07644" lon="6.1543">
        <ele>801.59997558594</ele>
        <time>2012-11-12T14:21:13.000Z</time>
      </trkpt>
      <trkpt lat="46.07612" lon="6.15393">
        <ele>801.59997558594</ele>
        <time>2012-11-12T14:21:19.000Z</time>
      </trkpt>
      <trkpt lat="46.07597" lon="6.15371">
        <ele>802.59997558594</ele>
        <time>2012-11-12T14:21:22.000Z</time>
      </trkpt>
      <trkpt lat="46.07577" lon="6.15339">
        <ele>803.59997558594</ele>
        <time>2012-11-12T14:21:26.000Z</time>
      </trkpt>
      <trkpt lat="46.07573" lon="6.15332">
        <ele>803.59997558594</ele>
        <time>2012-11-12T14:21:27.000Z</time>
      </trkpt>
      <trkpt lat="46.07545" lon="6.15267">
        <ele>803.59997558594</ele>
        <time>2012-11-12T14:21:34.000Z</time>
      </trkpt>
      <trkpt lat="46.07519" lon="6.15194">
        <ele>803.59997558594</ele>
        <time>2012-11-12T14:21:41.000Z</time>
      </trkpt>
      <trkpt lat="46.07515" lon="6.15184">
        <ele>803.59997558594</ele>
        <time>2012-11-12T14:21:42.000Z</time>
      </trkpt>
      <trkpt lat="46.07494" lon="6.15117">
        <ele>803.59997558594</ele>
        <time>2012-11-12T14:21:48.000Z</time>
      </trkpt>
      <trkpt lat="46.07493" lon="6.15105">
        <ele>803.59997558594</ele>
        <time>2012-11-12T14:21:49.000Z</time>
      </trkpt>
      <trkpt lat="46.07492" lon="6.1508">
        <ele>804.59997558594</ele>
        <time>2012-11-12T14:21:51.000Z</time>
      </trkpt>
      <trkpt lat="46.07494" lon="6.15056">
        <ele>804.59997558594</ele>
        <time>2012-11-12T14:21:53.000Z</time>
      </trkpt>
      <trkpt lat="46.07495" lon="6.15044">
        <ele>804.59997558594</ele>
        <time>2012-11-12T14:21:54.000Z</time>
      </trkpt>
      <trkpt lat="46.07495" lon="6.15008">
        <ele>804.59997558594</ele>
        <time>2012-11-12T14:21:57.000Z</time>
      </trkpt>
      <trkpt lat="46.07493" lon="6.14997">
        <ele>804.59997558594</ele>
        <time>2012-11-12T14:21:58.000Z</time>
      </trkpt>
      <trkpt lat="46.0748" lon="6.14927">
        <ele>804.59997558594</ele>
        <time>2012-11-12T14:22:04.000Z</time>
      </trkpt>
      <trkpt lat="46.07473" lon="6.14869">
        <ele>804.59997558594</ele>
        <time>2012-11-12T14:22:09.000Z</time>
      </trkpt>
      <trkpt lat="46.07475" lon="6.14858">
        <ele>804.59997558594</ele>
        <time>2012-11-12T14:22:10.000Z</time>
      </trkpt>
      <trkpt lat="46.07485" lon="6.14826">
        <ele>804.59997558594</ele>
        <time>2012-11-12T14:22:13.000Z</time>
      </trkpt>
      <trkpt lat="46.07511" lon="6.14752">
        <ele>804.59997558594</ele>
        <time>2012-11-12T14:22:20.000Z</time>
      </trkpt>
      <trkpt lat="46.07517" lon="6.14732">
        <ele>804.59997558594</ele>
        <time>2012-11-12T14:22:22.000Z</time>
      </trkpt>
      <trkpt lat="46.07521" lon="6.14709">
        <ele>804.59997558594</ele>
        <time>2012-11-12T14:22:24.000Z</time>
      </trkpt>
      <trkpt lat="46.07523" lon="6.14687">
        <ele>804.59997558594</ele>
        <time>2012-11-12T14:22:26.000Z</time>
      </trkpt>
      <trkpt lat="46.07522" lon="6.14666">
        <ele>804.59997558594</ele>
        <time>2012-11-12T14:22:28.000Z</time>
      </trkpt>
      <trkpt lat="46.07516" lon="6.14644">
        <ele>804.59997558594</ele>
        <time>2012-11-12T14:22:30.000Z</time>
      </trkpt>
      <trkpt lat="46.07497" lon="6.14629">
        <ele>804.59997558594</ele>
        <time>2012-11-12T14:22:33.000Z</time>
      </trkpt>
      <trkpt lat="46.07475" lon="6.14625">
        <ele>804.59997558594</ele>
        <time>2012-11-12T14:22:36.000Z</time>
      </trkpt>
      <trkpt lat="46.07468" lon="6.14625">
        <ele>804.59997558594</ele>
        <time>2012-11-12T14:22:37.000Z</time>
      </trkpt>
      <trkpt lat="46.07407" lon="6.14622">
        <ele>804.59997558594</ele>
        <time>2012-11-12T14:22:45.000Z</time>
      </trkpt>
      <trkpt lat="46.07376" lon="6.14624">
        <ele>804.59997558594</ele>
        <time>2012-11-12T14:22:49.000Z</time>
      </trkpt>
      <trkpt lat="46.07369" lon="6.14628">
        <ele>804.59997558594</ele>
        <time>2012-11-12T14:22:50.000Z</time>
      </trkpt>
      <trkpt lat="46.07352" lon="6.14644">
        <ele>806</ele>
        <time>2012-11-12T14:22:53.000Z</time>
      </trkpt>
      <trkpt lat="46.07347" lon="6.1465">
        <ele>806</ele>
        <time>2012-11-12T14:22:54.000Z</time>
      </trkpt>
      <trkpt lat="46.07342" lon="6.14656">
        <ele>807.20001220703</ele>
        <time>2012-11-12T14:22:55.000Z</time>
      </trkpt>
      <trkpt lat="46.07333" lon="6.14667">
        <ele>807.20001220703</ele>
        <time>2012-11-12T14:22:57.000Z</time>
      </trkpt>
      <trkpt lat="46.07327" lon="6.14672">
        <ele>807.20001220703</ele>
        <time>2012-11-12T14:22:58.000Z</time>
      </trkpt>
      <trkpt lat="46.07308" lon="6.1468">
        <ele>808.20001220703</ele>
        <time>2012-11-12T14:23:01.000Z</time>
      </trkpt>
      <trkpt lat="46.07303" lon="6.14678">
        <ele>808.20001220703</ele>
        <time>2012-11-12T14:23:02.000Z</time>
      </trkpt>
      <trkpt lat="46.07296" lon="6.14676">
        <ele>809.59997558594</ele>
        <time>2012-11-12T14:23:03.000Z</time>
      </trkpt>
      <trkpt lat="46.07279" lon="6.14666">
        <ele>810.59997558594</ele>
        <time>2012-11-12T14:23:06.000Z</time>
      </trkpt>
      <trkpt lat="46.07267" lon="6.14659">
        <ele>812</ele>
        <time>2012-11-12T14:23:08.000Z</time>
      </trkpt>
      <trkpt lat="46.07256" lon="6.14653">
        <ele>813</ele>
        <time>2012-11-12T14:23:10.000Z</time>
      </trkpt>
      <trkpt lat="46.07238" lon="6.14643">
        <ele>814.20001220703</ele>
        <time>2012-11-12T14:23:13.000Z</time>
      </trkpt>
      <trkpt lat="46.07226" lon="6.14639">
        <ele>814.20001220703</ele>
        <time>2012-11-12T14:23:15.000Z</time>
      </trkpt>
      <trkpt lat="46.07214" lon="6.1464">
        <ele>814.20001220703</ele>
        <time>2012-11-12T14:23:17.000Z</time>
      </trkpt>
      <trkpt lat="46.07207" lon="6.14643">
        <ele>814.20001220703</ele>
        <time>2012-11-12T14:23:18.000Z</time>
      </trkpt>
      <trkpt lat="46.07201" lon="6.14646">
        <ele>815.20001220703</ele>
        <time>2012-11-12T14:23:19.000Z</time>
      </trkpt>
      <trkpt lat="46.07185" lon="6.14658">
        <ele>815.20001220703</ele>
        <time>2012-11-12T14:23:22.000Z</time>
      </trkpt>
      <trkpt lat="46.07179" lon="6.14662">
        <ele>815.20001220703</ele>
        <time>2012-11-12T14:23:23.000Z</time>
      </trkpt>
      <trkpt lat="46.07174" lon="6.14666">
        <ele>816.20001220703</ele>
        <time>2012-11-12T14:23:24.000Z</time>
      </trkpt>
      <trkpt lat="46.07162" lon="6.14672">
        <ele>817.40002441406</ele>
        <time>2012-11-12T14:23:26.000Z</time>
      </trkpt>
      <trkpt lat="46.0715" lon="6.14674">
        <ele>817.40002441406</ele>
        <time>2012-11-12T14:23:28.000Z</time>
      </trkpt>
      <trkpt lat="46.07144" lon="6.14675">
        <ele>818.40002441406</ele>
        <time>2012-11-12T14:23:29.000Z</time>
      </trkpt>
      <trkpt lat="46.07127" lon="6.14674">
        <ele>819.40002441406</ele>
        <time>2012-11-12T14:23:32.000Z</time>
      </trkpt>
      <trkpt lat="46.07121" lon="6.14673">
        <ele>819.40002441406</ele>
        <time>2012-11-12T14:23:33.000Z</time>
      </trkpt>
      <trkpt lat="46.07109" lon="6.14668">
        <ele>820.40002441406</ele>
        <time>2012-11-12T14:23:35.000Z</time>
      </trkpt>
      <trkpt lat="46.07104" lon="6.14664">
        <ele>820.40002441406</ele>
        <time>2012-11-12T14:23:36.000Z</time>
      </trkpt>
      <trkpt lat="46.07094" lon="6.14656">
        <ele>821.59997558594</ele>
        <time>2012-11-12T14:23:38.000Z</time>
      </trkpt>
      <trkpt lat="46.0706" lon="6.14624">
        <ele>821.59997558594</ele>
        <time>2012-11-12T14:23:45.000Z</time>
      </trkpt>
      <trkpt lat="46.07019" lon="6.14583">
        <ele>821.59997558594</ele>
        <time>2012-11-12T14:23:53.000Z</time>
      </trkpt>
      <trkpt lat="46.06971" lon="6.1453">
        <ele>822.59997558594</ele>
        <time>2012-11-12T14:24:02.000Z</time>
      </trkpt>
      <trkpt lat="46.06934" lon="6.14483">
        <ele>822.59997558594</ele>
        <time>2012-11-12T14:24:09.000Z</time>
      </trkpt>
      <trkpt lat="46.06897" lon="6.14423">
        <ele>822.59997558594</ele>
        <time>2012-11-12T14:24:17.000Z</time>
      </trkpt>
      <trkpt lat="46.06856" lon="6.14365">
        <ele>822.59997558594</ele>
        <time>2012-11-12T14:24:25.000Z</time>
      </trkpt>
      <trkpt lat="46.06813" lon="6.14328">
        <ele>822.59997558594</ele>
        <time>2012-11-12T14:24:32.000Z</time>
      </trkpt>
      <trkpt lat="46.06774" lon="6.14297">
        <ele>822.59997558594</ele>
        <time>2012-11-12T14:24:38.000Z</time>
      </trkpt>
      <trkpt lat="46.06746" lon="6.14259">
        <ele>822.59997558594</ele>
        <time>2012-11-12T14:24:43.000Z</time>
      </trkpt>
      <trkpt lat="46.06724" lon="6.14209">
        <ele>822.59997558594</ele>
        <time>2012-11-12T14:24:48.000Z</time>
      </trkpt>
      <trkpt lat="46.06708" lon="6.14143">
        <ele>822.59997558594</ele>
        <time>2012-11-12T14:24:54.000Z</time>
      </trkpt>
      <trkpt lat="46.06707" lon="6.14131">
        <ele>822.59997558594</ele>
        <time>2012-11-12T14:24:55.000Z</time>
      </trkpt>
      <trkpt lat="46.06706" lon="6.14095">
        <ele>822.59997558594</ele>
        <time>2012-11-12T14:24:58.000Z</time>
      </trkpt>
      <trkpt lat="46.06694" lon="6.14061">
        <ele>822.59997558594</ele>
        <time>2012-11-12T14:25:01.000Z</time>
      </trkpt>
      <trkpt lat="46.06674" lon="6.14037">
        <ele>822.59997558594</ele>
        <time>2012-11-12T14:25:04.000Z</time>
      </trkpt>
      <trkpt lat="46.06649" lon="6.14026">
        <ele>822.59997558594</ele>
        <time>2012-11-12T14:25:07.000Z</time>
      </trkpt>
      <trkpt lat="46.06631" lon="6.14024">
        <ele>822.59997558594</ele>
        <time>2012-11-12T14:25:09.000Z</time>
      </trkpt>
      <trkpt lat="46.06597" lon="6.14019">
        <ele>822.59997558594</ele>
        <time>2012-11-12T14:25:13.000Z</time>
      </trkpt>
      <trkpt lat="46.06566" lon="6.14003">
        <ele>822.59997558594</ele>
        <time>2012-11-12T14:25:17.000Z</time>
      </trkpt>
      <trkpt lat="46.06558" lon="6.13996">
        <ele>822.59997558594</ele>
        <time>2012-11-12T14:25:18.000Z</time>
      </trkpt>
      <trkpt lat="46.06539" lon="6.1397">
        <ele>822.59997558594</ele>
        <time>2012-11-12T14:25:21.000Z</time>
      </trkpt>
      <trkpt lat="46.06523" lon="6.13925">
        <ele>822.59997558594</ele>
        <time>2012-11-12T14:25:25.000Z</time>
      </trkpt>
      <trkpt lat="46.06519" lon="6.13902">
        <ele>822.59997558594</ele>
        <time>2012-11-12T14:25:27.000Z</time>
      </trkpt>
      <trkpt lat="46.06508" lon="6.13868">
        <ele>822.59997558594</ele>
        <time>2012-11-12T14:25:30.000Z</time>
      </trkpt>
      <trkpt lat="46.06486" lon="6.13831">
        <ele>822.59997558594</ele>
        <time>2012-11-12T14:25:34.000Z</time>
      </trkpt>
      <trkpt lat="46.06479" lon="6.13822">
        <ele>822.59997558594</ele>
        <time>2012-11-12T14:25:35.000Z</time>
      </trkpt>
      <trkpt lat="46.06435" lon="6.13761">
        <ele>822.59997558594</ele>
        <time>2012-11-12T14:25:42.000Z</time>
      </trkpt>
      <trkpt lat="46.06423" lon="6.13741">
        <ele>822.59997558594</ele>
        <time>2012-11-12T14:25:44.000Z</time>
      </trkpt>
      <trkpt lat="46.06414" lon="6.13721">
        <ele>822.59997558594</ele>
        <time>2012-11-12T14:25:46.000Z</time>
      </trkpt>
      <trkpt lat="46.06408" lon="6.13696">
        <ele>822.59997558594</ele>
        <time>2012-11-12T14:25:48.000Z</time>
      </trkpt>
      <trkpt lat="46.06406" lon="6.13646">
        <ele>822.59997558594</ele>
        <time>2012-11-12T14:25:52.000Z</time>
      </trkpt>
      <trkpt lat="46.06414" lon="6.13608">
        <ele>822.59997558594</ele>
        <time>2012-11-12T14:25:55.000Z</time>
      </trkpt>
      <trkpt lat="46.06418" lon="6.13596">
        <ele>822.59997558594</ele>
        <time>2012-11-12T14:25:56.000Z</time>
      </trkpt>
      <trkpt lat="46.06422" lon="6.13571">
        <ele>822.59997558594</ele>
        <time>2012-11-12T14:25:58.000Z</time>
      </trkpt>
      <trkpt lat="46.06422" lon="6.13545">
        <ele>819.59997558594</ele>
        <time>2012-11-12T14:26:00.000Z</time>
      </trkpt>
      <trkpt lat="46.06413" lon="6.13508">
        <ele>819.59997558594</ele>
        <time>2012-11-12T14:26:03.000Z</time>
      </trkpt>
      <trkpt lat="46.06395" lon="6.13478">
        <ele>819.59997558594</ele>
        <time>2012-11-12T14:26:06.000Z</time>
      </trkpt>
      <trkpt lat="46.06373" lon="6.13456">
        <ele>819.59997558594</ele>
        <time>2012-11-12T14:26:09.000Z</time>
      </trkpt>
      <trkpt lat="46.06365" lon="6.1345">
        <ele>819.59997558594</ele>
        <time>2012-11-12T14:26:10.000Z</time>
      </trkpt>
      <trkpt lat="46.06329" lon="6.13407">
        <ele>819.59997558594</ele>
        <time>2012-11-12T14:26:15.000Z</time>
      </trkpt>
      <trkpt lat="46.06325" lon="6.13397">
        <ele>819.59997558594</ele>
        <time>2012-11-12T14:26:16.000Z</time>
      </trkpt>
      <trkpt lat="46.06318" lon="6.13356">
        <ele>819.59997558594</ele>
        <time>2012-11-12T14:26:19.000Z</time>
      </trkpt>
      <trkpt lat="46.06315" lon="6.13345">
        <ele>819.59997558594</ele>
        <time>2012-11-12T14:26:20.000Z</time>
      </trkpt>
      <trkpt lat="46.06306" lon="6.13324">
        <ele>819.59997558594</ele>
        <time>2012-11-12T14:26:22.000Z</time>
      </trkpt>
      <trkpt lat="46.06284" lon="6.13298">
        <ele>819.59997558594</ele>
        <time>2012-11-12T14:26:25.000Z</time>
      </trkpt>
      <trkpt lat="46.06257" lon="6.13285">
        <ele>819.59997558594</ele>
        <time>2012-11-12T14:26:28.000Z</time>
      </trkpt>
      <trkpt lat="46.06247" lon="6.13281">
        <ele>819.59997558594</ele>
        <time>2012-11-12T14:26:29.000Z</time>
      </trkpt>
      <trkpt lat="46.0622" lon="6.13267">
        <ele>819.59997558594</ele>
        <time>2012-11-12T14:26:32.000Z</time>
      </trkpt>
      <trkpt lat="46.06205" lon="6.13248">
        <ele>819.59997558594</ele>
        <time>2012-11-12T14:26:34.000Z</time>
      </trkpt>
      <trkpt lat="46.06192" lon="6.13212">
        <ele>819.59997558594</ele>
        <time>2012-11-12T14:26:37.000Z</time>
      </trkpt>
      <trkpt lat="46.06188" lon="6.13198">
        <ele>819.59997558594</ele>
        <time>2012-11-12T14:26:38.000Z</time>
      </trkpt>
      <trkpt lat="46.06184" lon="6.13187">
        <ele>819.59997558594</ele>
        <time>2012-11-12T14:26:39.000Z</time>
      </trkpt>
      <trkpt lat="46.06171" lon="6.13167">
        <ele>819.59997558594</ele>
        <time>2012-11-12T14:26:41.000Z</time>
      </trkpt>
      <trkpt lat="46.06145" lon="6.13149">
        <ele>819.59997558594</ele>
        <time>2012-11-12T14:26:44.000Z</time>
      </trkpt>
      <trkpt lat="46.06136" lon="6.13146">
        <ele>821.59997558594</ele>
        <time>2012-11-12T14:26:45.000Z</time>
      </trkpt>
      <trkpt lat="46.06118" lon="6.13145">
        <ele>821.59997558594</ele>
        <time>2012-11-12T14:26:47.000Z</time>
      </trkpt>
      <trkpt lat="46.06107" lon="6.13145">
        <ele>821.59997558594</ele>
        <time>2012-11-12T14:26:48.000Z</time>
      </trkpt>
      <trkpt lat="46.06081" lon="6.13154">
        <ele>821.59997558594</ele>
        <time>2012-11-12T14:26:51.000Z</time>
      </trkpt>
      <trkpt lat="46.06046" lon="6.13178">
        <ele>821.59997558594</ele>
        <time>2012-11-12T14:26:55.000Z</time>
      </trkpt>
      <trkpt lat="46.06029" lon="6.13187">
        <ele>821.59997558594</ele>
        <time>2012-11-12T14:26:57.000Z</time>
      </trkpt>
      <trkpt lat="46.06007" lon="6.1319">
        <ele>821.59997558594</ele>
        <time>2012-11-12T14:26:59.000Z</time>
      </trkpt>
      <trkpt lat="46.05979" lon="6.13181">
        <ele>821.59997558594</ele>
        <time>2012-11-12T14:27:02.000Z</time>
      </trkpt>
      <trkpt lat="46.05969" lon="6.13177">
        <ele>821.59997558594</ele>
        <time>2012-11-12T14:27:03.000Z</time>
      </trkpt>
      <trkpt lat="46.0593" lon="6.13156">
        <ele>821.59997558594</ele>
        <time>2012-11-12T14:27:07.000Z</time>
      </trkpt>
      <trkpt lat="46.05908" lon="6.13148">
        <ele>821.59997558594</ele>
        <time>2012-11-12T14:27:09.000Z</time>
      </trkpt>
      <trkpt lat="46.05898" lon="6.13149">
        <ele>819.59997558594</ele>
        <time>2012-11-12T14:27:10.000Z</time>
      </trkpt>
      <trkpt lat="46.05887" lon="6.13152">
        <ele>819.59997558594</ele>
        <time>2012-11-12T14:27:11.000Z</time>
      </trkpt>
      <trkpt lat="46.05854" lon="6.13156">
        <ele>819.59997558594</ele>
        <time>2012-11-12T14:27:14.000Z</time>
      </trkpt>
      <trkpt lat="46.05833" lon="6.13146">
        <ele>818.40002441406</ele>
        <time>2012-11-12T14:27:16.000Z</time>
      </trkpt>
      <trkpt lat="46.05822" lon="6.13136">
        <ele>818.40002441406</ele>
        <time>2012-11-12T14:27:17.000Z</time>
      </trkpt>
      <trkpt lat="46.05811" lon="6.13124">
        <ele>817.40002441406</ele>
        <time>2012-11-12T14:27:18.000Z</time>
      </trkpt>
      <trkpt lat="46.05797" lon="6.13097">
        <ele>816.20001220703</ele>
        <time>2012-11-12T14:27:20.000Z</time>
      </trkpt>
      <trkpt lat="46.05791" lon="6.13081">
        <ele>815.20001220703</ele>
        <time>2012-11-12T14:27:21.000Z</time>
      </trkpt>
      <trkpt lat="46.05788" lon="6.13067">
        <ele>814</ele>
        <time>2012-11-12T14:27:22.000Z</time>
      </trkpt>
      <trkpt lat="46.05784" lon="6.13047">
        <ele>813</ele>
        <time>2012-11-12T14:27:23.000Z</time>
      </trkpt>
      <trkpt lat="46.05769" lon="6.13003">
        <ele>812</ele>
        <time>2012-11-12T14:27:26.000Z</time>
      </trkpt>
      <trkpt lat="46.05761" lon="6.12993">
        <ele>812</ele>
        <time>2012-11-12T14:27:27.000Z</time>
      </trkpt>
      <trkpt lat="46.05737" lon="6.12984">
        <ele>812</ele>
        <time>2012-11-12T14:27:29.000Z</time>
      </trkpt>
      <trkpt lat="46.05715" lon="6.12988">
        <ele>812</ele>
        <time>2012-11-12T14:27:31.000Z</time>
      </trkpt>
      <trkpt lat="46.05704" lon="6.1299">
        <ele>812</ele>
        <time>2012-11-12T14:27:32.000Z</time>
      </trkpt>
      <trkpt lat="46.05681" lon="6.12994">
        <ele>810</ele>
        <time>2012-11-12T14:27:34.000Z</time>
      </trkpt>
      <trkpt lat="46.05658" lon="6.12995">
        <ele>808.59997558594</ele>
        <time>2012-11-12T14:27:36.000Z</time>
      </trkpt>
      <trkpt lat="46.05647" lon="6.12993">
        <ele>808.59997558594</ele>
        <time>2012-11-12T14:27:37.000Z</time>
      </trkpt>
      <trkpt lat="46.05623" lon="6.12983">
        <ele>807.59997558594</ele>
        <time>2012-11-12T14:27:39.000Z</time>
      </trkpt>
      <trkpt lat="46.05614" lon="6.12979">
        <ele>807.59997558594</ele>
        <time>2012-11-12T14:27:40.000Z</time>
      </trkpt>
      <trkpt lat="46.05561" lon="6.12955">
        <ele>807.59997558594</ele>
        <time>2012-11-12T14:27:45.000Z</time>
      </trkpt>
      <trkpt lat="46.05542" lon="6.12946">
        <ele>806.40002441406</ele>
        <time>2012-11-12T14:27:47.000Z</time>
      </trkpt>
      <trkpt lat="46.05531" lon="6.12941">
        <ele>806.40002441406</ele>
        <time>2012-11-12T14:27:48.000Z</time>
      </trkpt>
      <trkpt lat="46.05502" lon="6.12928">
        <ele>805.40002441406</ele>
        <time>2012-11-12T14:27:51.000Z</time>
      </trkpt>
      <trkpt lat="46.0548" lon="6.12915">
        <ele>804.40002441406</ele>
        <time>2012-11-12T14:27:53.000Z</time>
      </trkpt>
      <trkpt lat="46.05471" lon="6.12907">
        <ele>804.40002441406</ele>
        <time>2012-11-12T14:27:54.000Z</time>
      </trkpt>
      <trkpt lat="46.05463" lon="6.12899">
        <ele>803.40002441406</ele>
        <time>2012-11-12T14:27:55.000Z</time>
      </trkpt>
      <trkpt lat="46.05446" lon="6.12878">
        <ele>802.40002441406</ele>
        <time>2012-11-12T14:27:57.000Z</time>
      </trkpt>
      <trkpt lat="46.05438" lon="6.12866">
        <ele>802.40002441406</ele>
        <time>2012-11-12T14:27:58.000Z</time>
      </trkpt>
      <trkpt lat="46.05431" lon="6.12853">
        <ele>801.40002441406</ele>
        <time>2012-11-12T14:27:59.000Z</time>
      </trkpt>
      <trkpt lat="46.05414" lon="6.12826">
        <ele>800.40002441406</ele>
        <time>2012-11-12T14:28:01.000Z</time>
      </trkpt>
      <trkpt lat="46.05406" lon="6.12816">
        <ele>800.40002441406</ele>
        <time>2012-11-12T14:28:02.000Z</time>
      </trkpt>
      <trkpt lat="46.05396" lon="6.12804">
        <ele>799.20001220703</ele>
        <time>2012-11-12T14:28:03.000Z</time>
      </trkpt>
      <trkpt lat="46.05375" lon="6.12787">
        <ele>798</ele>
        <time>2012-11-12T14:28:05.000Z</time>
      </trkpt>
      <trkpt lat="46.05364" lon="6.12779">
        <ele>798</ele>
        <time>2012-11-12T14:28:06.000Z</time>
      </trkpt>
      <trkpt lat="46.05354" lon="6.12772">
        <ele>797</ele>
        <time>2012-11-12T14:28:07.000Z</time>
      </trkpt>
      <trkpt lat="46.05332" lon="6.12757">
        <ele>796</ele>
        <time>2012-11-12T14:28:09.000Z</time>
      </trkpt>
      <trkpt lat="46.05275" lon="6.12719">
        <ele>796</ele>
        <time>2012-11-12T14:28:14.000Z</time>
      </trkpt>
      <trkpt lat="46.05263" lon="6.12711">
        <ele>796</ele>
        <time>2012-11-12T14:28:15.000Z</time>
      </trkpt>
      <trkpt lat="46.05242" lon="6.12699">
        <ele>793.40002441406</ele>
        <time>2012-11-12T14:28:17.000Z</time>
      </trkpt>
      <trkpt lat="46.0519" lon="6.12664">
        <ele>793.40002441406</ele>
        <time>2012-11-12T14:28:22.000Z</time>
      </trkpt>
      <trkpt lat="46.05141" lon="6.12622">
        <ele>793.40002441406</ele>
        <time>2012-11-12T14:28:27.000Z</time>
      </trkpt>
      <trkpt lat="46.0509" lon="6.12568">
        <ele>793.40002441406</ele>
        <time>2012-11-12T14:28:33.000Z</time>
      </trkpt>
      <trkpt lat="46.05082" lon="6.12561">
        <ele>793.40002441406</ele>
        <time>2012-11-12T14:28:34.000Z</time>
      </trkpt>
      <trkpt lat="46.05037" lon="6.12526">
        <ele>793.40002441406</ele>
        <time>2012-11-12T14:28:39.000Z</time>
      </trkpt>
      <trkpt lat="46.0503" lon="6.12524">
        <ele>792.40002441406</ele>
        <time>2012-11-12T14:28:40.000Z</time>
      </trkpt>
      <trkpt lat="46.05017" lon="6.1252">
        <ele>791.40002441406</ele>
        <time>2012-11-12T14:28:41.000Z</time>
      </trkpt>
      <trkpt lat="46.04996" lon="6.12517">
        <ele>790.20001220703</ele>
        <time>2012-11-12T14:28:43.000Z</time>
      </trkpt>
      <trkpt lat="46.04985" lon="6.12517">
        <ele>788.59997558594</ele>
        <time>2012-11-12T14:28:44.000Z</time>
      </trkpt>
      <trkpt lat="46.04953" lon="6.12523">
        <ele>787.40002441406</ele>
        <time>2012-11-12T14:28:47.000Z</time>
      </trkpt>
      <trkpt lat="46.0493" lon="6.12528">
        <ele>786.20001220703</ele>
        <time>2012-11-12T14:28:49.000Z</time>
      </trkpt>
      <trkpt lat="46.04919" lon="6.1253">
        <ele>785</ele>
        <time>2012-11-12T14:28:50.000Z</time>
      </trkpt>
      <trkpt lat="46.04907" lon="6.12533">
        <ele>784</ele>
        <time>2012-11-12T14:28:51.000Z</time>
      </trkpt>
      <trkpt lat="46.04897" lon="6.12536">
        <ele>782.59997558594</ele>
        <time>2012-11-12T14:28:52.000Z</time>
      </trkpt>
      <trkpt lat="46.04862" lon="6.12551">
        <ele>781.40002441406</ele>
        <time>2012-11-12T14:28:55.000Z</time>
      </trkpt>
      <trkpt lat="46.04851" lon="6.12557">
        <ele>780.40002441406</ele>
        <time>2012-11-12T14:28:56.000Z</time>
      </trkpt>
      <trkpt lat="46.04841" lon="6.12564">
        <ele>779.20001220703</ele>
        <time>2012-11-12T14:28:57.000Z</time>
      </trkpt>
      <trkpt lat="46.04807" lon="6.12585">
        <ele>779.20001220703</ele>
        <time>2012-11-12T14:29:00.000Z</time>
      </trkpt>
      <trkpt lat="46.04797" lon="6.12591">
        <ele>777.59997558594</ele>
        <time>2012-11-12T14:29:01.000Z</time>
      </trkpt>
      <trkpt lat="46.04785" lon="6.12597">
        <ele>776.59997558594</ele>
        <time>2012-11-12T14:29:02.000Z</time>
      </trkpt>
      <trkpt lat="46.04746" lon="6.12607">
        <ele>775.59997558594</ele>
        <time>2012-11-12T14:29:05.000Z</time>
      </trkpt>
      <trkpt lat="46.04734" lon="6.12606">
        <ele>774.20001220703</ele>
        <time>2012-11-12T14:29:06.000Z</time>
      </trkpt>
      <trkpt lat="46.04722" lon="6.12605">
        <ele>773</ele>
        <time>2012-11-12T14:29:07.000Z</time>
      </trkpt>
      <trkpt lat="46.04695" lon="6.12604">
        <ele>773</ele>
        <time>2012-11-12T14:29:09.000Z</time>
      </trkpt>
      <trkpt lat="46.04667" lon="6.12599">
        <ele>771.59997558594</ele>
        <time>2012-11-12T14:29:11.000Z</time>
      </trkpt>
      <trkpt lat="46.04656" lon="6.12594">
        <ele>770.40002441406</ele>
        <time>2012-11-12T14:29:12.000Z</time>
      </trkpt>
      <trkpt lat="46.04643" lon="6.12587">
        <ele>770.40002441406</ele>
        <time>2012-11-12T14:29:13.000Z</time>
      </trkpt>
      <trkpt lat="46.04619" lon="6.12568">
        <ele>768.40002441406</ele>
        <time>2012-11-12T14:29:15.000Z</time>
      </trkpt>
      <trkpt lat="46.04609" lon="6.12557">
        <ele>768.40002441406</ele>
        <time>2012-11-12T14:29:16.000Z</time>
      </trkpt>
      <trkpt lat="46.04598" lon="6.12543">
        <ele>766.40002441406</ele>
        <time>2012-11-12T14:29:17.000Z</time>
      </trkpt>
      <trkpt lat="46.04579" lon="6.12513">
        <ele>765.40002441406</ele>
        <time>2012-11-12T14:29:19.000Z</time>
      </trkpt>
      <trkpt lat="46.04571" lon="6.12497">
        <ele>765.40002441406</ele>
        <time>2012-11-12T14:29:20.000Z</time>
      </trkpt>
      <trkpt lat="46.04562" lon="6.12481">
        <ele>763.59997558594</ele>
        <time>2012-11-12T14:29:21.000Z</time>
      </trkpt>
      <trkpt lat="46.04555" lon="6.12467">
        <ele>762.40002441406</ele>
        <time>2012-11-12T14:29:22.000Z</time>
      </trkpt>
      <trkpt lat="46.04545" lon="6.1245">
        <ele>761.40002441406</ele>
        <time>2012-11-12T14:29:23.000Z</time>
      </trkpt>
      <trkpt lat="46.04537" lon="6.12435">
        <ele>760.40002441406</ele>
        <time>2012-11-12T14:29:24.000Z</time>
      </trkpt>
      <trkpt lat="46.04519" lon="6.12407">
        <ele>758.59997558594</ele>
        <time>2012-11-12T14:29:26.000Z</time>
      </trkpt>
      <trkpt lat="46.04508" lon="6.12397">
        <ele>757.40002441406</ele>
        <time>2012-11-12T14:29:27.000Z</time>
      </trkpt>
      <trkpt lat="46.04483" lon="6.12383">
        <ele>756.40002441406</ele>
        <time>2012-11-12T14:29:29.000Z</time>
      </trkpt>
      <trkpt lat="46.0447" lon="6.1238">
        <ele>755.40002441406</ele>
        <time>2012-11-12T14:29:30.000Z</time>
      </trkpt>
      <trkpt lat="46.04445" lon="6.12377">
        <ele>754.20001220703</ele>
        <time>2012-11-12T14:29:32.000Z</time>
      </trkpt>
      <trkpt lat="46.04419" lon="6.12374">
        <ele>752.40002441406</ele>
        <time>2012-11-12T14:29:34.000Z</time>
      </trkpt>
      <trkpt lat="46.04393" lon="6.1237">
        <ele>751.20001220703</ele>
        <time>2012-11-12T14:29:36.000Z</time>
      </trkpt>
      <trkpt lat="46.04368" lon="6.12367">
        <ele>750</ele>
        <time>2012-11-12T14:29:38.000Z</time>
      </trkpt>
      <trkpt lat="46.04344" lon="6.12367">
        <ele>748.40002441406</ele>
        <time>2012-11-12T14:29:40.000Z</time>
      </trkpt>
      <trkpt lat="46.04319" lon="6.12369">
        <ele>747.20001220703</ele>
        <time>2012-11-12T14:29:42.000Z</time>
      </trkpt>
      <trkpt lat="46.04306" lon="6.1237">
        <ele>745.59997558594</ele>
        <time>2012-11-12T14:29:43.000Z</time>
      </trkpt>
      <trkpt lat="46.04281" lon="6.12375">
        <ele>744.59997558594</ele>
        <time>2012-11-12T14:29:45.000Z</time>
      </trkpt>
      <trkpt lat="46.04257" lon="6.1238">
        <ele>743.40002441406</ele>
        <time>2012-11-12T14:29:47.000Z</time>
      </trkpt>
      <trkpt lat="46.04244" lon="6.12382">
        <ele>742.40002441406</ele>
        <time>2012-11-12T14:29:48.000Z</time>
      </trkpt>
      <trkpt lat="46.04219" lon="6.12382">
        <ele>741.40002441406</ele>
        <time>2012-11-12T14:29:50.000Z</time>
      </trkpt>
      <trkpt lat="46.04207" lon="6.12377">
        <ele>741.40002441406</ele>
        <time>2012-11-12T14:29:51.000Z</time>
      </trkpt>
      <trkpt lat="46.04197" lon="6.12371">
        <ele>740.40002441406</ele>
        <time>2012-11-12T14:29:52.000Z</time>
      </trkpt>
      <trkpt lat="46.04176" lon="6.12347">
        <ele>739</ele>
        <time>2012-11-12T14:29:54.000Z</time>
      </trkpt>
      <trkpt lat="46.04161" lon="6.12316">
        <ele>737.40002441406</ele>
        <time>2012-11-12T14:29:56.000Z</time>
      </trkpt>
      <trkpt lat="46.04157" lon="6.12301">
        <ele>737.40002441406</ele>
        <time>2012-11-12T14:29:57.000Z</time>
      </trkpt>
      <trkpt lat="46.04154" lon="6.12284">
        <ele>736</ele>
        <time>2012-11-12T14:29:58.000Z</time>
      </trkpt>
      <trkpt lat="46.0415" lon="6.12249">
        <ele>736</ele>
        <time>2012-11-12T14:30:00.000Z</time>
      </trkpt>
      <trkpt lat="46.04139" lon="6.12197">
        <ele>733.59997558594</ele>
        <time>2012-11-12T14:30:03.000Z</time>
      </trkpt>
      <trkpt lat="46.04133" lon="6.12184">
        <ele>733.59997558594</ele>
        <time>2012-11-12T14:30:04.000Z</time>
      </trkpt>
      <trkpt lat="46.04104" lon="6.12151">
        <ele>732.40002441406</ele>
        <time>2012-11-12T14:30:07.000Z</time>
      </trkpt>
      <trkpt lat="46.04093" lon="6.12144">
        <ele>731.40002441406</ele>
        <time>2012-11-12T14:30:08.000Z</time>
      </trkpt>
      <trkpt lat="46.04069" lon="6.12134">
        <ele>730.40002441406</ele>
        <time>2012-11-12T14:30:10.000Z</time>
      </trkpt>
      <trkpt lat="46.04056" lon="6.12129">
        <ele>730.40002441406</ele>
        <time>2012-11-12T14:30:11.000Z</time>
      </trkpt>
      <trkpt lat="46.04047" lon="6.12125">
        <ele>729</ele>
        <time>2012-11-12T14:30:12.000Z</time>
      </trkpt>
      <trkpt lat="46.03993" lon="6.12107">
        <ele>727.20001220703</ele>
        <time>2012-11-12T14:30:16.000Z</time>
      </trkpt>
      <trkpt lat="46.03967" lon="6.12097">
        <ele>725.59997558594</ele>
        <time>2012-11-12T14:30:18.000Z</time>
      </trkpt>
      <trkpt lat="46.03924" lon="6.12077">
        <ele>725.59997558594</ele>
        <time>2012-11-12T14:30:22.000Z</time>
      </trkpt>
      <trkpt lat="46.03886" lon="6.12053">
        <ele>724.59997558594</ele>
        <time>2012-11-12T14:30:25.000Z</time>
      </trkpt>
      <trkpt lat="46.03866" lon="6.12037">
        <ele>724.59997558594</ele>
        <time>2012-11-12T14:30:27.000Z</time>
      </trkpt>
      <trkpt lat="46.0382" lon="6.11988">
        <ele>724.59997558594</ele>
        <time>2012-11-12T14:30:32.000Z</time>
      </trkpt>
      <trkpt lat="46.03788" lon="6.11943">
        <ele>723.20001220703</ele>
        <time>2012-11-12T14:30:36.000Z</time>
      </trkpt>
      <trkpt lat="46.03774" lon="6.11921">
        <ele>723.20001220703</ele>
        <time>2012-11-12T14:30:38.000Z</time>
      </trkpt>
      <trkpt lat="46.03744" lon="6.11856">
        <ele>723.20001220703</ele>
        <time>2012-11-12T14:30:43.000Z</time>
      </trkpt>
      <trkpt lat="46.0371" lon="6.11779">
        <ele>723.20001220703</ele>
        <time>2012-11-12T14:30:49.000Z</time>
      </trkpt>
      <trkpt lat="46.03697" lon="6.11742">
        <ele>723.20001220703</ele>
        <time>2012-11-12T14:30:52.000Z</time>
      </trkpt>
      <trkpt lat="46.03672" lon="6.11662">
        <ele>723.20001220703</ele>
        <time>2012-11-12T14:30:58.000Z</time>
      </trkpt>
      <trkpt lat="46.03665" lon="6.11634">
        <ele>723.20001220703</ele>
        <time>2012-11-12T14:31:00.000Z</time>
      </trkpt>
      <trkpt lat="46.03642" lon="6.11557">
        <ele>723.20001220703</ele>
        <time>2012-11-12T14:31:06.000Z</time>
      </trkpt>
      <trkpt lat="46.03633" lon="6.11521">
        <ele>723.20001220703</ele>
        <time>2012-11-12T14:31:09.000Z</time>
      </trkpt>
      <trkpt lat="46.03627" lon="6.11497">
        <ele>723.20001220703</ele>
        <time>2012-11-12T14:31:12.000Z</time>
      </trkpt>
      <trkpt lat="46.03615" lon="6.11447">
        <ele>723.20001220703</ele>
        <time>2012-11-12T14:31:17.000Z</time>
      </trkpt>
      <trkpt lat="46.03598" lon="6.11378">
        <ele>723.20001220703</ele>
        <time>2012-11-12T14:31:23.000Z</time>
      </trkpt>
      <trkpt lat="46.0358" lon="6.11304">
        <ele>723.20001220703</ele>
        <time>2012-11-12T14:31:29.000Z</time>
      </trkpt>
      <trkpt lat="46.03571" lon="6.11266">
        <ele>723.20001220703</ele>
        <time>2012-11-12T14:31:32.000Z</time>
      </trkpt>
      <trkpt lat="46.03555" lon="6.11199">
        <ele>722</ele>
        <time>2012-11-12T14:31:37.000Z</time>
      </trkpt>
      <trkpt lat="46.03551" lon="6.11186">
        <ele>722</ele>
        <time>2012-11-12T14:31:38.000Z</time>
      </trkpt>
      <trkpt lat="46.03543" lon="6.11159">
        <ele>720.59997558594</ele>
        <time>2012-11-12T14:31:40.000Z</time>
      </trkpt>
      <trkpt lat="46.03525" lon="6.11096">
        <ele>720.59997558594</ele>
        <time>2012-11-12T14:31:45.000Z</time>
      </trkpt>
      <trkpt lat="46.03525" lon="6.11088">
        <ele>720.59997558594</ele>
        <time>2012-11-12T14:31:46.000Z</time>
      </trkpt>
      <trkpt lat="46.03528" lon="6.11081">
        <ele>720.59997558594</ele>
        <time>2012-11-12T14:31:47.000Z</time>
      </trkpt>
      <trkpt lat="46.03538" lon="6.11074">
        <ele>720.59997558594</ele>
        <time>2012-11-12T14:31:49.000Z</time>
      </trkpt>
      <trkpt lat="46.03549" lon="6.11071">
        <ele>720.59997558594</ele>
        <time>2012-11-12T14:31:51.000Z</time>
      </trkpt>
      <trkpt lat="46.03563" lon="6.11063">
        <ele>720.59997558594</ele>
        <time>2012-11-12T14:31:54.000Z</time>
      </trkpt>
      <trkpt lat="46.03572" lon="6.11056">
        <ele>724</ele>
        <time>2012-11-12T14:31:56.000Z</time>
      </trkpt>
      <trkpt lat="46.03575" lon="6.11051">
        <ele>725.40002441406</ele>
        <time>2012-11-12T14:31:57.000Z</time>
      </trkpt>
      <trkpt lat="46.03579" lon="6.11046">
        <ele>726.59997558594</ele>
        <time>2012-11-12T14:31:58.000Z</time>
      </trkpt>
      <trkpt lat="46.03581" lon="6.11039">
        <ele>726.59997558594</ele>
        <time>2012-11-12T14:31:59.000Z</time>
      </trkpt>
      <trkpt lat="46.03585" lon="6.11011">
        <ele>726.59997558594</ele>
        <time>2012-11-12T14:32:03.000Z</time>
      </trkpt>
      <trkpt lat="46.03586" lon="6.11004">
        <ele>727.59997558594</ele>
        <time>2012-11-12T14:32:04.000Z</time>
      </trkpt>
      <trkpt lat="46.03589" lon="6.10971">
        <ele>729</ele>
        <time>2012-11-12T14:32:09.000Z</time>
      </trkpt>
      <trkpt lat="46.03591" lon="6.10957">
        <ele>729</ele>
        <time>2012-11-12T14:32:11.000Z</time>
      </trkpt>
      <trkpt lat="46.03593" lon="6.10951">
        <ele>730</ele>
        <time>2012-11-12T14:32:12.000Z</time>
      </trkpt>
      <trkpt lat="46.036" lon="6.10933">
        <ele>731.20001220703</ele>
        <time>2012-11-12T14:32:15.000Z</time>
      </trkpt>
      <trkpt lat="46.03603" lon="6.10928">
        <ele>731.20001220703</ele>
        <time>2012-11-12T14:32:16.000Z</time>
      </trkpt>
      <trkpt lat="46.03609" lon="6.10917">
        <ele>732.20001220703</ele>
        <time>2012-11-12T14:32:18.000Z</time>
      </trkpt>
      <trkpt lat="46.03619" lon="6.10901">
        <ele>733.20001220703</ele>
        <time>2012-11-12T14:32:21.000Z</time>
      </trkpt>
      <trkpt lat="46.03624" lon="6.10891">
        <ele>733.20001220703</ele>
        <time>2012-11-12T14:32:23.000Z</time>
      </trkpt>
      <trkpt lat="46.03634" lon="6.10875">
        <ele>734.20001220703</ele>
        <time>2012-11-12T14:32:26.000Z</time>
      </trkpt>
      <trkpt lat="46.03649" lon="6.10847">
        <ele>734.20001220703</ele>
        <time>2012-11-12T14:32:31.000Z</time>
      </trkpt>
      <trkpt lat="46.03684" lon="6.10787">
        <ele>734.20001220703</ele>
        <time>2012-11-12T14:32:41.000Z</time>
      </trkpt>
      <trkpt lat="46.0371" lon="6.10755">
        <ele>734.20001220703</ele>
        <time>2012-11-12T14:32:47.000Z</time>
      </trkpt>
      <trkpt lat="46.03743" lon="6.10724">
        <ele>735.40002441406</ele>
        <time>2012-11-12T14:32:54.000Z</time>
      </trkpt>
      <trkpt lat="46.03755" lon="6.10712">
        <ele>736.40002441406</ele>
        <time>2012-11-12T14:32:57.000Z</time>
      </trkpt>
      <trkpt lat="46.03762" lon="6.10701">
        <ele>736.40002441406</ele>
        <time>2012-11-12T14:32:59.000Z</time>
      </trkpt>
      <trkpt lat="46.03765" lon="6.10696">
        <ele>736.40002441406</ele>
        <time>2012-11-12T14:33:00.000Z</time>
      </trkpt>
      <trkpt lat="46.03769" lon="6.10691">
        <ele>737.40002441406</ele>
        <time>2012-11-12T14:33:01.000Z</time>
      </trkpt>
      <trkpt lat="46.03782" lon="6.10671">
        <ele>738.40002441406</ele>
        <time>2012-11-12T14:33:05.000Z</time>
      </trkpt>
      <trkpt lat="46.03786" lon="6.10666">
        <ele>738.40002441406</ele>
        <time>2012-11-12T14:33:06.000Z</time>
      </trkpt>
      <trkpt lat="46.03792" lon="6.10655">
        <ele>739.59997558594</ele>
        <time>2012-11-12T14:33:08.000Z</time>
      </trkpt>
      <trkpt lat="46.03804" lon="6.10639">
        <ele>740.59997558594</ele>
        <time>2012-11-12T14:33:11.000Z</time>
      </trkpt>
      <trkpt lat="46.03807" lon="6.10634">
        <ele>740.59997558594</ele>
        <time>2012-11-12T14:33:12.000Z</time>
      </trkpt>
      <trkpt lat="46.03822" lon="6.10614">
        <ele>742.20001220703</ele>
        <time>2012-11-12T14:33:16.000Z</time>
      </trkpt>
      <trkpt lat="46.03833" lon="6.10599">
        <ele>743.40002441406</ele>
        <time>2012-11-12T14:33:19.000Z</time>
      </trkpt>
      <trkpt lat="46.03837" lon="6.10595">
        <ele>743.40002441406</ele>
        <time>2012-11-12T14:33:20.000Z</time>
      </trkpt>
      <trkpt lat="46.0384" lon="6.1059">
        <ele>744.40002441406</ele>
        <time>2012-11-12T14:33:21.000Z</time>
      </trkpt>
      <trkpt lat="46.03851" lon="6.10576">
        <ele>745.40002441406</ele>
        <time>2012-11-12T14:33:24.000Z</time>
      </trkpt>
      <trkpt lat="46.03862" lon="6.1056">
        <ele>745.40002441406</ele>
        <time>2012-11-12T14:33:28.000Z</time>
      </trkpt>
      <trkpt lat="46.03867" lon="6.10551">
        <ele>746.40002441406</ele>
        <time>2012-11-12T14:33:29.000Z</time>
      </trkpt>
      <trkpt lat="46.03874" lon="6.10533">
        <ele>747.40002441406</ele>
        <time>2012-11-12T14:33:32.000Z</time>
      </trkpt>
      <trkpt lat="46.0388" lon="6.10514">
        <ele>748.40002441406</ele>
        <time>2012-11-12T14:33:35.000Z</time>
      </trkpt>
      <trkpt lat="46.03884" lon="6.10495">
        <ele>748.40002441406</ele>
        <time>2012-11-12T14:33:38.000Z</time>
      </trkpt>
      <trkpt lat="46.03885" lon="6.10475">
        <ele>748.40002441406</ele>
        <time>2012-11-12T14:33:41.000Z</time>
      </trkpt>
      <trkpt lat="46.03885" lon="6.10447">
        <ele>750.59997558594</ele>
        <time>2012-11-12T14:33:45.000Z</time>
      </trkpt>
      <trkpt lat="46.03886" lon="6.10433">
        <ele>750.59997558594</ele>
        <time>2012-11-12T14:33:47.000Z</time>
      </trkpt>
      <trkpt lat="46.03888" lon="6.10426">
        <ele>751.59997558594</ele>
        <time>2012-11-12T14:33:48.000Z</time>
      </trkpt>
      <trkpt lat="46.03899" lon="6.10414">
        <ele>752.59997558594</ele>
        <time>2012-11-12T14:33:51.000Z</time>
      </trkpt>
      <trkpt lat="46.03912" lon="6.10413">
        <ele>752.59997558594</ele>
        <time>2012-11-12T14:33:54.000Z</time>
      </trkpt>
      <trkpt lat="46.0392" lon="6.10419">
        <ele>754</ele>
        <time>2012-11-12T14:33:56.000Z</time>
      </trkpt>
      <trkpt lat="46.03925" lon="6.10425">
        <ele>754</ele>
        <time>2012-11-12T14:33:58.000Z</time>
      </trkpt>
      <trkpt lat="46.03931" lon="6.10431">
        <ele>755</ele>
        <time>2012-11-12T14:33:59.000Z</time>
      </trkpt>
      <trkpt lat="46.03942" lon="6.10443">
        <ele>756</ele>
        <time>2012-11-12T14:34:02.000Z</time>
      </trkpt>
      <trkpt lat="46.03953" lon="6.10454">
        <ele>757</ele>
        <time>2012-11-12T14:34:05.000Z</time>
      </trkpt>
      <trkpt lat="46.03958" lon="6.10455">
        <ele>757</ele>
        <time>2012-11-12T14:34:06.000Z</time>
      </trkpt>
      <trkpt lat="46.0397" lon="6.10454">
        <ele>758.20001220703</ele>
        <time>2012-11-12T14:34:09.000Z</time>
      </trkpt>
      <trkpt lat="46.03973" lon="6.10452">
        <ele>758.20001220703</ele>
        <time>2012-11-12T14:34:10.000Z</time>
      </trkpt>
      <trkpt lat="46.03981" lon="6.10447">
        <ele>759.20001220703</ele>
        <time>2012-11-12T14:34:12.000Z</time>
      </trkpt>
      <trkpt lat="46.03991" lon="6.10439">
        <ele>760.40002441406</ele>
        <time>2012-11-12T14:34:15.000Z</time>
      </trkpt>
      <trkpt lat="46.03998" lon="6.10433">
        <ele>760.40002441406</ele>
        <time>2012-11-12T14:34:17.000Z</time>
      </trkpt>
      <trkpt lat="46.04002" lon="6.1043">
        <ele>761.40002441406</ele>
        <time>2012-11-12T14:34:18.000Z</time>
      </trkpt>
      <trkpt lat="46.04029" lon="6.10407">
        <ele>761.40002441406</ele>
        <time>2012-11-12T14:34:26.000Z</time>
      </trkpt>
      <trkpt lat="46.04036" lon="6.10403">
        <ele>763.40002441406</ele>
        <time>2012-11-12T14:34:28.000Z</time>
      </trkpt>
      <trkpt lat="46.04051" lon="6.10399">
        <ele>764.40002441406</ele>
        <time>2012-11-12T14:34:32.000Z</time>
      </trkpt>
      <trkpt lat="46.04076" lon="6.10398">
        <ele>765.59997558594</ele>
        <time>2012-11-12T14:34:38.000Z</time>
      </trkpt>
      <trkpt lat="46.0408" lon="6.10399">
        <ele>765.59997558594</ele>
        <time>2012-11-12T14:34:39.000Z</time>
      </trkpt>
      <trkpt lat="46.04088" lon="6.104">
        <ele>766.59997558594</ele>
        <time>2012-11-12T14:34:41.000Z</time>
      </trkpt>
      <trkpt lat="46.04113" lon="6.10404">
        <ele>767.59997558594</ele>
        <time>2012-11-12T14:34:47.000Z</time>
      </trkpt>
      <trkpt lat="46.04118" lon="6.10404">
        <ele>767.59997558594</ele>
        <time>2012-11-12T14:34:48.000Z</time>
      </trkpt>
      <trkpt lat="46.04131" lon="6.10406">
        <ele>768.59997558594</ele>
        <time>2012-11-12T14:34:51.000Z</time>
      </trkpt>
      <trkpt lat="46.04149" lon="6.10409">
        <ele>769.59997558594</ele>
        <time>2012-11-12T14:34:55.000Z</time>
      </trkpt>
      <trkpt lat="46.04158" lon="6.10409">
        <ele>769.59997558594</ele>
        <time>2012-11-12T14:34:57.000Z</time>
      </trkpt>
      <trkpt lat="46.04167" lon="6.10411">
        <ele>771</ele>
        <time>2012-11-12T14:34:59.000Z</time>
      </trkpt>
      <trkpt lat="46.0418" lon="6.10414">
        <ele>772.20001220703</ele>
        <time>2012-11-12T14:35:02.000Z</time>
      </trkpt>
      <trkpt lat="46.04185" lon="6.10415">
        <ele>772.20001220703</ele>
        <time>2012-11-12T14:35:03.000Z</time>
      </trkpt>
      <trkpt lat="46.04193" lon="6.10418">
        <ele>773.40002441406</ele>
        <time>2012-11-12T14:35:05.000Z</time>
      </trkpt>
      <trkpt lat="46.0421" lon="6.10424">
        <ele>774.40002441406</ele>
        <time>2012-11-12T14:35:09.000Z</time>
      </trkpt>
      <trkpt lat="46.04227" lon="6.10429">
        <ele>774.40002441406</ele>
        <time>2012-11-12T14:35:13.000Z</time>
      </trkpt>
      <trkpt lat="46.04246" lon="6.1043">
        <ele>775.59997558594</ele>
        <time>2012-11-12T14:35:17.000Z</time>
      </trkpt>
      <trkpt lat="46.04254" lon="6.10427">
        <ele>775.59997558594</ele>
        <time>2012-11-12T14:35:19.000Z</time>
      </trkpt>
      <trkpt lat="46.04263" lon="6.10423">
        <ele>775.59997558594</ele>
        <time>2012-11-12T14:35:21.000Z</time>
      </trkpt>
      <trkpt lat="46.04271" lon="6.1042">
        <ele>776.59997558594</ele>
        <time>2012-11-12T14:35:23.000Z</time>
      </trkpt>
      <trkpt lat="46.04279" lon="6.10416">
        <ele>776.59997558594</ele>
        <time>2012-11-12T14:35:25.000Z</time>
      </trkpt>
      <trkpt lat="46.04283" lon="6.10415">
        <ele>777.59997558594</ele>
        <time>2012-11-12T14:35:26.000Z</time>
      </trkpt>
      <trkpt lat="46.04287" lon="6.10414">
        <ele>777.59997558594</ele>
        <time>2012-11-12T14:35:27.000Z</time>
      </trkpt>
      <trkpt lat="46.04299" lon="6.10419">
        <ele>777.59997558594</ele>
        <time>2012-11-12T14:35:30.000Z</time>
      </trkpt>
      <trkpt lat="46.04303" lon="6.10422">
        <ele>778.59997558594</ele>
        <time>2012-11-12T14:35:31.000Z</time>
      </trkpt>
      <trkpt lat="46.04309" lon="6.10437">
        <ele>779.59997558594</ele>
        <time>2012-11-12T14:35:34.000Z</time>
      </trkpt>
      <trkpt lat="46.04309" lon="6.10454">
        <ele>780.59997558594</ele>
        <time>2012-11-12T14:35:37.000Z</time>
      </trkpt>
      <trkpt lat="46.04307" lon="6.10459">
        <ele>780.59997558594</ele>
        <time>2012-11-12T14:35:38.000Z</time>
      </trkpt>
      <trkpt lat="46.04295" lon="6.10474">
        <ele>780.59997558594</ele>
        <time>2012-11-12T14:35:42.000Z</time>
      </trkpt>
      <trkpt lat="46.04287" lon="6.10476">
        <ele>781.59997558594</ele>
        <time>2012-11-12T14:35:44.000Z</time>
      </trkpt>
      <trkpt lat="46.04284" lon="6.10477">
        <ele>781.59997558594</ele>
        <time>2012-11-12T14:35:45.000Z</time>
      </trkpt>
      <trkpt lat="46.0428" lon="6.10476">
        <ele>781.59997558594</ele>
        <time>2012-11-12T14:35:46.000Z</time>
      </trkpt>
      <trkpt lat="46.04271" lon="6.10476">
        <ele>783.20001220703</ele>
        <time>2012-11-12T14:35:48.000Z</time>
      </trkpt>
      <trkpt lat="46.04253" lon="6.10475">
        <ele>784.20001220703</ele>
        <time>2012-11-12T14:35:52.000Z</time>
      </trkpt>
      <trkpt lat="46.04248" lon="6.10476">
        <ele>784.20001220703</ele>
        <time>2012-11-12T14:35:53.000Z</time>
      </trkpt>
      <trkpt lat="46.0423" lon="6.10483">
        <ele>784.20001220703</ele>
        <time>2012-11-12T14:35:57.000Z</time>
      </trkpt>
      <trkpt lat="46.04226" lon="6.10486">
        <ele>785.40002441406</ele>
        <time>2012-11-12T14:35:58.000Z</time>
      </trkpt>
      <trkpt lat="46.04222" lon="6.1049">
        <ele>785.40002441406</ele>
        <time>2012-11-12T14:35:59.000Z</time>
      </trkpt>
      <trkpt lat="46.04211" lon="6.10502">
        <ele>785.40002441406</ele>
        <time>2012-11-12T14:36:02.000Z</time>
      </trkpt>
      <trkpt lat="46.04207" lon="6.10506">
        <ele>786.40002441406</ele>
        <time>2012-11-12T14:36:03.000Z</time>
      </trkpt>
      <trkpt lat="46.04201" lon="6.10515">
        <ele>787.40002441406</ele>
        <time>2012-11-12T14:36:05.000Z</time>
      </trkpt>
      <trkpt lat="46.04187" lon="6.10531">
        <ele>789</ele>
        <time>2012-11-12T14:36:09.000Z</time>
      </trkpt>
      <trkpt lat="46.04179" lon="6.10537">
        <ele>789</ele>
        <time>2012-11-12T14:36:11.000Z</time>
      </trkpt>
      <trkpt lat="46.04171" lon="6.10542">
        <ele>790.20001220703</ele>
        <time>2012-11-12T14:36:13.000Z</time>
      </trkpt>
      <trkpt lat="46.04151" lon="6.10552">
        <ele>791.20001220703</ele>
        <time>2012-11-12T14:36:18.000Z</time>
      </trkpt>
      <trkpt lat="46.04147" lon="6.10556">
        <ele>791.20001220703</ele>
        <time>2012-11-12T14:36:19.000Z</time>
      </trkpt>
      <trkpt lat="46.0414" lon="6.10568">
        <ele>792.20001220703</ele>
        <time>2012-11-12T14:36:22.000Z</time>
      </trkpt>
      <trkpt lat="46.04137" lon="6.10593">
        <ele>792.20001220703</ele>
        <time>2012-11-12T14:36:26.000Z</time>
      </trkpt>
      <trkpt lat="46.04137" lon="6.10599">
        <ele>793.40002441406</ele>
        <time>2012-11-12T14:36:27.000Z</time>
      </trkpt>
      <trkpt lat="46.0414" lon="6.1061">
        <ele>794.40002441406</ele>
        <time>2012-11-12T14:36:29.000Z</time>
      </trkpt>
      <trkpt lat="46.04145" lon="6.1062">
        <ele>794.40002441406</ele>
        <time>2012-11-12T14:36:31.000Z</time>
      </trkpt>
      <trkpt lat="46.04147" lon="6.10625">
        <ele>794.40002441406</ele>
        <time>2012-11-12T14:36:32.000Z</time>
      </trkpt>
      <trkpt lat="46.04152" lon="6.10634">
        <ele>795.40002441406</ele>
        <time>2012-11-12T14:36:34.000Z</time>
      </trkpt>
      <trkpt lat="46.04162" lon="6.10652">
        <ele>795.40002441406</ele>
        <time>2012-11-12T14:36:38.000Z</time>
      </trkpt>
      <trkpt lat="46.04164" lon="6.10657">
        <ele>795.40002441406</ele>
        <time>2012-11-12T14:36:39.000Z</time>
      </trkpt>
      <trkpt lat="46.04167" lon="6.10661">
        <ele>796.40002441406</ele>
        <time>2012-11-12T14:36:40.000Z</time>
      </trkpt>
      <trkpt lat="46.04172" lon="6.10671">
        <ele>797.40002441406</ele>
        <time>2012-11-12T14:36:42.000Z</time>
      </trkpt>
      <trkpt lat="46.04183" lon="6.10689">
        <ele>797.40002441406</ele>
        <time>2012-11-12T14:36:46.000Z</time>
      </trkpt>
      <trkpt lat="46.04185" lon="6.10693">
        <ele>798.59997558594</ele>
        <time>2012-11-12T14:36:47.000Z</time>
      </trkpt>
      <trkpt lat="46.04186" lon="6.10699">
        <ele>798.59997558594</ele>
        <time>2012-11-12T14:36:48.000Z</time>
      </trkpt>
      <trkpt lat="46.04191" lon="6.10716">
        <ele>800</ele>
        <time>2012-11-12T14:36:51.000Z</time>
      </trkpt>
      <trkpt lat="46.04191" lon="6.1072">
        <ele>800</ele>
        <time>2012-11-12T14:36:52.000Z</time>
      </trkpt>
      <trkpt lat="46.04192" lon="6.1074">
        <ele>801</ele>
        <time>2012-11-12T14:36:55.000Z</time>
      </trkpt>
      <trkpt lat="46.04192" lon="6.10745">
        <ele>801</ele>
        <time>2012-11-12T14:36:56.000Z</time>
      </trkpt>
      <trkpt lat="46.04193" lon="6.10751">
        <ele>802.20001220703</ele>
        <time>2012-11-12T14:36:57.000Z</time>
      </trkpt>
      <trkpt lat="46.04195" lon="6.1078">
        <ele>803.20001220703</ele>
        <time>2012-11-12T14:37:02.000Z</time>
      </trkpt>
      <trkpt lat="46.04197" lon="6.10786">
        <ele>803.20001220703</ele>
        <time>2012-11-12T14:37:03.000Z</time>
      </trkpt>
      <trkpt lat="46.04201" lon="6.10795">
        <ele>804.40002441406</ele>
        <time>2012-11-12T14:37:05.000Z</time>
      </trkpt>
      <trkpt lat="46.04208" lon="6.10801">
        <ele>804.40002441406</ele>
        <time>2012-11-12T14:37:07.000Z</time>
      </trkpt>
      <trkpt lat="46.0422" lon="6.10804">
        <ele>805.40002441406</ele>
        <time>2012-11-12T14:37:10.000Z</time>
      </trkpt>
      <trkpt lat="46.04224" lon="6.10803">
        <ele>805.40002441406</ele>
        <time>2012-11-12T14:37:11.000Z</time>
      </trkpt>
      <trkpt lat="46.04235" lon="6.10794">
        <ele>806.40002441406</ele>
        <time>2012-11-12T14:37:14.000Z</time>
      </trkpt>
      <trkpt lat="46.04239" lon="6.1079">
        <ele>806.40002441406</ele>
        <time>2012-11-12T14:37:15.000Z</time>
      </trkpt>
      <trkpt lat="46.04242" lon="6.10786">
        <ele>806.40002441406</ele>
        <time>2012-11-12T14:37:16.000Z</time>
      </trkpt>
      <trkpt lat="46.04249" lon="6.10778">
        <ele>807.40002441406</ele>
        <time>2012-11-12T14:37:18.000Z</time>
      </trkpt>
      <trkpt lat="46.04256" lon="6.10769">
        <ele>808.40002441406</ele>
        <time>2012-11-12T14:37:20.000Z</time>
      </trkpt>
      <trkpt lat="46.04267" lon="6.10757">
        <ele>808.40002441406</ele>
        <time>2012-11-12T14:37:23.000Z</time>
      </trkpt>
      <trkpt lat="46.04274" lon="6.1075">
        <ele>808.40002441406</ele>
        <time>2012-11-12T14:37:25.000Z</time>
      </trkpt>
      <trkpt lat="46.04281" lon="6.10745">
        <ele>810</ele>
        <time>2012-11-12T14:37:27.000Z</time>
      </trkpt>
      <trkpt lat="46.0429" lon="6.10742">
        <ele>810</ele>
        <time>2012-11-12T14:37:29.000Z</time>
      </trkpt>
      <trkpt lat="46.04298" lon="6.10743">
        <ele>811.20001220703</ele>
        <time>2012-11-12T14:37:31.000Z</time>
      </trkpt>
      <trkpt lat="46.04306" lon="6.10744">
        <ele>811.20001220703</ele>
        <time>2012-11-12T14:37:33.000Z</time>
      </trkpt>
      <trkpt lat="46.04309" lon="6.10746">
        <ele>811.20001220703</ele>
        <time>2012-11-12T14:37:34.000Z</time>
      </trkpt>
      <trkpt lat="46.04314" lon="6.10748">
        <ele>812.59997558594</ele>
        <time>2012-11-12T14:37:35.000Z</time>
      </trkpt>
      <trkpt lat="46.04334" lon="6.10757">
        <ele>813.59997558594</ele>
        <time>2012-11-12T14:37:40.000Z</time>
      </trkpt>
      <trkpt lat="46.04339" lon="6.10759">
        <ele>813.59997558594</ele>
        <time>2012-11-12T14:37:41.000Z</time>
      </trkpt>
      <trkpt lat="46.04357" lon="6.10766">
        <ele>815</ele>
        <time>2012-11-12T14:37:45.000Z</time>
      </trkpt>
      <trkpt lat="46.04371" lon="6.10772">
        <ele>815</ele>
        <time>2012-11-12T14:37:48.000Z</time>
      </trkpt>
      <trkpt lat="46.04397" lon="6.10781">
        <ele>816</ele>
        <time>2012-11-12T14:37:53.000Z</time>
      </trkpt>
      <trkpt lat="46.04416" lon="6.10785">
        <ele>816</ele>
        <time>2012-11-12T14:37:57.000Z</time>
      </trkpt>
      <trkpt lat="46.04421" lon="6.10786">
        <ele>817</ele>
        <time>2012-11-12T14:37:58.000Z</time>
      </trkpt>
      <trkpt lat="46.04462" lon="6.10795">
        <ele>817</ele>
        <time>2012-11-12T14:38:06.000Z</time>
      </trkpt>
      <trkpt lat="46.04477" lon="6.10799">
        <ele>818</ele>
        <time>2012-11-12T14:38:09.000Z</time>
      </trkpt>
      <trkpt lat="46.04497" lon="6.10807">
        <ele>818</ele>
        <time>2012-11-12T14:38:13.000Z</time>
      </trkpt>
      <trkpt lat="46.04501" lon="6.10811">
        <ele>818</ele>
        <time>2012-11-12T14:38:14.000Z</time>
      </trkpt>
      <trkpt lat="46.04513" lon="6.10826">
        <ele>819.20001220703</ele>
        <time>2012-11-12T14:38:17.000Z</time>
      </trkpt>
      <trkpt lat="46.04517" lon="6.10833">
        <ele>819.20001220703</ele>
        <time>2012-11-12T14:38:18.000Z</time>
      </trkpt>
      <trkpt lat="46.0452" lon="6.10839">
        <ele>820.40002441406</ele>
        <time>2012-11-12T14:38:19.000Z</time>
      </trkpt>
      <trkpt lat="46.04523" lon="6.10844">
        <ele>821.40002441406</ele>
        <time>2012-11-12T14:38:20.000Z</time>
      </trkpt>
      <trkpt lat="46.0453" lon="6.10854">
        <ele>821.40002441406</ele>
        <time>2012-11-12T14:38:22.000Z</time>
      </trkpt>
      <trkpt lat="46.04538" lon="6.10865">
        <ele>821.40002441406</ele>
        <time>2012-11-12T14:38:24.000Z</time>
      </trkpt>
      <trkpt lat="46.04547" lon="6.10873">
        <ele>821.40002441406</ele>
        <time>2012-11-12T14:38:26.000Z</time>
      </trkpt>
      <trkpt lat="46.04561" lon="6.1088">
        <ele>821.40002441406</ele>
        <time>2012-11-12T14:38:29.000Z</time>
      </trkpt>
      <trkpt lat="46.04567" lon="6.10881">
        <ele>821.40002441406</ele>
        <time>2012-11-12T14:38:30.000Z</time>
      </trkpt>
      <trkpt lat="46.04599" lon="6.10891">
        <ele>821.40002441406</ele>
        <time>2012-11-12T14:38:36.000Z</time>
      </trkpt>
      <trkpt lat="46.04604" lon="6.10895">
        <ele>821.40002441406</ele>
        <time>2012-11-12T14:38:37.000Z</time>
      </trkpt>
      <trkpt lat="46.04611" lon="6.10906">
        <ele>822.40002441406</ele>
        <time>2012-11-12T14:38:39.000Z</time>
      </trkpt>
      <trkpt lat="46.04614" lon="6.10912">
        <ele>822.40002441406</ele>
        <time>2012-11-12T14:38:40.000Z</time>
      </trkpt>
      <trkpt lat="46.04644" lon="6.10968">
        <ele>822.40002441406</ele>
        <time>2012-11-12T14:38:49.000Z</time>
      </trkpt>
      <trkpt lat="46.04647" lon="6.10974">
        <ele>823.59997558594</ele>
        <time>2012-11-12T14:38:50.000Z</time>
      </trkpt>
      <trkpt lat="46.04653" lon="6.10986">
        <ele>824.59997558594</ele>
        <time>2012-11-12T14:38:52.000Z</time>
      </trkpt>
      <trkpt lat="46.04655" lon="6.10994">
        <ele>824.59997558594</ele>
        <time>2012-11-12T14:38:53.000Z</time>
      </trkpt>
      <trkpt lat="46.04657" lon="6.11014">
        <ele>826.20001220703</ele>
        <time>2012-11-12T14:38:56.000Z</time>
      </trkpt>
      <trkpt lat="46.04653" lon="6.11032">
        <ele>827.40002441406</ele>
        <time>2012-11-12T14:38:59.000Z</time>
      </trkpt>
      <trkpt lat="46.04651" lon="6.11044">
        <ele>827.40002441406</ele>
        <time>2012-11-12T14:39:01.000Z</time>
      </trkpt>
      <trkpt lat="46.04651" lon="6.1105">
        <ele>828.40002441406</ele>
        <time>2012-11-12T14:39:02.000Z</time>
      </trkpt>
      <trkpt lat="46.04653" lon="6.11075">
        <ele>829.40002441406</ele>
        <time>2012-11-12T14:39:06.000Z</time>
      </trkpt>
      <trkpt lat="46.04655" lon="6.11087">
        <ele>829.40002441406</ele>
        <time>2012-11-12T14:39:08.000Z</time>
      </trkpt>
      <trkpt lat="46.0466" lon="6.11106">
        <ele>830.59997558594</ele>
        <time>2012-11-12T14:39:11.000Z</time>
      </trkpt>
      <trkpt lat="46.04661" lon="6.11111">
        <ele>830.59997558594</ele>
        <time>2012-11-12T14:39:12.000Z</time>
      </trkpt>
      <trkpt lat="46.04661" lon="6.11118">
        <ele>830.59997558594</ele>
        <time>2012-11-12T14:39:13.000Z</time>
      </trkpt>
      <trkpt lat="46.04659" lon="6.11131">
        <ele>831.59997558594</ele>
        <time>2012-11-12T14:39:15.000Z</time>
      </trkpt>
      <trkpt lat="46.04654" lon="6.11141">
        <ele>833</ele>
        <time>2012-11-12T14:39:17.000Z</time>
      </trkpt>
      <trkpt lat="46.04646" lon="6.11153">
        <ele>833</ele>
        <time>2012-11-12T14:39:20.000Z</time>
      </trkpt>
      <trkpt lat="46.04643" lon="6.11157">
        <ele>834.20001220703</ele>
        <time>2012-11-12T14:39:21.000Z</time>
      </trkpt>
      <trkpt lat="46.0464" lon="6.1116">
        <ele>834.20001220703</ele>
        <time>2012-11-12T14:39:22.000Z</time>
      </trkpt>
      <trkpt lat="46.04636" lon="6.1117">
        <ele>834.20001220703</ele>
        <time>2012-11-12T14:39:24.000Z</time>
      </trkpt>
      <trkpt lat="46.04632" lon="6.1118">
        <ele>835.20001220703</ele>
        <time>2012-11-12T14:39:26.000Z</time>
      </trkpt>
      <trkpt lat="46.04628" lon="6.11195">
        <ele>835.20001220703</ele>
        <time>2012-11-12T14:39:29.000Z</time>
      </trkpt>
      <trkpt lat="46.04626" lon="6.11201">
        <ele>836.20001220703</ele>
        <time>2012-11-12T14:39:30.000Z</time>
      </trkpt>
      <trkpt lat="46.04621" lon="6.11221">
        <ele>837.40002441406</ele>
        <time>2012-11-12T14:39:34.000Z</time>
      </trkpt>
      <trkpt lat="46.0462" lon="6.11226">
        <ele>837.40002441406</ele>
        <time>2012-11-12T14:39:35.000Z</time>
      </trkpt>
      <trkpt lat="46.04618" lon="6.11243">
        <ele>838.40002441406</ele>
        <time>2012-11-12T14:39:38.000Z</time>
      </trkpt>
      <trkpt lat="46.04617" lon="6.11259">
        <ele>838.40002441406</ele>
        <time>2012-11-12T14:39:41.000Z</time>
      </trkpt>
      <trkpt lat="46.04619" lon="6.1127">
        <ele>839.40002441406</ele>
        <time>2012-11-12T14:39:43.000Z</time>
      </trkpt>
      <trkpt lat="46.04623" lon="6.11286">
        <ele>840.59997558594</ele>
        <time>2012-11-12T14:39:46.000Z</time>
      </trkpt>
      <trkpt lat="46.04624" lon="6.11291">
        <ele>840.59997558594</ele>
        <time>2012-11-12T14:39:47.000Z</time>
      </trkpt>
      <trkpt lat="46.04628" lon="6.11308">
        <ele>841.59997558594</ele>
        <time>2012-11-12T14:39:50.000Z</time>
      </trkpt>
      <trkpt lat="46.04633" lon="6.1133">
        <ele>841.59997558594</ele>
        <time>2012-11-12T14:39:54.000Z</time>
      </trkpt>
      <trkpt lat="46.04634" lon="6.11341">
        <ele>843</ele>
        <time>2012-11-12T14:39:56.000Z</time>
      </trkpt>
      <trkpt lat="46.04636" lon="6.11364">
        <ele>843</ele>
        <time>2012-11-12T14:40:00.000Z</time>
      </trkpt>
      <trkpt lat="46.04635" lon="6.1137">
        <ele>844.20001220703</ele>
        <time>2012-11-12T14:40:01.000Z</time>
      </trkpt>
      <trkpt lat="46.04631" lon="6.11401">
        <ele>845.40002441406</ele>
        <time>2012-11-12T14:40:06.000Z</time>
      </trkpt>
      <trkpt lat="46.04629" lon="6.11419">
        <ele>845.40002441406</ele>
        <time>2012-11-12T14:40:09.000Z</time>
      </trkpt>
      <trkpt lat="46.0463" lon="6.1143">
        <ele>846.40002441406</ele>
        <time>2012-11-12T14:40:11.000Z</time>
      </trkpt>
      <trkpt lat="46.04631" lon="6.11435">
        <ele>846.40002441406</ele>
        <time>2012-11-12T14:40:12.000Z</time>
      </trkpt>
      <trkpt lat="46.04635" lon="6.11445">
        <ele>846.40002441406</ele>
        <time>2012-11-12T14:40:14.000Z</time>
      </trkpt>
      <trkpt lat="46.04638" lon="6.11449">
        <ele>847.40002441406</ele>
        <time>2012-11-12T14:40:15.000Z</time>
      </trkpt>
      <trkpt lat="46.04645" lon="6.11454">
        <ele>847.40002441406</ele>
        <time>2012-11-12T14:40:17.000Z</time>
      </trkpt>
      <trkpt lat="46.04658" lon="6.11455">
        <ele>848.40002441406</ele>
        <time>2012-11-12T14:40:20.000Z</time>
      </trkpt>
      <trkpt lat="46.04662" lon="6.11452">
        <ele>848.40002441406</ele>
        <time>2012-11-12T14:40:21.000Z</time>
      </trkpt>
      <trkpt lat="46.04676" lon="6.11429">
        <ele>848.40002441406</ele>
        <time>2012-11-12T14:40:26.000Z</time>
      </trkpt>
      <trkpt lat="46.04676" lon="6.11405">
        <ele>848.40002441406</ele>
        <time>2012-11-12T14:40:30.000Z</time>
      </trkpt>
      <trkpt lat="46.04675" lon="6.11399">
        <ele>849.59997558594</ele>
        <time>2012-11-12T14:40:31.000Z</time>
      </trkpt>
      <trkpt lat="46.04665" lon="6.11355">
        <ele>849.59997558594</ele>
        <time>2012-11-12T14:40:38.000Z</time>
      </trkpt>
      <trkpt lat="46.04663" lon="6.11348">
        <ele>850.59997558594</ele>
        <time>2012-11-12T14:40:39.000Z</time>
      </trkpt>
      <trkpt lat="46.04657" lon="6.11307">
        <ele>850.59997558594</ele>
        <time>2012-11-12T14:40:45.000Z</time>
      </trkpt>
      <trkpt lat="46.04656" lon="6.113">
        <ele>851.59997558594</ele>
        <time>2012-11-12T14:40:46.000Z</time>
      </trkpt>
      <trkpt lat="46.04657" lon="6.11286">
        <ele>851.59997558594</ele>
        <time>2012-11-12T14:40:48.000Z</time>
      </trkpt>
      <trkpt lat="46.04659" lon="6.11272">
        <ele>852.59997558594</ele>
        <time>2012-11-12T14:40:50.000Z</time>
      </trkpt>
      <trkpt lat="46.04662" lon="6.11265">
        <ele>852.59997558594</ele>
        <time>2012-11-12T14:40:51.000Z</time>
      </trkpt>
      <trkpt lat="46.04676" lon="6.11247">
        <ele>852.59997558594</ele>
        <time>2012-11-12T14:40:55.000Z</time>
      </trkpt>
      <trkpt lat="46.04684" lon="6.11241">
        <ele>852.59997558594</ele>
        <time>2012-11-12T14:40:57.000Z</time>
      </trkpt>
      <trkpt lat="46.04689" lon="6.11237">
        <ele>853.59997558594</ele>
        <time>2012-11-12T14:40:58.000Z</time>
      </trkpt>
      <trkpt lat="46.04706" lon="6.11221">
        <ele>855</ele>
        <time>2012-11-12T14:41:02.000Z</time>
      </trkpt>
      <trkpt lat="46.04713" lon="6.11211">
        <ele>855</ele>
        <time>2012-11-12T14:41:04.000Z</time>
      </trkpt>
      <trkpt lat="46.04716" lon="6.11204">
        <ele>856</ele>
        <time>2012-11-12T14:41:05.000Z</time>
      </trkpt>
      <trkpt lat="46.0472" lon="6.11191">
        <ele>856</ele>
        <time>2012-11-12T14:41:07.000Z</time>
      </trkpt>
      <trkpt lat="46.04722" lon="6.11184">
        <ele>856</ele>
        <time>2012-11-12T14:41:08.000Z</time>
      </trkpt>
      <trkpt lat="46.04723" lon="6.11177">
        <ele>857.20001220703</ele>
        <time>2012-11-12T14:41:09.000Z</time>
      </trkpt>
      <trkpt lat="46.04731" lon="6.11159">
        <ele>857.20001220703</ele>
        <time>2012-11-12T14:41:12.000Z</time>
      </trkpt>
      <trkpt lat="46.04735" lon="6.11155">
        <ele>858.40002441406</ele>
        <time>2012-11-12T14:41:13.000Z</time>
      </trkpt>
      <trkpt lat="46.04747" lon="6.11145">
        <ele>858.40002441406</ele>
        <time>2012-11-12T14:41:16.000Z</time>
      </trkpt>
      <trkpt lat="46.04751" lon="6.11143">
        <ele>858.40002441406</ele>
        <time>2012-11-12T14:41:17.000Z</time>
      </trkpt>
      <trkpt lat="46.04755" lon="6.1114">
        <ele>858.40002441406</ele>
        <time>2012-11-12T14:41:18.000Z</time>
      </trkpt>
      <trkpt lat="46.0476" lon="6.11138">
        <ele>859.40002441406</ele>
        <time>2012-11-12T14:41:19.000Z</time>
      </trkpt>
      <trkpt lat="46.04768" lon="6.11132">
        <ele>860.40002441406</ele>
        <time>2012-11-12T14:41:21.000Z</time>
      </trkpt>
      <trkpt lat="46.0478" lon="6.11122">
        <ele>861.59997558594</ele>
        <time>2012-11-12T14:41:24.000Z</time>
      </trkpt>
      <trkpt lat="46.04786" lon="6.11114">
        <ele>861.59997558594</ele>
        <time>2012-11-12T14:41:26.000Z</time>
      </trkpt>
      <trkpt lat="46.04789" lon="6.11109">
        <ele>863</ele>
        <time>2012-11-12T14:41:27.000Z</time>
      </trkpt>
      <trkpt lat="46.04802" lon="6.11085">
        <ele>864</ele>
        <time>2012-11-12T14:41:32.000Z</time>
      </trkpt>
      <trkpt lat="46.04804" lon="6.1108">
        <ele>865.20001220703</ele>
        <time>2012-11-12T14:41:33.000Z</time>
      </trkpt>
      <trkpt lat="46.04812" lon="6.11065">
        <ele>866.40002441406</ele>
        <time>2012-11-12T14:41:36.000Z</time>
      </trkpt>
      <trkpt lat="46.04821" lon="6.11052">
        <ele>866.40002441406</ele>
        <time>2012-11-12T14:41:39.000Z</time>
      </trkpt>
      <trkpt lat="46.04828" lon="6.11045">
        <ele>867.40002441406</ele>
        <time>2012-11-12T14:41:41.000Z</time>
      </trkpt>
      <trkpt lat="46.0484" lon="6.11031">
        <ele>868.40002441406</ele>
        <time>2012-11-12T14:41:45.000Z</time>
      </trkpt>
      <trkpt lat="46.0485" lon="6.11021">
        <ele>868.40002441406</ele>
        <time>2012-11-12T14:41:48.000Z</time>
      </trkpt>
      <trkpt lat="46.04857" lon="6.11014">
        <ele>869.40002441406</ele>
        <time>2012-11-12T14:41:50.000Z</time>
      </trkpt>
      <trkpt lat="46.04863" lon="6.11007">
        <ele>869.40002441406</ele>
        <time>2012-11-12T14:41:52.000Z</time>
      </trkpt>
      <trkpt lat="46.04867" lon="6.11002">
        <ele>870.40002441406</ele>
        <time>2012-11-12T14:41:53.000Z</time>
      </trkpt>
      <trkpt lat="46.04873" lon="6.10994">
        <ele>870.40002441406</ele>
        <time>2012-11-12T14:41:55.000Z</time>
      </trkpt>
      <trkpt lat="46.04876" lon="6.1099">
        <ele>871.40002441406</ele>
        <time>2012-11-12T14:41:56.000Z</time>
      </trkpt>
      <trkpt lat="46.04888" lon="6.10973">
        <ele>872.59997558594</ele>
        <time>2012-11-12T14:42:00.000Z</time>
      </trkpt>
      <trkpt lat="46.04898" lon="6.10956">
        <ele>872.59997558594</ele>
        <time>2012-11-12T14:42:04.000Z</time>
      </trkpt>
      <trkpt lat="46.04902" lon="6.10952">
        <ele>873.59997558594</ele>
        <time>2012-11-12T14:42:05.000Z</time>
      </trkpt>
      <trkpt lat="46.04916" lon="6.10942">
        <ele>873.59997558594</ele>
        <time>2012-11-12T14:42:09.000Z</time>
      </trkpt>
      <trkpt lat="46.0492" lon="6.10941">
        <ele>874.59997558594</ele>
        <time>2012-11-12T14:42:10.000Z</time>
      </trkpt>
      <trkpt lat="46.04925" lon="6.10941">
        <ele>874.59997558594</ele>
        <time>2012-11-12T14:42:11.000Z</time>
      </trkpt>
      <trkpt lat="46.04937" lon="6.10944">
        <ele>874.59997558594</ele>
        <time>2012-11-12T14:42:14.000Z</time>
      </trkpt>
      <trkpt lat="46.0494" lon="6.10945">
        <ele>875.59997558594</ele>
        <time>2012-11-12T14:42:15.000Z</time>
      </trkpt>
      <trkpt lat="46.04947" lon="6.1095">
        <ele>877</ele>
        <time>2012-11-12T14:42:17.000Z</time>
      </trkpt>
      <trkpt lat="46.04954" lon="6.10955">
        <ele>877</ele>
        <time>2012-11-12T14:42:19.000Z</time>
      </trkpt>
      <trkpt lat="46.04962" lon="6.10961">
        <ele>878.20001220703</ele>
        <time>2012-11-12T14:42:21.000Z</time>
      </trkpt>
      <trkpt lat="46.04978" lon="6.10972">
        <ele>879.40002441406</ele>
        <time>2012-11-12T14:42:25.000Z</time>
      </trkpt>
      <trkpt lat="46.04985" lon="6.10976">
        <ele>880.40002441406</ele>
        <time>2012-11-12T14:42:27.000Z</time>
      </trkpt>
      <trkpt lat="46.05" lon="6.10984">
        <ele>880.40002441406</ele>
        <time>2012-11-12T14:42:31.000Z</time>
      </trkpt>
      <trkpt lat="46.05004" lon="6.10986">
        <ele>881.40002441406</ele>
        <time>2012-11-12T14:42:32.000Z</time>
      </trkpt>
      <trkpt lat="46.05015" lon="6.10992">
        <ele>882.59997558594</ele>
        <time>2012-11-12T14:42:35.000Z</time>
      </trkpt>
      <trkpt lat="46.05018" lon="6.10993">
        <ele>882.59997558594</ele>
        <time>2012-11-12T14:42:36.000Z</time>
      </trkpt>
      <trkpt lat="46.05031" lon="6.10995">
        <ele>883.59997558594</ele>
        <time>2012-11-12T14:42:39.000Z</time>
      </trkpt>
      <trkpt lat="46.05039" lon="6.10993">
        <ele>883.59997558594</ele>
        <time>2012-11-12T14:42:41.000Z</time>
      </trkpt>
      <trkpt lat="46.05043" lon="6.1099">
        <ele>883.59997558594</ele>
        <time>2012-11-12T14:42:42.000Z</time>
      </trkpt>
      <trkpt lat="46.05051" lon="6.10975">
        <ele>884.59997558594</ele>
        <time>2012-11-12T14:42:45.000Z</time>
      </trkpt>
      <trkpt lat="46.05053" lon="6.10969">
        <ele>884.59997558594</ele>
        <time>2012-11-12T14:42:46.000Z</time>
      </trkpt>
      <trkpt lat="46.05054" lon="6.10954">
        <ele>886</ele>
        <time>2012-11-12T14:42:48.000Z</time>
      </trkpt>
      <trkpt lat="46.05051" lon="6.10941">
        <ele>886</ele>
        <time>2012-11-12T14:42:50.000Z</time>
      </trkpt>
      <trkpt lat="46.05045" lon="6.10931">
        <ele>887</ele>
        <time>2012-11-12T14:42:52.000Z</time>
      </trkpt>
      <trkpt lat="46.0504" lon="6.10926">
        <ele>887</ele>
        <time>2012-11-12T14:42:53.000Z</time>
      </trkpt>
      <trkpt lat="46.05036" lon="6.10921">
        <ele>887</ele>
        <time>2012-11-12T14:42:54.000Z</time>
      </trkpt>
      <trkpt lat="46.05024" lon="6.10907">
        <ele>887</ele>
        <time>2012-11-12T14:42:57.000Z</time>
      </trkpt>
      <trkpt lat="46.05022" lon="6.109">
        <ele>888.20001220703</ele>
        <time>2012-11-12T14:42:58.000Z</time>
      </trkpt>
      <trkpt lat="46.0502" lon="6.10893">
        <ele>888.20001220703</ele>
        <time>2012-11-12T14:42:59.000Z</time>
      </trkpt>
      <trkpt lat="46.0502" lon="6.10873">
        <ele>889.20001220703</ele>
        <time>2012-11-12T14:43:02.000Z</time>
      </trkpt>
      <trkpt lat="46.05021" lon="6.10865">
        <ele>889.20001220703</ele>
        <time>2012-11-12T14:43:03.000Z</time>
      </trkpt>
      <trkpt lat="46.05024" lon="6.10852">
        <ele>889.20001220703</ele>
        <time>2012-11-12T14:43:05.000Z</time>
      </trkpt>
      <trkpt lat="46.05027" lon="6.10839">
        <ele>890.20001220703</ele>
        <time>2012-11-12T14:43:07.000Z</time>
      </trkpt>
      <trkpt lat="46.05029" lon="6.10833">
        <ele>890.20001220703</ele>
        <time>2012-11-12T14:43:08.000Z</time>
      </trkpt>
      <trkpt lat="46.05032" lon="6.10827">
        <ele>890.20001220703</ele>
        <time>2012-11-12T14:43:09.000Z</time>
      </trkpt>
      <trkpt lat="46.05039" lon="6.10818">
        <ele>891.20001220703</ele>
        <time>2012-11-12T14:43:11.000Z</time>
      </trkpt>
      <trkpt lat="46.05048" lon="6.10813">
        <ele>891.20001220703</ele>
        <time>2012-11-12T14:43:13.000Z</time>
      </trkpt>
      <trkpt lat="46.05057" lon="6.1081">
        <ele>891.20001220703</ele>
        <time>2012-11-12T14:43:15.000Z</time>
      </trkpt>
      <trkpt lat="46.05065" lon="6.10808">
        <ele>892.40002441406</ele>
        <time>2012-11-12T14:43:17.000Z</time>
      </trkpt>
      <trkpt lat="46.05073" lon="6.10806">
        <ele>893.59997558594</ele>
        <time>2012-11-12T14:43:19.000Z</time>
      </trkpt>
      <trkpt lat="46.05077" lon="6.10805">
        <ele>893.59997558594</ele>
        <time>2012-11-12T14:43:20.000Z</time>
      </trkpt>
      <trkpt lat="46.05093" lon="6.108">
        <ele>894.59997558594</ele>
        <time>2012-11-12T14:43:24.000Z</time>
      </trkpt>
      <trkpt lat="46.05101" lon="6.10796">
        <ele>895.59997558594</ele>
        <time>2012-11-12T14:43:26.000Z</time>
      </trkpt>
      <trkpt lat="46.05104" lon="6.10793">
        <ele>895.59997558594</ele>
        <time>2012-11-12T14:43:27.000Z</time>
      </trkpt>
      <trkpt lat="46.05107" lon="6.10789">
        <ele>895.59997558594</ele>
        <time>2012-11-12T14:43:28.000Z</time>
      </trkpt>
      <trkpt lat="46.05112" lon="6.10779">
        <ele>897.20001220703</ele>
        <time>2012-11-12T14:43:30.000Z</time>
      </trkpt>
      <trkpt lat="46.05116" lon="6.10768">
        <ele>897.20001220703</ele>
        <time>2012-11-12T14:43:32.000Z</time>
      </trkpt>
      <trkpt lat="46.05117" lon="6.10749">
        <ele>898.20001220703</ele>
        <time>2012-11-12T14:43:35.000Z</time>
      </trkpt>
      <trkpt lat="46.05116" lon="6.10736">
        <ele>898.20001220703</ele>
        <time>2012-11-12T14:43:37.000Z</time>
      </trkpt>
      <trkpt lat="46.05116" lon="6.10723">
        <ele>899.40002441406</ele>
        <time>2012-11-12T14:43:39.000Z</time>
      </trkpt>
      <trkpt lat="46.05114" lon="6.10706">
        <ele>900.40002441406</ele>
        <time>2012-11-12T14:43:42.000Z</time>
      </trkpt>
      <trkpt lat="46.05113" lon="6.10681">
        <ele>900.40002441406</ele>
        <time>2012-11-12T14:43:46.000Z</time>
      </trkpt>
      <trkpt lat="46.05113" lon="6.10675">
        <ele>901.59997558594</ele>
        <time>2012-11-12T14:43:47.000Z</time>
      </trkpt>
      <trkpt lat="46.05114" lon="6.10669">
        <ele>901.59997558594</ele>
        <time>2012-11-12T14:43:48.000Z</time>
      </trkpt>
      <trkpt lat="46.05119" lon="6.10652">
        <ele>901.59997558594</ele>
        <time>2012-11-12T14:43:51.000Z</time>
      </trkpt>
      <trkpt lat="46.05127" lon="6.10638">
        <ele>902.59997558594</ele>
        <time>2012-11-12T14:43:54.000Z</time>
      </trkpt>
      <trkpt lat="46.0513" lon="6.10633">
        <ele>902.59997558594</ele>
        <time>2012-11-12T14:43:55.000Z</time>
      </trkpt>
      <trkpt lat="46.05136" lon="6.10624">
        <ele>902.59997558594</ele>
        <time>2012-11-12T14:43:57.000Z</time>
      </trkpt>
      <trkpt lat="46.05138" lon="6.10619">
        <ele>904</ele>
        <time>2012-11-12T14:43:58.000Z</time>
      </trkpt>
      <trkpt lat="46.05141" lon="6.10614">
        <ele>904</ele>
        <time>2012-11-12T14:43:59.000Z</time>
      </trkpt>
      <trkpt lat="46.05144" lon="6.10598">
        <ele>905</ele>
        <time>2012-11-12T14:44:02.000Z</time>
      </trkpt>
      <trkpt lat="46.05145" lon="6.10592">
        <ele>905</ele>
        <time>2012-11-12T14:44:03.000Z</time>
      </trkpt>
      <trkpt lat="46.05144" lon="6.1057">
        <ele>906</ele>
        <time>2012-11-12T14:44:07.000Z</time>
      </trkpt>
      <trkpt lat="46.05144" lon="6.10564">
        <ele>906</ele>
        <time>2012-11-12T14:44:08.000Z</time>
      </trkpt>
      <trkpt lat="46.05142" lon="6.1054">
        <ele>907</ele>
        <time>2012-11-12T14:44:12.000Z</time>
      </trkpt>
      <trkpt lat="46.05139" lon="6.1051">
        <ele>908.20001220703</ele>
        <time>2012-11-12T14:44:17.000Z</time>
      </trkpt>
      <trkpt lat="46.05138" lon="6.10504">
        <ele>908.20001220703</ele>
        <time>2012-11-12T14:44:18.000Z</time>
      </trkpt>
      <trkpt lat="46.05132" lon="6.10482">
        <ele>909.20001220703</ele>
        <time>2012-11-12T14:44:22.000Z</time>
      </trkpt>
      <trkpt lat="46.05128" lon="6.10465">
        <ele>910.20001220703</ele>
        <time>2012-11-12T14:44:25.000Z</time>
      </trkpt>
      <trkpt lat="46.05126" lon="6.1046">
        <ele>910.20001220703</ele>
        <time>2012-11-12T14:44:26.000Z</time>
      </trkpt>
      <trkpt lat="46.05122" lon="6.10436">
        <ele>911.40002441406</ele>
        <time>2012-11-12T14:44:30.000Z</time>
      </trkpt>
      <trkpt lat="46.05122" lon="6.1043">
        <ele>911.40002441406</ele>
        <time>2012-11-12T14:44:31.000Z</time>
      </trkpt>
      <trkpt lat="46.05123" lon="6.10424">
        <ele>911.40002441406</ele>
        <time>2012-11-12T14:44:32.000Z</time>
      </trkpt>
      <trkpt lat="46.05125" lon="6.10418">
        <ele>912.40002441406</ele>
        <time>2012-11-12T14:44:33.000Z</time>
      </trkpt>
      <trkpt lat="46.05133" lon="6.10405">
        <ele>912.40002441406</ele>
        <time>2012-11-12T14:44:36.000Z</time>
      </trkpt>
      <trkpt lat="46.05145" lon="6.104">
        <ele>913.40002441406</ele>
        <time>2012-11-12T14:44:39.000Z</time>
      </trkpt>
      <trkpt lat="46.05149" lon="6.104">
        <ele>913.40002441406</ele>
        <time>2012-11-12T14:44:40.000Z</time>
      </trkpt>
      <trkpt lat="46.05163" lon="6.10413">
        <ele>913.40002441406</ele>
        <time>2012-11-12T14:44:44.000Z</time>
      </trkpt>
      <trkpt lat="46.05166" lon="6.10418">
        <ele>914.40002441406</ele>
        <time>2012-11-12T14:44:45.000Z</time>
      </trkpt>
      <trkpt lat="46.05168" lon="6.10423">
        <ele>915.40002441406</ele>
        <time>2012-11-12T14:44:46.000Z</time>
      </trkpt>
      <trkpt lat="46.05169" lon="6.10434">
        <ele>915.40002441406</ele>
        <time>2012-11-12T14:44:48.000Z</time>
      </trkpt>
      <trkpt lat="46.05168" lon="6.10448">
        <ele>916.59997558594</ele>
        <time>2012-11-12T14:44:50.000Z</time>
      </trkpt>
      <trkpt lat="46.05169" lon="6.10458">
        <ele>916.59997558594</ele>
        <time>2012-11-12T14:44:52.000Z</time>
      </trkpt>
      <trkpt lat="46.05169" lon="6.10466">
        <ele>917.59997558594</ele>
        <time>2012-11-12T14:44:54.000Z</time>
      </trkpt>
      <trkpt lat="46.05173" lon="6.10482">
        <ele>919</ele>
        <time>2012-11-12T14:44:57.000Z</time>
      </trkpt>
      <trkpt lat="46.05183" lon="6.10508">
        <ele>920</ele>
        <time>2012-11-12T14:45:02.000Z</time>
      </trkpt>
      <trkpt lat="46.05185" lon="6.10513">
        <ele>920</ele>
        <time>2012-11-12T14:45:03.000Z</time>
      </trkpt>
      <trkpt lat="46.0519" lon="6.10528">
        <ele>921.20001220703</ele>
        <time>2012-11-12T14:45:06.000Z</time>
      </trkpt>
      <trkpt lat="46.05198" lon="6.10548">
        <ele>922.20001220703</ele>
        <time>2012-11-12T14:45:10.000Z</time>
      </trkpt>
      <trkpt lat="46.05207" lon="6.10567">
        <ele>923.40002441406</ele>
        <time>2012-11-12T14:45:14.000Z</time>
      </trkpt>
      <trkpt lat="46.05217" lon="6.10584">
        <ele>924.40002441406</ele>
        <time>2012-11-12T14:45:18.000Z</time>
      </trkpt>
      <trkpt lat="46.05232" lon="6.10601">
        <ele>924.40002441406</ele>
        <time>2012-11-12T14:45:23.000Z</time>
      </trkpt>
      <trkpt lat="46.05235" lon="6.10604">
        <ele>925.40002441406</ele>
        <time>2012-11-12T14:45:24.000Z</time>
      </trkpt>
      <trkpt lat="46.05248" lon="6.10617">
        <ele>926.40002441406</ele>
        <time>2012-11-12T14:45:28.000Z</time>
      </trkpt>
      <trkpt lat="46.05252" lon="6.1062">
        <ele>926.40002441406</ele>
        <time>2012-11-12T14:45:29.000Z</time>
      </trkpt>
      <trkpt lat="46.05262" lon="6.10628">
        <ele>927.40002441406</ele>
        <time>2012-11-12T14:45:32.000Z</time>
      </trkpt>
      <trkpt lat="46.05272" lon="6.10636">
        <ele>928.40002441406</ele>
        <time>2012-11-12T14:45:35.000Z</time>
      </trkpt>
      <trkpt lat="46.05275" lon="6.10639">
        <ele>928.40002441406</ele>
        <time>2012-11-12T14:45:36.000Z</time>
      </trkpt>
      <trkpt lat="46.05285" lon="6.10646">
        <ele>929.59997558594</ele>
        <time>2012-11-12T14:45:39.000Z</time>
      </trkpt>
      <trkpt lat="46.05288" lon="6.10648">
        <ele>929.59997558594</ele>
        <time>2012-11-12T14:45:40.000Z</time>
      </trkpt>
      <trkpt lat="46.05299" lon="6.10656">
        <ele>930.59997558594</ele>
        <time>2012-11-12T14:45:43.000Z</time>
      </trkpt>
      <trkpt lat="46.05315" lon="6.10673">
        <ele>931.59997558594</ele>
        <time>2012-11-12T14:45:48.000Z</time>
      </trkpt>
      <trkpt lat="46.05318" lon="6.10678">
        <ele>931.59997558594</ele>
        <time>2012-11-12T14:45:49.000Z</time>
      </trkpt>
      <trkpt lat="46.05322" lon="6.10688">
        <ele>933</ele>
        <time>2012-11-12T14:45:51.000Z</time>
      </trkpt>
      <trkpt lat="46.05323" lon="6.10693">
        <ele>936.40002441406</ele>
        <time>2012-11-12T14:45:52.000Z</time>
      </trkpt>
      <trkpt lat="46.05324" lon="6.10699">
        <ele>946</ele>
        <time>2012-11-12T14:45:53.000Z</time>
      </trkpt>
      <trkpt lat="46.05325" lon="6.10704">
        <ele>947</ele>
        <time>2012-11-12T14:45:54.000Z</time>
      </trkpt>
      <trkpt lat="46.05325" lon="6.1071">
        <ele>943.59997558594</ele>
        <time>2012-11-12T14:45:55.000Z</time>
      </trkpt>
      <trkpt lat="46.05325" lon="6.10726">
        <ele>943.59997558594</ele>
        <time>2012-11-12T14:45:58.000Z</time>
      </trkpt>
      <trkpt lat="46.05322" lon="6.1075">
        <ele>943.59997558594</ele>
        <time>2012-11-12T14:46:03.000Z</time>
      </trkpt>
      <trkpt lat="46.05322" lon="6.1076">
        <ele>946</ele>
        <time>2012-11-12T14:46:05.000Z</time>
      </trkpt>
      <trkpt lat="46.05322" lon="6.10779">
        <ele>947.20001220703</ele>
        <time>2012-11-12T14:46:09.000Z</time>
      </trkpt>
      <trkpt lat="46.05324" lon="6.10801">
        <ele>947.20001220703</ele>
        <time>2012-11-12T14:46:13.000Z</time>
      </trkpt>
      <trkpt lat="46.05327" lon="6.10818">
        <ele>948.20001220703</ele>
        <time>2012-11-12T14:46:16.000Z</time>
      </trkpt>
      <trkpt lat="46.05328" lon="6.10824">
        <ele>948.20001220703</ele>
        <time>2012-11-12T14:46:17.000Z</time>
      </trkpt>
      <trkpt lat="46.05338" lon="6.10843">
        <ele>948.20001220703</ele>
        <time>2012-11-12T14:46:21.000Z</time>
      </trkpt>
      <trkpt lat="46.05356" lon="6.10854">
        <ele>948.20001220703</ele>
        <time>2012-11-12T14:46:26.000Z</time>
      </trkpt>
      <trkpt lat="46.0536" lon="6.10853">
        <ele>949.20001220703</ele>
        <time>2012-11-12T14:46:27.000Z</time>
      </trkpt>
      <trkpt lat="46.05365" lon="6.10852">
        <ele>949.20001220703</ele>
        <time>2012-11-12T14:46:28.000Z</time>
      </trkpt>
      <trkpt lat="46.05373" lon="6.10849">
        <ele>949.20001220703</ele>
        <time>2012-11-12T14:46:30.000Z</time>
      </trkpt>
      <trkpt lat="46.05377" lon="6.10847">
        <ele>950.40002441406</ele>
        <time>2012-11-12T14:46:31.000Z</time>
      </trkpt>
      <trkpt lat="46.05391" lon="6.10841">
        <ele>951.40002441406</ele>
        <time>2012-11-12T14:46:34.000Z</time>
      </trkpt>
      <trkpt lat="46.054" lon="6.10837">
        <ele>951.40002441406</ele>
        <time>2012-11-12T14:46:36.000Z</time>
      </trkpt>
      <trkpt lat="46.05404" lon="6.10836">
        <ele>952.40002441406</ele>
        <time>2012-11-12T14:46:37.000Z</time>
      </trkpt>
      <trkpt lat="46.05412" lon="6.10829">
        <ele>952.40002441406</ele>
        <time>2012-11-12T14:46:39.000Z</time>
      </trkpt>
      <trkpt lat="46.05414" lon="6.10822">
        <ele>954</ele>
        <time>2012-11-12T14:46:40.000Z</time>
      </trkpt>
      <trkpt lat="46.05414" lon="6.10816">
        <ele>954</ele>
        <time>2012-11-12T14:46:41.000Z</time>
      </trkpt>
      <trkpt lat="46.05412" lon="6.10788">
        <ele>954</ele>
        <time>2012-11-12T14:46:45.000Z</time>
      </trkpt>
      <trkpt lat="46.05412" lon="6.10781">
        <ele>954</ele>
        <time>2012-11-12T14:46:46.000Z</time>
      </trkpt>
      <trkpt lat="46.05413" lon="6.10767">
        <ele>954</ele>
        <time>2012-11-12T14:46:48.000Z</time>
      </trkpt>
      <trkpt lat="46.05414" lon="6.10754">
        <ele>954</ele>
        <time>2012-11-12T14:46:50.000Z</time>
      </trkpt>
      <trkpt lat="46.05415" lon="6.10747">
        <ele>954</ele>
        <time>2012-11-12T14:46:51.000Z</time>
      </trkpt>
      <trkpt lat="46.05416" lon="6.10725">
        <ele>954</ele>
        <time>2012-11-12T14:46:54.000Z</time>
      </trkpt>
      <trkpt lat="46.05416" lon="6.10718">
        <ele>956.20001220703</ele>
        <time>2012-11-12T14:46:55.000Z</time>
      </trkpt>
      <trkpt lat="46.05416" lon="6.10705">
        <ele>956.20001220703</ele>
        <time>2012-11-12T14:46:57.000Z</time>
      </trkpt>
      <trkpt lat="46.05415" lon="6.10699">
        <ele>957.20001220703</ele>
        <time>2012-11-12T14:46:58.000Z</time>
      </trkpt>
      <trkpt lat="46.05412" lon="6.10685">
        <ele>957.20001220703</ele>
        <time>2012-11-12T14:47:00.000Z</time>
      </trkpt>
      <trkpt lat="46.05411" lon="6.10673">
        <ele>958.20001220703</ele>
        <time>2012-11-12T14:47:02.000Z</time>
      </trkpt>
      <trkpt lat="46.05405" lon="6.10647">
        <ele>958.20001220703</ele>
        <time>2012-11-12T14:47:06.000Z</time>
      </trkpt>
      <trkpt lat="46.05403" lon="6.10641">
        <ele>959.40002441406</ele>
        <time>2012-11-12T14:47:07.000Z</time>
      </trkpt>
      <trkpt lat="46.05401" lon="6.10635">
        <ele>959.40002441406</ele>
        <time>2012-11-12T14:47:08.000Z</time>
      </trkpt>
      <trkpt lat="46.05399" lon="6.10629">
        <ele>959.40002441406</ele>
        <time>2012-11-12T14:47:09.000Z</time>
      </trkpt>
      <trkpt lat="46.05396" lon="6.10624">
        <ele>959.40002441406</ele>
        <time>2012-11-12T14:47:10.000Z</time>
      </trkpt>
      <trkpt lat="46.0539" lon="6.10614">
        <ele>960.40002441406</ele>
        <time>2012-11-12T14:47:12.000Z</time>
      </trkpt>
      <trkpt lat="46.05382" lon="6.10607">
        <ele>960.40002441406</ele>
        <time>2012-11-12T14:47:14.000Z</time>
      </trkpt>
      <trkpt lat="46.05378" lon="6.10604">
        <ele>961.59997558594</ele>
        <time>2012-11-12T14:47:15.000Z</time>
      </trkpt>
      <trkpt lat="46.05371" lon="6.106">
        <ele>961.59997558594</ele>
        <time>2012-11-12T14:47:17.000Z</time>
      </trkpt>
      <trkpt lat="46.05354" lon="6.10589">
        <ele>961.59997558594</ele>
        <time>2012-11-12T14:47:21.000Z</time>
      </trkpt>
      <trkpt lat="46.05351" lon="6.10586">
        <ele>962.59997558594</ele>
        <time>2012-11-12T14:47:22.000Z</time>
      </trkpt>
      <trkpt lat="46.05343" lon="6.10568">
        <ele>962.59997558594</ele>
        <time>2012-11-12T14:47:25.000Z</time>
      </trkpt>
      <trkpt lat="46.05342" lon="6.10562">
        <ele>963.59997558594</ele>
        <time>2012-11-12T14:47:26.000Z</time>
      </trkpt>
      <trkpt lat="46.05346" lon="6.10542">
        <ele>963.59997558594</ele>
        <time>2012-11-12T14:47:29.000Z</time>
      </trkpt>
      <trkpt lat="46.05348" lon="6.10537">
        <ele>964.59997558594</ele>
        <time>2012-11-12T14:47:30.000Z</time>
      </trkpt>
      <trkpt lat="46.05356" lon="6.10529">
        <ele>966.20001220703</ele>
        <time>2012-11-12T14:47:32.000Z</time>
      </trkpt>
      <trkpt lat="46.0536" lon="6.10526">
        <ele>967.20001220703</ele>
        <time>2012-11-12T14:47:33.000Z</time>
      </trkpt>
      <trkpt lat="46.05377" lon="6.10526">
        <ele>967.20001220703</ele>
        <time>2012-11-12T14:47:37.000Z</time>
      </trkpt>
      <trkpt lat="46.05386" lon="6.10528">
        <ele>967.20001220703</ele>
        <time>2012-11-12T14:47:39.000Z</time>
      </trkpt>
      <trkpt lat="46.05404" lon="6.1053">
        <ele>967.20001220703</ele>
        <time>2012-11-12T14:47:43.000Z</time>
      </trkpt>
      <trkpt lat="46.05409" lon="6.10529">
        <ele>967.20001220703</ele>
        <time>2012-11-12T14:47:44.000Z</time>
      </trkpt>
      <trkpt lat="46.05418" lon="6.10526">
        <ele>967.20001220703</ele>
        <time>2012-11-12T14:47:46.000Z</time>
      </trkpt>
      <trkpt lat="46.05426" lon="6.10521">
        <ele>967.20001220703</ele>
        <time>2012-11-12T14:47:48.000Z</time>
      </trkpt>
      <trkpt lat="46.05437" lon="6.10513">
        <ele>968.40002441406</ele>
        <time>2012-11-12T14:47:51.000Z</time>
      </trkpt>
      <trkpt lat="46.05444" lon="6.10507">
        <ele>969.40002441406</ele>
        <time>2012-11-12T14:47:53.000Z</time>
      </trkpt>
      <trkpt lat="46.05448" lon="6.10504">
        <ele>969.40002441406</ele>
        <time>2012-11-12T14:47:54.000Z</time>
      </trkpt>
      <trkpt lat="46.05461" lon="6.10493">
        <ele>970.40002441406</ele>
        <time>2012-11-12T14:47:58.000Z</time>
      </trkpt>
      <trkpt lat="46.05469" lon="6.10487">
        <ele>971.59997558594</ele>
        <time>2012-11-12T14:48:00.000Z</time>
      </trkpt>
      <trkpt lat="46.05472" lon="6.10485">
        <ele>971.59997558594</ele>
        <time>2012-11-12T14:48:01.000Z</time>
      </trkpt>
      <trkpt lat="46.05476" lon="6.10482">
        <ele>973</ele>
        <time>2012-11-12T14:48:02.000Z</time>
      </trkpt>
      <trkpt lat="46.05494" lon="6.10468">
        <ele>974</ele>
        <time>2012-11-12T14:48:07.000Z</time>
      </trkpt>
      <trkpt lat="46.05498" lon="6.10464">
        <ele>974</ele>
        <time>2012-11-12T14:48:08.000Z</time>
      </trkpt>
      <trkpt lat="46.05502" lon="6.10461">
        <ele>974</ele>
        <time>2012-11-12T14:48:09.000Z</time>
      </trkpt>
      <trkpt lat="46.05505" lon="6.10457">
        <ele>975.20001220703</ele>
        <time>2012-11-12T14:48:10.000Z</time>
      </trkpt>
      <trkpt lat="46.05517" lon="6.1044">
        <ele>976.20001220703</ele>
        <time>2012-11-12T14:48:14.000Z</time>
      </trkpt>
      <trkpt lat="46.0552" lon="6.10435">
        <ele>976.20001220703</ele>
        <time>2012-11-12T14:48:15.000Z</time>
      </trkpt>
      <trkpt lat="46.05522" lon="6.1043">
        <ele>977.40002441406</ele>
        <time>2012-11-12T14:48:16.000Z</time>
      </trkpt>
      <trkpt lat="46.05527" lon="6.10418">
        <ele>977.40002441406</ele>
        <time>2012-11-12T14:48:18.000Z</time>
      </trkpt>
      <trkpt lat="46.0553" lon="6.10407">
        <ele>977.40002441406</ele>
        <time>2012-11-12T14:48:20.000Z</time>
      </trkpt>
      <trkpt lat="46.05533" lon="6.10401">
        <ele>977.40002441406</ele>
        <time>2012-11-12T14:48:21.000Z</time>
      </trkpt>
      <trkpt lat="46.05535" lon="6.10396">
        <ele>978.40002441406</ele>
        <time>2012-11-12T14:48:22.000Z</time>
      </trkpt>
      <trkpt lat="46.05542" lon="6.10375">
        <ele>978.40002441406</ele>
        <time>2012-11-12T14:48:25.000Z</time>
      </trkpt>
      <trkpt lat="46.05545" lon="6.10363">
        <ele>979.40002441406</ele>
        <time>2012-11-12T14:48:27.000Z</time>
      </trkpt>
      <trkpt lat="46.05549" lon="6.10352">
        <ele>979.40002441406</ele>
        <time>2012-11-12T14:48:29.000Z</time>
      </trkpt>
      <trkpt lat="46.05551" lon="6.10345">
        <ele>979.40002441406</ele>
        <time>2012-11-12T14:48:30.000Z</time>
      </trkpt>
      <trkpt lat="46.05561" lon="6.10314">
        <ele>979.40002441406</ele>
        <time>2012-11-12T14:48:35.000Z</time>
      </trkpt>
      <trkpt lat="46.05573" lon="6.10277">
        <ele>979.40002441406</ele>
        <time>2012-11-12T14:48:41.000Z</time>
      </trkpt>
      <trkpt lat="46.05575" lon="6.10271">
        <ele>980.40002441406</ele>
        <time>2012-11-12T14:48:42.000Z</time>
      </trkpt>
      <trkpt lat="46.05588" lon="6.10228">
        <ele>980.40002441406</ele>
        <time>2012-11-12T14:48:48.000Z</time>
      </trkpt>
      <trkpt lat="46.0559" lon="6.10221">
        <ele>981.40002441406</ele>
        <time>2012-11-12T14:48:49.000Z</time>
      </trkpt>
      <trkpt lat="46.05609" lon="6.10156">
        <ele>981.40002441406</ele>
        <time>2012-11-12T14:48:58.000Z</time>
      </trkpt>
      <trkpt lat="46.05612" lon="6.10139">
        <ele>982.59997558594</ele>
        <time>2012-11-12T14:49:00.000Z</time>
      </trkpt>
      <trkpt lat="46.05615" lon="6.10105">
        <ele>982.59997558594</ele>
        <time>2012-11-12T14:49:04.000Z</time>
      </trkpt>
      <trkpt lat="46.05612" lon="6.10035">
        <ele>979.59997558594</ele>
        <time>2012-11-12T14:49:11.000Z</time>
      </trkpt>
      <trkpt lat="46.05612" lon="6.10015">
        <ele>978.40002441406</ele>
        <time>2012-11-12T14:49:13.000Z</time>
      </trkpt>
      <trkpt lat="46.0561" lon="6.09973">
        <ele>978.40002441406</ele>
        <time>2012-11-12T14:49:17.000Z</time>
      </trkpt>
      <trkpt lat="46.05605" lon="6.09942">
        <ele>978.40002441406</ele>
        <time>2012-11-12T14:49:20.000Z</time>
      </trkpt>
      <trkpt lat="46.05601" lon="6.09924">
        <ele>978.40002441406</ele>
        <time>2012-11-12T14:49:22.000Z</time>
      </trkpt>
      <trkpt lat="46.05586" lon="6.09863">
        <ele>978.40002441406</ele>
        <time>2012-11-12T14:49:29.000Z</time>
      </trkpt>
      <trkpt lat="46.05587" lon="6.09837">
        <ele>982</ele>
        <time>2012-11-12T14:49:32.000Z</time>
      </trkpt>
      <trkpt lat="46.05588" lon="6.09828">
        <ele>982</ele>
        <time>2012-11-12T14:49:33.000Z</time>
      </trkpt>
      <trkpt lat="46.05589" lon="6.09824">
        <ele>983.40002441406</ele>
        <time>2012-11-12T14:49:34.000Z</time>
      </trkpt>
      <trkpt lat="46.05602" lon="6.09801">
        <ele>983.40002441406</ele>
        <time>2012-11-12T14:49:37.000Z</time>
      </trkpt>
      <trkpt lat="46.05606" lon="6.09794">
        <ele>985</ele>
        <time>2012-11-12T14:49:38.000Z</time>
      </trkpt>
      <trkpt lat="46.05613" lon="6.09782">
        <ele>986</ele>
        <time>2012-11-12T14:49:40.000Z</time>
      </trkpt>
      <trkpt lat="46.05624" lon="6.09764">
        <ele>987.40002441406</ele>
        <time>2012-11-12T14:49:43.000Z</time>
      </trkpt>
      <trkpt lat="46.05628" lon="6.09759">
        <ele>987.40002441406</ele>
        <time>2012-11-12T14:49:44.000Z</time>
      </trkpt>
      <trkpt lat="46.05632" lon="6.09753">
        <ele>988.40002441406</ele>
        <time>2012-11-12T14:49:45.000Z</time>
      </trkpt>
      <trkpt lat="46.05646" lon="6.0973">
        <ele>988.40002441406</ele>
        <time>2012-11-12T14:49:49.000Z</time>
      </trkpt>
      <trkpt lat="46.0565" lon="6.09716">
        <ele>988.40002441406</ele>
        <time>2012-11-12T14:49:51.000Z</time>
      </trkpt>
      <trkpt lat="46.05655" lon="6.097">
        <ele>988.40002441406</ele>
        <time>2012-11-12T14:49:53.000Z</time>
      </trkpt>
      <trkpt lat="46.05665" lon="6.09668">
        <ele>988.40002441406</ele>
        <time>2012-11-12T14:49:57.000Z</time>
      </trkpt>
      <trkpt lat="46.05674" lon="6.09652">
        <ele>985.40002441406</ele>
        <time>2012-11-12T14:49:59.000Z</time>
      </trkpt>
      <trkpt lat="46.05684" lon="6.09637">
        <ele>984.40002441406</ele>
        <time>2012-11-12T14:50:01.000Z</time>
      </trkpt>
      <trkpt lat="46.05689" lon="6.0963">
        <ele>983.20001220703</ele>
        <time>2012-11-12T14:50:02.000Z</time>
      </trkpt>
      <trkpt lat="46.05695" lon="6.09622">
        <ele>982</ele>
        <time>2012-11-12T14:50:03.000Z</time>
      </trkpt>
      <trkpt lat="46.0571" lon="6.09605">
        <ele>980.40002441406</ele>
        <time>2012-11-12T14:50:06.000Z</time>
      </trkpt>
      <trkpt lat="46.05721" lon="6.09593">
        <ele>979</ele>
        <time>2012-11-12T14:50:07.000Z</time>
      </trkpt>
      <trkpt lat="46.05728" lon="6.09584">
        <ele>977.59997558594</ele>
        <time>2012-11-12T14:50:08.000Z</time>
      </trkpt>
      <trkpt lat="46.05735" lon="6.09576">
        <ele>976.40002441406</ele>
        <time>2012-11-12T14:50:09.000Z</time>
      </trkpt>
      <trkpt lat="46.0575" lon="6.09561">
        <ele>975.20001220703</ele>
        <time>2012-11-12T14:50:11.000Z</time>
      </trkpt>
      <trkpt lat="46.05758" lon="6.09554">
        <ele>974</ele>
        <time>2012-11-12T14:50:12.000Z</time>
      </trkpt>
      <trkpt lat="46.05768" lon="6.09547">
        <ele>972.40002441406</ele>
        <time>2012-11-12T14:50:13.000Z</time>
      </trkpt>
      <trkpt lat="46.0579" lon="6.09535">
        <ele>970.40002441406</ele>
        <time>2012-11-12T14:50:15.000Z</time>
      </trkpt>
      <trkpt lat="46.05802" lon="6.09529">
        <ele>969.20001220703</ele>
        <time>2012-11-12T14:50:16.000Z</time>
      </trkpt>
      <trkpt lat="46.05816" lon="6.09523">
        <ele>967.40002441406</ele>
        <time>2012-11-12T14:50:17.000Z</time>
      </trkpt>
      <trkpt lat="46.0583" lon="6.09517">
        <ele>965.59997558594</ele>
        <time>2012-11-12T14:50:18.000Z</time>
      </trkpt>
      <trkpt lat="46.05843" lon="6.09512">
        <ele>964.20001220703</ele>
        <time>2012-11-12T14:50:19.000Z</time>
      </trkpt>
      <trkpt lat="46.05857" lon="6.09506">
        <ele>962.40002441406</ele>
        <time>2012-11-12T14:50:20.000Z</time>
      </trkpt>
      <trkpt lat="46.05871" lon="6.095">
        <ele>960.40002441406</ele>
        <time>2012-11-12T14:50:21.000Z</time>
      </trkpt>
      <trkpt lat="46.05884" lon="6.09495">
        <ele>959</ele>
        <time>2012-11-12T14:50:22.000Z</time>
      </trkpt>
      <trkpt lat="46.059" lon="6.09489">
        <ele>957.40002441406</ele>
        <time>2012-11-12T14:50:23.000Z</time>
      </trkpt>
      <trkpt lat="46.05914" lon="6.09484">
        <ele>956.40002441406</ele>
        <time>2012-11-12T14:50:24.000Z</time>
      </trkpt>
      <trkpt lat="46.05929" lon="6.09479">
        <ele>955.40002441406</ele>
        <time>2012-11-12T14:50:25.000Z</time>
      </trkpt>
      <trkpt lat="46.05942" lon="6.09473">
        <ele>954.20001220703</ele>
        <time>2012-11-12T14:50:26.000Z</time>
      </trkpt>
      <trkpt lat="46.05954" lon="6.09466">
        <ele>953.20001220703</ele>
        <time>2012-11-12T14:50:27.000Z</time>
      </trkpt>
      <trkpt lat="46.05968" lon="6.09455">
        <ele>952</ele>
        <time>2012-11-12T14:50:28.000Z</time>
      </trkpt>
      <trkpt lat="46.0598" lon="6.09442">
        <ele>950.40002441406</ele>
        <time>2012-11-12T14:50:29.000Z</time>
      </trkpt>
      <trkpt lat="46.05992" lon="6.0943">
        <ele>949</ele>
        <time>2012-11-12T14:50:30.000Z</time>
      </trkpt>
      <trkpt lat="46.06004" lon="6.09418">
        <ele>947.40002441406</ele>
        <time>2012-11-12T14:50:31.000Z</time>
      </trkpt>
      <trkpt lat="46.06016" lon="6.09406">
        <ele>945.59997558594</ele>
        <time>2012-11-12T14:50:32.000Z</time>
      </trkpt>
      <trkpt lat="46.06028" lon="6.09394">
        <ele>944</ele>
        <time>2012-11-12T14:50:33.000Z</time>
      </trkpt>
      <trkpt lat="46.06041" lon="6.09382">
        <ele>942</ele>
        <time>2012-11-12T14:50:34.000Z</time>
      </trkpt>
      <trkpt lat="46.06054" lon="6.09368">
        <ele>939.20001220703</ele>
        <time>2012-11-12T14:50:35.000Z</time>
      </trkpt>
      <trkpt lat="46.06067" lon="6.09355">
        <ele>937.59997558594</ele>
        <time>2012-11-12T14:50:36.000Z</time>
      </trkpt>
      <trkpt lat="46.06079" lon="6.09344">
        <ele>936.40002441406</ele>
        <time>2012-11-12T14:50:37.000Z</time>
      </trkpt>
      <trkpt lat="46.06092" lon="6.09332">
        <ele>934.40002441406</ele>
        <time>2012-11-12T14:50:38.000Z</time>
      </trkpt>
      <trkpt lat="46.06105" lon="6.09321">
        <ele>932.40002441406</ele>
        <time>2012-11-12T14:50:39.000Z</time>
      </trkpt>
      <trkpt lat="46.06118" lon="6.09312">
        <ele>930.40002441406</ele>
        <time>2012-11-12T14:50:40.000Z</time>
      </trkpt>
      <trkpt lat="46.06133" lon="6.09304">
        <ele>928.59997558594</ele>
        <time>2012-11-12T14:50:41.000Z</time>
      </trkpt>
      <trkpt lat="46.06146" lon="6.09298">
        <ele>926.59997558594</ele>
        <time>2012-11-12T14:50:42.000Z</time>
      </trkpt>
      <trkpt lat="46.06162" lon="6.09291">
        <ele>924.59997558594</ele>
        <time>2012-11-12T14:50:43.000Z</time>
      </trkpt>
      <trkpt lat="46.06175" lon="6.09286">
        <ele>923</ele>
        <time>2012-11-12T14:50:44.000Z</time>
      </trkpt>
      <trkpt lat="46.06188" lon="6.09282">
        <ele>921.20001220703</ele>
        <time>2012-11-12T14:50:45.000Z</time>
      </trkpt>
      <trkpt lat="46.06201" lon="6.09281">
        <ele>919.40002441406</ele>
        <time>2012-11-12T14:50:46.000Z</time>
      </trkpt>
      <trkpt lat="46.06214" lon="6.09281">
        <ele>918</ele>
        <time>2012-11-12T14:50:47.000Z</time>
      </trkpt>
      <trkpt lat="46.06228" lon="6.09284">
        <ele>916.20001220703</ele>
        <time>2012-11-12T14:50:48.000Z</time>
      </trkpt>
      <trkpt lat="46.06242" lon="6.09287">
        <ele>914.40002441406</ele>
        <time>2012-11-12T14:50:49.000Z</time>
      </trkpt>
      <trkpt lat="46.06256" lon="6.0929">
        <ele>912.59997558594</ele>
        <time>2012-11-12T14:50:50.000Z</time>
      </trkpt>
      <trkpt lat="46.0627" lon="6.09293">
        <ele>911</ele>
        <time>2012-11-12T14:50:51.000Z</time>
      </trkpt>
      <trkpt lat="46.06282" lon="6.09296">
        <ele>909.40002441406</ele>
        <time>2012-11-12T14:50:52.000Z</time>
      </trkpt>
      <trkpt lat="46.06298" lon="6.093">
        <ele>907.40002441406</ele>
        <time>2012-11-12T14:50:53.000Z</time>
      </trkpt>
      <trkpt lat="46.06313" lon="6.09304">
        <ele>906</ele>
        <time>2012-11-12T14:50:54.000Z</time>
      </trkpt>
      <trkpt lat="46.06327" lon="6.09306">
        <ele>904.40002441406</ele>
        <time>2012-11-12T14:50:55.000Z</time>
      </trkpt>
      <trkpt lat="46.06341" lon="6.09308">
        <ele>903</ele>
        <time>2012-11-12T14:50:56.000Z</time>
      </trkpt>
      <trkpt lat="46.06354" lon="6.09308">
        <ele>901.40002441406</ele>
        <time>2012-11-12T14:50:57.000Z</time>
      </trkpt>
      <trkpt lat="46.06368" lon="6.09307">
        <ele>900</ele>
        <time>2012-11-12T14:50:58.000Z</time>
      </trkpt>
      <trkpt lat="46.06382" lon="6.09304">
        <ele>898.40002441406</ele>
        <time>2012-11-12T14:50:59.000Z</time>
      </trkpt>
      <trkpt lat="46.06396" lon="6.09298">
        <ele>896.40002441406</ele>
        <time>2012-11-12T14:51:00.000Z</time>
      </trkpt>
      <trkpt lat="46.0641" lon="6.09291">
        <ele>894.59997558594</ele>
        <time>2012-11-12T14:51:01.000Z</time>
      </trkpt>
      <trkpt lat="46.06423" lon="6.09283">
        <ele>893</ele>
        <time>2012-11-12T14:51:02.000Z</time>
      </trkpt>
      <trkpt lat="46.06436" lon="6.09274">
        <ele>891.20001220703</ele>
        <time>2012-11-12T14:51:03.000Z</time>
      </trkpt>
      <trkpt lat="46.06448" lon="6.09268">
        <ele>889.59997558594</ele>
        <time>2012-11-12T14:51:04.000Z</time>
      </trkpt>
      <trkpt lat="46.0646" lon="6.09263">
        <ele>888.20001220703</ele>
        <time>2012-11-12T14:51:05.000Z</time>
      </trkpt>
      <trkpt lat="46.06473" lon="6.09262">
        <ele>886.59997558594</ele>
        <time>2012-11-12T14:51:06.000Z</time>
      </trkpt>
      <trkpt lat="46.06484" lon="6.09263">
        <ele>885.40002441406</ele>
        <time>2012-11-12T14:51:07.000Z</time>
      </trkpt>
      <trkpt lat="46.06498" lon="6.09266">
        <ele>883.59997558594</ele>
        <time>2012-11-12T14:51:08.000Z</time>
      </trkpt>
      <trkpt lat="46.0651" lon="6.09272">
        <ele>882.40002441406</ele>
        <time>2012-11-12T14:51:09.000Z</time>
      </trkpt>
      <trkpt lat="46.06521" lon="6.09279">
        <ele>880.59997558594</ele>
        <time>2012-11-12T14:51:10.000Z</time>
      </trkpt>
      <trkpt lat="46.06533" lon="6.09288">
        <ele>879.20001220703</ele>
        <time>2012-11-12T14:51:11.000Z</time>
      </trkpt>
      <trkpt lat="46.06544" lon="6.09296">
        <ele>877.40002441406</ele>
        <time>2012-11-12T14:51:12.000Z</time>
      </trkpt>
      <trkpt lat="46.06557" lon="6.09305">
        <ele>876</ele>
        <time>2012-11-12T14:51:13.000Z</time>
      </trkpt>
      <trkpt lat="46.0657" lon="6.09313">
        <ele>874.40002441406</ele>
        <time>2012-11-12T14:51:14.000Z</time>
      </trkpt>
      <trkpt lat="46.06582" lon="6.09322">
        <ele>872.59997558594</ele>
        <time>2012-11-12T14:51:15.000Z</time>
      </trkpt>
      <trkpt lat="46.06594" lon="6.09331">
        <ele>871</ele>
        <time>2012-11-12T14:51:16.000Z</time>
      </trkpt>
      <trkpt lat="46.06607" lon="6.09341">
        <ele>869.40002441406</ele>
        <time>2012-11-12T14:51:17.000Z</time>
      </trkpt>
      <trkpt lat="46.0662" lon="6.09351">
        <ele>867.59997558594</ele>
        <time>2012-11-12T14:51:18.000Z</time>
      </trkpt>
      <trkpt lat="46.06632" lon="6.09361">
        <ele>866</ele>
        <time>2012-11-12T14:51:19.000Z</time>
      </trkpt>
      <trkpt lat="46.06643" lon="6.09369">
        <ele>864.40002441406</ele>
        <time>2012-11-12T14:51:20.000Z</time>
      </trkpt>
      <trkpt lat="46.06653" lon="6.09377">
        <ele>863.40002441406</ele>
        <time>2012-11-12T14:51:21.000Z</time>
      </trkpt>
      <trkpt lat="46.06661" lon="6.09384">
        <ele>862.20001220703</ele>
        <time>2012-11-12T14:51:22.000Z</time>
      </trkpt>
      <trkpt lat="46.06671" lon="6.09391">
        <ele>861.20001220703</ele>
        <time>2012-11-12T14:51:23.000Z</time>
      </trkpt>
      <trkpt lat="46.06679" lon="6.09395">
        <ele>859.59997558594</ele>
        <time>2012-11-12T14:51:24.000Z</time>
      </trkpt>
      <trkpt lat="46.06687" lon="6.09394">
        <ele>858.40002441406</ele>
        <time>2012-11-12T14:51:25.000Z</time>
      </trkpt>
      <trkpt lat="46.06694" lon="6.09389">
        <ele>857.40002441406</ele>
        <time>2012-11-12T14:51:26.000Z</time>
      </trkpt>
      <trkpt lat="46.06699" lon="6.0938">
        <ele>857.40002441406</ele>
        <time>2012-11-12T14:51:27.000Z</time>
      </trkpt>
      <trkpt lat="46.06702" lon="6.09368">
        <ele>855.59997558594</ele>
        <time>2012-11-12T14:51:28.000Z</time>
      </trkpt>
      <trkpt lat="46.06701" lon="6.09352">
        <ele>854.40002441406</ele>
        <time>2012-11-12T14:51:29.000Z</time>
      </trkpt>
      <trkpt lat="46.06697" lon="6.09339">
        <ele>853.40002441406</ele>
        <time>2012-11-12T14:51:30.000Z</time>
      </trkpt>
      <trkpt lat="46.06693" lon="6.09325">
        <ele>853.40002441406</ele>
        <time>2012-11-12T14:51:31.000Z</time>
      </trkpt>
      <trkpt lat="46.06688" lon="6.09313">
        <ele>852.20001220703</ele>
        <time>2012-11-12T14:51:32.000Z</time>
      </trkpt>
      <trkpt lat="46.06682" lon="6.09299">
        <ele>851</ele>
        <time>2012-11-12T14:51:33.000Z</time>
      </trkpt>
      <trkpt lat="46.06671" lon="6.09272">
        <ele>850</ele>
        <time>2012-11-12T14:51:35.000Z</time>
      </trkpt>
      <trkpt lat="46.06664" lon="6.09258">
        <ele>850</ele>
        <time>2012-11-12T14:51:36.000Z</time>
      </trkpt>
      <trkpt lat="46.06659" lon="6.09245">
        <ele>848.40002441406</ele>
        <time>2012-11-12T14:51:37.000Z</time>
      </trkpt>
      <trkpt lat="46.06653" lon="6.09229">
        <ele>847.40002441406</ele>
        <time>2012-11-12T14:51:38.000Z</time>
      </trkpt>
      <trkpt lat="46.06648" lon="6.09212">
        <ele>846.20001220703</ele>
        <time>2012-11-12T14:51:39.000Z</time>
      </trkpt>
      <trkpt lat="46.06646" lon="6.09197">
        <ele>845</ele>
        <time>2012-11-12T14:51:40.000Z</time>
      </trkpt>
      <trkpt lat="46.06646" lon="6.09179">
        <ele>844</ele>
        <time>2012-11-12T14:51:41.000Z</time>
      </trkpt>
      <trkpt lat="46.06648" lon="6.0917">
        <ele>844</ele>
        <time>2012-11-12T14:51:42.000Z</time>
      </trkpt>
      <trkpt lat="46.06652" lon="6.09148">
        <ele>842.40002441406</ele>
        <time>2012-11-12T14:51:43.000Z</time>
      </trkpt>
      <trkpt lat="46.06654" lon="6.09134">
        <ele>841.40002441406</ele>
        <time>2012-11-12T14:51:44.000Z</time>
      </trkpt>
      <trkpt lat="46.06656" lon="6.09122">
        <ele>840.20001220703</ele>
        <time>2012-11-12T14:51:45.000Z</time>
      </trkpt>
      <trkpt lat="46.06655" lon="6.09111">
        <ele>840.20001220703</ele>
        <time>2012-11-12T14:51:46.000Z</time>
      </trkpt>
      <trkpt lat="46.06651" lon="6.09099">
        <ele>838.59997558594</ele>
        <time>2012-11-12T14:51:47.000Z</time>
      </trkpt>
      <trkpt lat="46.06645" lon="6.09087">
        <ele>837.40002441406</ele>
        <time>2012-11-12T14:51:48.000Z</time>
      </trkpt>
      <trkpt lat="46.06637" lon="6.09077">
        <ele>836.40002441406</ele>
        <time>2012-11-12T14:51:49.000Z</time>
      </trkpt>
      <trkpt lat="46.06628" lon="6.09066">
        <ele>835.20001220703</ele>
        <time>2012-11-12T14:51:50.000Z</time>
      </trkpt>
      <trkpt lat="46.0662" lon="6.09054">
        <ele>833.59997558594</ele>
        <time>2012-11-12T14:51:51.000Z</time>
      </trkpt>
      <trkpt lat="46.06612" lon="6.09043">
        <ele>832.40002441406</ele>
        <time>2012-11-12T14:51:52.000Z</time>
      </trkpt>
      <trkpt lat="46.06602" lon="6.09028">
        <ele>831</ele>
        <time>2012-11-12T14:51:53.000Z</time>
      </trkpt>
      <trkpt lat="46.06592" lon="6.09016">
        <ele>829.40002441406</ele>
        <time>2012-11-12T14:51:54.000Z</time>
      </trkpt>
      <trkpt lat="46.06582" lon="6.09004">
        <ele>828</ele>
        <time>2012-11-12T14:51:55.000Z</time>
      </trkpt>
      <trkpt lat="46.06573" lon="6.08991">
        <ele>826.59997558594</ele>
        <time>2012-11-12T14:51:56.000Z</time>
      </trkpt>
      <trkpt lat="46.06564" lon="6.0898">
        <ele>825.20001220703</ele>
        <time>2012-11-12T14:51:57.000Z</time>
      </trkpt>
      <trkpt lat="46.06553" lon="6.08968">
        <ele>823.59997558594</ele>
        <time>2012-11-12T14:51:58.000Z</time>
      </trkpt>
      <trkpt lat="46.06543" lon="6.08958">
        <ele>822.40002441406</ele>
        <time>2012-11-12T14:51:59.000Z</time>
      </trkpt>
      <trkpt lat="46.06534" lon="6.08948">
        <ele>821.20001220703</ele>
        <time>2012-11-12T14:52:00.000Z</time>
      </trkpt>
      <trkpt lat="46.06525" lon="6.08938">
        <ele>819.59997558594</ele>
        <time>2012-11-12T14:52:01.000Z</time>
      </trkpt>
      <trkpt lat="46.06518" lon="6.08928">
        <ele>819.59997558594</ele>
        <time>2012-11-12T14:52:02.000Z</time>
      </trkpt>
      <trkpt lat="46.06513" lon="6.08917">
        <ele>817</ele>
        <time>2012-11-12T14:52:03.000Z</time>
      </trkpt>
      <trkpt lat="46.06509" lon="6.08905">
        <ele>816</ele>
        <time>2012-11-12T14:52:04.000Z</time>
      </trkpt>
      <trkpt lat="46.06506" lon="6.08893">
        <ele>814.59997558594</ele>
        <time>2012-11-12T14:52:05.000Z</time>
      </trkpt>
      <trkpt lat="46.06504" lon="6.08883">
        <ele>813.59997558594</ele>
        <time>2012-11-12T14:52:06.000Z</time>
      </trkpt>
      <trkpt lat="46.06505" lon="6.08873">
        <ele>812.40002441406</ele>
        <time>2012-11-12T14:52:07.000Z</time>
      </trkpt>
      <trkpt lat="46.06509" lon="6.08863">
        <ele>811.40002441406</ele>
        <time>2012-11-12T14:52:08.000Z</time>
      </trkpt>
      <trkpt lat="46.06524" lon="6.08855">
        <ele>811.40002441406</ele>
        <time>2012-11-12T14:52:10.000Z</time>
      </trkpt>
      <trkpt lat="46.06549" lon="6.08854">
        <ele>811.40002441406</ele>
        <time>2012-11-12T14:52:13.000Z</time>
      </trkpt>
      <trkpt lat="46.06556" lon="6.08855">
        <ele>810</ele>
        <time>2012-11-12T14:52:14.000Z</time>
      </trkpt>
      <trkpt lat="46.06598" lon="6.08852">
        <ele>810</ele>
        <time>2012-11-12T14:52:19.000Z</time>
      </trkpt>
      <trkpt lat="46.06648" lon="6.08839">
        <ele>810</ele>
        <time>2012-11-12T14:52:25.000Z</time>
      </trkpt>
      <trkpt lat="46.06655" lon="6.08833">
        <ele>810</ele>
        <time>2012-11-12T14:52:26.000Z</time>
      </trkpt>
      <trkpt lat="46.06671" lon="6.08808">
        <ele>810</ele>
        <time>2012-11-12T14:52:29.000Z</time>
      </trkpt>
      <trkpt lat="46.06676" lon="6.08799">
        <ele>813.20001220703</ele>
        <time>2012-11-12T14:52:30.000Z</time>
      </trkpt>
      <trkpt lat="46.06685" lon="6.08781">
        <ele>814.20001220703</ele>
        <time>2012-11-12T14:52:32.000Z</time>
      </trkpt>
      <trkpt lat="46.06691" lon="6.08765">
        <ele>814.20001220703</ele>
        <time>2012-11-12T14:52:34.000Z</time>
      </trkpt>
      <trkpt lat="46.06696" lon="6.08752">
        <ele>815.40002441406</ele>
        <time>2012-11-12T14:52:35.000Z</time>
      </trkpt>
      <trkpt lat="46.06701" lon="6.08733">
        <ele>816.40002441406</ele>
        <time>2012-11-12T14:52:37.000Z</time>
      </trkpt>
      <trkpt lat="46.06708" lon="6.08707">
        <ele>818.59997558594</ele>
        <time>2012-11-12T14:52:40.000Z</time>
      </trkpt>
      <trkpt lat="46.06704" lon="6.08682">
        <ele>818.59997558594</ele>
        <time>2012-11-12T14:52:43.000Z</time>
      </trkpt>
      <trkpt lat="46.06694" lon="6.08658">
        <ele>818.59997558594</ele>
        <time>2012-11-12T14:52:46.000Z</time>
      </trkpt>
      <trkpt lat="46.0669" lon="6.0865">
        <ele>818.59997558594</ele>
        <time>2012-11-12T14:52:47.000Z</time>
      </trkpt>
      <trkpt lat="46.06675" lon="6.08606">
        <ele>815.40002441406</ele>
        <time>2012-11-12T14:52:52.000Z</time>
      </trkpt>
      <trkpt lat="46.06672" lon="6.08596">
        <ele>815.40002441406</ele>
        <time>2012-11-12T14:52:53.000Z</time>
      </trkpt>
      <trkpt lat="46.06664" lon="6.08537">
        <ele>815.40002441406</ele>
        <time>2012-11-12T14:52:59.000Z</time>
      </trkpt>
      <trkpt lat="46.06661" lon="6.08465">
        <ele>815.40002441406</ele>
        <time>2012-11-12T14:53:06.000Z</time>
      </trkpt>
      <trkpt lat="46.06662" lon="6.08454">
        <ele>814.40002441406</ele>
        <time>2012-11-12T14:53:07.000Z</time>
      </trkpt>
      <trkpt lat="46.06663" lon="6.08442">
        <ele>813.20001220703</ele>
        <time>2012-11-12T14:53:08.000Z</time>
      </trkpt>
      <trkpt lat="46.06668" lon="6.08419">
        <ele>813.20001220703</ele>
        <time>2012-11-12T14:53:10.000Z</time>
      </trkpt>
      <trkpt lat="46.06672" lon="6.08407">
        <ele>812</ele>
        <time>2012-11-12T14:53:11.000Z</time>
      </trkpt>
      <trkpt lat="46.06686" lon="6.08375">
        <ele>810.59997558594</ele>
        <time>2012-11-12T14:53:14.000Z</time>
      </trkpt>
      <trkpt lat="46.06692" lon="6.08364">
        <ele>810.59997558594</ele>
        <time>2012-11-12T14:53:15.000Z</time>
      </trkpt>
      <trkpt lat="46.06704" lon="6.08344">
        <ele>809.40002441406</ele>
        <time>2012-11-12T14:53:17.000Z</time>
      </trkpt>
      <trkpt lat="46.06732" lon="6.08309">
        <ele>806.20001220703</ele>
        <time>2012-11-12T14:53:21.000Z</time>
      </trkpt>
      <trkpt lat="46.0674" lon="6.08305">
        <ele>805</ele>
        <time>2012-11-12T14:53:22.000Z</time>
      </trkpt>
      <trkpt lat="46.06751" lon="6.08302">
        <ele>802.40002441406</ele>
        <time>2012-11-12T14:53:23.000Z</time>
      </trkpt>
      <trkpt lat="46.06761" lon="6.08304">
        <ele>801.40002441406</ele>
        <time>2012-11-12T14:53:24.000Z</time>
      </trkpt>
      <trkpt lat="46.06771" lon="6.08309">
        <ele>800</ele>
        <time>2012-11-12T14:53:25.000Z</time>
      </trkpt>
      <trkpt lat="46.06781" lon="6.08314">
        <ele>799</ele>
        <time>2012-11-12T14:53:26.000Z</time>
      </trkpt>
      <trkpt lat="46.0679" lon="6.08319">
        <ele>797.40002441406</ele>
        <time>2012-11-12T14:53:27.000Z</time>
      </trkpt>
      <trkpt lat="46.06801" lon="6.08325">
        <ele>795.20001220703</ele>
        <time>2012-11-12T14:53:28.000Z</time>
      </trkpt>
      <trkpt lat="46.06812" lon="6.08332">
        <ele>795.20001220703</ele>
        <time>2012-11-12T14:53:29.000Z</time>
      </trkpt>
      <trkpt lat="46.06822" lon="6.08339">
        <ele>794</ele>
        <time>2012-11-12T14:53:30.000Z</time>
      </trkpt>
      <trkpt lat="46.06833" lon="6.08347">
        <ele>792.59997558594</ele>
        <time>2012-11-12T14:53:31.000Z</time>
      </trkpt>
      <trkpt lat="46.06854" lon="6.08365">
        <ele>791.40002441406</ele>
        <time>2012-11-12T14:53:33.000Z</time>
      </trkpt>
      <trkpt lat="46.06863" lon="6.08375">
        <ele>789</ele>
        <time>2012-11-12T14:53:34.000Z</time>
      </trkpt>
      <trkpt lat="46.06874" lon="6.08387">
        <ele>787.59997558594</ele>
        <time>2012-11-12T14:53:35.000Z</time>
      </trkpt>
      <trkpt lat="46.06884" lon="6.08398">
        <ele>786.40002441406</ele>
        <time>2012-11-12T14:53:36.000Z</time>
      </trkpt>
      <trkpt lat="46.06894" lon="6.08408">
        <ele>785.20001220703</ele>
        <time>2012-11-12T14:53:37.000Z</time>
      </trkpt>
      <trkpt lat="46.06906" lon="6.08417">
        <ele>784</ele>
        <time>2012-11-12T14:53:38.000Z</time>
      </trkpt>
      <trkpt lat="46.06919" lon="6.08423">
        <ele>782.59997558594</ele>
        <time>2012-11-12T14:53:39.000Z</time>
      </trkpt>
      <trkpt lat="46.06943" lon="6.08437">
        <ele>781.59997558594</ele>
        <time>2012-11-12T14:53:41.000Z</time>
      </trkpt>
      <trkpt lat="46.06954" lon="6.08445">
        <ele>780.20001220703</ele>
        <time>2012-11-12T14:53:42.000Z</time>
      </trkpt>
      <trkpt lat="46.06967" lon="6.08456">
        <ele>778.59997558594</ele>
        <time>2012-11-12T14:53:43.000Z</time>
      </trkpt>
      <trkpt lat="46.06979" lon="6.08466">
        <ele>776.40002441406</ele>
        <time>2012-11-12T14:53:44.000Z</time>
      </trkpt>
      <trkpt lat="46.0699" lon="6.08478">
        <ele>773.40002441406</ele>
        <time>2012-11-12T14:53:45.000Z</time>
      </trkpt>
      <trkpt lat="46.07001" lon="6.08489">
        <ele>771.20001220703</ele>
        <time>2012-11-12T14:53:46.000Z</time>
      </trkpt>
      <trkpt lat="46.07012" lon="6.08501">
        <ele>770</ele>
        <time>2012-11-12T14:53:47.000Z</time>
      </trkpt>
      <trkpt lat="46.07023" lon="6.08514">
        <ele>769</ele>
        <time>2012-11-12T14:53:48.000Z</time>
      </trkpt>
      <trkpt lat="46.07043" lon="6.08545">
        <ele>766.40002441406</ele>
        <time>2012-11-12T14:53:50.000Z</time>
      </trkpt>
      <trkpt lat="46.0705" lon="6.0856">
        <ele>765</ele>
        <time>2012-11-12T14:53:51.000Z</time>
      </trkpt>
      <trkpt lat="46.07071" lon="6.08611">
        <ele>763.59997558594</ele>
        <time>2012-11-12T14:53:54.000Z</time>
      </trkpt>
      <trkpt lat="46.07077" lon="6.08627">
        <ele>762.59997558594</ele>
        <time>2012-11-12T14:53:55.000Z</time>
      </trkpt>
      <trkpt lat="46.07091" lon="6.08653">
        <ele>761.40002441406</ele>
        <time>2012-11-12T14:53:57.000Z</time>
      </trkpt>
      <trkpt lat="46.071" lon="6.08663">
        <ele>761.40002441406</ele>
        <time>2012-11-12T14:53:58.000Z</time>
      </trkpt>
      <trkpt lat="46.07135" lon="6.08681">
        <ele>758.40002441406</ele>
        <time>2012-11-12T14:54:01.000Z</time>
      </trkpt>
      <trkpt lat="46.07147" lon="6.08685">
        <ele>757.40002441406</ele>
        <time>2012-11-12T14:54:02.000Z</time>
      </trkpt>
      <trkpt lat="46.0716" lon="6.08688">
        <ele>755.20001220703</ele>
        <time>2012-11-12T14:54:03.000Z</time>
      </trkpt>
      <trkpt lat="46.07185" lon="6.08693">
        <ele>754</ele>
        <time>2012-11-12T14:54:05.000Z</time>
      </trkpt>
      <trkpt lat="46.07198" lon="6.08695">
        <ele>753</ele>
        <time>2012-11-12T14:54:06.000Z</time>
      </trkpt>
      <trkpt lat="46.0721" lon="6.08697">
        <ele>751.59997558594</ele>
        <time>2012-11-12T14:54:07.000Z</time>
      </trkpt>
      <trkpt lat="46.07237" lon="6.08701">
        <ele>750.40002441406</ele>
        <time>2012-11-12T14:54:09.000Z</time>
      </trkpt>
      <trkpt lat="46.07249" lon="6.08703">
        <ele>749.40002441406</ele>
        <time>2012-11-12T14:54:10.000Z</time>
      </trkpt>
      <trkpt lat="46.07263" lon="6.08705">
        <ele>748.20001220703</ele>
        <time>2012-11-12T14:54:11.000Z</time>
      </trkpt>
      <trkpt lat="46.07275" lon="6.08707">
        <ele>747</ele>
        <time>2012-11-12T14:54:12.000Z</time>
      </trkpt>
      <trkpt lat="46.07288" lon="6.08709">
        <ele>745.40002441406</ele>
        <time>2012-11-12T14:54:13.000Z</time>
      </trkpt>
      <trkpt lat="46.073" lon="6.08711">
        <ele>744.40002441406</ele>
        <time>2012-11-12T14:54:14.000Z</time>
      </trkpt>
      <trkpt lat="46.07311" lon="6.08712">
        <ele>743.40002441406</ele>
        <time>2012-11-12T14:54:15.000Z</time>
      </trkpt>
      <trkpt lat="46.07321" lon="6.08714">
        <ele>741.59997558594</ele>
        <time>2012-11-12T14:54:16.000Z</time>
      </trkpt>
      <trkpt lat="46.07333" lon="6.08718">
        <ele>740.20001220703</ele>
        <time>2012-11-12T14:54:17.000Z</time>
      </trkpt>
      <trkpt lat="46.07346" lon="6.0872">
        <ele>738.40002441406</ele>
        <time>2012-11-12T14:54:18.000Z</time>
      </trkpt>
      <trkpt lat="46.07358" lon="6.08722">
        <ele>737.40002441406</ele>
        <time>2012-11-12T14:54:19.000Z</time>
      </trkpt>
      <trkpt lat="46.07371" lon="6.08724">
        <ele>736.20001220703</ele>
        <time>2012-11-12T14:54:20.000Z</time>
      </trkpt>
      <trkpt lat="46.07382" lon="6.08726">
        <ele>735</ele>
        <time>2012-11-12T14:54:21.000Z</time>
      </trkpt>
      <trkpt lat="46.07391" lon="6.08727">
        <ele>733.40002441406</ele>
        <time>2012-11-12T14:54:22.000Z</time>
      </trkpt>
      <trkpt lat="46.07402" lon="6.08725">
        <ele>732.40002441406</ele>
        <time>2012-11-12T14:54:23.000Z</time>
      </trkpt>
      <trkpt lat="46.07411" lon="6.0872">
        <ele>731.20001220703</ele>
        <time>2012-11-12T14:54:24.000Z</time>
      </trkpt>
      <trkpt lat="46.07418" lon="6.08712">
        <ele>731.20001220703</ele>
        <time>2012-11-12T14:54:25.000Z</time>
      </trkpt>
      <trkpt lat="46.0743" lon="6.08696">
        <ele>730</ele>
        <time>2012-11-12T14:54:27.000Z</time>
      </trkpt>
      <trkpt lat="46.07436" lon="6.08693">
        <ele>730</ele>
        <time>2012-11-12T14:54:28.000Z</time>
      </trkpt>
      <trkpt lat="46.07446" lon="6.08693">
        <ele>729</ele>
        <time>2012-11-12T14:54:30.000Z</time>
      </trkpt>
      <trkpt lat="46.07449" lon="6.08694">
        <ele>729</ele>
        <time>2012-11-12T14:54:31.000Z</time>
      </trkpt>
      <trkpt lat="46.07453" lon="6.08697">
        <ele>729</ele>
        <time>2012-11-12T14:54:34.000Z</time>
      </trkpt>
      <trkpt lat="46.07455" lon="6.08698">
        <ele>729</ele>
        <time>2012-11-12T14:54:35.000Z</time>
      </trkpt>
      <trkpt lat="46.0746" lon="6.087">
        <ele>729</ele>
        <time>2012-11-12T14:54:37.000Z</time>
      </trkpt>
      <trkpt lat="46.07463" lon="6.08689">
        <ele>729</ele>
        <time>2012-11-12T14:54:39.000Z</time>
      </trkpt>
      <trkpt lat="46.07462" lon="6.08675">
        <ele>729</ele>
        <time>2012-11-12T14:54:41.000Z</time>
      </trkpt>
      <trkpt lat="46.07463" lon="6.08658">
        <ele>729</ele>
        <time>2012-11-12T14:54:43.000Z</time>
      </trkpt>
      <trkpt lat="46.07461" lon="6.08602">
        <ele>729</ele>
        <time>2012-11-12T14:54:49.000Z</time>
      </trkpt>
      <trkpt lat="46.07457" lon="6.08531">
        <ele>731.20001220703</ele>
        <time>2012-11-12T14:54:56.000Z</time>
      </trkpt>
      <trkpt lat="46.07456" lon="6.0852">
        <ele>731.20001220703</ele>
        <time>2012-11-12T14:54:57.000Z</time>
      </trkpt>
      <trkpt lat="46.0745" lon="6.08444">
        <ele>731.20001220703</ele>
        <time>2012-11-12T14:55:04.000Z</time>
      </trkpt>
      <trkpt lat="46.07463" lon="6.08415">
        <ele>731.20001220703</ele>
        <time>2012-11-12T14:55:07.000Z</time>
      </trkpt>
      <trkpt lat="46.07465" lon="6.08403">
        <ele>728.20001220703</ele>
        <time>2012-11-12T14:55:08.000Z</time>
      </trkpt>
      <trkpt lat="46.07463" lon="6.08391">
        <ele>726.40002441406</ele>
        <time>2012-11-12T14:55:09.000Z</time>
      </trkpt>
      <trkpt lat="46.07459" lon="6.0838">
        <ele>726.40002441406</ele>
        <time>2012-11-12T14:55:10.000Z</time>
      </trkpt>
      <trkpt lat="46.07453" lon="6.0837">
        <ele>725.40002441406</ele>
        <time>2012-11-12T14:55:11.000Z</time>
      </trkpt>
      <trkpt lat="46.0744" lon="6.0835">
        <ele>725.40002441406</ele>
        <time>2012-11-12T14:55:13.000Z</time>
      </trkpt>
      <trkpt lat="46.07427" lon="6.08329">
        <ele>724.20001220703</ele>
        <time>2012-11-12T14:55:15.000Z</time>
      </trkpt>
      <trkpt lat="46.07421" lon="6.08319">
        <ele>723</ele>
        <time>2012-11-12T14:55:16.000Z</time>
      </trkpt>
      <trkpt lat="46.0741" lon="6.08295">
        <ele>721.59997558594</ele>
        <time>2012-11-12T14:55:18.000Z</time>
      </trkpt>
      <trkpt lat="46.07394" lon="6.08248">
        <ele>721.59997558594</ele>
        <time>2012-11-12T14:55:22.000Z</time>
      </trkpt>
      <trkpt lat="46.07392" lon="6.08233">
        <ele>721.59997558594</ele>
        <time>2012-11-12T14:55:23.000Z</time>
      </trkpt>
      <trkpt lat="46.07387" lon="6.08169">
        <ele>721.59997558594</ele>
        <time>2012-11-12T14:55:28.000Z</time>
      </trkpt>
      <trkpt lat="46.07381" lon="6.08078">
        <ele>721.59997558594</ele>
        <time>2012-11-12T14:55:35.000Z</time>
      </trkpt>
      <trkpt lat="46.07378" lon="6.08066">
        <ele>721.59997558594</ele>
        <time>2012-11-12T14:55:36.000Z</time>
      </trkpt>
      <trkpt lat="46.07365" lon="6.08037">
        <ele>721.59997558594</ele>
        <time>2012-11-12T14:55:39.000Z</time>
      </trkpt>
      <trkpt lat="46.07354" lon="6.08022">
        <ele>721.59997558594</ele>
        <time>2012-11-12T14:55:41.000Z</time>
      </trkpt>
      <trkpt lat="46.07342" lon="6.08006">
        <ele>721.59997558594</ele>
        <time>2012-11-12T14:55:43.000Z</time>
      </trkpt>
      <trkpt lat="46.07317" lon="6.07959">
        <ele>721.59997558594</ele>
        <time>2012-11-12T14:55:48.000Z</time>
      </trkpt>
      <trkpt lat="46.07297" lon="6.07908">
        <ele>721.59997558594</ele>
        <time>2012-11-12T14:55:53.000Z</time>
      </trkpt>
      <trkpt lat="46.07266" lon="6.07839">
        <ele>721.59997558594</ele>
        <time>2012-11-12T14:56:00.000Z</time>
      </trkpt>
      <trkpt lat="46.07261" lon="6.0783">
        <ele>721.59997558594</ele>
        <time>2012-11-12T14:56:01.000Z</time>
      </trkpt>
      <trkpt lat="46.07225" lon="6.0776">
        <ele>721.59997558594</ele>
        <time>2012-11-12T14:56:08.000Z</time>
      </trkpt>
      <trkpt lat="46.07219" lon="6.07751">
        <ele>725.40002441406</ele>
        <time>2012-11-12T14:56:09.000Z</time>
      </trkpt>
      <trkpt lat="46.07179" lon="6.07685">
        <ele>722.40002441406</ele>
        <time>2012-11-12T14:56:16.000Z</time>
      </trkpt>
      <trkpt lat="46.07173" lon="6.07675">
        <ele>722.40002441406</ele>
        <time>2012-11-12T14:56:17.000Z</time>
      </trkpt>
      <trkpt lat="46.07145" lon="6.0761">
        <ele>722.40002441406</ele>
        <time>2012-11-12T14:56:23.000Z</time>
      </trkpt>
      <trkpt lat="46.07114" lon="6.07535">
        <ele>722.40002441406</ele>
        <time>2012-11-12T14:56:30.000Z</time>
      </trkpt>
      <trkpt lat="46.07104" lon="6.07515">
        <ele>722.40002441406</ele>
        <time>2012-11-12T14:56:32.000Z</time>
      </trkpt>
      <trkpt lat="46.07077" lon="6.07453">
        <ele>722.40002441406</ele>
        <time>2012-11-12T14:56:38.000Z</time>
      </trkpt>
      <trkpt lat="46.07057" lon="6.07391">
        <ele>722.40002441406</ele>
        <time>2012-11-12T14:56:44.000Z</time>
      </trkpt>
      <trkpt lat="46.07048" lon="6.07361">
        <ele>722.40002441406</ele>
        <time>2012-11-12T14:56:47.000Z</time>
      </trkpt>
      <trkpt lat="46.07039" lon="6.07328">
        <ele>722.40002441406</ele>
        <time>2012-11-12T14:56:50.000Z</time>
      </trkpt>
      <trkpt lat="46.07017" lon="6.07257">
        <ele>722.40002441406</ele>
        <time>2012-11-12T14:56:57.000Z</time>
      </trkpt>
      <trkpt lat="46.07015" lon="6.07248">
        <ele>722.40002441406</ele>
        <time>2012-11-12T14:56:58.000Z</time>
      </trkpt>
      <trkpt lat="46.07012" lon="6.07238">
        <ele>725.40002441406</ele>
        <time>2012-11-12T14:56:59.000Z</time>
      </trkpt>
      <trkpt lat="46.06997" lon="6.07181">
        <ele>725.40002441406</ele>
        <time>2012-11-12T14:57:05.000Z</time>
      </trkpt>
      <trkpt lat="46.06995" lon="6.07171">
        <ele>726.40002441406</ele>
        <time>2012-11-12T14:57:06.000Z</time>
      </trkpt>
      <trkpt lat="46.06986" lon="6.0711">
        <ele>726.40002441406</ele>
        <time>2012-11-12T14:57:12.000Z</time>
      </trkpt>
      <trkpt lat="46.06986" lon="6.0705">
        <ele>726.40002441406</ele>
        <time>2012-11-12T14:57:18.000Z</time>
      </trkpt>
      <trkpt lat="46.06988" lon="6.07028">
        <ele>723.20001220703</ele>
        <time>2012-11-12T14:57:20.000Z</time>
      </trkpt>
      <trkpt lat="46.06989" lon="6.07017">
        <ele>722.20001220703</ele>
        <time>2012-11-12T14:57:21.000Z</time>
      </trkpt>
      <trkpt lat="46.06991" lon="6.06996">
        <ele>722.20001220703</ele>
        <time>2012-11-12T14:57:23.000Z</time>
      </trkpt>
      <trkpt lat="46.06984" lon="6.06966">
        <ele>721</ele>
        <time>2012-11-12T14:57:26.000Z</time>
      </trkpt>
      <trkpt lat="46.06985" lon="6.06956">
        <ele>719.40002441406</ele>
        <time>2012-11-12T14:57:27.000Z</time>
      </trkpt>
      <trkpt lat="46.06989" lon="6.06946">
        <ele>719.40002441406</ele>
        <time>2012-11-12T14:57:28.000Z</time>
      </trkpt>
      <trkpt lat="46.06998" lon="6.06927">
        <ele>719.40002441406</ele>
        <time>2012-11-12T14:57:30.000Z</time>
      </trkpt>
      <trkpt lat="46.07006" lon="6.0691">
        <ele>719.40002441406</ele>
        <time>2012-11-12T14:57:32.000Z</time>
      </trkpt>
      <trkpt lat="46.07015" lon="6.06892">
        <ele>718.40002441406</ele>
        <time>2012-11-12T14:57:34.000Z</time>
      </trkpt>
      <trkpt lat="46.07021" lon="6.06882">
        <ele>717.20001220703</ele>
        <time>2012-11-12T14:57:35.000Z</time>
      </trkpt>
      <trkpt lat="46.07036" lon="6.06855">
        <ele>717.20001220703</ele>
        <time>2012-11-12T14:57:38.000Z</time>
      </trkpt>
      <trkpt lat="46.07045" lon="6.06838">
        <ele>716.20001220703</ele>
        <time>2012-11-12T14:57:40.000Z</time>
      </trkpt>
      <trkpt lat="46.07057" lon="6.06813">
        <ele>716.20001220703</ele>
        <time>2012-11-12T14:57:43.000Z</time>
      </trkpt>
      <trkpt lat="46.07062" lon="6.06808">
        <ele>716.20001220703</ele>
        <time>2012-11-12T14:57:44.000Z</time>
      </trkpt>
      <trkpt lat="46.07074" lon="6.06805">
        <ele>716.20001220703</ele>
        <time>2012-11-12T14:57:46.000Z</time>
      </trkpt>
      <trkpt lat="46.07091" lon="6.06813">
        <ele>716.20001220703</ele>
        <time>2012-11-12T14:57:49.000Z</time>
      </trkpt>
      <trkpt lat="46.07133" lon="6.06832">
        <ele>716.20001220703</ele>
        <time>2012-11-12T14:57:56.000Z</time>
      </trkpt>
      <trkpt lat="46.07179" lon="6.06844">
        <ele>719.40002441406</ele>
        <time>2012-11-12T14:58:03.000Z</time>
      </trkpt>
      <trkpt lat="46.07193" lon="6.06848">
        <ele>720.40002441406</ele>
        <time>2012-11-12T14:58:05.000Z</time>
      </trkpt>
      <trkpt lat="46.0722" lon="6.06852">
        <ele>720.40002441406</ele>
        <time>2012-11-12T14:58:09.000Z</time>
      </trkpt>
      <trkpt lat="46.07252" lon="6.06856">
        <ele>721.40002441406</ele>
        <time>2012-11-12T14:58:14.000Z</time>
      </trkpt>
      <trkpt lat="46.07259" lon="6.06857">
        <ele>721.40002441406</ele>
        <time>2012-11-12T14:58:15.000Z</time>
      </trkpt>
      <trkpt lat="46.07264" lon="6.06855">
        <ele>721.40002441406</ele>
        <time>2012-11-12T14:58:16.000Z</time>
      </trkpt>
      <trkpt lat="46.07275" lon="6.06845">
        <ele>721.40002441406</ele>
        <time>2012-11-12T14:58:18.000Z</time>
      </trkpt>
      <trkpt lat="46.07279" lon="6.06836">
        <ele>722.40002441406</ele>
        <time>2012-11-12T14:58:19.000Z</time>
      </trkpt>
      <trkpt lat="46.07283" lon="6.06819">
        <ele>722.40002441406</ele>
        <time>2012-11-12T14:58:21.000Z</time>
      </trkpt>
      <trkpt lat="46.07278" lon="6.06792">
        <ele>722.40002441406</ele>
        <time>2012-11-12T14:58:24.000Z</time>
      </trkpt>
      <trkpt lat="46.07265" lon="6.06772">
        <ele>722.40002441406</ele>
        <time>2012-11-12T14:58:27.000Z</time>
      </trkpt>
      <trkpt lat="46.07255" lon="6.0676">
        <ele>723.59997558594</ele>
        <time>2012-11-12T14:58:29.000Z</time>
      </trkpt>
      <trkpt lat="46.07235" lon="6.06734">
        <ele>723.59997558594</ele>
        <time>2012-11-12T14:58:33.000Z</time>
      </trkpt>
      <trkpt lat="46.07213" lon="6.06686">
        <ele>723.59997558594</ele>
        <time>2012-11-12T14:58:39.000Z</time>
      </trkpt>
      <trkpt lat="46.07183" lon="6.06613">
        <ele>723.59997558594</ele>
        <time>2012-11-12T14:58:48.000Z</time>
      </trkpt>
      <trkpt lat="46.07179" lon="6.06594">
        <ele>723.59997558594</ele>
        <time>2012-11-12T14:58:50.000Z</time>
      </trkpt>
      <trkpt lat="46.07178" lon="6.06575">
        <ele>723.59997558594</ele>
        <time>2012-11-12T14:58:52.000Z</time>
      </trkpt>
      <trkpt lat="46.07185" lon="6.06537">
        <ele>723.59997558594</ele>
        <time>2012-11-12T14:58:56.000Z</time>
      </trkpt>
      <trkpt lat="46.07187" lon="6.06529">
        <ele>723.59997558594</ele>
        <time>2012-11-12T14:58:57.000Z</time>
      </trkpt>
      <trkpt lat="46.07206" lon="6.06476">
        <ele>723.59997558594</ele>
        <time>2012-11-12T14:59:03.000Z</time>
      </trkpt>
      <trkpt lat="46.07225" lon="6.06422">
        <ele>725.59997558594</ele>
        <time>2012-11-12T14:59:09.000Z</time>
      </trkpt>
      <trkpt lat="46.07237" lon="6.06376">
        <ele>725.59997558594</ele>
        <time>2012-11-12T14:59:14.000Z</time>
      </trkpt>
      <trkpt lat="46.07243" lon="6.06338">
        <ele>726.59997558594</ele>
        <time>2012-11-12T14:59:18.000Z</time>
      </trkpt>
      <trkpt lat="46.07245" lon="6.06309">
        <ele>726.59997558594</ele>
        <time>2012-11-12T14:59:21.000Z</time>
      </trkpt>
      <trkpt lat="46.07246" lon="6.0629">
        <ele>727.59997558594</ele>
        <time>2012-11-12T14:59:23.000Z</time>
      </trkpt>
      <trkpt lat="46.07244" lon="6.06244">
        <ele>727.59997558594</ele>
        <time>2012-11-12T14:59:28.000Z</time>
      </trkpt>
      <trkpt lat="46.07236" lon="6.0619">
        <ele>730</ele>
        <time>2012-11-12T14:59:34.000Z</time>
      </trkpt>
      <trkpt lat="46.07236" lon="6.06172">
        <ele>730</ele>
        <time>2012-11-12T14:59:36.000Z</time>
      </trkpt>
      <trkpt lat="46.07236" lon="6.06155">
        <ele>731</ele>
        <time>2012-11-12T14:59:38.000Z</time>
      </trkpt>
      <trkpt lat="46.07239" lon="6.06122">
        <ele>731</ele>
        <time>2012-11-12T14:59:42.000Z</time>
      </trkpt>
      <trkpt lat="46.07241" lon="6.06114">
        <ele>731</ele>
        <time>2012-11-12T14:59:43.000Z</time>
      </trkpt>
      <trkpt lat="46.07245" lon="6.06098">
        <ele>732</ele>
        <time>2012-11-12T14:59:45.000Z</time>
      </trkpt>
      <trkpt lat="46.07248" lon="6.06092">
        <ele>732</ele>
        <time>2012-11-12T14:59:46.000Z</time>
      </trkpt>
      <trkpt lat="46.07251" lon="6.06085">
        <ele>732</ele>
        <time>2012-11-12T14:59:47.000Z</time>
      </trkpt>
      <trkpt lat="46.07259" lon="6.06072">
        <ele>733.20001220703</ele>
        <time>2012-11-12T14:59:49.000Z</time>
      </trkpt>
      <trkpt lat="46.07263" lon="6.06067">
        <ele>733.20001220703</ele>
        <time>2012-11-12T14:59:50.000Z</time>
      </trkpt>
      <trkpt lat="46.07271" lon="6.06059">
        <ele>734.20001220703</ele>
        <time>2012-11-12T14:59:52.000Z</time>
      </trkpt>
      <trkpt lat="46.07292" lon="6.06045">
        <ele>735.20001220703</ele>
        <time>2012-11-12T14:59:56.000Z</time>
      </trkpt>
      <trkpt lat="46.07296" lon="6.06043">
        <ele>735.20001220703</ele>
        <time>2012-11-12T14:59:57.000Z</time>
      </trkpt>
      <trkpt lat="46.07307" lon="6.0604">
        <ele>735.20001220703</ele>
        <time>2012-11-12T14:59:59.000Z</time>
      </trkpt>
      <trkpt lat="46.07321" lon="6.06037">
        <ele>735.20001220703</ele>
        <time>2012-11-12T15:00:02.000Z</time>
      </trkpt>
      <trkpt lat="46.07326" lon="6.06037">
        <ele>735.20001220703</ele>
        <time>2012-11-12T15:00:03.000Z</time>
      </trkpt>
      <trkpt lat="46.07335" lon="6.06037">
        <ele>736.20001220703</ele>
        <time>2012-11-12T15:00:05.000Z</time>
      </trkpt>
      <trkpt lat="46.07344" lon="6.06037">
        <ele>736.20001220703</ele>
        <time>2012-11-12T15:00:07.000Z</time>
      </trkpt>
      <trkpt lat="46.07355" lon="6.06037">
        <ele>737.40002441406</ele>
        <time>2012-11-12T15:00:09.000Z</time>
      </trkpt>
      <trkpt lat="46.07369" lon="6.06037">
        <ele>739.20001220703</ele>
        <time>2012-11-12T15:00:12.000Z</time>
      </trkpt>
      <trkpt lat="46.07405" lon="6.06033">
        <ele>739.20001220703</ele>
        <time>2012-11-12T15:00:19.000Z</time>
      </trkpt>
      <trkpt lat="46.0741" lon="6.06032">
        <ele>740.20001220703</ele>
        <time>2012-11-12T15:00:20.000Z</time>
      </trkpt>
      <trkpt lat="46.07421" lon="6.06028">
        <ele>741.40002441406</ele>
        <time>2012-11-12T15:00:22.000Z</time>
      </trkpt>
      <trkpt lat="46.07437" lon="6.0602">
        <ele>741.40002441406</ele>
        <time>2012-11-12T15:00:25.000Z</time>
      </trkpt>
      <trkpt lat="46.07443" lon="6.06015">
        <ele>741.40002441406</ele>
        <time>2012-11-12T15:00:26.000Z</time>
      </trkpt>
      <trkpt lat="46.07457" lon="6.06">
        <ele>741.40002441406</ele>
        <time>2012-11-12T15:00:29.000Z</time>
      </trkpt>
      <trkpt lat="46.07467" lon="6.05987">
        <ele>741.40002441406</ele>
        <time>2012-11-12T15:00:31.000Z</time>
      </trkpt>
      <trkpt lat="46.07478" lon="6.05966">
        <ele>741.40002441406</ele>
        <time>2012-11-12T15:00:34.000Z</time>
      </trkpt>
      <trkpt lat="46.07483" lon="6.05948">
        <ele>741.40002441406</ele>
        <time>2012-11-12T15:00:36.000Z</time>
      </trkpt>
      <trkpt lat="46.07485" lon="6.0593">
        <ele>741.40002441406</ele>
        <time>2012-11-12T15:00:38.000Z</time>
      </trkpt>
      <trkpt lat="46.07484" lon="6.05921">
        <ele>741.40002441406</ele>
        <time>2012-11-12T15:00:39.000Z</time>
      </trkpt>
      <trkpt lat="46.07484" lon="6.05913">
        <ele>741.40002441406</ele>
        <time>2012-11-12T15:00:40.000Z</time>
      </trkpt>
      <trkpt lat="46.07481" lon="6.05855">
        <ele>741.40002441406</ele>
        <time>2012-11-12T15:00:46.000Z</time>
      </trkpt>
      <trkpt lat="46.0749" lon="6.05774">
        <ele>741.40002441406</ele>
        <time>2012-11-12T15:00:54.000Z</time>
      </trkpt>
      <trkpt lat="46.075" lon="6.05695">
        <ele>741.40002441406</ele>
        <time>2012-11-12T15:01:02.000Z</time>
      </trkpt>
      <trkpt lat="46.07502" lon="6.05684">
        <ele>741.40002441406</ele>
        <time>2012-11-12T15:01:03.000Z</time>
      </trkpt>
      <trkpt lat="46.07506" lon="6.05654">
        <ele>741.40002441406</ele>
        <time>2012-11-12T15:01:06.000Z</time>
      </trkpt>
      <trkpt lat="46.07512" lon="6.05625">
        <ele>741.40002441406</ele>
        <time>2012-11-12T15:01:09.000Z</time>
      </trkpt>
      <trkpt lat="46.07518" lon="6.05598">
        <ele>741.40002441406</ele>
        <time>2012-11-12T15:01:12.000Z</time>
      </trkpt>
      <trkpt lat="46.07526" lon="6.0557">
        <ele>741.40002441406</ele>
        <time>2012-11-12T15:01:15.000Z</time>
      </trkpt>
      <trkpt lat="46.07554" lon="6.05501">
        <ele>741.40002441406</ele>
        <time>2012-11-12T15:01:23.000Z</time>
      </trkpt>
      <trkpt lat="46.07557" lon="6.05492">
        <ele>742.40002441406</ele>
        <time>2012-11-12T15:01:24.000Z</time>
      </trkpt>
      <trkpt lat="46.07586" lon="6.05424">
        <ele>742.40002441406</ele>
        <time>2012-11-12T15:01:32.000Z</time>
      </trkpt>
      <trkpt lat="46.07591" lon="6.05417">
        <ele>742.40002441406</ele>
        <time>2012-11-12T15:01:33.000Z</time>
      </trkpt>
      <trkpt lat="46.07596" lon="6.0541">
        <ele>742.40002441406</ele>
        <time>2012-11-12T15:01:34.000Z</time>
      </trkpt>
      <trkpt lat="46.07622" lon="6.0539">
        <ele>742.40002441406</ele>
        <time>2012-11-12T15:01:38.000Z</time>
      </trkpt>
      <trkpt lat="46.07643" lon="6.05383">
        <ele>742.40002441406</ele>
        <time>2012-11-12T15:01:41.000Z</time>
      </trkpt>
      <trkpt lat="46.07657" lon="6.05379">
        <ele>742.40002441406</ele>
        <time>2012-11-12T15:01:43.000Z</time>
      </trkpt>
      <trkpt lat="46.07709" lon="6.0537">
        <ele>742.40002441406</ele>
        <time>2012-11-12T15:01:50.000Z</time>
      </trkpt>
      <trkpt lat="46.07743" lon="6.05375">
        <ele>739.20001220703</ele>
        <time>2012-11-12T15:01:55.000Z</time>
      </trkpt>
      <trkpt lat="46.07792" lon="6.05381">
        <ele>739.20001220703</ele>
        <time>2012-11-12T15:02:02.000Z</time>
      </trkpt>
      <trkpt lat="46.07833" lon="6.05384">
        <ele>739.20001220703</ele>
        <time>2012-11-12T15:02:08.000Z</time>
      </trkpt>
      <trkpt lat="46.07853" lon="6.0539">
        <ele>738.20001220703</ele>
        <time>2012-11-12T15:02:11.000Z</time>
      </trkpt>
      <trkpt lat="46.07873" lon="6.05399">
        <ele>738.20001220703</ele>
        <time>2012-11-12T15:02:14.000Z</time>
      </trkpt>
      <trkpt lat="46.07924" lon="6.05429">
        <ele>738.20001220703</ele>
        <time>2012-11-12T15:02:22.000Z</time>
      </trkpt>
      <trkpt lat="46.07931" lon="6.05434">
        <ele>738.20001220703</ele>
        <time>2012-11-12T15:02:23.000Z</time>
      </trkpt>
      <trkpt lat="46.0795" lon="6.05442">
        <ele>738.20001220703</ele>
        <time>2012-11-12T15:02:26.000Z</time>
      </trkpt>
      <trkpt lat="46.07957" lon="6.05441">
        <ele>738.20001220703</ele>
        <time>2012-11-12T15:02:27.000Z</time>
      </trkpt>
      <trkpt lat="46.07977" lon="6.05431">
        <ele>738.20001220703</ele>
        <time>2012-11-12T15:02:30.000Z</time>
      </trkpt>
      <trkpt lat="46.07988" lon="6.05419">
        <ele>738.20001220703</ele>
        <time>2012-11-12T15:02:32.000Z</time>
      </trkpt>
      <trkpt lat="46.07994" lon="6.05412">
        <ele>738.20001220703</ele>
        <time>2012-11-12T15:02:33.000Z</time>
      </trkpt>
      <trkpt lat="46.07999" lon="6.05406">
        <ele>738.20001220703</ele>
        <time>2012-11-12T15:02:34.000Z</time>
      </trkpt>
      <trkpt lat="46.08032" lon="6.05368">
        <ele>741.40002441406</ele>
        <time>2012-11-12T15:02:40.000Z</time>
      </trkpt>
      <trkpt lat="46.08039" lon="6.05362">
        <ele>741.40002441406</ele>
        <time>2012-11-12T15:02:41.000Z</time>
      </trkpt>
      <trkpt lat="46.08045" lon="6.05357">
        <ele>737.40002441406</ele>
        <time>2012-11-12T15:02:42.000Z</time>
      </trkpt>
      <trkpt lat="46.08053" lon="6.05353">
        <ele>736</ele>
        <time>2012-11-12T15:02:43.000Z</time>
      </trkpt>
      <trkpt lat="46.08061" lon="6.05349">
        <ele>734.59997558594</ele>
        <time>2012-11-12T15:02:44.000Z</time>
      </trkpt>
      <trkpt lat="46.08069" lon="6.05347">
        <ele>734.59997558594</ele>
        <time>2012-11-12T15:02:45.000Z</time>
      </trkpt>
      <trkpt lat="46.08077" lon="6.05346">
        <ele>734.59997558594</ele>
        <time>2012-11-12T15:02:46.000Z</time>
      </trkpt>
      <trkpt lat="46.08086" lon="6.05345">
        <ele>733.40002441406</ele>
        <time>2012-11-12T15:02:47.000Z</time>
      </trkpt>
      <trkpt lat="46.08104" lon="6.05348">
        <ele>732.40002441406</ele>
        <time>2012-11-12T15:02:49.000Z</time>
      </trkpt>
      <trkpt lat="46.08121" lon="6.05351">
        <ele>732.40002441406</ele>
        <time>2012-11-12T15:02:51.000Z</time>
      </trkpt>
      <trkpt lat="46.08129" lon="6.05353">
        <ele>731.40002441406</ele>
        <time>2012-11-12T15:02:52.000Z</time>
      </trkpt>
      <trkpt lat="46.08139" lon="6.05354">
        <ele>730.40002441406</ele>
        <time>2012-11-12T15:02:53.000Z</time>
      </trkpt>
      <trkpt lat="46.08158" lon="6.05352">
        <ele>729.40002441406</ele>
        <time>2012-11-12T15:02:55.000Z</time>
      </trkpt>
      <trkpt lat="46.08167" lon="6.05349">
        <ele>729.40002441406</ele>
        <time>2012-11-12T15:02:56.000Z</time>
      </trkpt>
      <trkpt lat="46.08176" lon="6.05345">
        <ele>728.20001220703</ele>
        <time>2012-11-12T15:02:57.000Z</time>
      </trkpt>
      <trkpt lat="46.08193" lon="6.05329">
        <ele>728.20001220703</ele>
        <time>2012-11-12T15:02:59.000Z</time>
      </trkpt>
      <trkpt lat="46.082" lon="6.05319">
        <ele>727.20001220703</ele>
        <time>2012-11-12T15:03:00.000Z</time>
      </trkpt>
      <trkpt lat="46.08209" lon="6.05297">
        <ele>727.20001220703</ele>
        <time>2012-11-12T15:03:02.000Z</time>
      </trkpt>
      <trkpt lat="46.08213" lon="6.05283">
        <ele>726.20001220703</ele>
        <time>2012-11-12T15:03:03.000Z</time>
      </trkpt>
      <trkpt lat="46.08215" lon="6.05269">
        <ele>725</ele>
        <time>2012-11-12T15:03:04.000Z</time>
      </trkpt>
      <trkpt lat="46.08217" lon="6.05254">
        <ele>723.59997558594</ele>
        <time>2012-11-12T15:03:05.000Z</time>
      </trkpt>
      <trkpt lat="46.0822" lon="6.05239">
        <ele>723.59997558594</ele>
        <time>2012-11-12T15:03:06.000Z</time>
      </trkpt>
      <trkpt lat="46.08222" lon="6.05224">
        <ele>721.40002441406</ele>
        <time>2012-11-12T15:03:07.000Z</time>
      </trkpt>
      <trkpt lat="46.0823" lon="6.05177">
        <ele>721.40002441406</ele>
        <time>2012-11-12T15:03:10.000Z</time>
      </trkpt>
      <trkpt lat="46.08234" lon="6.0516">
        <ele>720.20001220703</ele>
        <time>2012-11-12T15:03:11.000Z</time>
      </trkpt>
      <trkpt lat="46.08244" lon="6.05131">
        <ele>719.20001220703</ele>
        <time>2012-11-12T15:03:13.000Z</time>
      </trkpt>
      <trkpt lat="46.0825" lon="6.05118">
        <ele>718</ele>
        <time>2012-11-12T15:03:14.000Z</time>
      </trkpt>
      <trkpt lat="46.08262" lon="6.05091">
        <ele>716.59997558594</ele>
        <time>2012-11-12T15:03:16.000Z</time>
      </trkpt>
      <trkpt lat="46.08268" lon="6.05077">
        <ele>715.40002441406</ele>
        <time>2012-11-12T15:03:17.000Z</time>
      </trkpt>
      <trkpt lat="46.08282" lon="6.05049">
        <ele>714.20001220703</ele>
        <time>2012-11-12T15:03:19.000Z</time>
      </trkpt>
      <trkpt lat="46.08298" lon="6.05023">
        <ele>714.20001220703</ele>
        <time>2012-11-12T15:03:21.000Z</time>
      </trkpt>
      <trkpt lat="46.08305" lon="6.05013">
        <ele>718.20001220703</ele>
        <time>2012-11-12T15:03:22.000Z</time>
      </trkpt>
      <trkpt lat="46.0834" lon="6.04965">
        <ele>716</ele>
        <time>2012-11-12T15:03:26.000Z</time>
      </trkpt>
      <trkpt lat="46.08348" lon="6.04954">
        <ele>716</ele>
        <time>2012-11-12T15:03:27.000Z</time>
      </trkpt>
      <trkpt lat="46.08356" lon="6.04943">
        <ele>714.59997558594</ele>
        <time>2012-11-12T15:03:28.000Z</time>
      </trkpt>
      <trkpt lat="46.08373" lon="6.04918">
        <ele>713.59997558594</ele>
        <time>2012-11-12T15:03:30.000Z</time>
      </trkpt>
      <trkpt lat="46.08385" lon="6.04898">
        <ele>712.40002441406</ele>
        <time>2012-11-12T15:03:32.000Z</time>
      </trkpt>
      <trkpt lat="46.08389" lon="6.04888">
        <ele>712.40002441406</ele>
        <time>2012-11-12T15:03:33.000Z</time>
      </trkpt>
      <trkpt lat="46.08393" lon="6.04881">
        <ele>711.40002441406</ele>
        <time>2012-11-12T15:03:34.000Z</time>
      </trkpt>
      <trkpt lat="46.08399" lon="6.04878">
        <ele>711.40002441406</ele>
        <time>2012-11-12T15:03:35.000Z</time>
      </trkpt>
      <trkpt lat="46.08404" lon="6.0488">
        <ele>710.40002441406</ele>
        <time>2012-11-12T15:03:36.000Z</time>
      </trkpt>
      <trkpt lat="46.0841" lon="6.04896">
        <ele>710.40002441406</ele>
        <time>2012-11-12T15:03:38.000Z</time>
      </trkpt>
      <trkpt lat="46.08412" lon="6.04914">
        <ele>709.40002441406</ele>
        <time>2012-11-12T15:03:40.000Z</time>
      </trkpt>
      <trkpt lat="46.08412" lon="6.04924">
        <ele>709.40002441406</ele>
        <time>2012-11-12T15:03:41.000Z</time>
      </trkpt>
      <trkpt lat="46.08407" lon="6.04973">
        <ele>709.40002441406</ele>
        <time>2012-11-12T15:03:46.000Z</time>
      </trkpt>
      <trkpt lat="46.08403" lon="6.05036">
        <ele>708.20001220703</ele>
        <time>2012-11-12T15:03:52.000Z</time>
      </trkpt>
      <trkpt lat="46.08406" lon="6.05103">
        <ele>708.20001220703</ele>
        <time>2012-11-12T15:03:58.000Z</time>
      </trkpt>
      <trkpt lat="46.08416" lon="6.0519">
        <ele>708.20001220703</ele>
        <time>2012-11-12T15:04:06.000Z</time>
      </trkpt>
      <trkpt lat="46.08417" lon="6.052">
        <ele>708.20001220703</ele>
        <time>2012-11-12T15:04:07.000Z</time>
      </trkpt>
      <trkpt lat="46.08429" lon="6.05282">
        <ele>708.20001220703</ele>
        <time>2012-11-12T15:04:15.000Z</time>
      </trkpt>
      <trkpt lat="46.0843" lon="6.05293">
        <ele>708.20001220703</ele>
        <time>2012-11-12T15:04:16.000Z</time>
      </trkpt>
      <trkpt lat="46.08443" lon="6.05347">
        <ele>706.20001220703</ele>
        <time>2012-11-12T15:04:21.000Z</time>
      </trkpt>
      <trkpt lat="46.08446" lon="6.05357">
        <ele>705</ele>
        <time>2012-11-12T15:04:22.000Z</time>
      </trkpt>
      <trkpt lat="46.0846" lon="6.05405">
        <ele>704</ele>
        <time>2012-11-12T15:04:26.000Z</time>
      </trkpt>
      <trkpt lat="46.08465" lon="6.05429">
        <ele>703</ele>
        <time>2012-11-12T15:04:28.000Z</time>
      </trkpt>
      <trkpt lat="46.08469" lon="6.05455">
        <ele>703</ele>
        <time>2012-11-12T15:04:30.000Z</time>
      </trkpt>
      <trkpt lat="46.08471" lon="6.05478">
        <ele>703</ele>
        <time>2012-11-12T15:04:32.000Z</time>
      </trkpt>
      <trkpt lat="46.08481" lon="6.05564">
        <ele>703</ele>
        <time>2012-11-12T15:04:39.000Z</time>
      </trkpt>
      <trkpt lat="46.08491" lon="6.05644">
        <ele>703</ele>
        <time>2012-11-12T15:04:46.000Z</time>
      </trkpt>
      <trkpt lat="46.08493" lon="6.05653">
        <ele>703</ele>
        <time>2012-11-12T15:04:47.000Z</time>
      </trkpt>
      <trkpt lat="46.08508" lon="6.05699">
        <ele>706</ele>
        <time>2012-11-12T15:04:52.000Z</time>
      </trkpt>
      <trkpt lat="46.08521" lon="6.05724">
        <ele>707</ele>
        <time>2012-11-12T15:04:55.000Z</time>
      </trkpt>
      <trkpt lat="46.08534" lon="6.05748">
        <ele>707</ele>
        <time>2012-11-12T15:04:58.000Z</time>
      </trkpt>
      <trkpt lat="46.0857" lon="6.05816">
        <ele>707</ele>
        <time>2012-11-12T15:05:06.000Z</time>
      </trkpt>
      <trkpt lat="46.08574" lon="6.05825">
        <ele>707</ele>
        <time>2012-11-12T15:05:07.000Z</time>
      </trkpt>
      <trkpt lat="46.08607" lon="6.05887">
        <ele>707</ele>
        <time>2012-11-12T15:05:14.000Z</time>
      </trkpt>
      <trkpt lat="46.08612" lon="6.05896">
        <ele>707</ele>
        <time>2012-11-12T15:05:15.000Z</time>
      </trkpt>
      <trkpt lat="46.08645" lon="6.05958">
        <ele>707</ele>
        <time>2012-11-12T15:05:22.000Z</time>
      </trkpt>
      <trkpt lat="46.0865" lon="6.05968">
        <ele>707</ele>
        <time>2012-11-12T15:05:23.000Z</time>
      </trkpt>
      <trkpt lat="46.08684" lon="6.06031">
        <ele>707</ele>
        <time>2012-11-12T15:05:30.000Z</time>
      </trkpt>
      <trkpt lat="46.08688" lon="6.06039">
        <ele>707</ele>
        <time>2012-11-12T15:05:31.000Z</time>
      </trkpt>
      <trkpt lat="46.08698" lon="6.06055">
        <ele>704</ele>
        <time>2012-11-12T15:05:33.000Z</time>
      </trkpt>
      <trkpt lat="46.0871" lon="6.06069">
        <ele>704</ele>
        <time>2012-11-12T15:05:35.000Z</time>
      </trkpt>
      <trkpt lat="46.08717" lon="6.06075">
        <ele>704</ele>
        <time>2012-11-12T15:05:36.000Z</time>
      </trkpt>
      <trkpt lat="46.08723" lon="6.06079">
        <ele>703</ele>
        <time>2012-11-12T15:05:37.000Z</time>
      </trkpt>
      <trkpt lat="46.08739" lon="6.06087">
        <ele>703</ele>
        <time>2012-11-12T15:05:39.000Z</time>
      </trkpt>
      <trkpt lat="46.08746" lon="6.06089">
        <ele>703</ele>
        <time>2012-11-12T15:05:40.000Z</time>
      </trkpt>
      <trkpt lat="46.08761" lon="6.06094">
        <ele>701.59997558594</ele>
        <time>2012-11-12T15:05:42.000Z</time>
      </trkpt>
      <trkpt lat="46.08784" lon="6.06103">
        <ele>701.59997558594</ele>
        <time>2012-11-12T15:05:45.000Z</time>
      </trkpt>
      <trkpt lat="46.0879" lon="6.06108">
        <ele>701.59997558594</ele>
        <time>2012-11-12T15:05:46.000Z</time>
      </trkpt>
      <trkpt lat="46.08808" lon="6.06132">
        <ele>700.59997558594</ele>
        <time>2012-11-12T15:05:49.000Z</time>
      </trkpt>
      <trkpt lat="46.08812" lon="6.06142">
        <ele>700.59997558594</ele>
        <time>2012-11-12T15:05:50.000Z</time>
      </trkpt>
      <trkpt lat="46.08815" lon="6.06153">
        <ele>699.40002441406</ele>
        <time>2012-11-12T15:05:51.000Z</time>
      </trkpt>
      <trkpt lat="46.08818" lon="6.06163">
        <ele>698.40002441406</ele>
        <time>2012-11-12T15:05:52.000Z</time>
      </trkpt>
      <trkpt lat="46.08821" lon="6.06177">
        <ele>697.40002441406</ele>
        <time>2012-11-12T15:05:53.000Z</time>
      </trkpt>
      <trkpt lat="46.08824" lon="6.06189">
        <ele>697.40002441406</ele>
        <time>2012-11-12T15:05:54.000Z</time>
      </trkpt>
      <trkpt lat="46.0883" lon="6.06213">
        <ele>695.59997558594</ele>
        <time>2012-11-12T15:05:56.000Z</time>
      </trkpt>
      <trkpt lat="46.0885" lon="6.063">
        <ele>694.59997558594</ele>
        <time>2012-11-12T15:06:03.000Z</time>
      </trkpt>
      <trkpt lat="46.08854" lon="6.06312">
        <ele>694.59997558594</ele>
        <time>2012-11-12T15:06:04.000Z</time>
      </trkpt>
      <trkpt lat="46.08861" lon="6.06352">
        <ele>693.40002441406</ele>
        <time>2012-11-12T15:06:07.000Z</time>
      </trkpt>
      <trkpt lat="46.08865" lon="6.06378">
        <ele>692.40002441406</ele>
        <time>2012-11-12T15:06:09.000Z</time>
      </trkpt>
      <trkpt lat="46.08866" lon="6.06383">
        <ele>692.40002441406</ele>
        <time>2012-11-12T15:06:10.000Z</time>
      </trkpt>
      <trkpt lat="46.08869" lon="6.06405">
        <ele>691.40002441406</ele>
        <time>2012-11-12T15:06:11.000Z</time>
      </trkpt>
      <trkpt lat="46.08875" lon="6.06445">
        <ele>690.40002441406</ele>
        <time>2012-11-12T15:06:14.000Z</time>
      </trkpt>
      <trkpt lat="46.08876" lon="6.06457">
        <ele>689</ele>
        <time>2012-11-12T15:06:15.000Z</time>
      </trkpt>
      <trkpt lat="46.08878" lon="6.06469">
        <ele>689</ele>
        <time>2012-11-12T15:06:16.000Z</time>
      </trkpt>
      <trkpt lat="46.08879" lon="6.0648">
        <ele>687.59997558594</ele>
        <time>2012-11-12T15:06:17.000Z</time>
      </trkpt>
      <trkpt lat="46.08885" lon="6.06501">
        <ele>687.59997558594</ele>
        <time>2012-11-12T15:06:19.000Z</time>
      </trkpt>
      <trkpt lat="46.08889" lon="6.06507">
        <ele>687.59997558594</ele>
        <time>2012-11-12T15:06:20.000Z</time>
      </trkpt>
      <trkpt lat="46.08895" lon="6.06512">
        <ele>686.59997558594</ele>
        <time>2012-11-12T15:06:21.000Z</time>
      </trkpt>
      <trkpt lat="46.089" lon="6.06514">
        <ele>685.40002441406</ele>
        <time>2012-11-12T15:06:22.000Z</time>
      </trkpt>
      <trkpt lat="46.08907" lon="6.06515">
        <ele>685.40002441406</ele>
        <time>2012-11-12T15:06:23.000Z</time>
      </trkpt>
      <trkpt lat="46.08914" lon="6.06514">
        <ele>684.40002441406</ele>
        <time>2012-11-12T15:06:24.000Z</time>
      </trkpt>
      <trkpt lat="46.08929" lon="6.06507">
        <ele>683.40002441406</ele>
        <time>2012-11-12T15:06:26.000Z</time>
      </trkpt>
      <trkpt lat="46.08938" lon="6.06503">
        <ele>683.40002441406</ele>
        <time>2012-11-12T15:06:27.000Z</time>
      </trkpt>
      <trkpt lat="46.08946" lon="6.06499">
        <ele>681.40002441406</ele>
        <time>2012-11-12T15:06:28.000Z</time>
      </trkpt>
      <trkpt lat="46.08957" lon="6.06494">
        <ele>680.40002441406</ele>
        <time>2012-11-12T15:06:29.000Z</time>
      </trkpt>
      <trkpt lat="46.08966" lon="6.06489">
        <ele>679.40002441406</ele>
        <time>2012-11-12T15:06:30.000Z</time>
      </trkpt>
      <trkpt lat="46.08974" lon="6.06485">
        <ele>678.40002441406</ele>
        <time>2012-11-12T15:06:31.000Z</time>
      </trkpt>
      <trkpt lat="46.08989" lon="6.0648">
        <ele>677.20001220703</ele>
        <time>2012-11-12T15:06:33.000Z</time>
      </trkpt>
      <trkpt lat="46.08996" lon="6.06481">
        <ele>676.20001220703</ele>
        <time>2012-11-12T15:06:34.000Z</time>
      </trkpt>
      <trkpt lat="46.09014" lon="6.06496">
        <ele>675.20001220703</ele>
        <time>2012-11-12T15:06:37.000Z</time>
      </trkpt>
      <trkpt lat="46.09019" lon="6.06514">
        <ele>674.20001220703</ele>
        <time>2012-11-12T15:06:39.000Z</time>
      </trkpt>
      <trkpt lat="46.09019" lon="6.06523">
        <ele>673</ele>
        <time>2012-11-12T15:06:40.000Z</time>
      </trkpt>
      <trkpt lat="46.09017" lon="6.06534">
        <ele>671.59997558594</ele>
        <time>2012-11-12T15:06:41.000Z</time>
      </trkpt>
      <trkpt lat="46.09014" lon="6.06545">
        <ele>670.59997558594</ele>
        <time>2012-11-12T15:06:42.000Z</time>
      </trkpt>
      <trkpt lat="46.09009" lon="6.06556">
        <ele>670.59997558594</ele>
        <time>2012-11-12T15:06:43.000Z</time>
      </trkpt>
      <trkpt lat="46.09004" lon="6.06567">
        <ele>669.40002441406</ele>
        <time>2012-11-12T15:06:44.000Z</time>
      </trkpt>
      <trkpt lat="46.08998" lon="6.06576">
        <ele>668.40002441406</ele>
        <time>2012-11-12T15:06:45.000Z</time>
      </trkpt>
      <trkpt lat="46.08992" lon="6.06584">
        <ele>667</ele>
        <time>2012-11-12T15:06:46.000Z</time>
      </trkpt>
      <trkpt lat="46.08984" lon="6.06592">
        <ele>665.59997558594</ele>
        <time>2012-11-12T15:06:47.000Z</time>
      </trkpt>
      <trkpt lat="46.08975" lon="6.066">
        <ele>664.40002441406</ele>
        <time>2012-11-12T15:06:48.000Z</time>
      </trkpt>
      <trkpt lat="46.08957" lon="6.06613">
        <ele>663.40002441406</ele>
        <time>2012-11-12T15:06:50.000Z</time>
      </trkpt>
      <trkpt lat="46.0895" lon="6.06622">
        <ele>661</ele>
        <time>2012-11-12T15:06:51.000Z</time>
      </trkpt>
      <trkpt lat="46.08935" lon="6.06645">
        <ele>659.40002441406</ele>
        <time>2012-11-12T15:06:53.000Z</time>
      </trkpt>
      <trkpt lat="46.08929" lon="6.06655">
        <ele>658</ele>
        <time>2012-11-12T15:06:54.000Z</time>
      </trkpt>
      <trkpt lat="46.0892" lon="6.0667">
        <ele>656.59997558594</ele>
        <time>2012-11-12T15:06:55.000Z</time>
      </trkpt>
      <trkpt lat="46.08911" lon="6.06683">
        <ele>654.40002441406</ele>
        <time>2012-11-12T15:06:56.000Z</time>
      </trkpt>
      <trkpt lat="46.08904" lon="6.06695">
        <ele>653.40002441406</ele>
        <time>2012-11-12T15:06:57.000Z</time>
      </trkpt>
      <trkpt lat="46.08888" lon="6.06721">
        <ele>652.20001220703</ele>
        <time>2012-11-12T15:06:59.000Z</time>
      </trkpt>
      <trkpt lat="46.08881" lon="6.06733">
        <ele>651</ele>
        <time>2012-11-12T15:07:00.000Z</time>
      </trkpt>
      <trkpt lat="46.08866" lon="6.06761">
        <ele>651</ele>
        <time>2012-11-12T15:07:03.000Z</time>
      </trkpt>
      <trkpt lat="46.08865" lon="6.06768">
        <ele>649.59997558594</ele>
        <time>2012-11-12T15:07:04.000Z</time>
      </trkpt>
      <trkpt lat="46.08864" lon="6.0678">
        <ele>648.59997558594</ele>
        <time>2012-11-12T15:07:05.000Z</time>
      </trkpt>
      <trkpt lat="46.08864" lon="6.0679">
        <ele>648.59997558594</ele>
        <time>2012-11-12T15:07:06.000Z</time>
      </trkpt>
      <trkpt lat="46.08866" lon="6.06799">
        <ele>647.40002441406</ele>
        <time>2012-11-12T15:07:07.000Z</time>
      </trkpt>
      <trkpt lat="46.08876" lon="6.06816">
        <ele>646.40002441406</ele>
        <time>2012-11-12T15:07:09.000Z</time>
      </trkpt>
      <trkpt lat="46.0888" lon="6.06826">
        <ele>645.40002441406</ele>
        <time>2012-11-12T15:07:10.000Z</time>
      </trkpt>
      <trkpt lat="46.08886" lon="6.06837">
        <ele>644</ele>
        <time>2012-11-12T15:07:11.000Z</time>
      </trkpt>
      <trkpt lat="46.08893" lon="6.06846">
        <ele>642.40002441406</ele>
        <time>2012-11-12T15:07:12.000Z</time>
      </trkpt>
      <trkpt lat="46.08901" lon="6.06855">
        <ele>642.40002441406</ele>
        <time>2012-11-12T15:07:13.000Z</time>
      </trkpt>
      <trkpt lat="46.08909" lon="6.06865">
        <ele>641.20001220703</ele>
        <time>2012-11-12T15:07:14.000Z</time>
      </trkpt>
      <trkpt lat="46.08917" lon="6.06874">
        <ele>639.40002441406</ele>
        <time>2012-11-12T15:07:15.000Z</time>
      </trkpt>
      <trkpt lat="46.08934" lon="6.06895">
        <ele>637.20001220703</ele>
        <time>2012-11-12T15:07:17.000Z</time>
      </trkpt>
      <trkpt lat="46.08943" lon="6.06906">
        <ele>635.59997558594</ele>
        <time>2012-11-12T15:07:18.000Z</time>
      </trkpt>
      <trkpt lat="46.08965" lon="6.06934">
        <ele>635.59997558594</ele>
        <time>2012-11-12T15:07:21.000Z</time>
      </trkpt>
      <trkpt lat="46.08969" lon="6.06942">
        <ele>635.59997558594</ele>
        <time>2012-11-12T15:07:22.000Z</time>
      </trkpt>
      <trkpt lat="46.08979" lon="6.06974">
        <ele>634.59997558594</ele>
        <time>2012-11-12T15:07:25.000Z</time>
      </trkpt>
      <trkpt lat="46.08981" lon="6.06985">
        <ele>633.59997558594</ele>
        <time>2012-11-12T15:07:26.000Z</time>
      </trkpt>
      <trkpt lat="46.08982" lon="6.06994">
        <ele>632.59997558594</ele>
        <time>2012-11-12T15:07:27.000Z</time>
      </trkpt>
      <trkpt lat="46.08986" lon="6.07027">
        <ele>631.59997558594</ele>
        <time>2012-11-12T15:07:30.000Z</time>
      </trkpt>
      <trkpt lat="46.08986" lon="6.07038">
        <ele>630.59997558594</ele>
        <time>2012-11-12T15:07:31.000Z</time>
      </trkpt>
      <trkpt lat="46.08986" lon="6.07055">
        <ele>630.59997558594</ele>
        <time>2012-11-12T15:07:33.000Z</time>
      </trkpt>
      <trkpt lat="46.0899" lon="6.07073">
        <ele>630.59997558594</ele>
        <time>2012-11-12T15:07:35.000Z</time>
      </trkpt>
      <trkpt lat="46.09005" lon="6.07089">
        <ele>630.59997558594</ele>
        <time>2012-11-12T15:07:38.000Z</time>
      </trkpt>
      <trkpt lat="46.09016" lon="6.07096">
        <ele>630.59997558594</ele>
        <time>2012-11-12T15:07:40.000Z</time>
      </trkpt>
      <trkpt lat="46.09032" lon="6.07111">
        <ele>630.59997558594</ele>
        <time>2012-11-12T15:07:43.000Z</time>
      </trkpt>
      <trkpt lat="46.09041" lon="6.0712">
        <ele>634.40002441406</ele>
        <time>2012-11-12T15:07:45.000Z</time>
      </trkpt>
      <trkpt lat="46.0906" lon="6.07139">
        <ele>635.40002441406</ele>
        <time>2012-11-12T15:07:49.000Z</time>
      </trkpt>
      <trkpt lat="46.09065" lon="6.07144">
        <ele>635.40002441406</ele>
        <time>2012-11-12T15:07:50.000Z</time>
      </trkpt>
      <trkpt lat="46.09108" lon="6.07183">
        <ele>635.40002441406</ele>
        <time>2012-11-12T15:07:58.000Z</time>
      </trkpt>
      <trkpt lat="46.09149" lon="6.07222">
        <ele>635.40002441406</ele>
        <time>2012-11-12T15:08:05.000Z</time>
      </trkpt>
      <trkpt lat="46.09191" lon="6.07258">
        <ele>635.40002441406</ele>
        <time>2012-11-12T15:08:12.000Z</time>
      </trkpt>
      <trkpt lat="46.09216" lon="6.07282">
        <ele>635.40002441406</ele>
        <time>2012-11-12T15:08:16.000Z</time>
      </trkpt>
      <trkpt lat="46.09221" lon="6.07289">
        <ele>635.40002441406</ele>
        <time>2012-11-12T15:08:17.000Z</time>
      </trkpt>
      <trkpt lat="46.09238" lon="6.07323">
        <ele>635.40002441406</ele>
        <time>2012-11-12T15:08:21.000Z</time>
      </trkpt>
      <trkpt lat="46.09245" lon="6.07337">
        <ele>636.59997558594</ele>
        <time>2012-11-12T15:08:23.000Z</time>
      </trkpt>
      <trkpt lat="46.09256" lon="6.07357">
        <ele>638</ele>
        <time>2012-11-12T15:08:26.000Z</time>
      </trkpt>
      <trkpt lat="46.09263" lon="6.07369">
        <ele>638</ele>
        <time>2012-11-12T15:08:28.000Z</time>
      </trkpt>
      <trkpt lat="46.09278" lon="6.07398">
        <ele>638</ele>
        <time>2012-11-12T15:08:33.000Z</time>
      </trkpt>
      <trkpt lat="46.0928" lon="6.07404">
        <ele>638</ele>
        <time>2012-11-12T15:08:34.000Z</time>
      </trkpt>
      <trkpt lat="46.09294" lon="6.07442">
        <ele>638</ele>
        <time>2012-11-12T15:08:39.000Z</time>
      </trkpt>
      <trkpt lat="46.09304" lon="6.07468">
        <ele>638</ele>
        <time>2012-11-12T15:08:44.000Z</time>
      </trkpt>
      <trkpt lat="46.09307" lon="6.07475">
        <ele>634.59997558594</ele>
        <time>2012-11-12T15:08:45.000Z</time>
      </trkpt>
      <trkpt lat="46.0931" lon="6.07482">
        <ele>633.40002441406</ele>
        <time>2012-11-12T15:08:46.000Z</time>
      </trkpt>
      <trkpt lat="46.09314" lon="6.07491">
        <ele>632.20001220703</ele>
        <time>2012-11-12T15:08:47.000Z</time>
      </trkpt>
      <trkpt lat="46.09318" lon="6.07501">
        <ele>632.20001220703</ele>
        <time>2012-11-12T15:08:48.000Z</time>
      </trkpt>
      <trkpt lat="46.09322" lon="6.07511">
        <ele>630.40002441406</ele>
        <time>2012-11-12T15:08:49.000Z</time>
      </trkpt>
      <trkpt lat="46.09325" lon="6.07521">
        <ele>629.40002441406</ele>
        <time>2012-11-12T15:08:50.000Z</time>
      </trkpt>
      <trkpt lat="46.0933" lon="6.07536">
        <ele>629.40002441406</ele>
        <time>2012-11-12T15:08:52.000Z</time>
      </trkpt>
      <trkpt lat="46.09334" lon="6.07543">
        <ele>628.40002441406</ele>
        <time>2012-11-12T15:08:53.000Z</time>
      </trkpt>
      <trkpt lat="46.09345" lon="6.07556">
        <ele>627.20001220703</ele>
        <time>2012-11-12T15:08:55.000Z</time>
      </trkpt>
      <trkpt lat="46.09351" lon="6.07562">
        <ele>626.20001220703</ele>
        <time>2012-11-12T15:08:56.000Z</time>
      </trkpt>
      <trkpt lat="46.09356" lon="6.07567">
        <ele>625.20001220703</ele>
        <time>2012-11-12T15:08:57.000Z</time>
      </trkpt>
      <trkpt lat="46.09359" lon="6.07573">
        <ele>625.20001220703</ele>
        <time>2012-11-12T15:08:58.000Z</time>
      </trkpt>
      <trkpt lat="46.09361" lon="6.07592">
        <ele>625.20001220703</ele>
        <time>2012-11-12T15:09:00.000Z</time>
      </trkpt>
      <trkpt lat="46.09361" lon="6.07611">
        <ele>624.20001220703</ele>
        <time>2012-11-12T15:09:02.000Z</time>
      </trkpt>
      <trkpt lat="46.0936" lon="6.07621">
        <ele>624.20001220703</ele>
        <time>2012-11-12T15:09:03.000Z</time>
      </trkpt>
      <trkpt lat="46.09359" lon="6.07629">
        <ele>624.20001220703</ele>
        <time>2012-11-12T15:09:04.000Z</time>
      </trkpt>
      <trkpt lat="46.09342" lon="6.07711">
        <ele>624.20001220703</ele>
        <time>2012-11-12T15:09:13.000Z</time>
      </trkpt>
      <trkpt lat="46.09321" lon="6.07759">
        <ele>624.20001220703</ele>
        <time>2012-11-12T15:09:19.000Z</time>
      </trkpt>
      <trkpt lat="46.09293" lon="6.07805">
        <ele>624.20001220703</ele>
        <time>2012-11-12T15:09:25.000Z</time>
      </trkpt>
      <trkpt lat="46.09259" lon="6.0785">
        <ele>623</ele>
        <time>2012-11-12T15:09:31.000Z</time>
      </trkpt>
      <trkpt lat="46.09252" lon="6.07856">
        <ele>623</ele>
        <time>2012-11-12T15:09:32.000Z</time>
      </trkpt>
      <trkpt lat="46.09209" lon="6.07895">
        <ele>623</ele>
        <time>2012-11-12T15:09:38.000Z</time>
      </trkpt>
      <trkpt lat="46.09172" lon="6.07938">
        <ele>623</ele>
        <time>2012-11-12T15:09:44.000Z</time>
      </trkpt>
      <trkpt lat="46.09141" lon="6.07985">
        <ele>623</ele>
        <time>2012-11-12T15:09:50.000Z</time>
      </trkpt>
      <trkpt lat="46.09118" lon="6.08016">
        <ele>621.59997558594</ele>
        <time>2012-11-12T15:09:54.000Z</time>
      </trkpt>
      <trkpt lat="46.09104" lon="6.08032">
        <ele>620.40002441406</ele>
        <time>2012-11-12T15:09:56.000Z</time>
      </trkpt>
      <trkpt lat="46.0909" lon="6.08049">
        <ele>619.40002441406</ele>
        <time>2012-11-12T15:09:58.000Z</time>
      </trkpt>
      <trkpt lat="46.09082" lon="6.08059">
        <ele>618.20001220703</ele>
        <time>2012-11-12T15:09:59.000Z</time>
      </trkpt>
      <trkpt lat="46.0907" lon="6.08074">
        <ele>618.20001220703</ele>
        <time>2012-11-12T15:10:01.000Z</time>
      </trkpt>
      <trkpt lat="46.09036" lon="6.08118">
        <ele>618.20001220703</ele>
        <time>2012-11-12T15:10:07.000Z</time>
      </trkpt>
      <trkpt lat="46.08997" lon="6.08167">
        <ele>618.20001220703</ele>
        <time>2012-11-12T15:10:14.000Z</time>
      </trkpt>
      <trkpt lat="46.08965" lon="6.08201">
        <ele>617</ele>
        <time>2012-11-12T15:10:19.000Z</time>
      </trkpt>
      <trkpt lat="46.08936" lon="6.08226">
        <ele>616</ele>
        <time>2012-11-12T15:10:23.000Z</time>
      </trkpt>
      <trkpt lat="46.08913" lon="6.08245">
        <ele>616</ele>
        <time>2012-11-12T15:10:26.000Z</time>
      </trkpt>
      <trkpt lat="46.08872" lon="6.08286">
        <ele>616</ele>
        <time>2012-11-12T15:10:32.000Z</time>
      </trkpt>
      <trkpt lat="46.08833" lon="6.08322">
        <ele>616</ele>
        <time>2012-11-12T15:10:38.000Z</time>
      </trkpt>
      <trkpt lat="46.08806" lon="6.08349">
        <ele>614.59997558594</ele>
        <time>2012-11-12T15:10:42.000Z</time>
      </trkpt>
      <trkpt lat="46.08785" lon="6.08373">
        <ele>613.40002441406</ele>
        <time>2012-11-12T15:10:45.000Z</time>
      </trkpt>
      <trkpt lat="46.08771" lon="6.08389">
        <ele>612.40002441406</ele>
        <time>2012-11-12T15:10:47.000Z</time>
      </trkpt>
      <trkpt lat="46.08749" lon="6.08417">
        <ele>611.40002441406</ele>
        <time>2012-11-12T15:10:50.000Z</time>
      </trkpt>
      <trkpt lat="46.08741" lon="6.08427">
        <ele>611.40002441406</ele>
        <time>2012-11-12T15:10:51.000Z</time>
      </trkpt>
      <trkpt lat="46.08734" lon="6.08435">
        <ele>610.20001220703</ele>
        <time>2012-11-12T15:10:52.000Z</time>
      </trkpt>
      <trkpt lat="46.08718" lon="6.08455">
        <ele>609</ele>
        <time>2012-11-12T15:10:54.000Z</time>
      </trkpt>
      <trkpt lat="46.08694" lon="6.08483">
        <ele>612.40002441406</ele>
        <time>2012-11-12T15:10:57.000Z</time>
      </trkpt>
      <trkpt lat="46.08686" lon="6.08492">
        <ele>608.40002441406</ele>
        <time>2012-11-12T15:10:58.000Z</time>
      </trkpt>
      <trkpt lat="46.08678" lon="6.08503">
        <ele>608.40002441406</ele>
        <time>2012-11-12T15:10:59.000Z</time>
      </trkpt>
      <trkpt lat="46.08664" lon="6.08522">
        <ele>607.40002441406</ele>
        <time>2012-11-12T15:11:01.000Z</time>
      </trkpt>
      <trkpt lat="46.08643" lon="6.08553">
        <ele>607.40002441406</ele>
        <time>2012-11-12T15:11:04.000Z</time>
      </trkpt>
      <trkpt lat="46.08608" lon="6.08601">
        <ele>607.40002441406</ele>
        <time>2012-11-12T15:11:09.000Z</time>
      </trkpt>
      <trkpt lat="46.086" lon="6.08607">
        <ele>607.40002441406</ele>
        <time>2012-11-12T15:11:10.000Z</time>
      </trkpt>
      <trkpt lat="46.08566" lon="6.08627">
        <ele>610.40002441406</ele>
        <time>2012-11-12T15:11:14.000Z</time>
      </trkpt>
      <trkpt lat="46.08551" lon="6.08637">
        <ele>610.40002441406</ele>
        <time>2012-11-12T15:11:16.000Z</time>
      </trkpt>
      <trkpt lat="46.08535" lon="6.08647">
        <ele>611.59997558594</ele>
        <time>2012-11-12T15:11:18.000Z</time>
      </trkpt>
      <trkpt lat="46.08521" lon="6.08657">
        <ele>613.20001220703</ele>
        <time>2012-11-12T15:11:20.000Z</time>
      </trkpt>
      <trkpt lat="46.08508" lon="6.08665">
        <ele>613.20001220703</ele>
        <time>2012-11-12T15:11:22.000Z</time>
      </trkpt>
      <trkpt lat="46.085" lon="6.0867">
        <ele>614.20001220703</ele>
        <time>2012-11-12T15:11:23.000Z</time>
      </trkpt>
      <trkpt lat="46.08494" lon="6.08676">
        <ele>614.20001220703</ele>
        <time>2012-11-12T15:11:24.000Z</time>
      </trkpt>
      <trkpt lat="46.08489" lon="6.08683">
        <ele>615.20001220703</ele>
        <time>2012-11-12T15:11:25.000Z</time>
      </trkpt>
      <trkpt lat="46.0848" lon="6.08698">
        <ele>615.20001220703</ele>
        <time>2012-11-12T15:11:27.000Z</time>
      </trkpt>
      <trkpt lat="46.08473" lon="6.08715">
        <ele>615.20001220703</ele>
        <time>2012-11-12T15:11:29.000Z</time>
      </trkpt>
      <trkpt lat="46.08469" lon="6.08735">
        <ele>615.20001220703</ele>
        <time>2012-11-12T15:11:31.000Z</time>
      </trkpt>
      <trkpt lat="46.08467" lon="6.08766">
        <ele>615.20001220703</ele>
        <time>2012-11-12T15:11:34.000Z</time>
      </trkpt>
      <trkpt lat="46.08467" lon="6.08777">
        <ele>615.20001220703</ele>
        <time>2012-11-12T15:11:35.000Z</time>
      </trkpt>
      <trkpt lat="46.08463" lon="6.08847">
        <ele>612.20001220703</ele>
        <time>2012-11-12T15:11:41.000Z</time>
      </trkpt>
      <trkpt lat="46.08462" lon="6.08885">
        <ele>611</ele>
        <time>2012-11-12T15:11:44.000Z</time>
      </trkpt>
      <trkpt lat="46.08461" lon="6.08911">
        <ele>609.59997558594</ele>
        <time>2012-11-12T15:11:46.000Z</time>
      </trkpt>
      <trkpt lat="46.0846" lon="6.08938">
        <ele>608.59997558594</ele>
        <time>2012-11-12T15:11:48.000Z</time>
      </trkpt>
      <trkpt lat="46.08459" lon="6.08952">
        <ele>608.59997558594</ele>
        <time>2012-11-12T15:11:49.000Z</time>
      </trkpt>
      <trkpt lat="46.08449" lon="6.09019">
        <ele>608.59997558594</ele>
        <time>2012-11-12T15:11:54.000Z</time>
      </trkpt>
      <trkpt lat="46.08445" lon="6.09031">
        <ele>607.40002441406</ele>
        <time>2012-11-12T15:11:55.000Z</time>
      </trkpt>
      <trkpt lat="46.08428" lon="6.09077">
        <ele>607.40002441406</ele>
        <time>2012-11-12T15:11:59.000Z</time>
      </trkpt>
      <trkpt lat="46.08412" lon="6.09118">
        <ele>610.59997558594</ele>
        <time>2012-11-12T15:12:03.000Z</time>
      </trkpt>
      <trkpt lat="46.08405" lon="6.09135">
        <ele>610.59997558594</ele>
        <time>2012-11-12T15:12:05.000Z</time>
      </trkpt>
      <trkpt lat="46.08391" lon="6.0917">
        <ele>612</ele>
        <time>2012-11-12T15:12:09.000Z</time>
      </trkpt>
      <trkpt lat="46.08384" lon="6.09187">
        <ele>613</ele>
        <time>2012-11-12T15:12:11.000Z</time>
      </trkpt>
      <trkpt lat="46.08377" lon="6.09204">
        <ele>613</ele>
        <time>2012-11-12T15:12:13.000Z</time>
      </trkpt>
      <trkpt lat="46.08374" lon="6.09212">
        <ele>614.20001220703</ele>
        <time>2012-11-12T15:12:14.000Z</time>
      </trkpt>
      <trkpt lat="46.08361" lon="6.09234">
        <ele>615.20001220703</ele>
        <time>2012-11-12T15:12:17.000Z</time>
      </trkpt>
      <trkpt lat="46.08352" lon="6.09248">
        <ele>615.20001220703</ele>
        <time>2012-11-12T15:12:19.000Z</time>
      </trkpt>
      <trkpt lat="46.08338" lon="6.09266">
        <ele>616.40002441406</ele>
        <time>2012-11-12T15:12:22.000Z</time>
      </trkpt>
      <trkpt lat="46.08329" lon="6.0928">
        <ele>617.40002441406</ele>
        <time>2012-11-12T15:12:24.000Z</time>
      </trkpt>
      <trkpt lat="46.0832" lon="6.09292">
        <ele>618.40002441406</ele>
        <time>2012-11-12T15:12:26.000Z</time>
      </trkpt>
      <trkpt lat="46.08311" lon="6.09304">
        <ele>619.59997558594</ele>
        <time>2012-11-12T15:12:28.000Z</time>
      </trkpt>
      <trkpt lat="46.08298" lon="6.09323">
        <ele>620.59997558594</ele>
        <time>2012-11-12T15:12:31.000Z</time>
      </trkpt>
      <trkpt lat="46.08286" lon="6.0934">
        <ele>622</ele>
        <time>2012-11-12T15:12:34.000Z</time>
      </trkpt>
      <trkpt lat="46.08274" lon="6.09357">
        <ele>623</ele>
        <time>2012-11-12T15:12:37.000Z</time>
      </trkpt>
      <trkpt lat="46.0827" lon="6.09362">
        <ele>623</ele>
        <time>2012-11-12T15:12:38.000Z</time>
      </trkpt>
      <trkpt lat="46.08262" lon="6.09372">
        <ele>624.20001220703</ele>
        <time>2012-11-12T15:12:40.000Z</time>
      </trkpt>
      <trkpt lat="46.08253" lon="6.0938">
        <ele>625.20001220703</ele>
        <time>2012-11-12T15:12:42.000Z</time>
      </trkpt>
      <trkpt lat="46.08245" lon="6.0939">
        <ele>626.40002441406</ele>
        <time>2012-11-12T15:12:44.000Z</time>
      </trkpt>
      <trkpt lat="46.08244" lon="6.09404">
        <ele>626.40002441406</ele>
        <time>2012-11-12T15:12:47.000Z</time>
      </trkpt>
      <trkpt lat="46.08256" lon="6.09414">
        <ele>626.40002441406</ele>
        <time>2012-11-12T15:12:50.000Z</time>
      </trkpt>
      <trkpt lat="46.08274" lon="6.09416">
        <ele>623.40002441406</ele>
        <time>2012-11-12T15:12:53.000Z</time>
      </trkpt>
      <trkpt lat="46.08282" lon="6.09416">
        <ele>623.40002441406</ele>
        <time>2012-11-12T15:12:54.000Z</time>
      </trkpt>
      <trkpt lat="46.08289" lon="6.09416">
        <ele>622.20001220703</ele>
        <time>2012-11-12T15:12:55.000Z</time>
      </trkpt>
      <trkpt lat="46.08304" lon="6.09417">
        <ele>621.20001220703</ele>
        <time>2012-11-12T15:12:57.000Z</time>
      </trkpt>
      <trkpt lat="46.08312" lon="6.09418">
        <ele>620.20001220703</ele>
        <time>2012-11-12T15:12:58.000Z</time>
      </trkpt>
      <trkpt lat="46.08331" lon="6.09419">
        <ele>619</ele>
        <time>2012-11-12T15:13:00.000Z</time>
      </trkpt>
      <trkpt lat="46.08341" lon="6.09419">
        <ele>618</ele>
        <time>2012-11-12T15:13:01.000Z</time>
      </trkpt>
      <trkpt lat="46.0835" lon="6.0942">
        <ele>616.59997558594</ele>
        <time>2012-11-12T15:13:02.000Z</time>
      </trkpt>
      <trkpt lat="46.08359" lon="6.09421">
        <ele>615.40002441406</ele>
        <time>2012-11-12T15:13:03.000Z</time>
      </trkpt>
      <trkpt lat="46.0838" lon="6.09423">
        <ele>614.40002441406</ele>
        <time>2012-11-12T15:13:05.000Z</time>
      </trkpt>
      <trkpt lat="46.0839" lon="6.09424">
        <ele>613.20001220703</ele>
        <time>2012-11-12T15:13:06.000Z</time>
      </trkpt>
      <trkpt lat="46.08401" lon="6.09424">
        <ele>611.40002441406</ele>
        <time>2012-11-12T15:13:07.000Z</time>
      </trkpt>
      <trkpt lat="46.08411" lon="6.09425">
        <ele>610.20001220703</ele>
        <time>2012-11-12T15:13:08.000Z</time>
      </trkpt>
      <trkpt lat="46.08424" lon="6.09425">
        <ele>609.20001220703</ele>
        <time>2012-11-12T15:13:09.000Z</time>
      </trkpt>
      <trkpt lat="46.08448" lon="6.09425">
        <ele>608</ele>
        <time>2012-11-12T15:13:11.000Z</time>
      </trkpt>
      <trkpt lat="46.08458" lon="6.09426">
        <ele>606.59997558594</ele>
        <time>2012-11-12T15:13:12.000Z</time>
      </trkpt>
      <trkpt lat="46.0847" lon="6.09426">
        <ele>606.59997558594</ele>
        <time>2012-11-12T15:13:13.000Z</time>
      </trkpt>
      <trkpt lat="46.08512" lon="6.09431">
        <ele>606.59997558594</ele>
        <time>2012-11-12T15:13:17.000Z</time>
      </trkpt>
      <trkpt lat="46.08522" lon="6.09436">
        <ele>606.59997558594</ele>
        <time>2012-11-12T15:13:18.000Z</time>
      </trkpt>
      <trkpt lat="46.08543" lon="6.09457">
        <ele>606.59997558594</ele>
        <time>2012-11-12T15:13:21.000Z</time>
      </trkpt>
      <trkpt lat="46.08548" lon="6.09465">
        <ele>610</ele>
        <time>2012-11-12T15:13:22.000Z</time>
      </trkpt>
      <trkpt lat="46.08553" lon="6.09473">
        <ele>611.40002441406</ele>
        <time>2012-11-12T15:13:23.000Z</time>
      </trkpt>
      <trkpt lat="46.08557" lon="6.09481">
        <ele>611.40002441406</ele>
        <time>2012-11-12T15:13:24.000Z</time>
      </trkpt>
      <trkpt lat="46.08562" lon="6.09489">
        <ele>612.59997558594</ele>
        <time>2012-11-12T15:13:25.000Z</time>
      </trkpt>
      <trkpt lat="46.08589" lon="6.09532">
        <ele>612.59997558594</ele>
        <time>2012-11-12T15:13:31.000Z</time>
      </trkpt>
      <trkpt lat="46.08631" lon="6.09576">
        <ele>612.59997558594</ele>
        <time>2012-11-12T15:13:38.000Z</time>
      </trkpt>
      <trkpt lat="46.0868" lon="6.09626">
        <ele>612.59997558594</ele>
        <time>2012-11-12T15:13:46.000Z</time>
      </trkpt>
      <trkpt lat="46.08725" lon="6.09671">
        <ele>612.59997558594</ele>
        <time>2012-11-12T15:13:53.000Z</time>
      </trkpt>
      <trkpt lat="46.08732" lon="6.09678">
        <ele>612.59997558594</ele>
        <time>2012-11-12T15:13:54.000Z</time>
      </trkpt>
      <trkpt lat="46.08778" lon="6.09723">
        <ele>612.59997558594</ele>
        <time>2012-11-12T15:14:01.000Z</time>
      </trkpt>
      <trkpt lat="46.08784" lon="6.09729">
        <ele>612.59997558594</ele>
        <time>2012-11-12T15:14:02.000Z</time>
      </trkpt>
      <trkpt lat="46.08832" lon="6.09771">
        <ele>612.59997558594</ele>
        <time>2012-11-12T15:14:09.000Z</time>
      </trkpt>
      <trkpt lat="46.08846" lon="6.09782">
        <ele>612.59997558594</ele>
        <time>2012-11-12T15:14:11.000Z</time>
      </trkpt>
      <trkpt lat="46.08897" lon="6.09819">
        <ele>612.59997558594</ele>
        <time>2012-11-12T15:14:18.000Z</time>
      </trkpt>
      <trkpt lat="46.08904" lon="6.09824">
        <ele>612.59997558594</ele>
        <time>2012-11-12T15:14:19.000Z</time>
      </trkpt>
      <trkpt lat="46.08931" lon="6.09845">
        <ele>612.59997558594</ele>
        <time>2012-11-12T15:14:23.000Z</time>
      </trkpt>
      <trkpt lat="46.08936" lon="6.09853">
        <ele>612.59997558594</ele>
        <time>2012-11-12T15:14:24.000Z</time>
      </trkpt>
      <trkpt lat="46.08963" lon="6.09897">
        <ele>612.59997558594</ele>
        <time>2012-11-12T15:14:29.000Z</time>
      </trkpt>
      <trkpt lat="46.08985" lon="6.09937">
        <ele>609.59997558594</ele>
        <time>2012-11-12T15:14:33.000Z</time>
      </trkpt>
      <trkpt lat="46.09006" lon="6.09974">
        <ele>609.59997558594</ele>
        <time>2012-11-12T15:14:37.000Z</time>
      </trkpt>
      <trkpt lat="46.09037" lon="6.10017">
        <ele>609.59997558594</ele>
        <time>2012-11-12T15:14:42.000Z</time>
      </trkpt>
      <trkpt lat="46.09045" lon="6.10024">
        <ele>608.40002441406</ele>
        <time>2012-11-12T15:14:43.000Z</time>
      </trkpt>
      <trkpt lat="46.09097" lon="6.10065">
        <ele>608.40002441406</ele>
        <time>2012-11-12T15:14:50.000Z</time>
      </trkpt>
      <trkpt lat="46.09105" lon="6.10071">
        <ele>608.40002441406</ele>
        <time>2012-11-12T15:14:51.000Z</time>
      </trkpt>
      <trkpt lat="46.09153" lon="6.10109">
        <ele>608.40002441406</ele>
        <time>2012-11-12T15:14:58.000Z</time>
      </trkpt>
      <trkpt lat="46.092" lon="6.10148">
        <ele>608.40002441406</ele>
        <time>2012-11-12T15:15:05.000Z</time>
      </trkpt>
      <trkpt lat="46.09252" lon="6.10188">
        <ele>608.40002441406</ele>
        <time>2012-11-12T15:15:13.000Z</time>
      </trkpt>
      <trkpt lat="46.093" lon="6.10223">
        <ele>608.40002441406</ele>
        <time>2012-11-12T15:15:20.000Z</time>
      </trkpt>
      <trkpt lat="46.09308" lon="6.10237">
        <ele>608.40002441406</ele>
        <time>2012-11-12T15:15:22.000Z</time>
      </trkpt>
      <trkpt lat="46.09313" lon="6.10243">
        <ele>608.40002441406</ele>
        <time>2012-11-12T15:15:23.000Z</time>
      </trkpt>
      <trkpt lat="46.09333" lon="6.10246">
        <ele>608.40002441406</ele>
        <time>2012-11-12T15:15:26.000Z</time>
      </trkpt>
      <trkpt lat="46.09343" lon="6.10258">
        <ele>608.40002441406</ele>
        <time>2012-11-12T15:15:28.000Z</time>
      </trkpt>
      <trkpt lat="46.09355" lon="6.10281">
        <ele>608.40002441406</ele>
        <time>2012-11-12T15:15:31.000Z</time>
      </trkpt>
      <trkpt lat="46.09359" lon="6.10287">
        <ele>608.40002441406</ele>
        <time>2012-11-12T15:15:32.000Z</time>
      </trkpt>
      <trkpt lat="46.0938" lon="6.10328">
        <ele>608.40002441406</ele>
        <time>2012-11-12T15:15:38.000Z</time>
      </trkpt>
      <trkpt lat="46.09383" lon="6.10335">
        <ele>611.59997558594</ele>
        <time>2012-11-12T15:15:39.000Z</time>
      </trkpt>
      <trkpt lat="46.09386" lon="6.10363">
        <ele>611.59997558594</ele>
        <time>2012-11-12T15:15:43.000Z</time>
      </trkpt>
      <trkpt lat="46.09386" lon="6.10369">
        <ele>612.59997558594</ele>
        <time>2012-11-12T15:15:44.000Z</time>
      </trkpt>
      <trkpt lat="46.09383" lon="6.10382">
        <ele>612.59997558594</ele>
        <time>2012-11-12T15:15:47.000Z</time>
      </trkpt>
      <trkpt lat="46.09383" lon="6.10385">
        <ele>614</ele>
        <time>2012-11-12T15:15:48.000Z</time>
      </trkpt>
      <trkpt lat="46.09383" lon="6.10391">
        <ele>614</ele>
        <time>2012-11-12T15:15:52.000Z</time>
      </trkpt>
      <trkpt lat="46.09383" lon="6.10391">
        <ele>614</ele>
        <time>2012-11-12T15:15:59.000Z</time>
      </trkpt>
      <trkpt lat="46.09383" lon="6.10397">
        <ele>614</ele>
        <time>2012-11-12T15:16:13.000Z</time>
      </trkpt>
      <trkpt lat="46.09384" lon="6.10405">
        <ele>615</ele>
        <time>2012-11-12T15:16:15.000Z</time>
      </trkpt>
      <trkpt lat="46.09385" lon="6.10415">
        <ele>615</ele>
        <time>2012-11-12T15:16:17.000Z</time>
      </trkpt>
      <trkpt lat="46.09388" lon="6.10428">
        <ele>615</ele>
        <time>2012-11-12T15:16:19.000Z</time>
      </trkpt>
      <trkpt lat="46.09397" lon="6.10436">
        <ele>615</ele>
        <time>2012-11-12T15:16:21.000Z</time>
      </trkpt>
      <trkpt lat="46.09416" lon="6.10433">
        <ele>615</ele>
        <time>2012-11-12T15:16:24.000Z</time>
      </trkpt>
      <trkpt lat="46.09422" lon="6.10431">
        <ele>615</ele>
        <time>2012-11-12T15:16:25.000Z</time>
      </trkpt>
      <trkpt lat="46.0943" lon="6.10432">
        <ele>615</ele>
        <time>2012-11-12T15:16:26.000Z</time>
      </trkpt>
      <trkpt lat="46.09436" lon="6.10437">
        <ele>615</ele>
        <time>2012-11-12T15:16:27.000Z</time>
      </trkpt>
      <trkpt lat="46.09447" lon="6.10455">
        <ele>612.59997558594</ele>
        <time>2012-11-12T15:16:29.000Z</time>
      </trkpt>
      <trkpt lat="46.0945" lon="6.10465">
        <ele>612.59997558594</ele>
        <time>2012-11-12T15:16:30.000Z</time>
      </trkpt>
      <trkpt lat="46.09457" lon="6.10485">
        <ele>612.59997558594</ele>
        <time>2012-11-12T15:16:32.000Z</time>
      </trkpt>
      <trkpt lat="46.09471" lon="6.10526">
        <ele>612.59997558594</ele>
        <time>2012-11-12T15:16:36.000Z</time>
      </trkpt>
      <trkpt lat="46.09481" lon="6.10544">
        <ele>612.59997558594</ele>
        <time>2012-11-12T15:16:38.000Z</time>
      </trkpt>
      <trkpt lat="46.09486" lon="6.10552">
        <ele>611.59997558594</ele>
        <time>2012-11-12T15:16:39.000Z</time>
      </trkpt>
      <trkpt lat="46.09491" lon="6.1056">
        <ele>611.59997558594</ele>
        <time>2012-11-12T15:16:40.000Z</time>
      </trkpt>
      <trkpt lat="46.09514" lon="6.1059">
        <ele>610.59997558594</ele>
        <time>2012-11-12T15:16:44.000Z</time>
      </trkpt>
      <trkpt lat="46.09531" lon="6.10614">
        <ele>610.59997558594</ele>
        <time>2012-11-12T15:16:47.000Z</time>
      </trkpt>
      <trkpt lat="46.09542" lon="6.10631">
        <ele>609.59997558594</ele>
        <time>2012-11-12T15:16:49.000Z</time>
      </trkpt>
      <trkpt lat="46.09574" lon="6.10687">
        <ele>609.59997558594</ele>
        <time>2012-11-12T15:16:55.000Z</time>
      </trkpt>
      <trkpt lat="46.0958" lon="6.10695">
        <ele>608.40002441406</ele>
        <time>2012-11-12T15:16:56.000Z</time>
      </trkpt>
      <trkpt lat="46.09586" lon="6.10702">
        <ele>608.40002441406</ele>
        <time>2012-11-12T15:16:57.000Z</time>
      </trkpt>
      <trkpt lat="46.09602" lon="6.10717">
        <ele>608.40002441406</ele>
        <time>2012-11-12T15:16:59.000Z</time>
      </trkpt>
      <trkpt lat="46.09609" lon="6.10724">
        <ele>607.40002441406</ele>
        <time>2012-11-12T15:17:00.000Z</time>
      </trkpt>
      <trkpt lat="46.09656" lon="6.10763">
        <ele>607.40002441406</ele>
        <time>2012-11-12T15:17:06.000Z</time>
      </trkpt>
      <trkpt lat="46.09706" lon="6.10809">
        <ele>607.40002441406</ele>
        <time>2012-11-12T15:17:13.000Z</time>
      </trkpt>
      <trkpt lat="46.0972" lon="6.10822">
        <ele>607.40002441406</ele>
        <time>2012-11-12T15:17:15.000Z</time>
      </trkpt>
      <trkpt lat="46.09766" lon="6.10867">
        <ele>607.40002441406</ele>
        <time>2012-11-12T15:17:22.000Z</time>
      </trkpt>
      <trkpt lat="46.09788" lon="6.10888">
        <ele>607.40002441406</ele>
        <time>2012-11-12T15:17:25.000Z</time>
      </trkpt>
      <trkpt lat="46.09838" lon="6.10924">
        <ele>607.40002441406</ele>
        <time>2012-11-12T15:17:32.000Z</time>
      </trkpt>
      <trkpt lat="46.0988" lon="6.10963">
        <ele>607.40002441406</ele>
        <time>2012-11-12T15:17:38.000Z</time>
      </trkpt>
      <trkpt lat="46.0992" lon="6.11016">
        <ele>607.40002441406</ele>
        <time>2012-11-12T15:17:45.000Z</time>
      </trkpt>
      <trkpt lat="46.09937" lon="6.11037">
        <ele>609.40002441406</ele>
        <time>2012-11-12T15:17:48.000Z</time>
      </trkpt>
      <trkpt lat="46.09959" lon="6.11059">
        <ele>609.40002441406</ele>
        <time>2012-11-12T15:17:52.000Z</time>
      </trkpt>
      <trkpt lat="46.09977" lon="6.11078">
        <ele>610.59997558594</ele>
        <time>2012-11-12T15:17:55.000Z</time>
      </trkpt>
      <trkpt lat="46.09999" lon="6.11101">
        <ele>610.59997558594</ele>
        <time>2012-11-12T15:17:59.000Z</time>
      </trkpt>
      <trkpt lat="46.10004" lon="6.11106">
        <ele>612</ele>
        <time>2012-11-12T15:18:00.000Z</time>
      </trkpt>
      <trkpt lat="46.10014" lon="6.11118">
        <ele>613.40002441406</ele>
        <time>2012-11-12T15:18:02.000Z</time>
      </trkpt>
      <trkpt lat="46.10039" lon="6.11145">
        <ele>614.40002441406</ele>
        <time>2012-11-12T15:18:07.000Z</time>
      </trkpt>
      <trkpt lat="46.10061" lon="6.11169">
        <ele>615.40002441406</ele>
        <time>2012-11-12T15:18:11.000Z</time>
      </trkpt>
      <trkpt lat="46.1007" lon="6.11181">
        <ele>616.40002441406</ele>
        <time>2012-11-12T15:18:13.000Z</time>
      </trkpt>
      <trkpt lat="46.10074" lon="6.11187">
        <ele>618.20001220703</ele>
        <time>2012-11-12T15:18:14.000Z</time>
      </trkpt>
      <trkpt lat="46.10079" lon="6.11193">
        <ele>618.20001220703</ele>
        <time>2012-11-12T15:18:15.000Z</time>
      </trkpt>
      <trkpt lat="46.10104" lon="6.11216">
        <ele>618.20001220703</ele>
        <time>2012-11-12T15:18:20.000Z</time>
      </trkpt>
      <trkpt lat="46.1011" lon="6.11218">
        <ele>618.20001220703</ele>
        <time>2012-11-12T15:18:21.000Z</time>
      </trkpt>
      <trkpt lat="46.10137" lon="6.11229">
        <ele>619.20001220703</ele>
        <time>2012-11-12T15:18:26.000Z</time>
      </trkpt>
      <trkpt lat="46.10154" lon="6.11235">
        <ele>619.20001220703</ele>
        <time>2012-11-12T15:18:29.000Z</time>
      </trkpt>
      <trkpt lat="46.1016" lon="6.11236">
        <ele>620.20001220703</ele>
        <time>2012-11-12T15:18:30.000Z</time>
      </trkpt>
      <trkpt lat="46.10176" lon="6.11241">
        <ele>621.20001220703</ele>
        <time>2012-11-12T15:18:33.000Z</time>
      </trkpt>
      <trkpt lat="46.10181" lon="6.11242">
        <ele>621.20001220703</ele>
        <time>2012-11-12T15:18:34.000Z</time>
      </trkpt>
      <trkpt lat="46.10193" lon="6.11244">
        <ele>621.20001220703</ele>
        <time>2012-11-12T15:18:36.000Z</time>
      </trkpt>
      <trkpt lat="46.10214" lon="6.11245">
        <ele>622.40002441406</ele>
        <time>2012-11-12T15:18:40.000Z</time>
      </trkpt>
      <trkpt lat="46.10225" lon="6.11245">
        <ele>622.40002441406</ele>
        <time>2012-11-12T15:18:42.000Z</time>
      </trkpt>
      <trkpt lat="46.10237" lon="6.11246">
        <ele>623.40002441406</ele>
        <time>2012-11-12T15:18:44.000Z</time>
      </trkpt>
      <trkpt lat="46.10253" lon="6.11247">
        <ele>624.59997558594</ele>
        <time>2012-11-12T15:18:47.000Z</time>
      </trkpt>
      <trkpt lat="46.10264" lon="6.11248">
        <ele>624.59997558594</ele>
        <time>2012-11-12T15:18:49.000Z</time>
      </trkpt>
      <trkpt lat="46.10275" lon="6.1125">
        <ele>624.59997558594</ele>
        <time>2012-11-12T15:18:51.000Z</time>
      </trkpt>
      <trkpt lat="46.10279" lon="6.1125">
        <ele>625.59997558594</ele>
        <time>2012-11-12T15:18:52.000Z</time>
      </trkpt>
      <trkpt lat="46.10297" lon="6.11254">
        <ele>626.59997558594</ele>
        <time>2012-11-12T15:18:55.000Z</time>
      </trkpt>
      <trkpt lat="46.10313" lon="6.11259">
        <ele>626.59997558594</ele>
        <time>2012-11-12T15:18:58.000Z</time>
      </trkpt>
      <trkpt lat="46.10328" lon="6.11265">
        <ele>628.20001220703</ele>
        <time>2012-11-12T15:19:01.000Z</time>
      </trkpt>
      <trkpt lat="46.10333" lon="6.11267">
        <ele>629.20001220703</ele>
        <time>2012-11-12T15:19:02.000Z</time>
      </trkpt>
      <trkpt lat="46.10353" lon="6.11276">
        <ele>629.20001220703</ele>
        <time>2012-11-12T15:19:06.000Z</time>
      </trkpt>
      <trkpt lat="46.10373" lon="6.11289">
        <ele>629.20001220703</ele>
        <time>2012-11-12T15:19:10.000Z</time>
      </trkpt>
      <trkpt lat="46.10383" lon="6.11295">
        <ele>629.20001220703</ele>
        <time>2012-11-12T15:19:12.000Z</time>
      </trkpt>
      <trkpt lat="46.10388" lon="6.11299">
        <ele>629.20001220703</ele>
        <time>2012-11-12T15:19:13.000Z</time>
      </trkpt>
      <trkpt lat="46.10404" lon="6.11304">
        <ele>629.20001220703</ele>
        <time>2012-11-12T15:19:16.000Z</time>
      </trkpt>
      <trkpt lat="46.10423" lon="6.11296">
        <ele>629.20001220703</ele>
        <time>2012-11-12T15:19:19.000Z</time>
      </trkpt>
      <trkpt lat="46.10472" lon="6.11274">
        <ele>629.20001220703</ele>
        <time>2012-11-12T15:19:26.000Z</time>
      </trkpt>
      <trkpt lat="46.10486" lon="6.11265">
        <ele>629.20001220703</ele>
        <time>2012-11-12T15:19:28.000Z</time>
      </trkpt>
      <trkpt lat="46.10492" lon="6.11258">
        <ele>627.20001220703</ele>
        <time>2012-11-12T15:19:29.000Z</time>
      </trkpt>
      <trkpt lat="46.10498" lon="6.11248">
        <ele>627.20001220703</ele>
        <time>2012-11-12T15:19:30.000Z</time>
      </trkpt>
      <trkpt lat="46.10506" lon="6.11227">
        <ele>626.20001220703</ele>
        <time>2012-11-12T15:19:32.000Z</time>
      </trkpt>
      <trkpt lat="46.10507" lon="6.11215">
        <ele>626.20001220703</ele>
        <time>2012-11-12T15:19:33.000Z</time>
      </trkpt>
      <trkpt lat="46.10505" lon="6.11189">
        <ele>625</ele>
        <time>2012-11-12T15:19:35.000Z</time>
      </trkpt>
      <trkpt lat="46.10501" lon="6.11177">
        <ele>625</ele>
        <time>2012-11-12T15:19:36.000Z</time>
      </trkpt>
      <trkpt lat="46.10496" lon="6.11166">
        <ele>623.59997558594</ele>
        <time>2012-11-12T15:19:37.000Z</time>
      </trkpt>
      <trkpt lat="46.10487" lon="6.11156">
        <ele>622.40002441406</ele>
        <time>2012-11-12T15:19:38.000Z</time>
      </trkpt>
      <trkpt lat="46.10478" lon="6.11148">
        <ele>621.40002441406</ele>
        <time>2012-11-12T15:19:39.000Z</time>
      </trkpt>
      <trkpt lat="46.10458" lon="6.11137">
        <ele>620.40002441406</ele>
        <time>2012-11-12T15:19:41.000Z</time>
      </trkpt>
      <trkpt lat="46.10449" lon="6.1113">
        <ele>619.40002441406</ele>
        <time>2012-11-12T15:19:42.000Z</time>
      </trkpt>
      <trkpt lat="46.10427" lon="6.1112">
        <ele>617.59997558594</ele>
        <time>2012-11-12T15:19:44.000Z</time>
      </trkpt>
      <trkpt lat="46.10408" lon="6.11103">
        <ele>616.40002441406</ele>
        <time>2012-11-12T15:19:46.000Z</time>
      </trkpt>
      <trkpt lat="46.104" lon="6.1109">
        <ele>615.40002441406</ele>
        <time>2012-11-12T15:19:47.000Z</time>
      </trkpt>
      <trkpt lat="46.10397" lon="6.11073">
        <ele>614.40002441406</ele>
        <time>2012-11-12T15:19:48.000Z</time>
      </trkpt>
      <trkpt lat="46.10397" lon="6.11057">
        <ele>613.40002441406</ele>
        <time>2012-11-12T15:19:49.000Z</time>
      </trkpt>
      <trkpt lat="46.10397" lon="6.1104">
        <ele>612.20001220703</ele>
        <time>2012-11-12T15:19:50.000Z</time>
      </trkpt>
      <trkpt lat="46.10397" lon="6.11023">
        <ele>612.20001220703</ele>
        <time>2012-11-12T15:19:51.000Z</time>
      </trkpt>
      <trkpt lat="46.10397" lon="6.11008">
        <ele>611</ele>
        <time>2012-11-12T15:19:52.000Z</time>
      </trkpt>
      <trkpt lat="46.10398" lon="6.10989">
        <ele>609.59997558594</ele>
        <time>2012-11-12T15:19:53.000Z</time>
      </trkpt>
      <trkpt lat="46.10398" lon="6.10954">
        <ele>608.40002441406</ele>
        <time>2012-11-12T15:19:55.000Z</time>
      </trkpt>
      <trkpt lat="46.10398" lon="6.10921">
        <ele>607.40002441406</ele>
        <time>2012-11-12T15:19:57.000Z</time>
      </trkpt>
      <trkpt lat="46.10397" lon="6.10903">
        <ele>606.20001220703</ele>
        <time>2012-11-12T15:19:58.000Z</time>
      </trkpt>
      <trkpt lat="46.10392" lon="6.10867">
        <ele>605</ele>
        <time>2012-11-12T15:20:00.000Z</time>
      </trkpt>
      <trkpt lat="46.10388" lon="6.10851">
        <ele>604</ele>
        <time>2012-11-12T15:20:01.000Z</time>
      </trkpt>
      <trkpt lat="46.10378" lon="6.10818">
        <ele>603</ele>
        <time>2012-11-12T15:20:03.000Z</time>
      </trkpt>
      <trkpt lat="46.10368" lon="6.10785">
        <ele>601.59997558594</ele>
        <time>2012-11-12T15:20:05.000Z</time>
      </trkpt>
      <trkpt lat="46.10358" lon="6.10754">
        <ele>600.59997558594</ele>
        <time>2012-11-12T15:20:07.000Z</time>
      </trkpt>
      <trkpt lat="46.10343" lon="6.10708">
        <ele>599.59997558594</ele>
        <time>2012-11-12T15:20:10.000Z</time>
      </trkpt>
      <trkpt lat="46.10333" lon="6.10677">
        <ele>598.40002441406</ele>
        <time>2012-11-12T15:20:12.000Z</time>
      </trkpt>
      <trkpt lat="46.10327" lon="6.10646">
        <ele>597.40002441406</ele>
        <time>2012-11-12T15:20:14.000Z</time>
      </trkpt>
      <trkpt lat="46.10322" lon="6.10613">
        <ele>596.40002441406</ele>
        <time>2012-11-12T15:20:16.000Z</time>
      </trkpt>
      <trkpt lat="46.10313" lon="6.10583">
        <ele>596.40002441406</ele>
        <time>2012-11-12T15:20:18.000Z</time>
      </trkpt>
      <trkpt lat="46.10307" lon="6.10571">
        <ele>596.40002441406</ele>
        <time>2012-11-12T15:20:19.000Z</time>
      </trkpt>
      <trkpt lat="46.10293" lon="6.10551">
        <ele>595.40002441406</ele>
        <time>2012-11-12T15:20:21.000Z</time>
      </trkpt>
      <trkpt lat="46.1029" lon="6.10542">
        <ele>595.40002441406</ele>
        <time>2012-11-12T15:20:22.000Z</time>
      </trkpt>
      <trkpt lat="46.10286" lon="6.10517">
        <ele>594.40002441406</ele>
        <time>2012-11-12T15:20:24.000Z</time>
      </trkpt>
      <trkpt lat="46.10286" lon="6.10506">
        <ele>594.40002441406</ele>
        <time>2012-11-12T15:20:25.000Z</time>
      </trkpt>
      <trkpt lat="46.10298" lon="6.10484">
        <ele>594.40002441406</ele>
        <time>2012-11-12T15:20:28.000Z</time>
      </trkpt>
      <trkpt lat="46.10313" lon="6.10485">
        <ele>594.40002441406</ele>
        <time>2012-11-12T15:20:30.000Z</time>
      </trkpt>
      <trkpt lat="46.10328" lon="6.10488">
        <ele>594.40002441406</ele>
        <time>2012-11-12T15:20:32.000Z</time>
      </trkpt>
      <trkpt lat="46.10354" lon="6.10496">
        <ele>594.40002441406</ele>
        <time>2012-11-12T15:20:35.000Z</time>
      </trkpt>
      <trkpt lat="46.10371" lon="6.105">
        <ele>592.20001220703</ele>
        <time>2012-11-12T15:20:37.000Z</time>
      </trkpt>
      <trkpt lat="46.10418" lon="6.10513">
        <ele>590.40002441406</ele>
        <time>2012-11-12T15:20:42.000Z</time>
      </trkpt>
      <trkpt lat="46.10479" lon="6.10536">
        <ele>590.40002441406</ele>
        <time>2012-11-12T15:20:48.000Z</time>
      </trkpt>
      <trkpt lat="46.10488" lon="6.1054">
        <ele>590.40002441406</ele>
        <time>2012-11-12T15:20:49.000Z</time>
      </trkpt>
      <trkpt lat="46.10509" lon="6.10551">
        <ele>589.40002441406</ele>
        <time>2012-11-12T15:20:51.000Z</time>
      </trkpt>
      <trkpt lat="46.10539" lon="6.10571">
        <ele>588.20001220703</ele>
        <time>2012-11-12T15:20:54.000Z</time>
      </trkpt>
      <trkpt lat="46.10549" lon="6.10579">
        <ele>588.20001220703</ele>
        <time>2012-11-12T15:20:55.000Z</time>
      </trkpt>
      <trkpt lat="46.10568" lon="6.10594">
        <ele>587</ele>
        <time>2012-11-12T15:20:57.000Z</time>
      </trkpt>
      <trkpt lat="46.10587" lon="6.10611">
        <ele>585.59997558594</ele>
        <time>2012-11-12T15:20:59.000Z</time>
      </trkpt>
      <trkpt lat="46.10607" lon="6.10631">
        <ele>585.59997558594</ele>
        <time>2012-11-12T15:21:01.000Z</time>
      </trkpt>
      <trkpt lat="46.10626" lon="6.10651">
        <ele>584.20001220703</ele>
        <time>2012-11-12T15:21:03.000Z</time>
      </trkpt>
      <trkpt lat="46.10636" lon="6.10661">
        <ele>583.20001220703</ele>
        <time>2012-11-12T15:21:04.000Z</time>
      </trkpt>
      <trkpt lat="46.10656" lon="6.10682">
        <ele>582.20001220703</ele>
        <time>2012-11-12T15:21:06.000Z</time>
      </trkpt>
      <trkpt lat="46.10676" lon="6.10701">
        <ele>580.40002441406</ele>
        <time>2012-11-12T15:21:08.000Z</time>
      </trkpt>
      <trkpt lat="46.10697" lon="6.10717">
        <ele>578.59997558594</ele>
        <time>2012-11-12T15:21:10.000Z</time>
      </trkpt>
      <trkpt lat="46.10732" lon="6.10741">
        <ele>577.59997558594</ele>
        <time>2012-11-12T15:21:13.000Z</time>
      </trkpt>
      <trkpt lat="46.10743" lon="6.10747">
        <ele>576.40002441406</ele>
        <time>2012-11-12T15:21:14.000Z</time>
      </trkpt>
      <trkpt lat="46.10767" lon="6.1076">
        <ele>574.40002441406</ele>
        <time>2012-11-12T15:21:16.000Z</time>
      </trkpt>
      <trkpt lat="46.1078" lon="6.10766">
        <ele>573.40002441406</ele>
        <time>2012-11-12T15:21:17.000Z</time>
      </trkpt>
      <trkpt lat="46.10794" lon="6.10771">
        <ele>572.20001220703</ele>
        <time>2012-11-12T15:21:18.000Z</time>
      </trkpt>
      <trkpt lat="46.10807" lon="6.10776">
        <ele>571.20001220703</ele>
        <time>2012-11-12T15:21:19.000Z</time>
      </trkpt>
      <trkpt lat="46.1082" lon="6.1078">
        <ele>569.40002441406</ele>
        <time>2012-11-12T15:21:20.000Z</time>
      </trkpt>
      <trkpt lat="46.10833" lon="6.10783">
        <ele>568.20001220703</ele>
        <time>2012-11-12T15:21:21.000Z</time>
      </trkpt>
      <trkpt lat="46.1086" lon="6.10787">
        <ele>567</ele>
        <time>2012-11-12T15:21:23.000Z</time>
      </trkpt>
      <trkpt lat="46.10874" lon="6.10789">
        <ele>565.59997558594</ele>
        <time>2012-11-12T15:21:24.000Z</time>
      </trkpt>
      <trkpt lat="46.10901" lon="6.10791">
        <ele>564.40002441406</ele>
        <time>2012-11-12T15:21:26.000Z</time>
      </trkpt>
      <trkpt lat="46.10942" lon="6.10794">
        <ele>562</ele>
        <time>2012-11-12T15:21:29.000Z</time>
      </trkpt>
      <trkpt lat="46.1097" lon="6.10795">
        <ele>560.20001220703</ele>
        <time>2012-11-12T15:21:31.000Z</time>
      </trkpt>
      <trkpt lat="46.10983" lon="6.10795">
        <ele>558.59997558594</ele>
        <time>2012-11-12T15:21:32.000Z</time>
      </trkpt>
      <trkpt lat="46.10998" lon="6.10796">
        <ele>557.20001220703</ele>
        <time>2012-11-12T15:21:33.000Z</time>
      </trkpt>
      <trkpt lat="46.11027" lon="6.10797">
        <ele>556.20001220703</ele>
        <time>2012-11-12T15:21:35.000Z</time>
      </trkpt>
      <trkpt lat="46.11054" lon="6.10798">
        <ele>554</ele>
        <time>2012-11-12T15:21:37.000Z</time>
      </trkpt>
      <trkpt lat="46.11069" lon="6.10799">
        <ele>552.59997558594</ele>
        <time>2012-11-12T15:21:38.000Z</time>
      </trkpt>
      <trkpt lat="46.11084" lon="6.10799">
        <ele>551.40002441406</ele>
        <time>2012-11-12T15:21:39.000Z</time>
      </trkpt>
      <trkpt lat="46.11097" lon="6.108">
        <ele>550.40002441406</ele>
        <time>2012-11-12T15:21:40.000Z</time>
      </trkpt>
      <trkpt lat="46.11112" lon="6.10801">
        <ele>549.40002441406</ele>
        <time>2012-11-12T15:21:41.000Z</time>
      </trkpt>
      <trkpt lat="46.11125" lon="6.10801">
        <ele>548.20001220703</ele>
        <time>2012-11-12T15:21:42.000Z</time>
      </trkpt>
      <trkpt lat="46.1114" lon="6.10802">
        <ele>546.59997558594</ele>
        <time>2012-11-12T15:21:43.000Z</time>
      </trkpt>
      <trkpt lat="46.11153" lon="6.10803">
        <ele>545.59997558594</ele>
        <time>2012-11-12T15:21:44.000Z</time>
      </trkpt>
      <trkpt lat="46.11181" lon="6.10804">
        <ele>544.20001220703</ele>
        <time>2012-11-12T15:21:46.000Z</time>
      </trkpt>
      <trkpt lat="46.1121" lon="6.10806">
        <ele>543</ele>
        <time>2012-11-12T15:21:48.000Z</time>
      </trkpt>
      <trkpt lat="46.11224" lon="6.10806">
        <ele>541.40002441406</ele>
        <time>2012-11-12T15:21:49.000Z</time>
      </trkpt>
      <trkpt lat="46.11252" lon="6.10807">
        <ele>541.40002441406</ele>
        <time>2012-11-12T15:21:51.000Z</time>
      </trkpt>
      <trkpt lat="46.11265" lon="6.10808">
        <ele>540.20001220703</ele>
        <time>2012-11-12T15:21:52.000Z</time>
      </trkpt>
      <trkpt lat="46.11281" lon="6.10808">
        <ele>539.20001220703</ele>
        <time>2012-11-12T15:21:53.000Z</time>
      </trkpt>
      <trkpt lat="46.11296" lon="6.10809">
        <ele>537.59997558594</ele>
        <time>2012-11-12T15:21:54.000Z</time>
      </trkpt>
      <trkpt lat="46.1131" lon="6.10809">
        <ele>536.40002441406</ele>
        <time>2012-11-12T15:21:55.000Z</time>
      </trkpt>
      <trkpt lat="46.11338" lon="6.1081">
        <ele>533.59997558594</ele>
        <time>2012-11-12T15:21:57.000Z</time>
      </trkpt>
      <trkpt lat="46.11383" lon="6.10812">
        <ele>532.40002441406</ele>
        <time>2012-11-12T15:22:00.000Z</time>
      </trkpt>
      <trkpt lat="46.11398" lon="6.10813">
        <ele>530.59997558594</ele>
        <time>2012-11-12T15:22:01.000Z</time>
      </trkpt>
      <trkpt lat="46.11412" lon="6.10814">
        <ele>528</ele>
        <time>2012-11-12T15:22:02.000Z</time>
      </trkpt>
      <trkpt lat="46.11428" lon="6.10815">
        <ele>528</ele>
        <time>2012-11-12T15:22:03.000Z</time>
      </trkpt>
      <trkpt lat="46.11471" lon="6.10817">
        <ele>526.20001220703</ele>
        <time>2012-11-12T15:22:06.000Z</time>
      </trkpt>
      <trkpt lat="46.11486" lon="6.10818">
        <ele>524.40002441406</ele>
        <time>2012-11-12T15:22:07.000Z</time>
      </trkpt>
      <trkpt lat="46.11517" lon="6.10818">
        <ele>523</ele>
        <time>2012-11-12T15:22:09.000Z</time>
      </trkpt>
      <trkpt lat="46.11547" lon="6.10821">
        <ele>522</ele>
        <time>2012-11-12T15:22:11.000Z</time>
      </trkpt>
      <trkpt lat="46.11561" lon="6.10824">
        <ele>520.20001220703</ele>
        <time>2012-11-12T15:22:12.000Z</time>
      </trkpt>
      <trkpt lat="46.11576" lon="6.10829">
        <ele>518.59997558594</ele>
        <time>2012-11-12T15:22:13.000Z</time>
      </trkpt>
      <trkpt lat="46.11616" lon="6.10849">
        <ele>517.40002441406</ele>
        <time>2012-11-12T15:22:16.000Z</time>
      </trkpt>
      <trkpt lat="46.11629" lon="6.10858">
        <ele>516.40002441406</ele>
        <time>2012-11-12T15:22:17.000Z</time>
      </trkpt>
      <trkpt lat="46.11678" lon="6.10891">
        <ele>516.40002441406</ele>
        <time>2012-11-12T15:22:21.000Z</time>
      </trkpt>
      <trkpt lat="46.11701" lon="6.10909">
        <ele>516.40002441406</ele>
        <time>2012-11-12T15:22:23.000Z</time>
      </trkpt>
      <trkpt lat="46.11753" lon="6.10954">
        <ele>516.40002441406</ele>
        <time>2012-11-12T15:22:28.000Z</time>
      </trkpt>
      <trkpt lat="46.11764" lon="6.10962">
        <ele>516.40002441406</ele>
        <time>2012-11-12T15:22:29.000Z</time>
      </trkpt>
      <trkpt lat="46.11795" lon="6.10987">
        <ele>515.40002441406</ele>
        <time>2012-11-12T15:22:32.000Z</time>
      </trkpt>
      <trkpt lat="46.11833" lon="6.11016">
        <ele>515.40002441406</ele>
        <time>2012-11-12T15:22:36.000Z</time>
      </trkpt>
      <trkpt lat="46.11846" lon="6.11021">
        <ele>515.40002441406</ele>
        <time>2012-11-12T15:22:38.000Z</time>
      </trkpt>
      <trkpt lat="46.11852" lon="6.11017">
        <ele>515.40002441406</ele>
        <time>2012-11-12T15:22:39.000Z</time>
      </trkpt>
      <trkpt lat="46.11859" lon="6.11001">
        <ele>515.40002441406</ele>
        <time>2012-11-12T15:22:41.000Z</time>
      </trkpt>
      <trkpt lat="46.11866" lon="6.10982">
        <ele>515.40002441406</ele>
        <time>2012-11-12T15:22:43.000Z</time>
      </trkpt>
      <trkpt lat="46.11874" lon="6.10961">
        <ele>515.40002441406</ele>
        <time>2012-11-12T15:22:45.000Z</time>
      </trkpt>
      <trkpt lat="46.11878" lon="6.1095">
        <ele>513.59997558594</ele>
        <time>2012-11-12T15:22:46.000Z</time>
      </trkpt>
      <trkpt lat="46.11892" lon="6.10914">
        <ele>512.59997558594</ele>
        <time>2012-11-12T15:22:49.000Z</time>
      </trkpt>
      <trkpt lat="46.11905" lon="6.10879">
        <ele>512.59997558594</ele>
        <time>2012-11-12T15:22:52.000Z</time>
      </trkpt>
      <trkpt lat="46.1192" lon="6.10841">
        <ele>511.60000610352</ele>
        <time>2012-11-12T15:22:55.000Z</time>
      </trkpt>
      <trkpt lat="46.11943" lon="6.10784">
        <ele>511.60000610352</ele>
        <time>2012-11-12T15:23:00.000Z</time>
      </trkpt>
      <trkpt lat="46.11957" lon="6.10749">
        <ele>510.20001220703</ele>
        <time>2012-11-12T15:23:03.000Z</time>
      </trkpt>
      <trkpt lat="46.11979" lon="6.1069">
        <ele>509.20001220703</ele>
        <time>2012-11-12T15:23:08.000Z</time>
      </trkpt>
      <trkpt lat="46.11988" lon="6.10667">
        <ele>509.20001220703</ele>
        <time>2012-11-12T15:23:10.000Z</time>
      </trkpt>
      <trkpt lat="46.12002" lon="6.10629">
        <ele>508.20001220703</ele>
        <time>2012-11-12T15:23:13.000Z</time>
      </trkpt>
      <trkpt lat="46.12017" lon="6.10592">
        <ele>507</ele>
        <time>2012-11-12T15:23:16.000Z</time>
      </trkpt>
      <trkpt lat="46.12036" lon="6.1054">
        <ele>507</ele>
        <time>2012-11-12T15:23:20.000Z</time>
      </trkpt>
      <trkpt lat="46.12044" lon="6.10516">
        <ele>506</ele>
        <time>2012-11-12T15:23:22.000Z</time>
      </trkpt>
      <trkpt lat="46.12068" lon="6.10452">
        <ele>504.60000610352</ele>
        <time>2012-11-12T15:23:27.000Z</time>
      </trkpt>
      <trkpt lat="46.12072" lon="6.1044">
        <ele>504.60000610352</ele>
        <time>2012-11-12T15:23:28.000Z</time>
      </trkpt>
      <trkpt lat="46.12086" lon="6.10403">
        <ele>503.60000610352</ele>
        <time>2012-11-12T15:23:31.000Z</time>
      </trkpt>
      <trkpt lat="46.12087" lon="6.10391">
        <ele>503.60000610352</ele>
        <time>2012-11-12T15:23:32.000Z</time>
      </trkpt>
      <trkpt lat="46.12081" lon="6.10368">
        <ele>503.60000610352</ele>
        <time>2012-11-12T15:23:34.000Z</time>
      </trkpt>
      <trkpt lat="46.12067" lon="6.10357">
        <ele>503.60000610352</ele>
        <time>2012-11-12T15:23:36.000Z</time>
      </trkpt>
      <trkpt lat="46.12049" lon="6.10348">
        <ele>503.60000610352</ele>
        <time>2012-11-12T15:23:38.000Z</time>
      </trkpt>
      <trkpt lat="46.12023" lon="6.10332">
        <ele>503.60000610352</ele>
        <time>2012-11-12T15:23:41.000Z</time>
      </trkpt>
      <trkpt lat="46.12014" lon="6.10327">
        <ele>502.20001220703</ele>
        <time>2012-11-12T15:23:42.000Z</time>
      </trkpt>
      <trkpt lat="46.11985" lon="6.10309">
        <ele>500.60000610352</ele>
        <time>2012-11-12T15:23:45.000Z</time>
      </trkpt>
      <trkpt lat="46.11956" lon="6.1029">
        <ele>500.60000610352</ele>
        <time>2012-11-12T15:23:48.000Z</time>
      </trkpt>
      <trkpt lat="46.119" lon="6.10249">
        <ele>500.60000610352</ele>
        <time>2012-11-12T15:23:54.000Z</time>
      </trkpt>
      <trkpt lat="46.1188" lon="6.10237">
        <ele>504</ele>
        <time>2012-11-12T15:23:56.000Z</time>
      </trkpt>
      <trkpt lat="46.11871" lon="6.10231">
        <ele>504</ele>
        <time>2012-11-12T15:23:57.000Z</time>
      </trkpt>
      <trkpt lat="46.11831" lon="6.10204">
        <ele>500.60000610352</ele>
        <time>2012-11-12T15:24:01.000Z</time>
      </trkpt>
      <trkpt lat="46.11803" lon="6.10177">
        <ele>499.60000610352</ele>
        <time>2012-11-12T15:24:04.000Z</time>
      </trkpt>
      <trkpt lat="46.11793" lon="6.10167">
        <ele>498</ele>
        <time>2012-11-12T15:24:05.000Z</time>
      </trkpt>
      <trkpt lat="46.11776" lon="6.10143">
        <ele>496.60000610352</ele>
        <time>2012-11-12T15:24:07.000Z</time>
      </trkpt>
      <trkpt lat="46.11769" lon="6.10128">
        <ele>495.20001220703</ele>
        <time>2012-11-12T15:24:08.000Z</time>
      </trkpt>
      <trkpt lat="46.11751" lon="6.10086">
        <ele>498.60000610352</ele>
        <time>2012-11-12T15:24:11.000Z</time>
      </trkpt>
      <trkpt lat="46.11746" lon="6.10073">
        <ele>498.60000610352</ele>
        <time>2012-11-12T15:24:12.000Z</time>
      </trkpt>
      <trkpt lat="46.11713" lon="6.09997">
        <ele>498.60000610352</ele>
        <time>2012-11-12T15:24:18.000Z</time>
      </trkpt>
      <trkpt lat="46.11683" lon="6.09927">
        <ele>498.60000610352</ele>
        <time>2012-11-12T15:24:24.000Z</time>
      </trkpt>
      <trkpt lat="46.11673" lon="6.09902">
        <ele>495</ele>
        <time>2012-11-12T15:24:26.000Z</time>
      </trkpt>
      <trkpt lat="46.11662" lon="6.09878">
        <ele>493.60000610352</ele>
        <time>2012-11-12T15:24:28.000Z</time>
      </trkpt>
      <trkpt lat="46.11656" lon="6.09864">
        <ele>493.60000610352</ele>
        <time>2012-11-12T15:24:29.000Z</time>
      </trkpt>
      <trkpt lat="46.11638" lon="6.09813">
        <ele>493.60000610352</ele>
        <time>2012-11-12T15:24:33.000Z</time>
      </trkpt>
      <trkpt lat="46.11636" lon="6.098">
        <ele>493.60000610352</ele>
        <time>2012-11-12T15:24:34.000Z</time>
      </trkpt>
      <trkpt lat="46.11636" lon="6.09787">
        <ele>497.20001220703</ele>
        <time>2012-11-12T15:24:35.000Z</time>
      </trkpt>
      <trkpt lat="46.11638" lon="6.09765">
        <ele>497.20001220703</ele>
        <time>2012-11-12T15:24:37.000Z</time>
      </trkpt>
      <trkpt lat="46.11639" lon="6.09754">
        <ele>498.20001220703</ele>
        <time>2012-11-12T15:24:38.000Z</time>
      </trkpt>
      <trkpt lat="46.1164" lon="6.09744">
        <ele>499.60000610352</ele>
        <time>2012-11-12T15:24:39.000Z</time>
      </trkpt>
      <trkpt lat="46.11641" lon="6.09726">
        <ele>501</ele>
        <time>2012-11-12T15:24:41.000Z</time>
      </trkpt>
      <trkpt lat="46.11642" lon="6.09719">
        <ele>501</ele>
        <time>2012-11-12T15:24:42.000Z</time>
      </trkpt>
      <trkpt lat="46.11647" lon="6.09713">
        <ele>501</ele>
        <time>2012-11-12T15:24:43.000Z</time>
      </trkpt>
      <trkpt lat="46.11653" lon="6.0971">
        <ele>501</ele>
        <time>2012-11-12T15:24:44.000Z</time>
      </trkpt>
      <trkpt lat="46.11681" lon="6.09696">
        <ele>501</ele>
        <time>2012-11-12T15:24:48.000Z</time>
      </trkpt>
      <trkpt lat="46.11704" lon="6.09683">
        <ele>497.20001220703</ele>
        <time>2012-11-12T15:24:51.000Z</time>
      </trkpt>
      <trkpt lat="46.11731" lon="6.09669">
        <ele>497.20001220703</ele>
        <time>2012-11-12T15:24:54.000Z</time>
      </trkpt>
      <trkpt lat="46.11784" lon="6.0964">
        <ele>497.20001220703</ele>
        <time>2012-11-12T15:25:00.000Z</time>
      </trkpt>
      <trkpt lat="46.11812" lon="6.09624">
        <ele>496.20001220703</ele>
        <time>2012-11-12T15:25:03.000Z</time>
      </trkpt>
      <trkpt lat="46.11821" lon="6.09619">
        <ele>496.20001220703</ele>
        <time>2012-11-12T15:25:04.000Z</time>
      </trkpt>
      <trkpt lat="46.11861" lon="6.09597">
        <ele>495.20001220703</ele>
        <time>2012-11-12T15:25:08.000Z</time>
      </trkpt>
      <trkpt lat="46.11892" lon="6.0958">
        <ele>495.20001220703</ele>
        <time>2012-11-12T15:25:11.000Z</time>
      </trkpt>
      <trkpt lat="46.11946" lon="6.09552">
        <ele>494.20001220703</ele>
        <time>2012-11-12T15:25:16.000Z</time>
      </trkpt>
      <trkpt lat="46.1198" lon="6.09534">
        <ele>493.20001220703</ele>
        <time>2012-11-12T15:25:19.000Z</time>
      </trkpt>
      <trkpt lat="46.1199" lon="6.09528">
        <ele>493.20001220703</ele>
        <time>2012-11-12T15:25:20.000Z</time>
      </trkpt>
      <trkpt lat="46.12023" lon="6.0951">
        <ele>492</ele>
        <time>2012-11-12T15:25:23.000Z</time>
      </trkpt>
      <trkpt lat="46.12044" lon="6.09498">
        <ele>490.60000610352</ele>
        <time>2012-11-12T15:25:25.000Z</time>
      </trkpt>
      <trkpt lat="46.12055" lon="6.09492">
        <ele>489.60000610352</ele>
        <time>2012-11-12T15:25:26.000Z</time>
      </trkpt>
      <trkpt lat="46.12087" lon="6.09474">
        <ele>488.60000610352</ele>
        <time>2012-11-12T15:25:29.000Z</time>
      </trkpt>
      <trkpt lat="46.12097" lon="6.09468">
        <ele>487.20001220703</ele>
        <time>2012-11-12T15:25:30.000Z</time>
      </trkpt>
      <trkpt lat="46.12118" lon="6.09457">
        <ele>487.20001220703</ele>
        <time>2012-11-12T15:25:32.000Z</time>
      </trkpt>
      <trkpt lat="46.1215" lon="6.09439">
        <ele>486</ele>
        <time>2012-11-12T15:25:35.000Z</time>
      </trkpt>
      <trkpt lat="46.1216" lon="6.09433">
        <ele>484.60000610352</ele>
        <time>2012-11-12T15:25:36.000Z</time>
      </trkpt>
      <trkpt lat="46.12193" lon="6.09415">
        <ele>483.60000610352</ele>
        <time>2012-11-12T15:25:39.000Z</time>
      </trkpt>
      <trkpt lat="46.12235" lon="6.0939">
        <ele>482.60000610352</ele>
        <time>2012-11-12T15:25:43.000Z</time>
      </trkpt>
      <trkpt lat="46.12245" lon="6.09384">
        <ele>481.60000610352</ele>
        <time>2012-11-12T15:25:44.000Z</time>
      </trkpt>
      <trkpt lat="46.12298" lon="6.09354">
        <ele>481.60000610352</ele>
        <time>2012-11-12T15:25:49.000Z</time>
      </trkpt>
      <trkpt lat="46.1234" lon="6.09332">
        <ele>479.60000610352</ele>
        <time>2012-11-12T15:25:53.000Z</time>
      </trkpt>
      <trkpt lat="46.1237" lon="6.09315">
        <ele>478.60000610352</ele>
        <time>2012-11-12T15:25:56.000Z</time>
      </trkpt>
      <trkpt lat="46.12399" lon="6.09304">
        <ele>478.60000610352</ele>
        <time>2012-11-12T15:25:59.000Z</time>
      </trkpt>
      <trkpt lat="46.1241" lon="6.09305">
        <ele>477.60000610352</ele>
        <time>2012-11-12T15:26:00.000Z</time>
      </trkpt>
      <trkpt lat="46.12438" lon="6.09301">
        <ele>476.60000610352</ele>
        <time>2012-11-12T15:26:03.000Z</time>
      </trkpt>
      <trkpt lat="46.12451" lon="6.0928">
        <ele>476.60000610352</ele>
        <time>2012-11-12T15:26:05.000Z</time>
      </trkpt>
      <trkpt lat="46.12466" lon="6.09262">
        <ele>475.60000610352</ele>
        <time>2012-11-12T15:26:07.000Z</time>
      </trkpt>
      <trkpt lat="46.12477" lon="6.09256">
        <ele>475.60000610352</ele>
        <time>2012-11-12T15:26:08.000Z</time>
      </trkpt>
      <trkpt lat="46.12496" lon="6.09245">
        <ele>475.60000610352</ele>
        <time>2012-11-12T15:26:10.000Z</time>
      </trkpt>
      <trkpt lat="46.12507" lon="6.09239">
        <ele>474.20001220703</ele>
        <time>2012-11-12T15:26:11.000Z</time>
      </trkpt>
      <trkpt lat="46.12528" lon="6.09227">
        <ele>474.20001220703</ele>
        <time>2012-11-12T15:26:13.000Z</time>
      </trkpt>
      <trkpt lat="46.12561" lon="6.09209">
        <ele>473.20001220703</ele>
        <time>2012-11-12T15:26:16.000Z</time>
      </trkpt>
      <trkpt lat="46.12618" lon="6.09177">
        <ele>472.20001220703</ele>
        <time>2012-11-12T15:26:21.000Z</time>
      </trkpt>
      <trkpt lat="46.12664" lon="6.09151">
        <ele>471.20001220703</ele>
        <time>2012-11-12T15:26:25.000Z</time>
      </trkpt>
      <trkpt lat="46.12722" lon="6.09118">
        <ele>470.20001220703</ele>
        <time>2012-11-12T15:26:30.000Z</time>
      </trkpt>
      <trkpt lat="46.12776" lon="6.0909">
        <ele>470.20001220703</ele>
        <time>2012-11-12T15:26:35.000Z</time>
      </trkpt>
      <trkpt lat="46.12796" lon="6.09082">
        <ele>470.20001220703</ele>
        <time>2012-11-12T15:26:37.000Z</time>
      </trkpt>
      <trkpt lat="46.12825" lon="6.09081">
        <ele>470.20001220703</ele>
        <time>2012-11-12T15:26:40.000Z</time>
      </trkpt>
      <trkpt lat="46.12833" lon="6.09077">
        <ele>470.20001220703</ele>
        <time>2012-11-12T15:26:41.000Z</time>
      </trkpt>
      <trkpt lat="46.12837" lon="6.0907">
        <ele>470.20001220703</ele>
        <time>2012-11-12T15:26:42.000Z</time>
      </trkpt>
      <trkpt lat="46.12838" lon="6.09048">
        <ele>470.20001220703</ele>
        <time>2012-11-12T15:26:44.000Z</time>
      </trkpt>
      <trkpt lat="46.12828" lon="6.09029">
        <ele>470.20001220703</ele>
        <time>2012-11-12T15:26:46.000Z</time>
      </trkpt>
      <trkpt lat="46.12814" lon="6.08997">
        <ele>470.20001220703</ele>
        <time>2012-11-12T15:26:49.000Z</time>
      </trkpt>
      <trkpt lat="46.12822" lon="6.08975">
        <ele>470.20001220703</ele>
        <time>2012-11-12T15:26:51.000Z</time>
      </trkpt>
      <trkpt lat="46.12837" lon="6.08964">
        <ele>470.20001220703</ele>
        <time>2012-11-12T15:26:53.000Z</time>
      </trkpt>
      <trkpt lat="46.12868" lon="6.08941">
        <ele>470.20001220703</ele>
        <time>2012-11-12T15:26:57.000Z</time>
      </trkpt>
      <trkpt lat="46.1288" lon="6.08919">
        <ele>468</ele>
        <time>2012-11-12T15:26:59.000Z</time>
      </trkpt>
      <trkpt lat="46.12885" lon="6.08909">
        <ele>466.60000610352</ele>
        <time>2012-11-12T15:27:00.000Z</time>
      </trkpt>
      <trkpt lat="46.12891" lon="6.08897">
        <ele>464.60000610352</ele>
        <time>2012-11-12T15:27:01.000Z</time>
      </trkpt>
      <trkpt lat="46.12902" lon="6.08873">
        <ele>463.60000610352</ele>
        <time>2012-11-12T15:27:03.000Z</time>
      </trkpt>
      <trkpt lat="46.12923" lon="6.08824">
        <ele>462.20001220703</ele>
        <time>2012-11-12T15:27:07.000Z</time>
      </trkpt>
      <trkpt lat="46.12929" lon="6.08811">
        <ele>462.20001220703</ele>
        <time>2012-11-12T15:27:08.000Z</time>
      </trkpt>
      <trkpt lat="46.12958" lon="6.08745">
        <ele>462.20001220703</ele>
        <time>2012-11-12T15:27:14.000Z</time>
      </trkpt>
      <trkpt lat="46.12963" lon="6.08735">
        <ele>462.20001220703</ele>
        <time>2012-11-12T15:27:15.000Z</time>
      </trkpt>
      <trkpt lat="46.12969" lon="6.08727">
        <ele>462.20001220703</ele>
        <time>2012-11-12T15:27:16.000Z</time>
      </trkpt>
      <trkpt lat="46.12984" lon="6.08713">
        <ele>462.20001220703</ele>
        <time>2012-11-12T15:27:18.000Z</time>
      </trkpt>
      <trkpt lat="46.12996" lon="6.08699">
        <ele>462.20001220703</ele>
        <time>2012-11-12T15:27:20.000Z</time>
      </trkpt>
      <trkpt lat="46.13001" lon="6.08679">
        <ele>461.20001220703</ele>
        <time>2012-11-12T15:27:22.000Z</time>
      </trkpt>
      <trkpt lat="46.12996" lon="6.08656">
        <ele>461.20001220703</ele>
        <time>2012-11-12T15:27:24.000Z</time>
      </trkpt>
      <trkpt lat="46.1298" lon="6.0863">
        <ele>460.20001220703</ele>
        <time>2012-11-12T15:27:27.000Z</time>
      </trkpt>
      <trkpt lat="46.12959" lon="6.08611">
        <ele>460.20001220703</ele>
        <time>2012-11-12T15:27:30.000Z</time>
      </trkpt>
      <trkpt lat="46.12951" lon="6.08605">
        <ele>460.20001220703</ele>
        <time>2012-11-12T15:27:31.000Z</time>
      </trkpt>
      <trkpt lat="46.12923" lon="6.08576">
        <ele>460.20001220703</ele>
        <time>2012-11-12T15:27:35.000Z</time>
      </trkpt>
      <trkpt lat="46.12917" lon="6.08565">
        <ele>460.20001220703</ele>
        <time>2012-11-12T15:27:36.000Z</time>
      </trkpt>
      <trkpt lat="46.12912" lon="6.08555">
        <ele>458.20001220703</ele>
        <time>2012-11-12T15:27:37.000Z</time>
      </trkpt>
      <trkpt lat="46.12896" lon="6.0852">
        <ele>457.20001220703</ele>
        <time>2012-11-12T15:27:40.000Z</time>
      </trkpt>
      <trkpt lat="46.12879" lon="6.08467">
        <ele>456.20001220703</ele>
        <time>2012-11-12T15:27:44.000Z</time>
      </trkpt>
      <trkpt lat="46.12875" lon="6.08447">
        <ele>456.20001220703</ele>
        <time>2012-11-12T15:27:46.000Z</time>
      </trkpt>
      <trkpt lat="46.12875" lon="6.08437">
        <ele>456.20001220703</ele>
        <time>2012-11-12T15:27:47.000Z</time>
      </trkpt>
      <trkpt lat="46.12881" lon="6.08419">
        <ele>456.20001220703</ele>
        <time>2012-11-12T15:27:49.000Z</time>
      </trkpt>
      <trkpt lat="46.12899" lon="6.08402">
        <ele>456.20001220703</ele>
        <time>2012-11-12T15:27:52.000Z</time>
      </trkpt>
      <trkpt lat="46.12906" lon="6.08396">
        <ele>456.20001220703</ele>
        <time>2012-11-12T15:27:53.000Z</time>
      </trkpt>
      <trkpt lat="46.12936" lon="6.08364">
        <ele>456.20001220703</ele>
        <time>2012-11-12T15:27:58.000Z</time>
      </trkpt>
      <trkpt lat="46.12944" lon="6.08359">
        <ele>456.20001220703</ele>
        <time>2012-11-12T15:27:59.000Z</time>
      </trkpt>
      <trkpt lat="46.12959" lon="6.08358">
        <ele>456.20001220703</ele>
        <time>2012-11-12T15:28:01.000Z</time>
      </trkpt>
      <trkpt lat="46.12971" lon="6.08372">
        <ele>456.20001220703</ele>
        <time>2012-11-12T15:28:03.000Z</time>
      </trkpt>
      <trkpt lat="46.12974" lon="6.08393">
        <ele>456.20001220703</ele>
        <time>2012-11-12T15:28:05.000Z</time>
      </trkpt>
      <trkpt lat="46.12974" lon="6.08415">
        <ele>456.20001220703</ele>
        <time>2012-11-12T15:28:07.000Z</time>
      </trkpt>
      <trkpt lat="46.12976" lon="6.08426">
        <ele>456.20001220703</ele>
        <time>2012-11-12T15:28:08.000Z</time>
      </trkpt>
      <trkpt lat="46.12979" lon="6.08436">
        <ele>456.20001220703</ele>
        <time>2012-11-12T15:28:09.000Z</time>
      </trkpt>
      <trkpt lat="46.12993" lon="6.08462">
        <ele>456.20001220703</ele>
        <time>2012-11-12T15:28:12.000Z</time>
      </trkpt>
      <trkpt lat="46.12997" lon="6.08471">
        <ele>460.60000610352</ele>
        <time>2012-11-12T15:28:13.000Z</time>
      </trkpt>
      <trkpt lat="46.13024" lon="6.08514">
        <ele>460.60000610352</ele>
        <time>2012-11-12T15:28:18.000Z</time>
      </trkpt>
      <trkpt lat="46.13034" lon="6.08532">
        <ele>457.20001220703</ele>
        <time>2012-11-12T15:28:20.000Z</time>
      </trkpt>
      <trkpt lat="46.13068" lon="6.08588">
        <ele>456.20001220703</ele>
        <time>2012-11-12T15:28:26.000Z</time>
      </trkpt>
      <trkpt lat="46.13074" lon="6.08597">
        <ele>456.20001220703</ele>
        <time>2012-11-12T15:28:27.000Z</time>
      </trkpt>
      <trkpt lat="46.13085" lon="6.08616">
        <ele>455</ele>
        <time>2012-11-12T15:28:29.000Z</time>
      </trkpt>
      <trkpt lat="46.1311" lon="6.08651">
        <ele>455</ele>
        <time>2012-11-12T15:28:33.000Z</time>
      </trkpt>
      <trkpt lat="46.13125" lon="6.08658">
        <ele>455</ele>
        <time>2012-11-12T15:28:35.000Z</time>
      </trkpt>
      <trkpt lat="46.1315" lon="6.08651">
        <ele>455</ele>
        <time>2012-11-12T15:28:38.000Z</time>
      </trkpt>
      <trkpt lat="46.13165" lon="6.0864">
        <ele>455</ele>
        <time>2012-11-12T15:28:40.000Z</time>
      </trkpt>
      <trkpt lat="46.13188" lon="6.08623">
        <ele>455</ele>
        <time>2012-11-12T15:28:43.000Z</time>
      </trkpt>
      <trkpt lat="46.13196" lon="6.08618">
        <ele>454</ele>
        <time>2012-11-12T15:28:44.000Z</time>
      </trkpt>
      <trkpt lat="46.13214" lon="6.086">
        <ele>453</ele>
        <time>2012-11-12T15:28:47.000Z</time>
      </trkpt>
      <trkpt lat="46.13217" lon="6.08591">
        <ele>453</ele>
        <time>2012-11-12T15:28:48.000Z</time>
      </trkpt>
      <trkpt lat="46.13217" lon="6.08561">
        <ele>453</ele>
        <time>2012-11-12T15:28:51.000Z</time>
      </trkpt>
      <trkpt lat="46.13209" lon="6.08532">
        <ele>451.60000610352</ele>
        <time>2012-11-12T15:28:54.000Z</time>
      </trkpt>
      <trkpt lat="46.13203" lon="6.08513">
        <ele>451.60000610352</ele>
        <time>2012-11-12T15:28:56.000Z</time>
      </trkpt>
      <trkpt lat="46.13199" lon="6.08504">
        <ele>451.60000610352</ele>
        <time>2012-11-12T15:28:57.000Z</time>
      </trkpt>
      <trkpt lat="46.13187" lon="6.08475">
        <ele>451.60000610352</ele>
        <time>2012-11-12T15:29:00.000Z</time>
      </trkpt>
      <trkpt lat="46.13175" lon="6.08447">
        <ele>451.60000610352</ele>
        <time>2012-11-12T15:29:03.000Z</time>
      </trkpt>
      <trkpt lat="46.13162" lon="6.08424">
        <ele>451.60000610352</ele>
        <time>2012-11-12T15:29:06.000Z</time>
      </trkpt>
      <trkpt lat="46.13145" lon="6.08397">
        <ele>451.60000610352</ele>
        <time>2012-11-12T15:29:10.000Z</time>
      </trkpt>
      <trkpt lat="46.13144" lon="6.08389">
        <ele>451.60000610352</ele>
        <time>2012-11-12T15:29:11.000Z</time>
      </trkpt>
      <trkpt lat="46.13147" lon="6.08367">
        <ele>451.60000610352</ele>
        <time>2012-11-12T15:29:14.000Z</time>
      </trkpt>
      <trkpt lat="46.13149" lon="6.08359">
        <ele>451.60000610352</ele>
        <time>2012-11-12T15:29:15.000Z</time>
      </trkpt>
      <trkpt lat="46.13157" lon="6.08318">
        <ele>451.60000610352</ele>
        <time>2012-11-12T15:29:21.000Z</time>
      </trkpt>
      <trkpt lat="46.13157" lon="6.08306">
        <ele>451.60000610352</ele>
        <time>2012-11-12T15:29:24.000Z</time>
      </trkpt>
      <trkpt lat="46.13156" lon="6.08303">
        <ele>451.60000610352</ele>
        <time>2012-11-12T15:29:25.000Z</time>
      </trkpt>
      <trkpt lat="46.13148" lon="6.08292">
        <ele>451.60000610352</ele>
        <time>2012-11-12T15:29:28.000Z</time>
      </trkpt>
      <trkpt lat="46.13144" lon="6.08287">
        <ele>451.60000610352</ele>
        <time>2012-11-12T15:29:29.000Z</time>
      </trkpt>
      <trkpt lat="46.13136" lon="6.08277">
        <ele>450.60000610352</ele>
        <time>2012-11-12T15:29:31.000Z</time>
      </trkpt>
      <trkpt lat="46.13132" lon="6.08271">
        <ele>450.60000610352</ele>
        <time>2012-11-12T15:29:32.000Z</time>
      </trkpt>
      <trkpt lat="46.13124" lon="6.08259">
        <ele>450.60000610352</ele>
        <time>2012-11-12T15:29:34.000Z</time>
      </trkpt>
      <trkpt lat="46.13116" lon="6.08241">
        <ele>450.60000610352</ele>
        <time>2012-11-12T15:29:38.000Z</time>
      </trkpt>
      <trkpt lat="46.13117" lon="6.08234">
        <ele>450.60000610352</ele>
        <time>2012-11-12T15:29:40.000Z</time>
      </trkpt>
    </trkseg>
  </trk>
</gpx>